<?xml version="1.0" encoding="UTF-8" standalone="no" ?>
<gpx xmlns="http://www.topografix.com/GPX/1/1" xmlns:xsi="http://www.w3.org/2001/XMLSchema-instance" xsi:schemaLocation="http://www.topografix.com/GPX/1/1 http://www.topografix.com/GPX/1/1/gpx.xsd" version="1.1" creator="VisuGPX - https://www.visugpx.com">
  <metadata>
    <name>Tour du Vercors en vélo</name>
    <desc><![CDATA[Tour du Vercors en vélo]]></desc>
  </metadata>
  <trk>
    <name><![CDATA[Tour du Vercors en vélo_1]]></name>
    <trkseg>
      <trkpt lat="45.20118" lon="5.5706">
        <ele>1116</ele>
        <time>2019-07-11T16:31:05Z</time>
      </trkpt>
      <trkpt lat="45.20118" lon="5.5706">
        <ele>1116</ele>
        <time>2019-07-11T16:31:05Z</time>
      </trkpt>
      <trkpt lat="45.20118" lon="5.5706">
        <ele>1116</ele>
        <time>2019-07-11T16:31:05Z</time>
      </trkpt>
      <trkpt lat="45.20118" lon="5.5706">
        <ele>1116</ele>
        <time>2019-07-11T16:31:05Z</time>
      </trkpt>
      <trkpt lat="45.20118" lon="5.5706">
        <ele>1116</ele>
        <time>2019-07-11T16:31:05Z</time>
      </trkpt>
      <trkpt lat="45.20118" lon="5.5706">
        <ele>1116</ele>
        <time>2019-07-11T16:31:15Z</time>
      </trkpt>
      <trkpt lat="45.20169" lon="5.57087">
        <ele>1118</ele>
        <time>2019-07-11T16:31:24Z</time>
      </trkpt>
      <trkpt lat="45.20219" lon="5.57109">
        <ele>1121</ele>
        <time>2019-07-11T16:31:39Z</time>
      </trkpt>
      <trkpt lat="45.203" lon="5.57133">
        <ele>1124</ele>
        <time>2019-07-11T16:31:43Z</time>
      </trkpt>
      <trkpt lat="45.20322" lon="5.57146">
        <ele>1123</ele>
        <time>2019-07-11T16:31:58Z</time>
      </trkpt>
      <trkpt lat="45.20393" lon="5.57204">
        <ele>1127</ele>
        <time>2019-07-11T16:32:07Z</time>
      </trkpt>
      <trkpt lat="45.20443" lon="5.57238">
        <ele>1128</ele>
        <time>2019-07-11T16:32:19Z</time>
      </trkpt>
      <trkpt lat="45.20503" lon="5.57267">
        <ele>1127</ele>
        <time>2019-07-11T16:33:00Z</time>
      </trkpt>
      <trkpt lat="45.20721" lon="5.57382">
        <ele>1140</ele>
        <time>2019-07-11T16:33:16Z</time>
      </trkpt>
      <trkpt lat="45.20804" lon="5.57421">
        <ele>1141</ele>
        <time>2019-07-11T16:33:41Z</time>
      </trkpt>
      <trkpt lat="45.20938" lon="5.57489">
        <ele>1148</ele>
        <time>2019-07-11T16:33:47Z</time>
      </trkpt>
      <trkpt lat="45.20972" lon="5.57502">
        <ele>1149</ele>
        <time>2019-07-11T16:34:11Z</time>
      </trkpt>
      <trkpt lat="45.21104" lon="5.57537">
        <ele>1161</ele>
        <time>2019-07-11T16:34:22Z</time>
      </trkpt>
      <trkpt lat="45.21166" lon="5.57552">
        <ele>1163</ele>
        <time>2019-07-11T16:34:34Z</time>
      </trkpt>
      <trkpt lat="45.2123" lon="5.57571">
        <ele>1170</ele>
        <time>2019-07-11T16:35:14Z</time>
      </trkpt>
      <trkpt lat="45.21447" lon="5.57666">
        <ele>1182</ele>
        <time>2019-07-11T16:35:21Z</time>
      </trkpt>
      <trkpt lat="45.21483" lon="5.57684">
        <ele>1185</ele>
        <time>2019-07-11T16:35:31Z</time>
      </trkpt>
      <trkpt lat="45.21532" lon="5.57722">
        <ele>1189</ele>
        <time>2019-07-11T16:35:35Z</time>
      </trkpt>
      <trkpt lat="45.21551" lon="5.57732">
        <ele>1190</ele>
        <time>2019-07-11T16:36:19Z</time>
      </trkpt>
      <trkpt lat="45.21789" lon="5.57847">
        <ele>1209</ele>
        <time>2019-07-11T16:36:29Z</time>
      </trkpt>
      <trkpt lat="45.21839" lon="5.57865">
        <ele>1211</ele>
        <time>2019-07-11T16:36:44Z</time>
      </trkpt>
      <trkpt lat="45.21922" lon="5.57887">
        <ele>1218</ele>
        <time>2019-07-11T16:36:59Z</time>
      </trkpt>
      <trkpt lat="45.22007" lon="5.57917">
        <ele>1222</ele>
        <time>2019-07-11T16:37:06Z</time>
      </trkpt>
      <trkpt lat="45.22043" lon="5.57933">
        <ele>1227</ele>
        <time>2019-07-11T16:37:11Z</time>
      </trkpt>
      <trkpt lat="45.22073" lon="5.57939">
        <ele>1230</ele>
        <time>2019-07-11T16:37:27Z</time>
      </trkpt>
      <trkpt lat="45.22161" lon="5.57945">
        <ele>1239</ele>
        <time>2019-07-11T16:37:40Z</time>
      </trkpt>
      <trkpt lat="45.22231" lon="5.57959">
        <ele>1243</ele>
        <time>2019-07-11T16:38:14Z</time>
      </trkpt>
      <trkpt lat="45.22423" lon="5.58007">
        <ele>1253</ele>
        <time>2019-07-11T16:38:24Z</time>
      </trkpt>
      <trkpt lat="45.22476" lon="5.58034">
        <ele>1261</ele>
        <time>2019-07-11T16:38:30Z</time>
      </trkpt>
      <trkpt lat="45.22505" lon="5.58044">
        <ele>1265</ele>
        <time>2019-07-11T16:38:33Z</time>
      </trkpt>
      <trkpt lat="45.22524" lon="5.58045">
        <ele>1266</ele>
        <time>2019-07-11T16:38:41Z</time>
      </trkpt>
      <trkpt lat="45.2257" lon="5.58038">
        <ele>1271</ele>
        <time>2019-07-11T16:38:44Z</time>
      </trkpt>
      <trkpt lat="45.22585" lon="5.58041">
        <ele>1272</ele>
        <time>2019-07-11T16:38:50Z</time>
      </trkpt>
      <trkpt lat="45.2262" lon="5.58052">
        <ele>1274</ele>
        <time>2019-07-11T16:38:54Z</time>
      </trkpt>
      <trkpt lat="45.22641" lon="5.58055">
        <ele>1275</ele>
        <time>2019-07-11T16:39:03Z</time>
      </trkpt>
      <trkpt lat="45.22691" lon="5.5804">
        <ele>1282</ele>
        <time>2019-07-11T16:39:07Z</time>
      </trkpt>
      <trkpt lat="45.22713" lon="5.58041">
        <ele>1286</ele>
        <time>2019-07-11T16:39:20Z</time>
      </trkpt>
      <trkpt lat="45.22787" lon="5.58059">
        <ele>1294</ele>
        <time>2019-07-11T16:39:28Z</time>
      </trkpt>
      <trkpt lat="45.2283" lon="5.58058">
        <ele>1301</ele>
        <time>2019-07-11T16:39:31Z</time>
      </trkpt>
      <trkpt lat="45.22844" lon="5.58059">
        <ele>1304</ele>
        <time>2019-07-11T16:39:33Z</time>
      </trkpt>
      <trkpt lat="45.22859" lon="5.58063">
        <ele>1305</ele>
        <time>2019-07-11T16:39:37Z</time>
      </trkpt>
      <trkpt lat="45.22875" lon="5.58075">
        <ele>1304</ele>
        <time>2019-07-11T16:39:40Z</time>
      </trkpt>
      <trkpt lat="45.22885" lon="5.58102">
        <ele>1302</ele>
        <time>2019-07-11T16:39:46Z</time>
      </trkpt>
      <trkpt lat="45.22904" lon="5.58134">
        <ele>1302</ele>
        <time>2019-07-11T16:39:52Z</time>
      </trkpt>
      <trkpt lat="45.22931" lon="5.58163">
        <ele>1301</ele>
        <time>2019-07-11T16:39:56Z</time>
      </trkpt>
      <trkpt lat="45.2295" lon="5.58179">
        <ele>1305</ele>
        <time>2019-07-11T16:39:57Z</time>
      </trkpt>
      <trkpt lat="45.22959" lon="5.58183">
        <ele>1306</ele>
        <time>2019-07-11T16:40:02Z</time>
      </trkpt>
      <trkpt lat="45.22983" lon="5.5818">
        <ele>1307</ele>
        <time>2019-07-11T16:40:03Z</time>
      </trkpt>
      <trkpt lat="45.2299" lon="5.58181">
        <ele>1307</ele>
        <time>2019-07-11T16:40:09Z</time>
      </trkpt>
      <trkpt lat="45.23027" lon="5.58172">
        <ele>1310</ele>
        <time>2019-07-11T16:40:12Z</time>
      </trkpt>
      <trkpt lat="45.23041" lon="5.58175">
        <ele>1313</ele>
        <time>2019-07-11T16:40:13Z</time>
      </trkpt>
      <trkpt lat="45.23048" lon="5.58182">
        <ele>1314</ele>
        <time>2019-07-11T16:40:16Z</time>
      </trkpt>
      <trkpt lat="45.23056" lon="5.58198">
        <ele>1318</ele>
        <time>2019-07-11T16:40:19Z</time>
      </trkpt>
      <trkpt lat="45.23058" lon="5.58219">
        <ele>1321</ele>
        <time>2019-07-11T16:40:21Z</time>
      </trkpt>
      <trkpt lat="45.23056" lon="5.58237">
        <ele>1323</ele>
        <time>2019-07-11T16:40:22Z</time>
      </trkpt>
      <trkpt lat="45.23053" lon="5.58249">
        <ele>1324</ele>
        <time>2019-07-11T16:40:23Z</time>
      </trkpt>
      <trkpt lat="45.2305" lon="5.58256">
        <ele>1325</ele>
        <time>2019-07-11T16:40:26Z</time>
      </trkpt>
      <trkpt lat="45.23037" lon="5.58267">
        <ele>1324</ele>
        <time>2019-07-11T16:40:29Z</time>
      </trkpt>
      <trkpt lat="45.23023" lon="5.5827">
        <ele>1322</ele>
        <time>2019-07-11T16:40:35Z</time>
      </trkpt>
      <trkpt lat="45.22986" lon="5.58263">
        <ele>1318</ele>
        <time>2019-07-11T16:40:38Z</time>
      </trkpt>
      <trkpt lat="45.2297" lon="5.58265">
        <ele>1319</ele>
        <time>2019-07-11T16:40:40Z</time>
      </trkpt>
      <trkpt lat="45.22963" lon="5.58268">
        <ele>1320</ele>
        <time>2019-07-11T16:40:42Z</time>
      </trkpt>
      <trkpt lat="45.22957" lon="5.58286">
        <ele>1323</ele>
        <time>2019-07-11T16:40:43Z</time>
      </trkpt>
      <trkpt lat="45.22956" lon="5.58296">
        <ele>1324</ele>
        <time>2019-07-11T16:40:45Z</time>
      </trkpt>
      <trkpt lat="45.22958" lon="5.58311">
        <ele>1327</ele>
        <time>2019-07-11T16:40:48Z</time>
      </trkpt>
      <trkpt lat="45.22968" lon="5.58325">
        <ele>1329</ele>
        <time>2019-07-11T16:40:55Z</time>
      </trkpt>
      <trkpt lat="45.23003" lon="5.58357">
        <ele>1337</ele>
        <time>2019-07-11T16:40:58Z</time>
      </trkpt>
      <trkpt lat="45.23018" lon="5.58366">
        <ele>1340</ele>
        <time>2019-07-11T16:41:02Z</time>
      </trkpt>
      <trkpt lat="45.23039" lon="5.58371">
        <ele>1343</ele>
        <time>2019-07-11T16:41:04Z</time>
      </trkpt>
      <trkpt lat="45.23054" lon="5.58367">
        <ele>1343</ele>
        <time>2019-07-11T16:41:11Z</time>
      </trkpt>
      <trkpt lat="45.23091" lon="5.58348">
        <ele>1341</ele>
        <time>2019-07-11T16:41:32Z</time>
      </trkpt>
      <trkpt lat="45.23195" lon="5.58282">
        <ele>1349</ele>
        <time>2019-07-11T16:41:35Z</time>
      </trkpt>
      <trkpt lat="45.23214" lon="5.58273">
        <ele>1350</ele>
        <time>2019-07-11T16:41:38Z</time>
      </trkpt>
      <trkpt lat="45.23227" lon="5.58272">
        <ele>1352</ele>
        <time>2019-07-11T16:41:40Z</time>
      </trkpt>
      <trkpt lat="45.23238" lon="5.58274">
        <ele>1353</ele>
        <time>2019-07-11T16:41:42Z</time>
      </trkpt>
      <trkpt lat="45.23249" lon="5.58279">
        <ele>1355</ele>
        <time>2019-07-11T16:41:45Z</time>
      </trkpt>
      <trkpt lat="45.23265" lon="5.58291">
        <ele>1357</ele>
        <time>2019-07-11T16:42:00Z</time>
      </trkpt>
      <trkpt lat="45.23335" lon="5.58355">
        <ele>1362</ele>
        <time>2019-07-11T16:42:05Z</time>
      </trkpt>
      <trkpt lat="45.2336" lon="5.58384">
        <ele>1366</ele>
        <time>2019-07-11T16:42:09Z</time>
      </trkpt>
      <trkpt lat="45.2338" lon="5.58397">
        <ele>1369</ele>
        <time>2019-07-11T16:42:12Z</time>
      </trkpt>
      <trkpt lat="45.23397" lon="5.58398">
        <ele>1369</ele>
        <time>2019-07-11T16:42:22Z</time>
      </trkpt>
      <trkpt lat="45.2345" lon="5.58379">
        <ele>1372</ele>
        <time>2019-07-11T16:42:31Z</time>
      </trkpt>
      <trkpt lat="45.235" lon="5.58364">
        <ele>1378</ele>
        <time>2019-07-11T16:42:45Z</time>
      </trkpt>
      <trkpt lat="45.23572" lon="5.58326">
        <ele>1383</ele>
        <time>2019-07-11T16:42:50Z</time>
      </trkpt>
      <trkpt lat="45.23599" lon="5.58308">
        <ele>1386</ele>
        <time>2019-07-11T16:42:58Z</time>
      </trkpt>
      <trkpt lat="45.23635" lon="5.58274">
        <ele>1388</ele>
        <time>2019-07-11T16:43:08Z</time>
      </trkpt>
      <trkpt lat="45.2368" lon="5.58228">
        <ele>1394</ele>
        <time>2019-07-11T16:43:14Z</time>
      </trkpt>
      <trkpt lat="45.23705" lon="5.58189">
        <ele>1397</ele>
        <time>2019-07-11T16:43:19Z</time>
      </trkpt>
      <trkpt lat="45.23728" lon="5.58165">
        <ele>1398</ele>
        <time>2019-07-11T16:43:31Z</time>
      </trkpt>
      <trkpt lat="45.23784" lon="5.58114">
        <ele>1413</ele>
        <time>2019-07-11T16:43:34Z</time>
      </trkpt>
      <trkpt lat="45.238" lon="5.58103">
        <ele>1416</ele>
        <time>2019-07-11T16:43:39Z</time>
      </trkpt>
      <trkpt lat="45.23826" lon="5.58093">
        <ele>1419</ele>
        <time>2019-07-11T16:43:42Z</time>
      </trkpt>
      <trkpt lat="45.23844" lon="5.58091">
        <ele>1422</ele>
        <time>2019-07-11T16:43:44Z</time>
      </trkpt>
      <trkpt lat="45.23853" lon="5.58095">
        <ele>1424</ele>
        <time>2019-07-11T16:43:46Z</time>
      </trkpt>
      <trkpt lat="45.23864" lon="5.58104">
        <ele>1425</ele>
        <time>2019-07-11T16:43:49Z</time>
      </trkpt>
      <trkpt lat="45.23875" lon="5.58122">
        <ele>1426</ele>
        <time>2019-07-11T16:43:54Z</time>
      </trkpt>
      <trkpt lat="45.23889" lon="5.58153">
        <ele>1426</ele>
        <time>2019-07-11T16:43:57Z</time>
      </trkpt>
      <trkpt lat="45.23894" lon="5.58174">
        <ele>1426</ele>
        <time>2019-07-11T16:43:59Z</time>
      </trkpt>
      <trkpt lat="45.23892" lon="5.58195">
        <ele>1426</ele>
        <time>2019-07-11T16:44:14Z</time>
      </trkpt>
      <trkpt lat="45.23859" lon="5.58299">
        <ele>1423</ele>
        <time>2019-07-11T16:44:21Z</time>
      </trkpt>
      <trkpt lat="45.23839" lon="5.5835">
        <ele>1425</ele>
        <time>2019-07-11T16:44:24Z</time>
      </trkpt>
      <trkpt lat="45.2383" lon="5.5837">
        <ele>1428</ele>
        <time>2019-07-11T16:44:26Z</time>
      </trkpt>
      <trkpt lat="45.23823" lon="5.58378">
        <ele>1430</ele>
        <time>2019-07-11T16:44:28Z</time>
      </trkpt>
      <trkpt lat="45.23807" lon="5.58383">
        <ele>1430</ele>
        <time>2019-07-11T16:44:36Z</time>
      </trkpt>
      <trkpt lat="45.23764" lon="5.58373">
        <ele>1427</ele>
        <time>2019-07-11T16:44:39Z</time>
      </trkpt>
      <trkpt lat="45.23751" lon="5.58379">
        <ele>1428</ele>
        <time>2019-07-11T16:44:42Z</time>
      </trkpt>
      <trkpt lat="45.23735" lon="5.58395">
        <ele>1428</ele>
        <time>2019-07-11T16:44:53Z</time>
      </trkpt>
      <trkpt lat="45.23689" lon="5.58451">
        <ele>1433</ele>
        <time>2019-07-11T16:44:58Z</time>
      </trkpt>
      <trkpt lat="45.23673" lon="5.58484">
        <ele>1438</ele>
        <time>2019-07-11T16:45:20Z</time>
      </trkpt>
      <trkpt lat="45.23574" lon="5.5859">
        <ele>1443</ele>
        <time>2019-07-11T16:45:25Z</time>
      </trkpt>
      <trkpt lat="45.23552" lon="5.58619">
        <ele>1441</ele>
        <time>2019-07-11T16:45:34Z</time>
      </trkpt>
      <trkpt lat="45.23521" lon="5.58676">
        <ele>1442</ele>
        <time>2019-07-11T16:45:36Z</time>
      </trkpt>
      <trkpt lat="45.23518" lon="5.58689">
        <ele>1444</ele>
        <time>2019-07-11T16:45:37Z</time>
      </trkpt>
      <trkpt lat="45.23517" lon="5.58697">
        <ele>1445</ele>
        <time>2019-07-11T16:45:44Z</time>
      </trkpt>
      <trkpt lat="45.23523" lon="5.58752">
        <ele>1457</ele>
        <time>2019-07-11T16:45:45Z</time>
      </trkpt>
      <trkpt lat="45.23522" lon="5.58758">
        <ele>1457</ele>
        <time>2019-07-11T16:45:47Z</time>
      </trkpt>
      <trkpt lat="45.23514" lon="5.58773">
        <ele>1458</ele>
        <time>2019-07-11T16:45:48Z</time>
      </trkpt>
      <trkpt lat="45.23509" lon="5.58777">
        <ele>1458</ele>
        <time>2019-07-11T16:45:52Z</time>
      </trkpt>
      <trkpt lat="45.23489" lon="5.58786">
        <ele>1458</ele>
        <time>2019-07-11T16:45:57Z</time>
      </trkpt>
      <trkpt lat="45.23463" lon="5.5879">
        <ele>1459</ele>
        <time>2019-07-11T16:46:04Z</time>
      </trkpt>
      <trkpt lat="45.23423" lon="5.5878">
        <ele>1457</ele>
        <time>2019-07-11T16:46:11Z</time>
      </trkpt>
      <trkpt lat="45.23385" lon="5.58781">
        <ele>1460</ele>
        <time>2019-07-11T16:46:13Z</time>
      </trkpt>
      <trkpt lat="45.23372" lon="5.58775">
        <ele>1460</ele>
        <time>2019-07-11T16:46:16Z</time>
      </trkpt>
      <trkpt lat="45.23358" lon="5.58758">
        <ele>1456</ele>
        <time>2019-07-11T16:46:18Z</time>
      </trkpt>
      <trkpt lat="45.23349" lon="5.58751">
        <ele>1454</ele>
        <time>2019-07-11T16:46:21Z</time>
      </trkpt>
      <trkpt lat="45.23334" lon="5.58749">
        <ele>1455</ele>
        <time>2019-07-11T16:46:25Z</time>
      </trkpt>
      <trkpt lat="45.23311" lon="5.58753">
        <ele>1455</ele>
        <time>2019-07-11T16:46:29Z</time>
      </trkpt>
      <trkpt lat="45.23291" lon="5.58746">
        <ele>1452</ele>
        <time>2019-07-11T16:46:31Z</time>
      </trkpt>
      <trkpt lat="45.23279" lon="5.58744">
        <ele>1451</ele>
        <time>2019-07-11T16:46:33Z</time>
      </trkpt>
      <trkpt lat="45.23268" lon="5.58748">
        <ele>1452</ele>
        <time>2019-07-11T16:46:38Z</time>
      </trkpt>
      <trkpt lat="45.23248" lon="5.58774">
        <ele>1460</ele>
        <time>2019-07-11T16:46:39Z</time>
      </trkpt>
      <trkpt lat="45.2324" lon="5.58779">
        <ele>1461</ele>
        <time>2019-07-11T16:46:41Z</time>
      </trkpt>
      <trkpt lat="45.23231" lon="5.5878">
        <ele>1461</ele>
        <time>2019-07-11T16:46:44Z</time>
      </trkpt>
      <trkpt lat="45.23211" lon="5.58773">
        <ele>1458</ele>
        <time>2019-07-11T16:46:47Z</time>
      </trkpt>
      <trkpt lat="45.23199" lon="5.58773">
        <ele>1457</ele>
        <time>2019-07-11T16:46:49Z</time>
      </trkpt>
      <trkpt lat="45.23187" lon="5.58777">
        <ele>1458</ele>
        <time>2019-07-11T16:46:54Z</time>
      </trkpt>
      <trkpt lat="45.23162" lon="5.58793">
        <ele>1461</ele>
        <time>2019-07-11T16:46:55Z</time>
      </trkpt>
      <trkpt lat="45.23152" lon="5.58795">
        <ele>1462</ele>
        <time>2019-07-11T16:46:57Z</time>
      </trkpt>
      <trkpt lat="45.23143" lon="5.58794">
        <ele>1462</ele>
        <time>2019-07-11T16:46:59Z</time>
      </trkpt>
      <trkpt lat="45.23133" lon="5.5879">
        <ele>1460</ele>
        <time>2019-07-11T16:47:02Z</time>
      </trkpt>
      <trkpt lat="45.23116" lon="5.58789">
        <ele>1460</ele>
        <time>2019-07-11T16:47:06Z</time>
      </trkpt>
      <trkpt lat="45.23095" lon="5.58793">
        <ele>1461</ele>
        <time>2019-07-11T16:47:12Z</time>
      </trkpt>
      <trkpt lat="45.23061" lon="5.58803">
        <ele>1464</ele>
        <time>2019-07-11T16:47:17Z</time>
      </trkpt>
      <trkpt lat="45.23033" lon="5.588">
        <ele>1462</ele>
        <time>2019-07-11T16:47:21Z</time>
      </trkpt>
      <trkpt lat="45.23009" lon="5.58803">
        <ele>1462</ele>
        <time>2019-07-11T16:47:34Z</time>
      </trkpt>
      <trkpt lat="45.22938" lon="5.58825">
        <ele>1464</ele>
        <time>2019-07-11T16:47:51Z</time>
      </trkpt>
      <trkpt lat="45.22846" lon="5.58858">
        <ele>1468</ele>
        <time>2019-07-11T16:47:58Z</time>
      </trkpt>
      <trkpt lat="45.22807" lon="5.58866">
        <ele>1472</ele>
        <time>2019-07-11T16:48:06Z</time>
      </trkpt>
      <trkpt lat="45.22761" lon="5.58869">
        <ele>1478</ele>
        <time>2019-07-11T16:48:10Z</time>
      </trkpt>
      <trkpt lat="45.22742" lon="5.58864">
        <ele>1480</ele>
        <time>2019-07-11T16:48:13Z</time>
      </trkpt>
      <trkpt lat="45.22723" lon="5.58854">
        <ele>1483</ele>
        <time>2019-07-11T16:48:15Z</time>
      </trkpt>
      <trkpt lat="45.22714" lon="5.58846">
        <ele>1484</ele>
        <time>2019-07-11T16:48:17Z</time>
      </trkpt>
      <trkpt lat="45.22708" lon="5.58837">
        <ele>1485</ele>
        <time>2019-07-11T16:48:22Z</time>
      </trkpt>
      <trkpt lat="45.22696" lon="5.58795">
        <ele>1482</ele>
        <time>2019-07-11T16:48:27Z</time>
      </trkpt>
      <trkpt lat="45.22675" lon="5.58768">
        <ele>1484</ele>
        <time>2019-07-11T16:48:35Z</time>
      </trkpt>
      <trkpt lat="45.22651" lon="5.58718">
        <ele>1478</ele>
        <time>2019-07-11T16:48:36Z</time>
      </trkpt>
      <trkpt lat="45.22644" lon="5.58711">
        <ele>1477</ele>
        <time>2019-07-11T16:48:38Z</time>
      </trkpt>
      <trkpt lat="45.22636" lon="5.58706">
        <ele>1476</ele>
        <time>2019-07-11T16:48:41Z</time>
      </trkpt>
      <trkpt lat="45.22617" lon="5.58701">
        <ele>1477</ele>
        <time>2019-07-11T16:48:48Z</time>
      </trkpt>
      <trkpt lat="45.22579" lon="5.587">
        <ele>1479</ele>
        <time>2019-07-11T16:48:52Z</time>
      </trkpt>
      <trkpt lat="45.22561" lon="5.58707">
        <ele>1478</ele>
        <time>2019-07-11T16:48:54Z</time>
      </trkpt>
      <trkpt lat="45.22549" lon="5.58719">
        <ele>1480</ele>
        <time>2019-07-11T16:49:01Z</time>
      </trkpt>
      <trkpt lat="45.22523" lon="5.58758">
        <ele>1485</ele>
        <time>2019-07-11T16:49:05Z</time>
      </trkpt>
      <trkpt lat="45.22501" lon="5.58776">
        <ele>1485</ele>
        <time>2019-07-11T16:49:10Z</time>
      </trkpt>
      <trkpt lat="45.22476" lon="5.58786">
        <ele>1488</ele>
        <time>2019-07-11T16:49:15Z</time>
      </trkpt>
      <trkpt lat="45.2245" lon="5.58798">
        <ele>1492</ele>
        <time>2019-07-11T16:49:18Z</time>
      </trkpt>
      <trkpt lat="45.22433" lon="5.588">
        <ele>1492</ele>
        <time>2019-07-11T16:49:21Z</time>
      </trkpt>
      <trkpt lat="45.22417" lon="5.58796">
        <ele>1491</ele>
        <time>2019-07-11T16:49:25Z</time>
      </trkpt>
      <trkpt lat="45.22396" lon="5.58782">
        <ele>1495</ele>
        <time>2019-07-11T16:49:29Z</time>
      </trkpt>
      <trkpt lat="45.22379" lon="5.58765">
        <ele>1497</ele>
        <time>2019-07-11T16:49:35Z</time>
      </trkpt>
      <trkpt lat="45.22352" lon="5.58731">
        <ele>1495</ele>
        <time>2019-07-11T16:49:37Z</time>
      </trkpt>
      <trkpt lat="45.22343" lon="5.58723">
        <ele>1495</ele>
        <time>2019-07-11T16:49:39Z</time>
      </trkpt>
      <trkpt lat="45.22334" lon="5.58717">
        <ele>1496</ele>
        <time>2019-07-11T16:49:43Z</time>
      </trkpt>
      <trkpt lat="45.22312" lon="5.58709">
        <ele>1495</ele>
        <time>2019-07-11T16:49:52Z</time>
      </trkpt>
      <trkpt lat="45.2226" lon="5.58703">
        <ele>1499</ele>
        <time>2019-07-11T16:50:06Z</time>
      </trkpt>
      <trkpt lat="45.22181" lon="5.58709">
        <ele>1506</ele>
        <time>2019-07-11T16:50:11Z</time>
      </trkpt>
      <trkpt lat="45.22155" lon="5.58708">
        <ele>1507</ele>
        <time>2019-07-11T16:50:18Z</time>
      </trkpt>
      <trkpt lat="45.22115" lon="5.58699">
        <ele>1508</ele>
        <time>2019-07-11T16:50:29Z</time>
      </trkpt>
      <trkpt lat="45.22055" lon="5.5868">
        <ele>1500</ele>
        <time>2019-07-11T16:50:33Z</time>
      </trkpt>
      <trkpt lat="45.22032" lon="5.58676">
        <ele>1496</ele>
        <time>2019-07-11T16:50:35Z</time>
      </trkpt>
      <trkpt lat="45.22021" lon="5.5868">
        <ele>1496</ele>
        <time>2019-07-11T16:50:36Z</time>
      </trkpt>
      <trkpt lat="45.22017" lon="5.58684">
        <ele>1497</ele>
        <time>2019-07-11T16:50:46Z</time>
      </trkpt>
      <trkpt lat="45.21981" lon="5.58744">
        <ele>1507</ele>
        <time>2019-07-11T16:50:53Z</time>
      </trkpt>
      <trkpt lat="45.21948" lon="5.58776">
        <ele>1502</ele>
        <time>2019-07-11T16:50:55Z</time>
      </trkpt>
      <trkpt lat="45.2194" lon="5.58789">
        <ele>1503</ele>
        <time>2019-07-11T16:50:57Z</time>
      </trkpt>
      <trkpt lat="45.21937" lon="5.588">
        <ele>1505</ele>
        <time>2019-07-11T16:50:58Z</time>
      </trkpt>
      <trkpt lat="45.21936" lon="5.5881">
        <ele>1507</ele>
        <time>2019-07-11T16:51:04Z</time>
      </trkpt>
      <trkpt lat="45.21943" lon="5.58861">
        <ele>1523</ele>
        <time>2019-07-11T16:51:05Z</time>
      </trkpt>
      <trkpt lat="45.21943" lon="5.5887">
        <ele>1525</ele>
        <time>2019-07-11T16:51:07Z</time>
      </trkpt>
      <trkpt lat="45.21939" lon="5.58883">
        <ele>1526</ele>
        <time>2019-07-11T16:51:09Z</time>
      </trkpt>
      <trkpt lat="45.21931" lon="5.58894">
        <ele>1525</ele>
        <time>2019-07-11T16:51:14Z</time>
      </trkpt>
      <trkpt lat="45.21907" lon="5.5891">
        <ele>1522</ele>
        <time>2019-07-11T16:51:18Z</time>
      </trkpt>
      <trkpt lat="45.21886" lon="5.58916">
        <ele>1522</ele>
        <time>2019-07-11T16:51:24Z</time>
      </trkpt>
      <trkpt lat="45.21851" lon="5.58913">
        <ele>1520</ele>
        <time>2019-07-11T16:51:28Z</time>
      </trkpt>
      <trkpt lat="45.2183" lon="5.58913">
        <ele>1520</ele>
        <time>2019-07-11T16:51:31Z</time>
      </trkpt>
      <trkpt lat="45.21814" lon="5.58906">
        <ele>1524</ele>
        <time>2019-07-11T16:51:35Z</time>
      </trkpt>
      <trkpt lat="45.21793" lon="5.58888">
        <ele>1526</ele>
        <time>2019-07-11T16:51:40Z</time>
      </trkpt>
      <trkpt lat="45.21765" lon="5.58876">
        <ele>1531</ele>
        <time>2019-07-11T16:51:42Z</time>
      </trkpt>
      <trkpt lat="45.21756" lon="5.58868">
        <ele>1531</ele>
        <time>2019-07-11T16:51:44Z</time>
      </trkpt>
      <trkpt lat="45.2175" lon="5.58858">
        <ele>1529</ele>
        <time>2019-07-11T16:51:47Z</time>
      </trkpt>
      <trkpt lat="45.21741" lon="5.58833">
        <ele>1525</ele>
        <time>2019-07-11T16:51:53Z</time>
      </trkpt>
      <trkpt lat="45.21733" lon="5.58793">
        <ele>1518</ele>
        <time>2019-07-11T16:51:54Z</time>
      </trkpt>
      <trkpt lat="45.2173" lon="5.58785">
        <ele>1518</ele>
        <time>2019-07-11T16:51:55Z</time>
      </trkpt>
      <trkpt lat="45.21725" lon="5.58779">
        <ele>1518</ele>
        <time>2019-07-11T16:51:57Z</time>
      </trkpt>
      <trkpt lat="45.21715" lon="5.58771">
        <ele>1521</ele>
        <time>2019-07-11T16:52:05Z</time>
      </trkpt>
      <trkpt lat="45.2167" lon="5.58751">
        <ele>1534</ele>
        <time>2019-07-11T16:52:13Z</time>
      </trkpt>
      <trkpt lat="45.21631" lon="5.5872">
        <ele>1531</ele>
        <time>2019-07-11T16:52:18Z</time>
      </trkpt>
      <trkpt lat="45.21604" lon="5.58706">
        <ele>1532</ele>
        <time>2019-07-11T16:52:31Z</time>
      </trkpt>
      <trkpt lat="45.21534" lon="5.58687">
        <ele>1536</ele>
        <time>2019-07-11T16:52:43Z</time>
      </trkpt>
      <trkpt lat="45.21467" lon="5.58677">
        <ele>1542</ele>
        <time>2019-07-11T16:52:53Z</time>
      </trkpt>
      <trkpt lat="45.21411" lon="5.58671">
        <ele>1549</ele>
        <time>2019-07-11T16:53:02Z</time>
      </trkpt>
      <trkpt lat="45.21361" lon="5.58648">
        <ele>1548</ele>
        <time>2019-07-11T16:53:07Z</time>
      </trkpt>
      <trkpt lat="45.21336" lon="5.58639">
        <ele>1548</ele>
        <time>2019-07-11T16:53:13Z</time>
      </trkpt>
      <trkpt lat="45.213" lon="5.58628">
        <ele>1546</ele>
        <time>2019-07-11T16:53:19Z</time>
      </trkpt>
      <trkpt lat="45.21269" lon="5.58622">
        <ele>1546</ele>
        <time>2019-07-11T16:53:25Z</time>
      </trkpt>
      <trkpt lat="45.21238" lon="5.58606">
        <ele>1542</ele>
        <time>2019-07-11T16:53:32Z</time>
      </trkpt>
      <trkpt lat="45.212" lon="5.58593">
        <ele>1544</ele>
        <time>2019-07-11T16:53:39Z</time>
      </trkpt>
      <trkpt lat="45.21161" lon="5.58572">
        <ele>1543</ele>
        <time>2019-07-11T16:53:45Z</time>
      </trkpt>
      <trkpt lat="45.21128" lon="5.58567">
        <ele>1548</ele>
        <time>2019-07-11T16:53:51Z</time>
      </trkpt>
      <trkpt lat="45.21096" lon="5.58546">
        <ele>1545</ele>
        <time>2019-07-11T16:53:55Z</time>
      </trkpt>
      <trkpt lat="45.21076" lon="5.58538">
        <ele>1545</ele>
        <time>2019-07-11T16:54:03Z</time>
      </trkpt>
      <trkpt lat="45.21034" lon="5.58525">
        <ele>1543</ele>
        <time>2019-07-11T16:54:16Z</time>
      </trkpt>
      <trkpt lat="45.2096" lon="5.58512">
        <ele>1547</ele>
        <time>2019-07-11T16:54:22Z</time>
      </trkpt>
      <trkpt lat="45.20927" lon="5.58492">
        <ele>1546</ele>
        <time>2019-07-11T16:54:26Z</time>
      </trkpt>
      <trkpt lat="45.20908" lon="5.58483">
        <ele>1544</ele>
        <time>2019-07-11T16:54:29Z</time>
      </trkpt>
      <trkpt lat="45.2089" lon="5.58478">
        <ele>1541</ele>
        <time>2019-07-11T16:54:31Z</time>
      </trkpt>
      <trkpt lat="45.20882" lon="5.58477">
        <ele>1540</ele>
        <time>2019-07-11T16:54:33Z</time>
      </trkpt>
      <trkpt lat="45.20867" lon="5.58481">
        <ele>1541</ele>
        <time>2019-07-11T16:54:37Z</time>
      </trkpt>
      <trkpt lat="45.20846" lon="5.58474">
        <ele>1538</ele>
        <time>2019-07-11T16:54:40Z</time>
      </trkpt>
      <trkpt lat="45.20833" lon="5.58474">
        <ele>1537</ele>
        <time>2019-07-11T16:54:41Z</time>
      </trkpt>
      <trkpt lat="45.20824" lon="5.58481">
        <ele>1539</ele>
        <time>2019-07-11T16:54:46Z</time>
      </trkpt>
      <trkpt lat="45.20807" lon="5.58505">
        <ele>1547</ele>
        <time>2019-07-11T16:54:48Z</time>
      </trkpt>
      <trkpt lat="45.20802" lon="5.58518">
        <ele>1549</ele>
        <time>2019-07-11T16:54:49Z</time>
      </trkpt>
      <trkpt lat="45.20797" lon="5.58526">
        <ele>1550</ele>
        <time>2019-07-11T16:54:50Z</time>
      </trkpt>
      <trkpt lat="45.20791" lon="5.58528">
        <ele>1550</ele>
        <time>2019-07-11T16:54:51Z</time>
      </trkpt>
      <trkpt lat="45.20784" lon="5.58526">
        <ele>1550</ele>
        <time>2019-07-11T16:54:59Z</time>
      </trkpt>
      <trkpt lat="45.20746" lon="5.58501">
        <ele>1543</ele>
        <time>2019-07-11T16:55:00Z</time>
      </trkpt>
      <trkpt lat="45.20739" lon="5.58499">
        <ele>1541</ele>
        <time>2019-07-11T16:55:01Z</time>
      </trkpt>
      <trkpt lat="45.20731" lon="5.58499">
        <ele>1539</ele>
        <time>2019-07-11T16:55:02Z</time>
      </trkpt>
      <trkpt lat="45.20727" lon="5.58501">
        <ele>1538</ele>
        <time>2019-07-11T16:55:07Z</time>
      </trkpt>
      <trkpt lat="45.20704" lon="5.58528">
        <ele>1539</ele>
        <time>2019-07-11T16:55:09Z</time>
      </trkpt>
      <trkpt lat="45.20697" lon="5.58539">
        <ele>1540</ele>
        <time>2019-07-11T16:55:17Z</time>
      </trkpt>
      <trkpt lat="45.20673" lon="5.5859">
        <ele>1547</ele>
        <time>2019-07-11T16:55:25Z</time>
      </trkpt>
      <trkpt lat="45.20639" lon="5.58631">
        <ele>1550</ele>
        <time>2019-07-11T16:55:32Z</time>
      </trkpt>
      <trkpt lat="45.20615" lon="5.58676">
        <ele>1554</ele>
        <time>2019-07-11T16:55:36Z</time>
      </trkpt>
      <trkpt lat="45.20599" lon="5.58693">
        <ele>1554</ele>
        <time>2019-07-11T16:55:37Z</time>
      </trkpt>
      <trkpt lat="45.20594" lon="5.58701">
        <ele>1554</ele>
        <time>2019-07-11T16:55:38Z</time>
      </trkpt>
      <trkpt lat="45.2059" lon="5.5871">
        <ele>1555</ele>
        <time>2019-07-11T16:55:43Z</time>
      </trkpt>
      <trkpt lat="45.20583" lon="5.58745">
        <ele>1558</ele>
        <time>2019-07-11T16:55:45Z</time>
      </trkpt>
      <trkpt lat="45.20577" lon="5.58758">
        <ele>1560</ele>
        <time>2019-07-11T16:55:48Z</time>
      </trkpt>
      <trkpt lat="45.20563" lon="5.58778">
        <ele>1562</ele>
        <time>2019-07-11T16:55:51Z</time>
      </trkpt>
      <trkpt lat="45.20552" lon="5.58787">
        <ele>1562</ele>
        <time>2019-07-11T16:55:52Z</time>
      </trkpt>
      <trkpt lat="45.20546" lon="5.5879">
        <ele>1562</ele>
        <time>2019-07-11T16:55:54Z</time>
      </trkpt>
      <trkpt lat="45.20531" lon="5.58793">
        <ele>1561</ele>
        <time>2019-07-11T16:56:02Z</time>
      </trkpt>
      <trkpt lat="45.20487" lon="5.58796">
        <ele>1559</ele>
        <time>2019-07-11T16:56:05Z</time>
      </trkpt>
      <trkpt lat="45.20472" lon="5.58806">
        <ele>1562</ele>
        <time>2019-07-11T16:56:06Z</time>
      </trkpt>
      <trkpt lat="45.20467" lon="5.58806">
        <ele>1562</ele>
        <time>2019-07-11T16:56:07Z</time>
      </trkpt>
      <trkpt lat="45.20461" lon="5.58804">
        <ele>1563</ele>
        <time>2019-07-11T16:56:08Z</time>
      </trkpt>
      <trkpt lat="45.20456" lon="5.588">
        <ele>1563</ele>
        <time>2019-07-11T16:56:09Z</time>
      </trkpt>
      <trkpt lat="45.20453" lon="5.58795">
        <ele>1563</ele>
        <time>2019-07-11T16:56:11Z</time>
      </trkpt>
      <trkpt lat="45.20452" lon="5.5878">
        <ele>1561</ele>
        <time>2019-07-11T16:56:13Z</time>
      </trkpt>
      <trkpt lat="45.20455" lon="5.58762">
        <ele>1559</ele>
        <time>2019-07-11T16:56:17Z</time>
      </trkpt>
      <trkpt lat="45.20466" lon="5.58732">
        <ele>1554</ele>
        <time>2019-07-11T16:56:20Z</time>
      </trkpt>
      <trkpt lat="45.20466" lon="5.58715">
        <ele>1552</ele>
        <time>2019-07-11T16:56:21Z</time>
      </trkpt>
      <trkpt lat="45.20464" lon="5.58707">
        <ele>1552</ele>
        <time>2019-07-11T16:56:22Z</time>
      </trkpt>
      <trkpt lat="45.20459" lon="5.58697">
        <ele>1552</ele>
        <time>2019-07-11T16:56:24Z</time>
      </trkpt>
      <trkpt lat="45.20453" lon="5.58688">
        <ele>1552</ele>
        <time>2019-07-11T16:56:29Z</time>
      </trkpt>
      <trkpt lat="45.20429" lon="5.58665">
        <ele>1554</ele>
        <time>2019-07-11T16:56:31Z</time>
      </trkpt>
      <trkpt lat="45.20419" lon="5.5866">
        <ele>1554</ele>
        <time>2019-07-11T16:56:32Z</time>
      </trkpt>
      <trkpt lat="45.20411" lon="5.58658">
        <ele>1555</ele>
        <time>2019-07-11T16:56:38Z</time>
      </trkpt>
      <trkpt lat="45.20378" lon="5.58654">
        <ele>1557</ele>
        <time>2019-07-11T16:56:45Z</time>
      </trkpt>
      <trkpt lat="45.20341" lon="5.58633">
        <ele>1554</ele>
        <time>2019-07-11T16:56:48Z</time>
      </trkpt>
      <trkpt lat="45.20328" lon="5.58629">
        <ele>1554</ele>
        <time>2019-07-11T16:56:57Z</time>
      </trkpt>
      <trkpt lat="45.20273" lon="5.58621">
        <ele>1556</ele>
        <time>2019-07-11T16:57:09Z</time>
      </trkpt>
      <trkpt lat="45.20209" lon="5.58615">
        <ele>1559</ele>
        <time>2019-07-11T16:57:11Z</time>
      </trkpt>
      <trkpt lat="45.20199" lon="5.58614">
        <ele>1559</ele>
        <time>2019-07-11T16:57:16Z</time>
      </trkpt>
      <trkpt lat="45.20169" lon="5.58622">
        <ele>1562</ele>
        <time>2019-07-11T16:57:19Z</time>
      </trkpt>
      <trkpt lat="45.20154" lon="5.58623">
        <ele>1566</ele>
        <time>2019-07-11T16:57:21Z</time>
      </trkpt>
      <trkpt lat="45.20143" lon="5.58616">
        <ele>1568</ele>
        <time>2019-07-11T16:57:24Z</time>
      </trkpt>
      <trkpt lat="45.20129" lon="5.58601">
        <ele>1570</ele>
        <time>2019-07-11T16:57:27Z</time>
      </trkpt>
      <trkpt lat="45.20117" lon="5.58579">
        <ele>1571</ele>
        <time>2019-07-11T16:57:29Z</time>
      </trkpt>
      <trkpt lat="45.20113" lon="5.58569">
        <ele>1571</ele>
        <time>2019-07-11T16:57:33Z</time>
      </trkpt>
      <trkpt lat="45.20105" lon="5.58536">
        <ele>1569</ele>
        <time>2019-07-11T16:57:36Z</time>
      </trkpt>
      <trkpt lat="45.20102" lon="5.58512">
        <ele>1567</ele>
        <time>2019-07-11T16:57:41Z</time>
      </trkpt>
      <trkpt lat="45.20102" lon="5.58477">
        <ele>1564</ele>
        <time>2019-07-11T16:57:53Z</time>
      </trkpt>
      <trkpt lat="45.20117" lon="5.58383">
        <ele>1553</ele>
        <time>2019-07-11T16:57:54Z</time>
      </trkpt>
      <trkpt lat="45.20115" lon="5.58375">
        <ele>1553</ele>
        <time>2019-07-11T16:57:55Z</time>
      </trkpt>
      <trkpt lat="45.2011" lon="5.58368">
        <ele>1554</ele>
        <time>2019-07-11T16:57:56Z</time>
      </trkpt>
      <trkpt lat="45.20103" lon="5.58364">
        <ele>1555</ele>
        <time>2019-07-11T16:57:58Z</time>
      </trkpt>
      <trkpt lat="45.20092" lon="5.58363">
        <ele>1558</ele>
        <time>2019-07-11T16:58:10Z</time>
      </trkpt>
      <trkpt lat="45.20027" lon="5.58365">
        <ele>1561</ele>
        <time>2019-07-11T16:58:17Z</time>
      </trkpt>
      <trkpt lat="45.19987" lon="5.58371">
        <ele>1557</ele>
        <time>2019-07-11T16:58:19Z</time>
      </trkpt>
      <trkpt lat="45.19977" lon="5.58377">
        <ele>1555</ele>
        <time>2019-07-11T16:58:20Z</time>
      </trkpt>
      <trkpt lat="45.19974" lon="5.58381">
        <ele>1554</ele>
        <time>2019-07-11T16:58:22Z</time>
      </trkpt>
      <trkpt lat="45.19967" lon="5.58393">
        <ele>1554</ele>
        <time>2019-07-11T16:58:23Z</time>
      </trkpt>
      <trkpt lat="45.19965" lon="5.58401">
        <ele>1554</ele>
        <time>2019-07-11T16:58:24Z</time>
      </trkpt>
      <trkpt lat="45.19965" lon="5.5841">
        <ele>1555</ele>
        <time>2019-07-11T16:58:30Z</time>
      </trkpt>
      <trkpt lat="45.19972" lon="5.5846">
        <ele>1562</ele>
        <time>2019-07-11T16:58:35Z</time>
      </trkpt>
      <trkpt lat="45.1997" lon="5.58496">
        <ele>1565</ele>
        <time>2019-07-11T16:58:38Z</time>
      </trkpt>
      <trkpt lat="45.19963" lon="5.58523">
        <ele>1567</ele>
        <time>2019-07-11T16:58:47Z</time>
      </trkpt>
      <trkpt lat="45.19942" lon="5.5858">
        <ele>1567</ele>
        <time>2019-07-11T16:58:48Z</time>
      </trkpt>
      <trkpt lat="45.19938" lon="5.58588">
        <ele>1567</ele>
        <time>2019-07-11T16:58:54Z</time>
      </trkpt>
      <trkpt lat="45.19908" lon="5.58619">
        <ele>1565</ele>
        <time>2019-07-11T16:58:57Z</time>
      </trkpt>
      <trkpt lat="45.19897" lon="5.58629">
        <ele>1565</ele>
        <time>2019-07-11T16:58:59Z</time>
      </trkpt>
      <trkpt lat="45.19885" lon="5.58636">
        <ele>1565</ele>
        <time>2019-07-11T16:59:07Z</time>
      </trkpt>
      <trkpt lat="45.1984" lon="5.58645">
        <ele>1560</ele>
        <time>2019-07-11T16:59:17Z</time>
      </trkpt>
      <trkpt lat="45.19785" lon="5.58663">
        <ele>1562</ele>
        <time>2019-07-11T16:59:21Z</time>
      </trkpt>
      <trkpt lat="45.19762" lon="5.5866">
        <ele>1561</ele>
        <time>2019-07-11T16:59:30Z</time>
      </trkpt>
      <trkpt lat="45.19714" lon="5.58641">
        <ele>1555</ele>
        <time>2019-07-11T16:59:37Z</time>
      </trkpt>
      <trkpt lat="45.19679" lon="5.58619">
        <ele>1550</ele>
        <time>2019-07-11T16:59:40Z</time>
      </trkpt>
      <trkpt lat="45.19664" lon="5.58612">
        <ele>1548</ele>
        <time>2019-07-11T16:59:42Z</time>
      </trkpt>
      <trkpt lat="45.1965" lon="5.58608">
        <ele>1547</ele>
        <time>2019-07-11T16:59:45Z</time>
      </trkpt>
      <trkpt lat="45.19635" lon="5.58608">
        <ele>1546</ele>
        <time>2019-07-11T16:59:55Z</time>
      </trkpt>
      <trkpt lat="45.19577" lon="5.58621">
        <ele>1546</ele>
        <time>2019-07-11T17:00:02Z</time>
      </trkpt>
      <trkpt lat="45.19544" lon="5.58638">
        <ele>1548</ele>
        <time>2019-07-11T17:00:04Z</time>
      </trkpt>
      <trkpt lat="45.19531" lon="5.58642">
        <ele>1548</ele>
        <time>2019-07-11T17:00:06Z</time>
      </trkpt>
      <trkpt lat="45.19522" lon="5.5864">
        <ele>1547</ele>
        <time>2019-07-11T17:00:09Z</time>
      </trkpt>
      <trkpt lat="45.19508" lon="5.58628">
        <ele>1544</ele>
        <time>2019-07-11T17:00:11Z</time>
      </trkpt>
      <trkpt lat="45.19495" lon="5.58621">
        <ele>1542</ele>
        <time>2019-07-11T17:00:14Z</time>
      </trkpt>
      <trkpt lat="45.19478" lon="5.58616">
        <ele>1539</ele>
        <time>2019-07-11T17:00:17Z</time>
      </trkpt>
      <trkpt lat="45.19464" lon="5.58616">
        <ele>1538</ele>
        <time>2019-07-11T17:00:20Z</time>
      </trkpt>
      <trkpt lat="45.19446" lon="5.58621">
        <ele>1537</ele>
        <time>2019-07-11T17:00:24Z</time>
      </trkpt>
      <trkpt lat="45.19422" lon="5.58634">
        <ele>1537</ele>
        <time>2019-07-11T17:00:27Z</time>
      </trkpt>
      <trkpt lat="45.19407" lon="5.58639">
        <ele>1537</ele>
        <time>2019-07-11T17:00:34Z</time>
      </trkpt>
      <trkpt lat="45.19366" lon="5.58641">
        <ele>1537</ele>
        <time>2019-07-11T17:00:36Z</time>
      </trkpt>
      <trkpt lat="45.19356" lon="5.58643">
        <ele>1537</ele>
        <time>2019-07-11T17:00:45Z</time>
      </trkpt>
      <trkpt lat="45.19311" lon="5.58668">
        <ele>1543</ele>
        <time>2019-07-11T17:00:48Z</time>
      </trkpt>
      <trkpt lat="45.19295" lon="5.58682">
        <ele>1547</ele>
        <time>2019-07-11T17:00:50Z</time>
      </trkpt>
      <trkpt lat="45.19285" lon="5.58682">
        <ele>1548</ele>
        <time>2019-07-11T17:00:51Z</time>
      </trkpt>
      <trkpt lat="45.1928" lon="5.58678">
        <ele>1548</ele>
        <time>2019-07-11T17:00:53Z</time>
      </trkpt>
      <trkpt lat="45.19272" lon="5.58668">
        <ele>1547</ele>
        <time>2019-07-11T17:00:59Z</time>
      </trkpt>
      <trkpt lat="45.19253" lon="5.5863">
        <ele>1544</ele>
        <time>2019-07-11T17:01:02Z</time>
      </trkpt>
      <trkpt lat="45.19241" lon="5.58613">
        <ele>1543</ele>
        <time>2019-07-11T17:01:10Z</time>
      </trkpt>
      <trkpt lat="45.19203" lon="5.5858">
        <ele>1544</ele>
        <time>2019-07-11T17:01:16Z</time>
      </trkpt>
      <trkpt lat="45.1918" lon="5.58546">
        <ele>1541</ele>
        <time>2019-07-11T17:01:19Z</time>
      </trkpt>
      <trkpt lat="45.19163" lon="5.58528">
        <ele>1540</ele>
        <time>2019-07-11T17:01:25Z</time>
      </trkpt>
      <trkpt lat="45.19133" lon="5.5851">
        <ele>1537</ele>
        <time>2019-07-11T17:01:31Z</time>
      </trkpt>
      <trkpt lat="45.191" lon="5.58504">
        <ele>1538</ele>
        <time>2019-07-11T17:01:34Z</time>
      </trkpt>
      <trkpt lat="45.19083" lon="5.58497">
        <ele>1538</ele>
        <time>2019-07-11T17:01:36Z</time>
      </trkpt>
      <trkpt lat="45.19074" lon="5.58492">
        <ele>1537</ele>
        <time>2019-07-11T17:01:47Z</time>
      </trkpt>
      <trkpt lat="45.19021" lon="5.5845">
        <ele>1533</ele>
        <time>2019-07-11T17:01:52Z</time>
      </trkpt>
      <trkpt lat="45.18994" lon="5.58441">
        <ele>1532</ele>
        <time>2019-07-11T17:01:59Z</time>
      </trkpt>
      <trkpt lat="45.18951" lon="5.5843">
        <ele>1527</ele>
        <time>2019-07-11T17:02:02Z</time>
      </trkpt>
      <trkpt lat="45.18938" lon="5.58429">
        <ele>1525</ele>
        <time>2019-07-11T17:02:05Z</time>
      </trkpt>
      <trkpt lat="45.1892" lon="5.58432">
        <ele>1524</ele>
        <time>2019-07-11T17:02:09Z</time>
      </trkpt>
      <trkpt lat="45.18895" lon="5.58431">
        <ele>1524</ele>
        <time>2019-07-11T17:02:13Z</time>
      </trkpt>
      <trkpt lat="45.18876" lon="5.58434">
        <ele>1526</ele>
        <time>2019-07-11T17:02:20Z</time>
      </trkpt>
      <trkpt lat="45.18837" lon="5.58447">
        <ele>1530</ele>
        <time>2019-07-11T17:02:22Z</time>
      </trkpt>
      <trkpt lat="45.18827" lon="5.58447">
        <ele>1531</ele>
        <time>2019-07-11T17:02:24Z</time>
      </trkpt>
      <trkpt lat="45.18817" lon="5.58442">
        <ele>1531</ele>
        <time>2019-07-11T17:02:28Z</time>
      </trkpt>
      <trkpt lat="45.18795" lon="5.58423">
        <ele>1529</ele>
        <time>2019-07-11T17:02:33Z</time>
      </trkpt>
      <trkpt lat="45.18773" lon="5.58406">
        <ele>1527</ele>
        <time>2019-07-11T17:02:41Z</time>
      </trkpt>
      <trkpt lat="45.18729" lon="5.58379">
        <ele>1527</ele>
        <time>2019-07-11T17:02:47Z</time>
      </trkpt>
      <trkpt lat="45.187" lon="5.58366">
        <ele>1530</ele>
        <time>2019-07-11T17:02:49Z</time>
      </trkpt>
      <trkpt lat="45.18686" lon="5.58358">
        <ele>1532</ele>
        <time>2019-07-11T17:02:53Z</time>
      </trkpt>
      <trkpt lat="45.18669" lon="5.58338">
        <ele>1533</ele>
        <time>2019-07-11T17:02:55Z</time>
      </trkpt>
      <trkpt lat="45.18664" lon="5.58329">
        <ele>1534</ele>
        <time>2019-07-11T17:02:57Z</time>
      </trkpt>
      <trkpt lat="45.18663" lon="5.58307">
        <ele>1533</ele>
        <time>2019-07-11T17:03:04Z</time>
      </trkpt>
      <trkpt lat="45.18664" lon="5.58257">
        <ele>1529</ele>
        <time>2019-07-11T17:03:09Z</time>
      </trkpt>
      <trkpt lat="45.18658" lon="5.58218">
        <ele>1528</ele>
        <time>2019-07-11T17:03:16Z</time>
      </trkpt>
      <trkpt lat="45.18646" lon="5.58162">
        <ele>1528</ele>
        <time>2019-07-11T17:03:31Z</time>
      </trkpt>
      <trkpt lat="45.18638" lon="5.58047">
        <ele>1509</ele>
        <time>2019-07-11T17:03:32Z</time>
      </trkpt>
      <trkpt lat="45.18636" lon="5.58037">
        <ele>1508</ele>
        <time>2019-07-11T17:03:34Z</time>
      </trkpt>
      <trkpt lat="45.18629" lon="5.58024">
        <ele>1508</ele>
        <time>2019-07-11T17:03:35Z</time>
      </trkpt>
      <trkpt lat="45.18622" lon="5.58017">
        <ele>1509</ele>
        <time>2019-07-11T17:03:39Z</time>
      </trkpt>
      <trkpt lat="45.18602" lon="5.58012">
        <ele>1514</ele>
        <time>2019-07-11T17:03:44Z</time>
      </trkpt>
      <trkpt lat="45.18573" lon="5.58017">
        <ele>1521</ele>
        <time>2019-07-11T17:03:49Z</time>
      </trkpt>
      <trkpt lat="45.18546" lon="5.58019">
        <ele>1522</ele>
        <time>2019-07-11T17:04:03Z</time>
      </trkpt>
      <trkpt lat="45.18467" lon="5.58009">
        <ele>1517</ele>
        <time>2019-07-11T17:04:06Z</time>
      </trkpt>
      <trkpt lat="45.1845" lon="5.58011">
        <ele>1517</ele>
        <time>2019-07-11T17:04:08Z</time>
      </trkpt>
      <trkpt lat="45.18439" lon="5.58019">
        <ele>1518</ele>
        <time>2019-07-11T17:04:13Z</time>
      </trkpt>
      <trkpt lat="45.18415" lon="5.58028">
        <ele>1519</ele>
        <time>2019-07-11T17:04:19Z</time>
      </trkpt>
      <trkpt lat="45.18381" lon="5.58029">
        <ele>1520</ele>
        <time>2019-07-11T17:04:24Z</time>
      </trkpt>
      <trkpt lat="45.18353" lon="5.58037">
        <ele>1522</ele>
        <time>2019-07-11T17:04:26Z</time>
      </trkpt>
      <trkpt lat="45.18342" lon="5.58034">
        <ele>1522</ele>
        <time>2019-07-11T17:04:30Z</time>
      </trkpt>
      <trkpt lat="45.18326" lon="5.58016">
        <ele>1522</ele>
        <time>2019-07-11T17:04:34Z</time>
      </trkpt>
      <trkpt lat="45.1831" lon="5.57986">
        <ele>1523</ele>
        <time>2019-07-11T17:04:42Z</time>
      </trkpt>
      <trkpt lat="45.1829" lon="5.57936">
        <ele>1523</ele>
        <time>2019-07-11T17:04:51Z</time>
      </trkpt>
      <trkpt lat="45.18265" lon="5.57871">
        <ele>1523</ele>
        <time>2019-07-11T17:04:57Z</time>
      </trkpt>
      <trkpt lat="45.1825" lon="5.57823">
        <ele>1521</ele>
        <time>2019-07-11T17:05:04Z</time>
      </trkpt>
      <trkpt lat="45.18235" lon="5.57771">
        <ele>1513</ele>
        <time>2019-07-11T17:05:07Z</time>
      </trkpt>
      <trkpt lat="45.18229" lon="5.57756">
        <ele>1510</ele>
        <time>2019-07-11T17:05:08Z</time>
      </trkpt>
      <trkpt lat="45.18221" lon="5.57749">
        <ele>1509</ele>
        <time>2019-07-11T17:05:10Z</time>
      </trkpt>
      <trkpt lat="45.18212" lon="5.57751">
        <ele>1510</ele>
        <time>2019-07-11T17:05:11Z</time>
      </trkpt>
      <trkpt lat="45.18205" lon="5.57757">
        <ele>1511</ele>
        <time>2019-07-11T17:05:14Z</time>
      </trkpt>
      <trkpt lat="45.18198" lon="5.57775">
        <ele>1513</ele>
        <time>2019-07-11T17:05:18Z</time>
      </trkpt>
      <trkpt lat="45.18181" lon="5.57801">
        <ele>1517</ele>
        <time>2019-07-11T17:05:24Z</time>
      </trkpt>
      <trkpt lat="45.18158" lon="5.5783">
        <ele>1522</ele>
        <time>2019-07-11T17:05:25Z</time>
      </trkpt>
      <trkpt lat="45.18151" lon="5.57836">
        <ele>1523</ele>
        <time>2019-07-11T17:05:27Z</time>
      </trkpt>
      <trkpt lat="45.18145" lon="5.57846">
        <ele>1525</ele>
        <time>2019-07-11T17:05:29Z</time>
      </trkpt>
      <trkpt lat="45.18141" lon="5.57864">
        <ele>1528</ele>
        <time>2019-07-11T17:05:32Z</time>
      </trkpt>
      <trkpt lat="45.18131" lon="5.57883">
        <ele>1532</ele>
        <time>2019-07-11T17:05:33Z</time>
      </trkpt>
      <trkpt lat="45.18126" lon="5.57886">
        <ele>1533</ele>
        <time>2019-07-11T17:05:35Z</time>
      </trkpt>
      <trkpt lat="45.18119" lon="5.57886">
        <ele>1533</ele>
        <time>2019-07-11T17:05:36Z</time>
      </trkpt>
      <trkpt lat="45.18111" lon="5.57877">
        <ele>1531</ele>
        <time>2019-07-11T17:05:39Z</time>
      </trkpt>
      <trkpt lat="45.18104" lon="5.57861">
        <ele>1529</ele>
        <time>2019-07-11T17:05:42Z</time>
      </trkpt>
      <trkpt lat="45.18101" lon="5.57839">
        <ele>1526</ele>
        <time>2019-07-11T17:05:44Z</time>
      </trkpt>
      <trkpt lat="45.181" lon="5.57823">
        <ele>1524</ele>
        <time>2019-07-11T17:05:47Z</time>
      </trkpt>
      <trkpt lat="45.18101" lon="5.57793">
        <ele>1520</ele>
        <time>2019-07-11T17:05:50Z</time>
      </trkpt>
      <trkpt lat="45.18104" lon="5.57768">
        <ele>1517</ele>
        <time>2019-07-11T17:05:54Z</time>
      </trkpt>
      <trkpt lat="45.18101" lon="5.57738">
        <ele>1513</ele>
        <time>2019-07-11T17:05:57Z</time>
      </trkpt>
      <trkpt lat="45.18092" lon="5.5772">
        <ele>1509</ele>
        <time>2019-07-11T17:06:00Z</time>
      </trkpt>
      <trkpt lat="45.18078" lon="5.57704">
        <ele>1507</ele>
        <time>2019-07-11T17:06:07Z</time>
      </trkpt>
      <trkpt lat="45.18042" lon="5.5768">
        <ele>1505</ele>
        <time>2019-07-11T17:06:11Z</time>
      </trkpt>
      <trkpt lat="45.18022" lon="5.57684">
        <ele>1508</ele>
        <time>2019-07-11T17:06:14Z</time>
      </trkpt>
      <trkpt lat="45.18008" lon="5.57697">
        <ele>1512</ele>
        <time>2019-07-11T17:06:16Z</time>
      </trkpt>
      <trkpt lat="45.17996" lon="5.57701">
        <ele>1515</ele>
        <time>2019-07-11T17:06:17Z</time>
      </trkpt>
      <trkpt lat="45.17989" lon="5.57697">
        <ele>1515</ele>
        <time>2019-07-11T17:06:19Z</time>
      </trkpt>
      <trkpt lat="45.17982" lon="5.57689">
        <ele>1514</ele>
        <time>2019-07-11T17:06:21Z</time>
      </trkpt>
      <trkpt lat="45.17978" lon="5.57677">
        <ele>1512</ele>
        <time>2019-07-11T17:06:28Z</time>
      </trkpt>
      <trkpt lat="45.17978" lon="5.57618">
        <ele>1496</ele>
        <time>2019-07-11T17:06:30Z</time>
      </trkpt>
      <trkpt lat="45.17975" lon="5.57603">
        <ele>1493</ele>
        <time>2019-07-11T17:06:31Z</time>
      </trkpt>
      <trkpt lat="45.17968" lon="5.57598">
        <ele>1491</ele>
        <time>2019-07-11T17:06:36Z</time>
      </trkpt>
      <trkpt lat="45.17942" lon="5.57594">
        <ele>1491</ele>
        <time>2019-07-11T17:06:38Z</time>
      </trkpt>
      <trkpt lat="45.17933" lon="5.57595">
        <ele>1492</ele>
        <time>2019-07-11T17:06:40Z</time>
      </trkpt>
      <trkpt lat="45.17921" lon="5.57606">
        <ele>1495</ele>
        <time>2019-07-11T17:06:45Z</time>
      </trkpt>
      <trkpt lat="45.17902" lon="5.57635">
        <ele>1506</ele>
        <time>2019-07-11T17:06:49Z</time>
      </trkpt>
      <trkpt lat="45.17887" lon="5.57653">
        <ele>1512</ele>
        <time>2019-07-11T17:06:53Z</time>
      </trkpt>
      <trkpt lat="45.17868" lon="5.57673">
        <ele>1518</ele>
        <time>2019-07-11T17:06:55Z</time>
      </trkpt>
      <trkpt lat="45.17859" lon="5.57675">
        <ele>1519</ele>
        <time>2019-07-11T17:06:56Z</time>
      </trkpt>
      <trkpt lat="45.17851" lon="5.57672">
        <ele>1518</ele>
        <time>2019-07-11T17:06:58Z</time>
      </trkpt>
      <trkpt lat="45.17846" lon="5.57662">
        <ele>1515</ele>
        <time>2019-07-11T17:07:01Z</time>
      </trkpt>
      <trkpt lat="45.17843" lon="5.57637">
        <ele>1508</ele>
        <time>2019-07-11T17:07:04Z</time>
      </trkpt>
      <trkpt lat="45.17838" lon="5.57611">
        <ele>1500</ele>
        <time>2019-07-11T17:07:06Z</time>
      </trkpt>
      <trkpt lat="45.1783" lon="5.57597">
        <ele>1496</ele>
        <time>2019-07-11T17:07:10Z</time>
      </trkpt>
      <trkpt lat="45.17815" lon="5.57583">
        <ele>1495</ele>
        <time>2019-07-11T17:07:15Z</time>
      </trkpt>
      <trkpt lat="45.17783" lon="5.5757">
        <ele>1496</ele>
        <time>2019-07-11T17:07:21Z</time>
      </trkpt>
      <trkpt lat="45.17754" lon="5.57563">
        <ele>1499</ele>
        <time>2019-07-11T17:07:29Z</time>
      </trkpt>
      <trkpt lat="45.17708" lon="5.57563">
        <ele>1499</ele>
        <time>2019-07-11T17:07:36Z</time>
      </trkpt>
      <trkpt lat="45.17666" lon="5.57555">
        <ele>1495</ele>
        <time>2019-07-11T17:07:40Z</time>
      </trkpt>
      <trkpt lat="45.17644" lon="5.57561">
        <ele>1498</ele>
        <time>2019-07-11T17:07:48Z</time>
      </trkpt>
      <trkpt lat="45.17603" lon="5.57586">
        <ele>1509</ele>
        <time>2019-07-11T17:07:50Z</time>
      </trkpt>
      <trkpt lat="45.17594" lon="5.57588">
        <ele>1510</ele>
        <time>2019-07-11T17:07:52Z</time>
      </trkpt>
      <trkpt lat="45.17583" lon="5.57584">
        <ele>1508</ele>
        <time>2019-07-11T17:07:58Z</time>
      </trkpt>
      <trkpt lat="45.17558" lon="5.57548">
        <ele>1504</ele>
        <time>2019-07-11T17:08:06Z</time>
      </trkpt>
      <trkpt lat="45.1753" lon="5.57497">
        <ele>1499</ele>
        <time>2019-07-11T17:08:11Z</time>
      </trkpt>
      <trkpt lat="45.17514" lon="5.57471">
        <ele>1499</ele>
        <time>2019-07-11T17:08:15Z</time>
      </trkpt>
      <trkpt lat="45.175" lon="5.57442">
        <ele>1497</ele>
        <time>2019-07-11T17:08:20Z</time>
      </trkpt>
      <trkpt lat="45.17489" lon="5.57406">
        <ele>1489</ele>
        <time>2019-07-11T17:08:31Z</time>
      </trkpt>
      <trkpt lat="45.17468" lon="5.57327">
        <ele>1472</ele>
        <time>2019-07-11T17:08:36Z</time>
      </trkpt>
      <trkpt lat="45.17456" lon="5.5729">
        <ele>1467</ele>
        <time>2019-07-11T17:08:38Z</time>
      </trkpt>
      <trkpt lat="45.17445" lon="5.57277">
        <ele>1466</ele>
        <time>2019-07-11T17:08:44Z</time>
      </trkpt>
      <trkpt lat="45.17415" lon="5.57259">
        <ele>1466</ele>
        <time>2019-07-11T17:08:46Z</time>
      </trkpt>
      <trkpt lat="45.17404" lon="5.57259">
        <ele>1461</ele>
        <time>2019-07-11T17:08:47Z</time>
      </trkpt>
      <trkpt lat="45.17397" lon="5.57263">
        <ele>1458</ele>
        <time>2019-07-11T17:08:49Z</time>
      </trkpt>
      <trkpt lat="45.17394" lon="5.57273">
        <ele>1458</ele>
        <time>2019-07-11T17:08:56Z</time>
      </trkpt>
      <trkpt lat="45.17392" lon="5.57327">
        <ele>1465</ele>
        <time>2019-07-11T17:09:08Z</time>
      </trkpt>
      <trkpt lat="45.17394" lon="5.57422">
        <ele>1469</ele>
        <time>2019-07-11T17:09:12Z</time>
      </trkpt>
      <trkpt lat="45.17392" lon="5.57455">
        <ele>1470</ele>
        <time>2019-07-11T17:09:14Z</time>
      </trkpt>
      <trkpt lat="45.17389" lon="5.57476">
        <ele>1470</ele>
        <time>2019-07-11T17:09:24Z</time>
      </trkpt>
      <trkpt lat="45.17369" lon="5.57549">
        <ele>1463</ele>
        <time>2019-07-11T17:09:30Z</time>
      </trkpt>
      <trkpt lat="45.17359" lon="5.57596">
        <ele>1462</ele>
        <time>2019-07-11T17:09:34Z</time>
      </trkpt>
      <trkpt lat="45.17355" lon="5.57621">
        <ele>1462</ele>
        <time>2019-07-11T17:09:36Z</time>
      </trkpt>
      <trkpt lat="45.17354" lon="5.57643">
        <ele>1463</ele>
        <time>2019-07-11T17:09:40Z</time>
      </trkpt>
      <trkpt lat="45.17354" lon="5.57669">
        <ele>1466</ele>
        <time>2019-07-11T17:09:47Z</time>
      </trkpt>
      <trkpt lat="45.17357" lon="5.57728">
        <ele>1473</ele>
        <time>2019-07-11T17:09:50Z</time>
      </trkpt>
      <trkpt lat="45.17352" lon="5.57751">
        <ele>1472</ele>
        <time>2019-07-11T17:09:52Z</time>
      </trkpt>
      <trkpt lat="45.17345" lon="5.57763">
        <ele>1471</ele>
        <time>2019-07-11T17:09:59Z</time>
      </trkpt>
      <trkpt lat="45.17314" lon="5.57802">
        <ele>1470</ele>
        <time>2019-07-11T17:10:04Z</time>
      </trkpt>
      <trkpt lat="45.17292" lon="5.57824">
        <ele>1472</ele>
        <time>2019-07-11T17:10:09Z</time>
      </trkpt>
      <trkpt lat="45.17265" lon="5.57837">
        <ele>1470</ele>
        <time>2019-07-11T17:10:12Z</time>
      </trkpt>
      <trkpt lat="45.17247" lon="5.57841">
        <ele>1468</ele>
        <time>2019-07-11T17:10:19Z</time>
      </trkpt>
      <trkpt lat="45.17209" lon="5.5784">
        <ele>1467</ele>
        <time>2019-07-11T17:10:22Z</time>
      </trkpt>
      <trkpt lat="45.17193" lon="5.57841">
        <ele>1466</ele>
        <time>2019-07-11T17:10:28Z</time>
      </trkpt>
      <trkpt lat="45.17157" lon="5.57838">
        <ele>1466</ele>
        <time>2019-07-11T17:10:35Z</time>
      </trkpt>
      <trkpt lat="45.17118" lon="5.57843">
        <ele>1471</ele>
        <time>2019-07-11T17:10:38Z</time>
      </trkpt>
      <trkpt lat="45.17106" lon="5.57841">
        <ele>1472</ele>
        <time>2019-07-11T17:10:43Z</time>
      </trkpt>
      <trkpt lat="45.17075" lon="5.57825">
        <ele>1469</ele>
        <time>2019-07-11T17:10:47Z</time>
      </trkpt>
      <trkpt lat="45.17056" lon="5.57819">
        <ele>1470</ele>
        <time>2019-07-11T17:10:57Z</time>
      </trkpt>
      <trkpt lat="45.16998" lon="5.57804">
        <ele>1471</ele>
        <time>2019-07-11T17:11:09Z</time>
      </trkpt>
      <trkpt lat="45.16933" lon="5.57812">
        <ele>1474</ele>
        <time>2019-07-11T17:11:14Z</time>
      </trkpt>
      <trkpt lat="45.16903" lon="5.57805">
        <ele>1472</ele>
        <time>2019-07-11T17:11:22Z</time>
      </trkpt>
      <trkpt lat="45.16861" lon="5.57801">
        <ele>1475</ele>
        <time>2019-07-11T17:11:24Z</time>
      </trkpt>
      <trkpt lat="45.16851" lon="5.57794">
        <ele>1474</ele>
        <time>2019-07-11T17:11:30Z</time>
      </trkpt>
      <trkpt lat="45.16829" lon="5.57752">
        <ele>1465</ele>
        <time>2019-07-11T17:11:33Z</time>
      </trkpt>
      <trkpt lat="45.16817" lon="5.57737">
        <ele>1461</ele>
        <time>2019-07-11T17:11:40Z</time>
      </trkpt>
      <trkpt lat="45.16785" lon="5.57716">
        <ele>1456</ele>
        <time>2019-07-11T17:11:46Z</time>
      </trkpt>
      <trkpt lat="45.16748" lon="5.57708">
        <ele>1457</ele>
        <time>2019-07-11T17:11:50Z</time>
      </trkpt>
      <trkpt lat="45.16731" lon="5.57696">
        <ele>1454</ele>
        <time>2019-07-11T17:11:51Z</time>
      </trkpt>
      <trkpt lat="45.16722" lon="5.57693">
        <ele>1453</ele>
        <time>2019-07-11T17:11:55Z</time>
      </trkpt>
      <trkpt lat="45.16703" lon="5.57692">
        <ele>1452</ele>
        <time>2019-07-11T17:11:59Z</time>
      </trkpt>
      <trkpt lat="45.16681" lon="5.57695">
        <ele>1453</ele>
        <time>2019-07-11T17:12:16Z</time>
      </trkpt>
      <trkpt lat="45.16584" lon="5.57721">
        <ele>1458</ele>
        <time>2019-07-11T17:12:19Z</time>
      </trkpt>
      <trkpt lat="45.16571" lon="5.57718">
        <ele>1460</ele>
        <time>2019-07-11T17:12:20Z</time>
      </trkpt>
      <trkpt lat="45.16564" lon="5.57711">
        <ele>1460</ele>
        <time>2019-07-11T17:12:36Z</time>
      </trkpt>
      <trkpt lat="45.16501" lon="5.57625">
        <ele>1458</ele>
        <time>2019-07-11T17:12:38Z</time>
      </trkpt>
      <trkpt lat="45.16495" lon="5.57604">
        <ele>1458</ele>
        <time>2019-07-11T17:12:42Z</time>
      </trkpt>
      <trkpt lat="45.16489" lon="5.57575">
        <ele>1458</ele>
        <time>2019-07-11T17:12:44Z</time>
      </trkpt>
      <trkpt lat="45.1649" lon="5.57563">
        <ele>1457</ele>
        <time>2019-07-11T17:12:46Z</time>
      </trkpt>
      <trkpt lat="45.16494" lon="5.57548">
        <ele>1453</ele>
        <time>2019-07-11T17:12:48Z</time>
      </trkpt>
      <trkpt lat="45.16496" lon="5.57532">
        <ele>1450</ele>
        <time>2019-07-11T17:12:50Z</time>
      </trkpt>
      <trkpt lat="45.16496" lon="5.57512">
        <ele>1449</ele>
        <time>2019-07-11T17:13:02Z</time>
      </trkpt>
      <trkpt lat="45.16489" lon="5.5742">
        <ele>1451</ele>
        <time>2019-07-11T17:13:23Z</time>
      </trkpt>
      <trkpt lat="45.16492" lon="5.57255">
        <ele>1445</ele>
        <time>2019-07-11T17:13:33Z</time>
      </trkpt>
      <trkpt lat="45.16495" lon="5.57174">
        <ele>1445</ele>
        <time>2019-07-11T17:13:44Z</time>
      </trkpt>
      <trkpt lat="45.16494" lon="5.57084">
        <ele>1451</ele>
        <time>2019-07-11T17:13:50Z</time>
      </trkpt>
      <trkpt lat="45.16496" lon="5.57037">
        <ele>1456</ele>
        <time>2019-07-11T17:13:57Z</time>
      </trkpt>
      <trkpt lat="45.16505" lon="5.56981">
        <ele>1456</ele>
        <time>2019-07-11T17:14:01Z</time>
      </trkpt>
      <trkpt lat="45.16512" lon="5.56954">
        <ele>1453</ele>
        <time>2019-07-11T17:14:05Z</time>
      </trkpt>
      <trkpt lat="45.16525" lon="5.56926">
        <ele>1444</ele>
        <time>2019-07-11T17:14:08Z</time>
      </trkpt>
      <trkpt lat="45.16532" lon="5.56904">
        <ele>1440</ele>
        <time>2019-07-11T17:14:15Z</time>
      </trkpt>
      <trkpt lat="45.16559" lon="5.56863">
        <ele>1423</ele>
        <time>2019-07-11T17:14:27Z</time>
      </trkpt>
      <trkpt lat="45.16586" lon="5.56778">
        <ele>1423</ele>
        <time>2019-07-11T17:14:31Z</time>
      </trkpt>
      <trkpt lat="45.16594" lon="5.56744">
        <ele>1424</ele>
        <time>2019-07-11T17:14:37Z</time>
      </trkpt>
      <trkpt lat="45.1661" lon="5.56703">
        <ele>1410</ele>
        <time>2019-07-11T17:14:38Z</time>
      </trkpt>
      <trkpt lat="45.16611" lon="5.56693">
        <ele>1409</ele>
        <time>2019-07-11T17:14:42Z</time>
      </trkpt>
      <trkpt lat="45.16603" lon="5.5667">
        <ele>1414</ele>
        <time>2019-07-11T17:14:44Z</time>
      </trkpt>
      <trkpt lat="45.16592" lon="5.56658">
        <ele>1417</ele>
        <time>2019-07-11T17:14:48Z</time>
      </trkpt>
      <trkpt lat="45.16572" lon="5.56645">
        <ele>1419</ele>
        <time>2019-07-11T17:14:52Z</time>
      </trkpt>
      <trkpt lat="45.16551" lon="5.56637">
        <ele>1418</ele>
        <time>2019-07-11T17:14:57Z</time>
      </trkpt>
      <trkpt lat="45.16524" lon="5.56632">
        <ele>1420</ele>
        <time>2019-07-11T17:15:15Z</time>
      </trkpt>
      <trkpt lat="45.16419" lon="5.56625">
        <ele>1423</ele>
        <time>2019-07-11T17:15:22Z</time>
      </trkpt>
      <trkpt lat="45.16384" lon="5.56614">
        <ele>1416</ele>
        <time>2019-07-11T17:15:28Z</time>
      </trkpt>
      <trkpt lat="45.16348" lon="5.56607">
        <ele>1410</ele>
        <time>2019-07-11T17:15:29Z</time>
      </trkpt>
      <trkpt lat="45.16343" lon="5.56608">
        <ele>1410</ele>
        <time>2019-07-11T17:15:30Z</time>
      </trkpt>
      <trkpt lat="45.16338" lon="5.56612">
        <ele>1410</ele>
        <time>2019-07-11T17:15:40Z</time>
      </trkpt>
      <trkpt lat="45.163" lon="5.56667">
        <ele>1423</ele>
        <time>2019-07-11T17:15:44Z</time>
      </trkpt>
      <trkpt lat="45.16281" lon="5.56691">
        <ele>1428</ele>
        <time>2019-07-11T17:15:47Z</time>
      </trkpt>
      <trkpt lat="45.16268" lon="5.56698">
        <ele>1429</ele>
        <time>2019-07-11T17:15:48Z</time>
      </trkpt>
      <trkpt lat="45.16261" lon="5.56698">
        <ele>1428</ele>
        <time>2019-07-11T17:15:50Z</time>
      </trkpt>
      <trkpt lat="45.1625" lon="5.56694">
        <ele>1425</ele>
        <time>2019-07-11T17:15:51Z</time>
      </trkpt>
      <trkpt lat="45.16244" lon="5.56688">
        <ele>1424</ele>
        <time>2019-07-11T17:15:53Z</time>
      </trkpt>
      <trkpt lat="45.16238" lon="5.56676">
        <ele>1422</ele>
        <time>2019-07-11T17:15:59Z</time>
      </trkpt>
      <trkpt lat="45.16222" lon="5.56632">
        <ele>1412</ele>
        <time>2019-07-11T17:16:01Z</time>
      </trkpt>
      <trkpt lat="45.16216" lon="5.56622">
        <ele>1410</ele>
        <time>2019-07-11T17:16:04Z</time>
      </trkpt>
      <trkpt lat="45.16203" lon="5.56604">
        <ele>1408</ele>
        <time>2019-07-11T17:16:07Z</time>
      </trkpt>
      <trkpt lat="45.16188" lon="5.56594">
        <ele>1409</ele>
        <time>2019-07-11T17:16:10Z</time>
      </trkpt>
      <trkpt lat="45.16175" lon="5.56589">
        <ele>1410</ele>
        <time>2019-07-11T17:16:14Z</time>
      </trkpt>
      <trkpt lat="45.16153" lon="5.56587">
        <ele>1412</ele>
        <time>2019-07-11T17:16:22Z</time>
      </trkpt>
      <trkpt lat="45.16108" lon="5.56586">
        <ele>1414</ele>
        <time>2019-07-11T17:16:28Z</time>
      </trkpt>
      <trkpt lat="45.16075" lon="5.56577">
        <ele>1412</ele>
        <time>2019-07-11T17:16:30Z</time>
      </trkpt>
      <trkpt lat="45.16061" lon="5.56577">
        <ele>1410</ele>
        <time>2019-07-11T17:16:32Z</time>
      </trkpt>
      <trkpt lat="45.16053" lon="5.56577">
        <ele>1410</ele>
        <time>2019-07-11T17:16:39Z</time>
      </trkpt>
      <trkpt lat="45.16013" lon="5.56592">
        <ele>1409</ele>
        <time>2019-07-11T17:16:42Z</time>
      </trkpt>
      <trkpt lat="45.15996" lon="5.56596">
        <ele>1409</ele>
        <time>2019-07-11T17:16:45Z</time>
      </trkpt>
      <trkpt lat="45.15981" lon="5.56595">
        <ele>1410</ele>
        <time>2019-07-11T17:16:47Z</time>
      </trkpt>
      <trkpt lat="45.15973" lon="5.56585">
        <ele>1409</ele>
        <time>2019-07-11T17:16:58Z</time>
      </trkpt>
      <trkpt lat="45.15932" lon="5.56513">
        <ele>1398</ele>
        <time>2019-07-11T17:17:01Z</time>
      </trkpt>
      <trkpt lat="45.1592" lon="5.565">
        <ele>1397</ele>
        <time>2019-07-11T17:17:04Z</time>
      </trkpt>
      <trkpt lat="45.15903" lon="5.56486">
        <ele>1394</ele>
        <time>2019-07-11T17:17:07Z</time>
      </trkpt>
      <trkpt lat="45.15887" lon="5.56476">
        <ele>1391</ele>
        <time>2019-07-11T17:17:09Z</time>
      </trkpt>
      <trkpt lat="45.15878" lon="5.56472">
        <ele>1389</ele>
        <time>2019-07-11T17:17:13Z</time>
      </trkpt>
      <trkpt lat="45.15859" lon="5.56475">
        <ele>1389</ele>
        <time>2019-07-11T17:17:15Z</time>
      </trkpt>
      <trkpt lat="45.15844" lon="5.56482">
        <ele>1389</ele>
        <time>2019-07-11T17:17:17Z</time>
      </trkpt>
      <trkpt lat="45.15837" lon="5.56488">
        <ele>1389</ele>
        <time>2019-07-11T17:17:20Z</time>
      </trkpt>
      <trkpt lat="45.15823" lon="5.56506">
        <ele>1388</ele>
        <time>2019-07-11T17:17:24Z</time>
      </trkpt>
      <trkpt lat="45.15812" lon="5.56535">
        <ele>1388</ele>
        <time>2019-07-11T17:17:28Z</time>
      </trkpt>
      <trkpt lat="45.15807" lon="5.56561">
        <ele>1389</ele>
        <time>2019-07-11T17:17:30Z</time>
      </trkpt>
      <trkpt lat="45.15806" lon="5.56578">
        <ele>1391</ele>
        <time>2019-07-11T17:17:31Z</time>
      </trkpt>
      <trkpt lat="45.15807" lon="5.56589">
        <ele>1392</ele>
        <time>2019-07-11T17:17:34Z</time>
      </trkpt>
      <trkpt lat="45.15814" lon="5.56606">
        <ele>1395</ele>
        <time>2019-07-11T17:17:40Z</time>
      </trkpt>
      <trkpt lat="45.15836" lon="5.5665">
        <ele>1400</ele>
        <time>2019-07-11T17:17:44Z</time>
      </trkpt>
      <trkpt lat="45.15841" lon="5.56675">
        <ele>1402</ele>
        <time>2019-07-11T17:17:46Z</time>
      </trkpt>
      <trkpt lat="45.15841" lon="5.5669">
        <ele>1403</ele>
        <time>2019-07-11T17:17:52Z</time>
      </trkpt>
      <trkpt lat="45.15831" lon="5.56737">
        <ele>1404</ele>
        <time>2019-07-11T17:17:54Z</time>
      </trkpt>
      <trkpt lat="45.15823" lon="5.56754">
        <ele>1406</ele>
        <time>2019-07-11T17:17:55Z</time>
      </trkpt>
      <trkpt lat="45.15819" lon="5.56759">
        <ele>1407</ele>
        <time>2019-07-11T17:17:58Z</time>
      </trkpt>
      <trkpt lat="45.15806" lon="5.56761">
        <ele>1408</ele>
        <time>2019-07-11T17:18:00Z</time>
      </trkpt>
      <trkpt lat="45.15797" lon="5.56752">
        <ele>1408</ele>
        <time>2019-07-11T17:18:02Z</time>
      </trkpt>
      <trkpt lat="45.15792" lon="5.56732">
        <ele>1405</ele>
        <time>2019-07-11T17:18:05Z</time>
      </trkpt>
      <trkpt lat="45.1579" lon="5.5671">
        <ele>1401</ele>
        <time>2019-07-11T17:18:07Z</time>
      </trkpt>
      <trkpt lat="45.15785" lon="5.56699">
        <ele>1399</ele>
        <time>2019-07-11T17:18:09Z</time>
      </trkpt>
      <trkpt lat="45.15775" lon="5.56689">
        <ele>1397</ele>
        <time>2019-07-11T17:18:17Z</time>
      </trkpt>
      <trkpt lat="45.15732" lon="5.56656">
        <ele>1391</ele>
        <time>2019-07-11T17:18:26Z</time>
      </trkpt>
      <trkpt lat="45.15693" lon="5.56615">
        <ele>1387</ele>
        <time>2019-07-11T17:18:34Z</time>
      </trkpt>
      <trkpt lat="45.1567" lon="5.56564">
        <ele>1374</ele>
        <time>2019-07-11T17:18:35Z</time>
      </trkpt>
      <trkpt lat="45.15666" lon="5.56561">
        <ele>1373</ele>
        <time>2019-07-11T17:18:36Z</time>
      </trkpt>
      <trkpt lat="45.15658" lon="5.56561">
        <ele>1373</ele>
        <time>2019-07-11T17:18:37Z</time>
      </trkpt>
      <trkpt lat="45.15651" lon="5.56566">
        <ele>1373</ele>
        <time>2019-07-11T17:18:40Z</time>
      </trkpt>
      <trkpt lat="45.15641" lon="5.56581">
        <ele>1377</ele>
        <time>2019-07-11T17:18:48Z</time>
      </trkpt>
      <trkpt lat="45.15616" lon="5.5663">
        <ele>1386</ele>
        <time>2019-07-11T17:18:53Z</time>
      </trkpt>
      <trkpt lat="45.156" lon="5.56668">
        <ele>1391</ele>
        <time>2019-07-11T17:18:58Z</time>
      </trkpt>
      <trkpt lat="45.15581" lon="5.56691">
        <ele>1393</ele>
        <time>2019-07-11T17:19:02Z</time>
      </trkpt>
      <trkpt lat="45.1556" lon="5.56712">
        <ele>1397</ele>
        <time>2019-07-11T17:19:09Z</time>
      </trkpt>
      <trkpt lat="45.15524" lon="5.56739">
        <ele>1399</ele>
        <time>2019-07-11T17:19:10Z</time>
      </trkpt>
      <trkpt lat="45.15519" lon="5.56739">
        <ele>1399</ele>
        <time>2019-07-11T17:19:12Z</time>
      </trkpt>
      <trkpt lat="45.1551" lon="5.56732">
        <ele>1398</ele>
        <time>2019-07-11T17:19:14Z</time>
      </trkpt>
      <trkpt lat="45.15503" lon="5.5672">
        <ele>1398</ele>
        <time>2019-07-11T17:19:15Z</time>
      </trkpt>
      <trkpt lat="45.15501" lon="5.56712">
        <ele>1398</ele>
        <time>2019-07-11T17:19:17Z</time>
      </trkpt>
      <trkpt lat="45.155" lon="5.56699">
        <ele>1398</ele>
        <time>2019-07-11T17:19:18Z</time>
      </trkpt>
      <trkpt lat="45.15502" lon="5.56693">
        <ele>1398</ele>
        <time>2019-07-11T17:19:19Z</time>
      </trkpt>
      <trkpt lat="45.15504" lon="5.56683">
        <ele>1398</ele>
        <time>2019-07-11T17:19:30Z</time>
      </trkpt>
      <trkpt lat="45.15542" lon="5.5661">
        <ele>1388</ele>
        <time>2019-07-11T17:19:32Z</time>
      </trkpt>
      <trkpt lat="45.15544" lon="5.56593">
        <ele>1386</ele>
        <time>2019-07-11T17:19:36Z</time>
      </trkpt>
      <trkpt lat="45.15542" lon="5.56563">
        <ele>1382</ele>
        <time>2019-07-11T17:19:43Z</time>
      </trkpt>
      <trkpt lat="45.15529" lon="5.56515">
        <ele>1378</ele>
        <time>2019-07-11T17:19:46Z</time>
      </trkpt>
      <trkpt lat="45.15519" lon="5.56495">
        <ele>1378</ele>
        <time>2019-07-11T17:19:48Z</time>
      </trkpt>
      <trkpt lat="45.1551" lon="5.56482">
        <ele>1379</ele>
        <time>2019-07-11T17:19:54Z</time>
      </trkpt>
      <trkpt lat="45.15482" lon="5.56451">
        <ele>1380</ele>
        <time>2019-07-11T17:19:59Z</time>
      </trkpt>
      <trkpt lat="45.15464" lon="5.56428">
        <ele>1380</ele>
        <time>2019-07-11T17:20:06Z</time>
      </trkpt>
      <trkpt lat="45.15436" lon="5.56381">
        <ele>1377</ele>
        <time>2019-07-11T17:20:14Z</time>
      </trkpt>
      <trkpt lat="45.15403" lon="5.56338">
        <ele>1374</ele>
        <time>2019-07-11T17:20:16Z</time>
      </trkpt>
      <trkpt lat="45.15393" lon="5.5633">
        <ele>1372</ele>
        <time>2019-07-11T17:20:18Z</time>
      </trkpt>
      <trkpt lat="45.15386" lon="5.56327">
        <ele>1371</ele>
        <time>2019-07-11T17:20:21Z</time>
      </trkpt>
      <trkpt lat="45.15367" lon="5.56328">
        <ele>1370</ele>
        <time>2019-07-11T17:20:25Z</time>
      </trkpt>
      <trkpt lat="45.15346" lon="5.56333">
        <ele>1371</ele>
        <time>2019-07-11T17:20:27Z</time>
      </trkpt>
      <trkpt lat="45.15337" lon="5.56339">
        <ele>1373</ele>
        <time>2019-07-11T17:20:33Z</time>
      </trkpt>
      <trkpt lat="45.15307" lon="5.56366">
        <ele>1374</ele>
        <time>2019-07-11T17:20:34Z</time>
      </trkpt>
      <trkpt lat="45.15303" lon="5.56371">
        <ele>1375</ele>
        <time>2019-07-11T17:20:37Z</time>
      </trkpt>
      <trkpt lat="45.15293" lon="5.5639">
        <ele>1378</ele>
        <time>2019-07-11T17:20:47Z</time>
      </trkpt>
      <trkpt lat="45.15265" lon="5.56464">
        <ele>1389</ele>
        <time>2019-07-11T17:20:49Z</time>
      </trkpt>
      <trkpt lat="45.15257" lon="5.56473">
        <ele>1389</ele>
        <time>2019-07-11T17:20:51Z</time>
      </trkpt>
      <trkpt lat="45.15245" lon="5.56476">
        <ele>1388</ele>
        <time>2019-07-11T17:21:03Z</time>
      </trkpt>
      <trkpt lat="45.15183" lon="5.56459">
        <ele>1377</ele>
        <time>2019-07-11T17:21:08Z</time>
      </trkpt>
      <trkpt lat="45.15155" lon="5.56462">
        <ele>1373</ele>
        <time>2019-07-11T17:21:12Z</time>
      </trkpt>
      <trkpt lat="45.15133" lon="5.56474">
        <ele>1370</ele>
        <time>2019-07-11T17:21:15Z</time>
      </trkpt>
      <trkpt lat="45.15119" lon="5.56487">
        <ele>1370</ele>
        <time>2019-07-11T17:21:16Z</time>
      </trkpt>
      <trkpt lat="45.15116" lon="5.56494">
        <ele>1372</ele>
        <time>2019-07-11T17:21:17Z</time>
      </trkpt>
      <trkpt lat="45.15115" lon="5.565">
        <ele>1373</ele>
        <time>2019-07-11T17:21:19Z</time>
      </trkpt>
      <trkpt lat="45.15115" lon="5.56516">
        <ele>1375</ele>
        <time>2019-07-11T17:21:25Z</time>
      </trkpt>
      <trkpt lat="45.15131" lon="5.56562">
        <ele>1386</ele>
        <time>2019-07-11T17:21:27Z</time>
      </trkpt>
      <trkpt lat="45.15133" lon="5.56575">
        <ele>1388</ele>
        <time>2019-07-11T17:21:29Z</time>
      </trkpt>
      <trkpt lat="45.1513" lon="5.5659">
        <ele>1390</ele>
        <time>2019-07-11T17:21:30Z</time>
      </trkpt>
      <trkpt lat="45.15125" lon="5.56598">
        <ele>1391</ele>
        <time>2019-07-11T17:21:31Z</time>
      </trkpt>
      <trkpt lat="45.15121" lon="5.566">
        <ele>1390</ele>
        <time>2019-07-11T17:21:32Z</time>
      </trkpt>
      <trkpt lat="45.15115" lon="5.566">
        <ele>1389</ele>
        <time>2019-07-11T17:21:35Z</time>
      </trkpt>
      <trkpt lat="45.15095" lon="5.56595">
        <ele>1384</ele>
        <time>2019-07-11T17:21:41Z</time>
      </trkpt>
      <trkpt lat="45.15065" lon="5.56604">
        <ele>1387</ele>
        <time>2019-07-11T17:21:42Z</time>
      </trkpt>
      <trkpt lat="45.1506" lon="5.56604">
        <ele>1388</ele>
        <time>2019-07-11T17:21:43Z</time>
      </trkpt>
      <trkpt lat="45.15052" lon="5.56602">
        <ele>1388</ele>
        <time>2019-07-11T17:21:45Z</time>
      </trkpt>
      <trkpt lat="45.15047" lon="5.56594">
        <ele>1387</ele>
        <time>2019-07-11T17:21:47Z</time>
      </trkpt>
      <trkpt lat="45.15043" lon="5.56578">
        <ele>1384</ele>
        <time>2019-07-11T17:21:49Z</time>
      </trkpt>
      <trkpt lat="45.15042" lon="5.56559">
        <ele>1381</ele>
        <time>2019-07-11T17:21:50Z</time>
      </trkpt>
      <trkpt lat="45.15039" lon="5.56553">
        <ele>1380</ele>
        <time>2019-07-11T17:21:52Z</time>
      </trkpt>
      <trkpt lat="45.1503" lon="5.56542">
        <ele>1380</ele>
        <time>2019-07-11T17:21:56Z</time>
      </trkpt>
      <trkpt lat="45.15012" lon="5.56526">
        <ele>1380</ele>
        <time>2019-07-11T17:22:02Z</time>
      </trkpt>
      <trkpt lat="45.14986" lon="5.56496">
        <ele>1378</ele>
        <time>2019-07-11T17:22:06Z</time>
      </trkpt>
      <trkpt lat="45.1497" lon="5.56472">
        <ele>1375</ele>
        <time>2019-07-11T17:22:10Z</time>
      </trkpt>
      <trkpt lat="45.14958" lon="5.56442">
        <ele>1369</ele>
        <time>2019-07-11T17:22:13Z</time>
      </trkpt>
      <trkpt lat="45.14945" lon="5.56426">
        <ele>1369</ele>
        <time>2019-07-11T17:22:15Z</time>
      </trkpt>
      <trkpt lat="45.14934" lon="5.56424">
        <ele>1372</ele>
        <time>2019-07-11T17:22:20Z</time>
      </trkpt>
      <trkpt lat="45.14907" lon="5.5643">
        <ele>1378</ele>
        <time>2019-07-11T17:22:23Z</time>
      </trkpt>
      <trkpt lat="45.14893" lon="5.56431">
        <ele>1379</ele>
        <time>2019-07-11T17:22:24Z</time>
      </trkpt>
      <trkpt lat="45.14885" lon="5.56427">
        <ele>1379</ele>
        <time>2019-07-11T17:22:25Z</time>
      </trkpt>
      <trkpt lat="45.1488" lon="5.5642">
        <ele>1377</ele>
        <time>2019-07-11T17:22:29Z</time>
      </trkpt>
      <trkpt lat="45.14869" lon="5.56398">
        <ele>1375</ele>
        <time>2019-07-11T17:22:34Z</time>
      </trkpt>
      <trkpt lat="45.14856" lon="5.56361">
        <ele>1371</ele>
        <time>2019-07-11T17:22:48Z</time>
      </trkpt>
      <trkpt lat="45.14814" lon="5.56265">
        <ele>1362</ele>
        <time>2019-07-11T17:22:50Z</time>
      </trkpt>
      <trkpt lat="45.14808" lon="5.56254">
        <ele>1360</ele>
        <time>2019-07-11T17:22:52Z</time>
      </trkpt>
      <trkpt lat="45.14799" lon="5.56246">
        <ele>1359</ele>
        <time>2019-07-11T17:22:54Z</time>
      </trkpt>
      <trkpt lat="45.1479" lon="5.56242">
        <ele>1358</ele>
        <time>2019-07-11T17:22:57Z</time>
      </trkpt>
      <trkpt lat="45.1477" lon="5.56245">
        <ele>1359</ele>
        <time>2019-07-11T17:23:05Z</time>
      </trkpt>
      <trkpt lat="45.14729" lon="5.56264">
        <ele>1357</ele>
        <time>2019-07-11T17:23:07Z</time>
      </trkpt>
      <trkpt lat="45.14721" lon="5.56278">
        <ele>1357</ele>
        <time>2019-07-11T17:23:09Z</time>
      </trkpt>
      <trkpt lat="45.14718" lon="5.56296">
        <ele>1357</ele>
        <time>2019-07-11T17:23:14Z</time>
      </trkpt>
      <trkpt lat="45.14724" lon="5.56333">
        <ele>1361</ele>
        <time>2019-07-11T17:23:17Z</time>
      </trkpt>
      <trkpt lat="45.14717" lon="5.56349">
        <ele>1361</ele>
        <time>2019-07-11T17:23:20Z</time>
      </trkpt>
      <trkpt lat="45.14701" lon="5.5636">
        <ele>1359</ele>
        <time>2019-07-11T17:23:23Z</time>
      </trkpt>
      <trkpt lat="45.14685" lon="5.56367">
        <ele>1356</ele>
        <time>2019-07-11T17:23:26Z</time>
      </trkpt>
      <trkpt lat="45.14673" lon="5.56382">
        <ele>1355</ele>
        <time>2019-07-11T17:23:33Z</time>
      </trkpt>
      <trkpt lat="45.14663" lon="5.56439">
        <ele>1361</ele>
        <time>2019-07-11T17:23:35Z</time>
      </trkpt>
      <trkpt lat="45.14654" lon="5.56453">
        <ele>1365</ele>
        <time>2019-07-11T17:23:37Z</time>
      </trkpt>
      <trkpt lat="45.14646" lon="5.56454">
        <ele>1366</ele>
        <time>2019-07-11T17:23:39Z</time>
      </trkpt>
      <trkpt lat="45.14637" lon="5.56444">
        <ele>1366</ele>
        <time>2019-07-11T17:23:42Z</time>
      </trkpt>
      <trkpt lat="45.14628" lon="5.5642">
        <ele>1364</ele>
        <time>2019-07-11T17:23:47Z</time>
      </trkpt>
      <trkpt lat="45.14619" lon="5.56384">
        <ele>1359</ele>
        <time>2019-07-11T17:23:53Z</time>
      </trkpt>
      <trkpt lat="45.14599" lon="5.56341">
        <ele>1353</ele>
        <time>2019-07-11T17:24:03Z</time>
      </trkpt>
      <trkpt lat="45.14568" lon="5.56274">
        <ele>1344</ele>
        <time>2019-07-11T17:24:08Z</time>
      </trkpt>
      <trkpt lat="45.14552" lon="5.56248">
        <ele>1341</ele>
        <time>2019-07-11T17:24:10Z</time>
      </trkpt>
      <trkpt lat="45.14545" lon="5.56238">
        <ele>1339</ele>
        <time>2019-07-11T17:24:13Z</time>
      </trkpt>
      <trkpt lat="45.14527" lon="5.56223">
        <ele>1337</ele>
        <time>2019-07-11T17:24:19Z</time>
      </trkpt>
      <trkpt lat="45.14497" lon="5.56224">
        <ele>1340</ele>
        <time>2019-07-11T17:24:20Z</time>
      </trkpt>
      <trkpt lat="45.14489" lon="5.56222">
        <ele>1339</ele>
        <time>2019-07-11T17:24:22Z</time>
      </trkpt>
      <trkpt lat="45.14481" lon="5.56217">
        <ele>1336</ele>
        <time>2019-07-11T17:24:25Z</time>
      </trkpt>
      <trkpt lat="45.14464" lon="5.562">
        <ele>1330</ele>
        <time>2019-07-11T17:24:27Z</time>
      </trkpt>
      <trkpt lat="45.14455" lon="5.56198">
        <ele>1329</ele>
        <time>2019-07-11T17:24:28Z</time>
      </trkpt>
      <trkpt lat="45.14447" lon="5.56199">
        <ele>1328</ele>
        <time>2019-07-11T17:24:31Z</time>
      </trkpt>
      <trkpt lat="45.14436" lon="5.56207">
        <ele>1329</ele>
        <time>2019-07-11T17:24:37Z</time>
      </trkpt>
      <trkpt lat="45.14416" lon="5.56248">
        <ele>1336</ele>
        <time>2019-07-11T17:24:39Z</time>
      </trkpt>
      <trkpt lat="45.14405" lon="5.56256">
        <ele>1337</ele>
        <time>2019-07-11T17:24:41Z</time>
      </trkpt>
      <trkpt lat="45.14395" lon="5.56251">
        <ele>1334</ele>
        <time>2019-07-11T17:24:44Z</time>
      </trkpt>
      <trkpt lat="45.1438" lon="5.56237">
        <ele>1329</ele>
        <time>2019-07-11T17:24:47Z</time>
      </trkpt>
      <trkpt lat="45.14364" lon="5.56231">
        <ele>1325</ele>
        <time>2019-07-11T17:24:50Z</time>
      </trkpt>
      <trkpt lat="45.14345" lon="5.56229">
        <ele>1322</ele>
        <time>2019-07-11T17:24:52Z</time>
      </trkpt>
      <trkpt lat="45.14335" lon="5.5623">
        <ele>1321</ele>
        <time>2019-07-11T17:24:55Z</time>
      </trkpt>
      <trkpt lat="45.14317" lon="5.56235">
        <ele>1322</ele>
        <time>2019-07-11T17:25:01Z</time>
      </trkpt>
      <trkpt lat="45.14287" lon="5.5625">
        <ele>1325</ele>
        <time>2019-07-11T17:25:03Z</time>
      </trkpt>
      <trkpt lat="45.14278" lon="5.56251">
        <ele>1326</ele>
        <time>2019-07-11T17:25:05Z</time>
      </trkpt>
      <trkpt lat="45.14263" lon="5.56246">
        <ele>1324</ele>
        <time>2019-07-11T17:25:10Z</time>
      </trkpt>
      <trkpt lat="45.14239" lon="5.56227">
        <ele>1319</ele>
        <time>2019-07-11T17:25:13Z</time>
      </trkpt>
      <trkpt lat="45.14224" lon="5.56222">
        <ele>1317</ele>
        <time>2019-07-11T17:25:19Z</time>
      </trkpt>
      <trkpt lat="45.14193" lon="5.56216">
        <ele>1315</ele>
        <time>2019-07-11T17:25:24Z</time>
      </trkpt>
      <trkpt lat="45.14161" lon="5.56217">
        <ele>1313</ele>
        <time>2019-07-11T17:25:30Z</time>
      </trkpt>
      <trkpt lat="45.14132" lon="5.56213">
        <ele>1306</ele>
        <time>2019-07-11T17:25:31Z</time>
      </trkpt>
      <trkpt lat="45.14126" lon="5.56215">
        <ele>1305</ele>
        <time>2019-07-11T17:25:32Z</time>
      </trkpt>
      <trkpt lat="45.1412" lon="5.5622">
        <ele>1305</ele>
        <time>2019-07-11T17:25:38Z</time>
      </trkpt>
      <trkpt lat="45.14099" lon="5.56263">
        <ele>1310</ele>
        <time>2019-07-11T17:25:43Z</time>
      </trkpt>
      <trkpt lat="45.14082" lon="5.56287">
        <ele>1313</ele>
        <time>2019-07-11T17:25:44Z</time>
      </trkpt>
      <trkpt lat="45.14073" lon="5.56289">
        <ele>1313</ele>
        <time>2019-07-11T17:25:46Z</time>
      </trkpt>
      <trkpt lat="45.14067" lon="5.56285">
        <ele>1312</ele>
        <time>2019-07-11T17:25:52Z</time>
      </trkpt>
      <trkpt lat="45.14043" lon="5.56241">
        <ele>1303</ele>
        <time>2019-07-11T17:26:01Z</time>
      </trkpt>
      <trkpt lat="45.14014" lon="5.56192">
        <ele>1295</ele>
        <time>2019-07-11T17:26:03Z</time>
      </trkpt>
      <trkpt lat="45.14005" lon="5.56179">
        <ele>1294</ele>
        <time>2019-07-11T17:26:04Z</time>
      </trkpt>
      <trkpt lat="45.14" lon="5.56176">
        <ele>1294</ele>
        <time>2019-07-11T17:26:06Z</time>
      </trkpt>
      <trkpt lat="45.13987" lon="5.56177">
        <ele>1294</ele>
        <time>2019-07-11T17:26:07Z</time>
      </trkpt>
      <trkpt lat="45.13982" lon="5.56183">
        <ele>1295</ele>
        <time>2019-07-11T17:26:15Z</time>
      </trkpt>
      <trkpt lat="45.13958" lon="5.56234">
        <ele>1302</ele>
        <time>2019-07-11T17:26:18Z</time>
      </trkpt>
      <trkpt lat="45.13949" lon="5.5625">
        <ele>1304</ele>
        <time>2019-07-11T17:26:20Z</time>
      </trkpt>
      <trkpt lat="45.13936" lon="5.56254">
        <ele>1304</ele>
        <time>2019-07-11T17:26:21Z</time>
      </trkpt>
      <trkpt lat="45.1393" lon="5.56252">
        <ele>1304</ele>
        <time>2019-07-11T17:26:22Z</time>
      </trkpt>
      <trkpt lat="45.13926" lon="5.56246">
        <ele>1303</ele>
        <time>2019-07-11T17:26:25Z</time>
      </trkpt>
      <trkpt lat="45.13919" lon="5.56225">
        <ele>1300</ele>
        <time>2019-07-11T17:26:34Z</time>
      </trkpt>
      <trkpt lat="45.13908" lon="5.56157">
        <ele>1292</ele>
        <time>2019-07-11T17:26:41Z</time>
      </trkpt>
      <trkpt lat="45.1391" lon="5.56095">
        <ele>1281</ele>
        <time>2019-07-11T17:26:44Z</time>
      </trkpt>
      <trkpt lat="45.13909" lon="5.56072">
        <ele>1276</ele>
        <time>2019-07-11T17:26:46Z</time>
      </trkpt>
      <trkpt lat="45.13904" lon="5.56061">
        <ele>1275</ele>
        <time>2019-07-11T17:26:48Z</time>
      </trkpt>
      <trkpt lat="45.13894" lon="5.5605">
        <ele>1273</ele>
        <time>2019-07-11T17:26:53Z</time>
      </trkpt>
      <trkpt lat="45.13865" lon="5.56048">
        <ele>1274</ele>
        <time>2019-07-11T17:26:57Z</time>
      </trkpt>
      <trkpt lat="45.13843" lon="5.56049">
        <ele>1276</ele>
        <time>2019-07-11T17:27:03Z</time>
      </trkpt>
      <trkpt lat="45.13813" lon="5.56054">
        <ele>1275</ele>
        <time>2019-07-11T17:27:15Z</time>
      </trkpt>
      <trkpt lat="45.13747" lon="5.56075">
        <ele>1270</ele>
        <time>2019-07-11T17:27:26Z</time>
      </trkpt>
      <trkpt lat="45.13685" lon="5.56103">
        <ele>1269</ele>
        <time>2019-07-11T17:27:37Z</time>
      </trkpt>
      <trkpt lat="45.13626" lon="5.56112">
        <ele>1264</ele>
        <time>2019-07-11T17:27:43Z</time>
      </trkpt>
      <trkpt lat="45.13591" lon="5.56116">
        <ele>1261</ele>
        <time>2019-07-11T17:27:46Z</time>
      </trkpt>
      <trkpt lat="45.13577" lon="5.5612">
        <ele>1261</ele>
        <time>2019-07-11T17:27:47Z</time>
      </trkpt>
      <trkpt lat="45.13572" lon="5.56123">
        <ele>1262</ele>
        <time>2019-07-11T17:27:51Z</time>
      </trkpt>
      <trkpt lat="45.13563" lon="5.56152">
        <ele>1268</ele>
        <time>2019-07-11T17:27:52Z</time>
      </trkpt>
      <trkpt lat="45.13558" lon="5.56163">
        <ele>1270</ele>
        <time>2019-07-11T17:27:54Z</time>
      </trkpt>
      <trkpt lat="45.13553" lon="5.5617">
        <ele>1272</ele>
        <time>2019-07-11T17:27:55Z</time>
      </trkpt>
      <trkpt lat="45.13547" lon="5.56175">
        <ele>1273</ele>
        <time>2019-07-11T17:27:56Z</time>
      </trkpt>
      <trkpt lat="45.13542" lon="5.56176">
        <ele>1273</ele>
        <time>2019-07-11T17:27:57Z</time>
      </trkpt>
      <trkpt lat="45.13537" lon="5.56176">
        <ele>1273</ele>
        <time>2019-07-11T17:27:58Z</time>
      </trkpt>
      <trkpt lat="45.13529" lon="5.56171">
        <ele>1273</ele>
        <time>2019-07-11T17:28:03Z</time>
      </trkpt>
      <trkpt lat="45.13511" lon="5.56139">
        <ele>1265</ele>
        <time>2019-07-11T17:28:07Z</time>
      </trkpt>
      <trkpt lat="45.13494" lon="5.5612">
        <ele>1261</ele>
        <time>2019-07-11T17:28:13Z</time>
      </trkpt>
      <trkpt lat="45.13464" lon="5.56103">
        <ele>1259</ele>
        <time>2019-07-11T17:28:22Z</time>
      </trkpt>
      <trkpt lat="45.13413" lon="5.5608">
        <ele>1257</ele>
        <time>2019-07-11T17:28:24Z</time>
      </trkpt>
      <trkpt lat="45.13402" lon="5.56079">
        <ele>1255</ele>
        <time>2019-07-11T17:28:26Z</time>
      </trkpt>
      <trkpt lat="45.1339" lon="5.56081">
        <ele>1253</ele>
        <time>2019-07-11T17:28:29Z</time>
      </trkpt>
      <trkpt lat="45.13377" lon="5.56088">
        <ele>1252</ele>
        <time>2019-07-11T17:28:36Z</time>
      </trkpt>
      <trkpt lat="45.13344" lon="5.56116">
        <ele>1251</ele>
        <time>2019-07-11T17:28:40Z</time>
      </trkpt>
      <trkpt lat="45.13329" lon="5.56146">
        <ele>1252</ele>
        <time>2019-07-11T17:28:45Z</time>
      </trkpt>
      <trkpt lat="45.13317" lon="5.56177">
        <ele>1256</ele>
        <time>2019-07-11T17:28:46Z</time>
      </trkpt>
      <trkpt lat="45.13312" lon="5.56185">
        <ele>1257</ele>
        <time>2019-07-11T17:28:47Z</time>
      </trkpt>
      <trkpt lat="45.13308" lon="5.56188">
        <ele>1257</ele>
        <time>2019-07-11T17:28:49Z</time>
      </trkpt>
      <trkpt lat="45.13296" lon="5.5619">
        <ele>1256</ele>
        <time>2019-07-11T17:28:50Z</time>
      </trkpt>
      <trkpt lat="45.1329" lon="5.56187">
        <ele>1255</ele>
        <time>2019-07-11T17:28:55Z</time>
      </trkpt>
      <trkpt lat="45.1327" lon="5.56157">
        <ele>1250</ele>
        <time>2019-07-11T17:28:58Z</time>
      </trkpt>
      <trkpt lat="45.13257" lon="5.56149">
        <ele>1248</ele>
        <time>2019-07-11T17:28:59Z</time>
      </trkpt>
      <trkpt lat="45.1325" lon="5.56146">
        <ele>1247</ele>
        <time>2019-07-11T17:29:01Z</time>
      </trkpt>
      <trkpt lat="45.13243" lon="5.56146">
        <ele>1246</ele>
        <time>2019-07-11T17:29:12Z</time>
      </trkpt>
      <trkpt lat="45.13179" lon="5.56165">
        <ele>1241</ele>
        <time>2019-07-11T17:29:17Z</time>
      </trkpt>
      <trkpt lat="45.13155" lon="5.56177">
        <ele>1241</ele>
        <time>2019-07-11T17:29:25Z</time>
      </trkpt>
      <trkpt lat="45.13115" lon="5.56209">
        <ele>1245</ele>
        <time>2019-07-11T17:29:26Z</time>
      </trkpt>
      <trkpt lat="45.13107" lon="5.56211">
        <ele>1245</ele>
        <time>2019-07-11T17:29:29Z</time>
      </trkpt>
      <trkpt lat="45.13094" lon="5.56209">
        <ele>1244</ele>
        <time>2019-07-11T17:29:30Z</time>
      </trkpt>
      <trkpt lat="45.13086" lon="5.562">
        <ele>1243</ele>
        <time>2019-07-11T17:29:46Z</time>
      </trkpt>
      <trkpt lat="45.13065" lon="5.56079">
        <ele>1234</ele>
        <time>2019-07-11T17:29:54Z</time>
      </trkpt>
      <trkpt lat="45.13048" lon="5.56022">
        <ele>1229</ele>
        <time>2019-07-11T17:30:00Z</time>
      </trkpt>
      <trkpt lat="45.13045" lon="5.55972">
        <ele>1228</ele>
        <time>2019-07-11T17:30:06Z</time>
      </trkpt>
      <trkpt lat="45.13012" lon="5.55983">
        <ele>1228</ele>
        <time>2019-07-11T17:30:31Z</time>
      </trkpt>
      <trkpt lat="45.1287" lon="5.55991">
        <ele>1225</ele>
        <time>2019-07-11T17:30:52Z</time>
      </trkpt>
      <trkpt lat="45.12754" lon="5.55968">
        <ele>1216</ele>
        <time>2019-07-11T17:30:56Z</time>
      </trkpt>
      <trkpt lat="45.12735" lon="5.55961">
        <ele>1216</ele>
        <time>2019-07-11T17:31:09Z</time>
      </trkpt>
      <trkpt lat="45.12666" lon="5.55926">
        <ele>1212</ele>
        <time>2019-07-11T17:31:11Z</time>
      </trkpt>
      <trkpt lat="45.12656" lon="5.55923">
        <ele>1212</ele>
        <time>2019-07-11T17:31:14Z</time>
      </trkpt>
      <trkpt lat="45.12635" lon="5.55923">
        <ele>1212</ele>
        <time>2019-07-11T17:31:21Z</time>
      </trkpt>
      <trkpt lat="45.12601" lon="5.55931">
        <ele>1212</ele>
        <time>2019-07-11T17:31:25Z</time>
      </trkpt>
      <trkpt lat="45.12576" lon="5.55946">
        <ele>1211</ele>
        <time>2019-07-11T17:31:27Z</time>
      </trkpt>
      <trkpt lat="45.12568" lon="5.55953">
        <ele>1211</ele>
        <time>2019-07-11T17:31:39Z</time>
      </trkpt>
      <trkpt lat="45.1252" lon="5.56018">
        <ele>1204</ele>
        <time>2019-07-11T17:31:54Z</time>
      </trkpt>
      <trkpt lat="45.12456" lon="5.56097">
        <ele>1195</ele>
        <time>2019-07-11T17:31:57Z</time>
      </trkpt>
      <trkpt lat="45.12441" lon="5.56114">
        <ele>1194</ele>
        <time>2019-07-11T17:32:02Z</time>
      </trkpt>
      <trkpt lat="45.12416" lon="5.56128">
        <ele>1192</ele>
        <time>2019-07-11T17:32:05Z</time>
      </trkpt>
      <trkpt lat="45.12401" lon="5.5613">
        <ele>1192</ele>
        <time>2019-07-11T17:32:08Z</time>
      </trkpt>
      <trkpt lat="45.12383" lon="5.56124">
        <ele>1192</ele>
        <time>2019-07-11T17:32:19Z</time>
      </trkpt>
      <trkpt lat="45.1233" lon="5.56088">
        <ele>1189</ele>
        <time>2019-07-11T17:32:22Z</time>
      </trkpt>
      <trkpt lat="45.12312" lon="5.56081">
        <ele>1188</ele>
        <time>2019-07-11T17:32:23Z</time>
      </trkpt>
      <trkpt lat="45.12304" lon="5.5608">
        <ele>1188</ele>
        <time>2019-07-11T17:32:27Z</time>
      </trkpt>
      <trkpt lat="45.12281" lon="5.56081">
        <ele>1187</ele>
        <time>2019-07-11T17:33:33Z</time>
      </trkpt>
      <trkpt lat="45.11925" lon="5.56225">
        <ele>1162</ele>
        <time>2019-07-11T17:33:36Z</time>
      </trkpt>
      <trkpt lat="45.11913" lon="5.56235">
        <ele>1160</ele>
        <time>2019-07-11T17:33:38Z</time>
      </trkpt>
      <trkpt lat="45.11901" lon="5.56248">
        <ele>1158</ele>
        <time>2019-07-11T17:33:42Z</time>
      </trkpt>
      <trkpt lat="45.11889" lon="5.56268">
        <ele>1158</ele>
        <time>2019-07-11T17:33:49Z</time>
      </trkpt>
      <trkpt lat="45.11866" lon="5.56314">
        <ele>1157</ele>
        <time>2019-07-11T17:33:54Z</time>
      </trkpt>
      <trkpt lat="45.11846" lon="5.56349">
        <ele>1153</ele>
        <time>2019-07-11T17:34:11Z</time>
      </trkpt>
      <trkpt lat="45.11779" lon="5.56445">
        <ele>1138</ele>
        <time>2019-07-11T17:34:18Z</time>
      </trkpt>
      <trkpt lat="45.11757" lon="5.56485">
        <ele>1132</ele>
        <time>2019-07-11T17:34:23Z</time>
      </trkpt>
      <trkpt lat="45.11741" lon="5.56522">
        <ele>1128</ele>
        <time>2019-07-11T17:34:27Z</time>
      </trkpt>
      <trkpt lat="45.11732" lon="5.56549">
        <ele>1126</ele>
        <time>2019-07-11T17:34:30Z</time>
      </trkpt>
      <trkpt lat="45.11728" lon="5.56572">
        <ele>1124</ele>
        <time>2019-07-11T17:34:33Z</time>
      </trkpt>
      <trkpt lat="45.11728" lon="5.56597">
        <ele>1124</ele>
        <time>2019-07-11T17:34:36Z</time>
      </trkpt>
      <trkpt lat="45.11732" lon="5.56621">
        <ele>1123</ele>
        <time>2019-07-11T17:34:39Z</time>
      </trkpt>
      <trkpt lat="45.11739" lon="5.56644">
        <ele>1124</ele>
        <time>2019-07-11T17:34:42Z</time>
      </trkpt>
      <trkpt lat="45.11748" lon="5.5666">
        <ele>1125</ele>
        <time>2019-07-11T17:34:44Z</time>
      </trkpt>
      <trkpt lat="45.11757" lon="5.56671">
        <ele>1125</ele>
        <time>2019-07-11T17:34:46Z</time>
      </trkpt>
      <trkpt lat="45.11769" lon="5.56679">
        <ele>1124</ele>
        <time>2019-07-11T17:34:53Z</time>
      </trkpt>
      <trkpt lat="45.11804" lon="5.56696">
        <ele>1122</ele>
        <time>2019-07-11T17:34:56Z</time>
      </trkpt>
      <trkpt lat="45.11816" lon="5.56712">
        <ele>1120</ele>
        <time>2019-07-11T17:34:57Z</time>
      </trkpt>
      <trkpt lat="45.11821" lon="5.56721">
        <ele>1119</ele>
        <time>2019-07-11T17:35:01Z</time>
      </trkpt>
      <trkpt lat="45.11826" lon="5.56745">
        <ele>1115</ele>
        <time>2019-07-11T17:35:03Z</time>
      </trkpt>
      <trkpt lat="45.11827" lon="5.56768">
        <ele>1114</ele>
        <time>2019-07-11T17:35:07Z</time>
      </trkpt>
      <trkpt lat="45.11824" lon="5.56797">
        <ele>1113</ele>
        <time>2019-07-11T17:35:13Z</time>
      </trkpt>
      <trkpt lat="45.11817" lon="5.56841">
        <ele>1109</ele>
        <time>2019-07-11T17:35:17Z</time>
      </trkpt>
      <trkpt lat="45.11817" lon="5.56871">
        <ele>1106</ele>
        <time>2019-07-11T17:35:19Z</time>
      </trkpt>
      <trkpt lat="45.11822" lon="5.5689">
        <ele>1107</ele>
        <time>2019-07-11T17:35:20Z</time>
      </trkpt>
      <trkpt lat="45.11825" lon="5.56897">
        <ele>1107</ele>
        <time>2019-07-11T17:35:23Z</time>
      </trkpt>
      <trkpt lat="45.11837" lon="5.56911">
        <ele>1109</ele>
        <time>2019-07-11T17:35:28Z</time>
      </trkpt>
      <trkpt lat="45.11863" lon="5.56928">
        <ele>1111</ele>
        <time>2019-07-11T17:35:41Z</time>
      </trkpt>
      <trkpt lat="45.11932" lon="5.56966">
        <ele>1109</ele>
        <time>2019-07-11T17:35:53Z</time>
      </trkpt>
      <trkpt lat="45.11995" lon="5.56995">
        <ele>1104</ele>
        <time>2019-07-11T17:35:56Z</time>
      </trkpt>
      <trkpt lat="45.12012" lon="5.57005">
        <ele>1103</ele>
        <time>2019-07-11T17:36:00Z</time>
      </trkpt>
      <trkpt lat="45.12029" lon="5.57018">
        <ele>1102</ele>
        <time>2019-07-11T17:36:08Z</time>
      </trkpt>
      <trkpt lat="45.12068" lon="5.57055">
        <ele>1096</ele>
        <time>2019-07-11T17:36:28Z</time>
      </trkpt>
      <trkpt lat="45.12174" lon="5.57103">
        <ele>1093</ele>
        <time>2019-07-11T17:36:48Z</time>
      </trkpt>
      <trkpt lat="45.12278" lon="5.57169">
        <ele>1083</ele>
        <time>2019-07-11T17:37:03Z</time>
      </trkpt>
      <trkpt lat="45.12352" lon="5.57233">
        <ele>1074</ele>
        <time>2019-07-11T17:37:20Z</time>
      </trkpt>
      <trkpt lat="45.12432" lon="5.57295">
        <ele>1069</ele>
        <time>2019-07-11T17:37:55Z</time>
      </trkpt>
      <trkpt lat="45.12595" lon="5.57458">
        <ele>1052</ele>
        <time>2019-07-11T17:38:16Z</time>
      </trkpt>
      <trkpt lat="45.12686" lon="5.57568">
        <ele>1048</ele>
        <time>2019-07-11T17:38:26Z</time>
      </trkpt>
      <trkpt lat="45.12737" lon="5.57602">
        <ele>1048</ele>
        <time>2019-07-11T17:38:28Z</time>
      </trkpt>
      <trkpt lat="45.12745" lon="5.57609">
        <ele>1047</ele>
        <time>2019-07-11T17:38:34Z</time>
      </trkpt>
      <trkpt lat="45.12767" lon="5.5764">
        <ele>1041</ele>
        <time>2019-07-11T17:38:51Z</time>
      </trkpt>
      <trkpt lat="45.12834" lon="5.57743">
        <ele>1032</ele>
        <time>2019-07-11T17:38:56Z</time>
      </trkpt>
      <trkpt lat="45.12854" lon="5.57769">
        <ele>1031</ele>
        <time>2019-07-11T17:39:26Z</time>
      </trkpt>
      <trkpt lat="45.12985" lon="5.57913">
        <ele>1017</ele>
        <time>2019-07-11T17:39:30Z</time>
      </trkpt>
      <trkpt lat="45.13002" lon="5.57935">
        <ele>1015</ele>
        <time>2019-07-11T17:39:39Z</time>
      </trkpt>
      <trkpt lat="45.13037" lon="5.57986">
        <ele>1014</ele>
        <time>2019-07-11T17:39:44Z</time>
      </trkpt>
      <trkpt lat="45.13056" lon="5.58019">
        <ele>1012</ele>
        <time>2019-07-11T17:39:46Z</time>
      </trkpt>
      <trkpt lat="45.13059" lon="5.58031">
        <ele>1011</ele>
        <time>2019-07-11T17:39:48Z</time>
      </trkpt>
      <trkpt lat="45.1306" lon="5.5805">
        <ele>1009</ele>
        <time>2019-07-11T17:39:52Z</time>
      </trkpt>
      <trkpt lat="45.1305" lon="5.58096">
        <ele>1005.5</ele>
        <time>2019-07-11T17:46:21Z</time>
      </trkpt>
      <trkpt lat="45.1305" lon="5.58097">
        <ele>1005.5</ele>
        <time>2019-07-11T17:47:01Z</time>
      </trkpt>
      <trkpt lat="45.12282" lon="5.57489">
        <ele>999.3</ele>
        <time>2019-07-11T17:47:19Z</time>
      </trkpt>
      <trkpt lat="45.12173" lon="5.57401">
        <ele>1003</ele>
        <time>2019-07-11T17:47:26Z</time>
      </trkpt>
      <trkpt lat="45.12064" lon="5.57277">
        <ele>1013</ele>
        <time>2019-07-11T17:47:39Z</time>
      </trkpt>
      <trkpt lat="45.12027" lon="5.57255">
        <ele>1015</ele>
        <time>2019-07-11T17:47:44Z</time>
      </trkpt>
      <trkpt lat="45.11807" lon="5.57193">
        <ele>1013</ele>
        <time>2019-07-11T17:48:08Z</time>
      </trkpt>
      <trkpt lat="45.11704" lon="5.57179">
        <ele>1013</ele>
        <time>2019-07-11T17:48:12Z</time>
      </trkpt>
      <trkpt lat="45.11667" lon="5.57191">
        <ele>1012</ele>
        <time>2019-07-11T17:48:15Z</time>
      </trkpt>
      <trkpt lat="45.116" lon="5.57233">
        <ele>1008</ele>
        <time>2019-07-11T17:48:19Z</time>
      </trkpt>
      <trkpt lat="45.11574" lon="5.57246">
        <ele>1007</ele>
        <time>2019-07-11T17:48:23Z</time>
      </trkpt>
      <trkpt lat="45.11439" lon="5.57277">
        <ele>1003</ele>
        <time>2019-07-11T17:48:27Z</time>
      </trkpt>
      <trkpt lat="45.11419" lon="5.57277">
        <ele>1003</ele>
        <time>2019-07-11T17:48:29Z</time>
      </trkpt>
      <trkpt lat="45.114" lon="5.57273">
        <ele>1002</ele>
        <time>2019-07-11T17:48:34Z</time>
      </trkpt>
      <trkpt lat="45.1138" lon="5.57262">
        <ele>1002</ele>
        <time>2019-07-11T17:48:41Z</time>
      </trkpt>
      <trkpt lat="45.11362" lon="5.57247">
        <ele>1001</ele>
        <time>2019-07-11T17:48:47Z</time>
      </trkpt>
      <trkpt lat="45.11343" lon="5.57222">
        <ele>1001</ele>
        <time>2019-07-11T17:48:52Z</time>
      </trkpt>
      <trkpt lat="45.11335" lon="5.57208">
        <ele>1001</ele>
        <time>2019-07-11T17:49:11Z</time>
      </trkpt>
      <trkpt lat="45.11325" lon="5.57177">
        <ele>1001</ele>
        <time>2019-07-11T17:49:19Z</time>
      </trkpt>
      <trkpt lat="45.11312" lon="5.57124">
        <ele>1002</ele>
        <time>2019-07-11T17:49:23Z</time>
      </trkpt>
      <trkpt lat="45.11299" lon="5.57079">
        <ele>1001</ele>
        <time>2019-07-11T17:49:38Z</time>
      </trkpt>
      <trkpt lat="45.11285" lon="5.57042">
        <ele>999</ele>
        <time>2019-07-11T17:49:45Z</time>
      </trkpt>
      <trkpt lat="45.11222" lon="5.56923">
        <ele>996</ele>
        <time>2019-07-11T17:50:15Z</time>
      </trkpt>
      <trkpt lat="45.11193" lon="5.56877">
        <ele>996</ele>
        <time>2019-07-11T17:50:30Z</time>
      </trkpt>
      <trkpt lat="45.11178" lon="5.56846">
        <ele>995</ele>
        <time>2019-07-11T17:51:05Z</time>
      </trkpt>
      <trkpt lat="45.11126" lon="5.56757">
        <ele>991</ele>
        <time>2019-07-11T17:51:31Z</time>
      </trkpt>
      <trkpt lat="45.11095" lon="5.56715">
        <ele>993</ele>
        <time>2019-07-11T17:51:53Z</time>
      </trkpt>
      <trkpt lat="45.10956" lon="5.56579">
        <ele>994</ele>
        <time>2019-07-11T17:52:24Z</time>
      </trkpt>
      <trkpt lat="45.10886" lon="5.5652">
        <ele>993</ele>
        <time>2019-07-11T17:52:31Z</time>
      </trkpt>
      <trkpt lat="45.10713" lon="5.5639">
        <ele>989</ele>
        <time>2019-07-11T17:52:42Z</time>
      </trkpt>
      <trkpt lat="45.10581" lon="5.56303">
        <ele>991</ele>
        <time>2019-07-11T17:53:08Z</time>
      </trkpt>
      <trkpt lat="45.10465" lon="5.5624">
        <ele>988</ele>
        <time>2019-07-11T17:53:12Z</time>
      </trkpt>
      <trkpt lat="45.10301" lon="5.56162">
        <ele>989</ele>
        <time>2019-07-11T17:53:15Z</time>
      </trkpt>
      <trkpt lat="45.10264" lon="5.56141">
        <ele>990</ele>
        <time>2019-07-11T17:54:39Z</time>
      </trkpt>
      <trkpt lat="45.10207" lon="5.56107">
        <ele>991</ele>
        <time>2019-07-11T17:54:53Z</time>
      </trkpt>
      <trkpt lat="45.10073" lon="5.56014">
        <ele>989</ele>
        <time>2019-07-11T17:55:00Z</time>
      </trkpt>
      <trkpt lat="45.10053" lon="5.55997">
        <ele>988</ele>
        <time>2019-07-11T17:55:07Z</time>
      </trkpt>
      <trkpt lat="45.10053" lon="5.55997">
        <ele>988</ele>
        <time>2019-07-11T17:55:33Z</time>
      </trkpt>
      <trkpt lat="45.10041" lon="5.55984">
        <ele>988</ele>
        <time>2019-07-11T17:55:38Z</time>
      </trkpt>
      <trkpt lat="45.09982" lon="5.55908">
        <ele>987</ele>
        <time>2019-07-11T17:55:44Z</time>
      </trkpt>
      <trkpt lat="45.09953" lon="5.55867">
        <ele>987</ele>
        <time>2019-07-11T17:56:08Z</time>
      </trkpt>
      <trkpt lat="45.0992" lon="5.55838">
        <ele>984</ele>
        <time>2019-07-11T17:56:40Z</time>
      </trkpt>
      <trkpt lat="45.09789" lon="5.55758">
        <ele>989</ele>
        <time>2019-07-11T17:56:46Z</time>
      </trkpt>
      <trkpt lat="45.09762" lon="5.55747">
        <ele>988</ele>
        <time>2019-07-11T17:56:51Z</time>
      </trkpt>
      <trkpt lat="45.09724" lon="5.55738">
        <ele>987</ele>
        <time>2019-07-11T17:56:55Z</time>
      </trkpt>
      <trkpt lat="45.09595" lon="5.55697">
        <ele>986</ele>
        <time>2019-07-11T17:57:01Z</time>
      </trkpt>
      <trkpt lat="45.09416" lon="5.55655">
        <ele>982</ele>
        <time>2019-07-11T17:58:02Z</time>
      </trkpt>
      <trkpt lat="45.09439" lon="5.55692">
        <ele>982</ele>
        <time>2019-07-11T17:58:10Z</time>
      </trkpt>
      <trkpt lat="45.09418" lon="5.55674">
        <ele>982</ele>
        <time>2019-07-11T17:58:12Z</time>
      </trkpt>
      <trkpt lat="45.09439" lon="5.55692">
        <ele>982</ele>
        <time>2019-07-11T17:58:13Z</time>
      </trkpt>
      <trkpt lat="45.09416" lon="5.55655">
        <ele>982</ele>
        <time>2019-07-11T17:58:14Z</time>
      </trkpt>
      <trkpt lat="45.09082" lon="5.55579">
        <ele>976</ele>
        <time>2019-07-11T17:58:16Z</time>
      </trkpt>
      <trkpt lat="45.09035" lon="5.55556">
        <ele>976</ele>
        <time>2019-07-11T17:58:17Z</time>
      </trkpt>
      <trkpt lat="45.09034" lon="5.55547">
        <ele>976</ele>
        <time>2019-07-11T17:58:19Z</time>
      </trkpt>
      <trkpt lat="45.09029" lon="5.55538">
        <ele>976</ele>
        <time>2019-07-11T17:58:22Z</time>
      </trkpt>
      <trkpt lat="45.09024" lon="5.55533">
        <ele>976</ele>
        <time>2019-07-11T17:58:29Z</time>
      </trkpt>
      <trkpt lat="45.09015" lon="5.55529">
        <ele>976</ele>
        <time>2019-07-11T17:59:23Z</time>
      </trkpt>
      <trkpt lat="45.09006" lon="5.55533">
        <ele>976</ele>
        <time>2019-07-11T17:59:46Z</time>
      </trkpt>
      <trkpt lat="45.08999" lon="5.5554">
        <ele>976</ele>
        <time>2019-07-11T17:59:47Z</time>
      </trkpt>
      <trkpt lat="45.08985" lon="5.55544">
        <ele>977</ele>
        <time>2019-07-11T18:00:12Z</time>
      </trkpt>
      <trkpt lat="45.08942" lon="5.55537">
        <ele>977</ele>
        <time>2019-07-11T18:00:17Z</time>
      </trkpt>
      <trkpt lat="45.08647" lon="5.5545">
        <ele>978</ele>
        <time>2019-07-11T18:00:23Z</time>
      </trkpt>
      <trkpt lat="45.08517" lon="5.55413">
        <ele>977</ele>
        <time>2019-07-11T18:00:51Z</time>
      </trkpt>
      <trkpt lat="45.08516" lon="5.5542">
        <ele>977</ele>
        <time>2019-07-11T18:00:52Z</time>
      </trkpt>
      <trkpt lat="45.08382" lon="5.55386">
        <ele>981</ele>
        <time>2019-07-11T18:00:54Z</time>
      </trkpt>
      <trkpt lat="45.08353" lon="5.55384">
        <ele>981</ele>
        <time>2019-07-11T18:01:02Z</time>
      </trkpt>
      <trkpt lat="45.08319" lon="5.55386">
        <ele>982</ele>
        <time>2019-07-11T18:01:15Z</time>
      </trkpt>
      <trkpt lat="45.08161" lon="5.55407">
        <ele>986</ele>
        <time>2019-07-11T18:01:19Z</time>
      </trkpt>
      <trkpt lat="45.08162" lon="5.55399">
        <ele>986</ele>
        <time>2019-07-11T18:01:23Z</time>
      </trkpt>
      <trkpt lat="45.08149" lon="5.55395">
        <ele>986</ele>
        <time>2019-07-11T18:01:28Z</time>
      </trkpt>
      <trkpt lat="45.08111" lon="5.5537">
        <ele>986</ele>
        <time>2019-07-11T18:01:35Z</time>
      </trkpt>
      <trkpt lat="45.08046" lon="5.55321">
        <ele>986</ele>
        <time>2019-07-11T18:01:36Z</time>
      </trkpt>
      <trkpt lat="45.08025" lon="5.55311">
        <ele>986</ele>
        <time>2019-07-11T18:01:36Z</time>
      </trkpt>
      <trkpt lat="45.08002" lon="5.55308">
        <ele>987</ele>
        <time>2019-07-11T18:01:38Z</time>
      </trkpt>
      <trkpt lat="45.07973" lon="5.55313">
        <ele>986</ele>
        <time>2019-07-11T18:01:40Z</time>
      </trkpt>
      <trkpt lat="45.07941" lon="5.55336">
        <ele>985</ele>
        <time>2019-07-11T18:01:42Z</time>
      </trkpt>
      <trkpt lat="45.07941" lon="5.55336">
        <ele>985</ele>
        <time>2019-07-11T18:01:46Z</time>
      </trkpt>
      <trkpt lat="45.07935" lon="5.55326">
        <ele>984</ele>
        <time>2019-07-11T18:01:50Z</time>
      </trkpt>
      <trkpt lat="45.07925" lon="5.55323">
        <ele>983</ele>
        <time>2019-07-11T18:01:54Z</time>
      </trkpt>
      <trkpt lat="45.07917" lon="5.5533">
        <ele>983</ele>
        <time>2019-07-11T18:01:57Z</time>
      </trkpt>
      <trkpt lat="45.07913" lon="5.55343">
        <ele>983</ele>
        <time>2019-07-11T18:02:00Z</time>
      </trkpt>
      <trkpt lat="45.07886" lon="5.55339">
        <ele>981</ele>
        <time>2019-07-11T18:02:03Z</time>
      </trkpt>
      <trkpt lat="45.07863" lon="5.55341">
        <ele>979</ele>
        <time>2019-07-11T18:02:05Z</time>
      </trkpt>
      <trkpt lat="45.07842" lon="5.5534">
        <ele>977</ele>
        <time>2019-07-11T18:02:14Z</time>
      </trkpt>
      <trkpt lat="45.07829" lon="5.55336">
        <ele>977</ele>
        <time>2019-07-11T18:02:24Z</time>
      </trkpt>
      <trkpt lat="45.0781" lon="5.55323">
        <ele>978</ele>
        <time>2019-07-11T18:02:29Z</time>
      </trkpt>
      <trkpt lat="45.078" lon="5.5531">
        <ele>978</ele>
        <time>2019-07-11T18:02:37Z</time>
      </trkpt>
      <trkpt lat="45.07792" lon="5.55295">
        <ele>978</ele>
        <time>2019-07-11T18:02:40Z</time>
      </trkpt>
      <trkpt lat="45.07765" lon="5.55237">
        <ele>976</ele>
        <time>2019-07-11T18:02:45Z</time>
      </trkpt>
      <trkpt lat="45.0773" lon="5.55172">
        <ele>979</ele>
        <time>2019-07-11T18:02:49Z</time>
      </trkpt>
      <trkpt lat="45.07711" lon="5.55141">
        <ele>979</ele>
        <time>2019-07-11T18:02:57Z</time>
      </trkpt>
      <trkpt lat="45.07678" lon="5.55095">
        <ele>977</ele>
        <time>2019-07-11T18:03:06Z</time>
      </trkpt>
      <trkpt lat="45.07665" lon="5.5508">
        <ele>977</ele>
        <time>2019-07-11T18:03:10Z</time>
      </trkpt>
      <trkpt lat="45.07642" lon="5.5506">
        <ele>976</ele>
        <time>2019-07-11T18:03:16Z</time>
      </trkpt>
      <trkpt lat="45.07624" lon="5.55051">
        <ele>976</ele>
        <time>2019-07-11T18:03:21Z</time>
      </trkpt>
      <trkpt lat="45.0758" lon="5.55022">
        <ele>975</ele>
        <time>2019-07-11T18:03:35Z</time>
      </trkpt>
      <trkpt lat="45.07535" lon="5.5499">
        <ele>974</ele>
        <time>2019-07-11T18:03:39Z</time>
      </trkpt>
      <trkpt lat="45.07515" lon="5.54974">
        <ele>974</ele>
        <time>2019-07-11T18:03:43Z</time>
      </trkpt>
      <trkpt lat="45.07487" lon="5.54948">
        <ele>973</ele>
        <time>2019-07-11T18:03:46Z</time>
      </trkpt>
      <trkpt lat="45.07469" lon="5.54925">
        <ele>972</ele>
        <time>2019-07-11T18:03:55Z</time>
      </trkpt>
      <trkpt lat="45.07403" lon="5.54853">
        <ele>972</ele>
        <time>2019-07-11T18:03:56Z</time>
      </trkpt>
      <trkpt lat="45.07388" lon="5.54832">
        <ele>971</ele>
        <time>2019-07-11T18:03:56Z</time>
      </trkpt>
      <trkpt lat="45.07376" lon="5.54803">
        <ele>970</ele>
        <time>2019-07-11T18:03:58Z</time>
      </trkpt>
      <trkpt lat="45.07371" lon="5.54782">
        <ele>968</ele>
        <time>2019-07-11T18:03:59Z</time>
      </trkpt>
      <trkpt lat="45.07367" lon="5.54712">
        <ele>965</ele>
        <time>2019-07-11T18:04:00Z</time>
      </trkpt>
      <trkpt lat="45.07367" lon="5.54712">
        <ele>965</ele>
        <time>2019-07-11T18:04:01Z</time>
      </trkpt>
      <trkpt lat="45.07373" lon="5.54704">
        <ele>965</ele>
        <time>2019-07-11T18:04:02Z</time>
      </trkpt>
      <trkpt lat="45.07376" lon="5.54695">
        <ele>965</ele>
        <time>2019-07-11T18:04:04Z</time>
      </trkpt>
      <trkpt lat="45.07374" lon="5.54684">
        <ele>964</ele>
        <time>2019-07-11T18:04:05Z</time>
      </trkpt>
      <trkpt lat="45.07371" lon="5.54677">
        <ele>964</ele>
        <time>2019-07-11T18:04:07Z</time>
      </trkpt>
      <trkpt lat="45.07365" lon="5.54673">
        <ele>964</ele>
        <time>2019-07-11T18:04:13Z</time>
      </trkpt>
      <trkpt lat="45.07359" lon="5.54672">
        <ele>964</ele>
        <time>2019-07-11T18:04:42Z</time>
      </trkpt>
      <trkpt lat="45.07352" lon="5.54676">
        <ele>964</ele>
        <time>2019-07-11T18:04:56Z</time>
      </trkpt>
      <trkpt lat="45.07347" lon="5.54685">
        <ele>964</ele>
        <time>2019-07-11T18:05:21Z</time>
      </trkpt>
      <trkpt lat="45.07338" lon="5.54678">
        <ele>964</ele>
        <time>2019-07-11T18:05:30Z</time>
      </trkpt>
      <trkpt lat="45.07308" lon="5.54663">
        <ele>964</ele>
        <time>2019-07-11T18:05:37Z</time>
      </trkpt>
      <trkpt lat="45.0715" lon="5.54604">
        <ele>969</ele>
        <time>2019-07-11T18:05:43Z</time>
      </trkpt>
      <trkpt lat="45.07073" lon="5.54579">
        <ele>972</ele>
        <time>2019-07-11T18:05:47Z</time>
      </trkpt>
      <trkpt lat="45.06937" lon="5.54529">
        <ele>990</ele>
        <time>2019-07-11T18:05:53Z</time>
      </trkpt>
      <trkpt lat="45.06887" lon="5.54526">
        <ele>994</ele>
        <time>2019-07-11T18:05:59Z</time>
      </trkpt>
      <trkpt lat="45.06849" lon="5.54531">
        <ele>996</ele>
        <time>2019-07-11T18:06:01Z</time>
      </trkpt>
      <trkpt lat="45.06815" lon="5.54543">
        <ele>993</ele>
        <time>2019-07-11T18:06:02Z</time>
      </trkpt>
      <trkpt lat="45.06794" lon="5.54552">
        <ele>991</ele>
        <time>2019-07-11T18:06:03Z</time>
      </trkpt>
      <trkpt lat="45.0676" lon="5.54572">
        <ele>985</ele>
        <time>2019-07-11T18:06:05Z</time>
      </trkpt>
      <trkpt lat="45.06731" lon="5.54597">
        <ele>980</ele>
        <time>2019-07-11T18:06:05Z</time>
      </trkpt>
      <trkpt lat="45.06725" lon="5.54587">
        <ele>981</ele>
        <time>2019-07-11T18:06:08Z</time>
      </trkpt>
      <trkpt lat="45.0672" lon="5.54586">
        <ele>981</ele>
        <time>2019-07-11T18:06:10Z</time>
      </trkpt>
      <trkpt lat="45.06715" lon="5.54587">
        <ele>981</ele>
        <time>2019-07-11T18:06:26Z</time>
      </trkpt>
      <trkpt lat="45.06716" lon="5.54573">
        <ele>985</ele>
        <time>2019-07-11T18:06:34Z</time>
      </trkpt>
      <trkpt lat="45.06719" lon="5.54568">
        <ele>987</ele>
        <time>2019-07-11T18:06:37Z</time>
      </trkpt>
      <trkpt lat="45.06734" lon="5.54567">
        <ele>988</ele>
        <time>2019-07-11T18:06:53Z</time>
      </trkpt>
      <trkpt lat="45.06747" lon="5.54562">
        <ele>989</ele>
        <time>2019-07-11T18:06:57Z</time>
      </trkpt>
      <trkpt lat="45.06826" lon="5.54513">
        <ele>1004</ele>
        <time>2019-07-11T18:07:01Z</time>
      </trkpt>
      <trkpt lat="45.06871" lon="5.54493">
        <ele>1008</ele>
        <time>2019-07-11T18:07:15Z</time>
      </trkpt>
      <trkpt lat="45.06889" lon="5.54491">
        <ele>1008</ele>
        <time>2019-07-11T18:07:18Z</time>
      </trkpt>
      <trkpt lat="45.06977" lon="5.545">
        <ele>1000</ele>
        <time>2019-07-11T18:07:20Z</time>
      </trkpt>
      <trkpt lat="45.07" lon="5.54505">
        <ele>998</ele>
        <time>2019-07-11T18:07:23Z</time>
      </trkpt>
      <trkpt lat="45.07023" lon="5.54504">
        <ele>999</ele>
        <time>2019-07-11T18:07:31Z</time>
      </trkpt>
      <trkpt lat="45.07097" lon="5.54479">
        <ele>1008</ele>
        <time>2019-07-11T18:07:36Z</time>
      </trkpt>
      <trkpt lat="45.07112" lon="5.5447">
        <ele>1008</ele>
        <time>2019-07-11T18:07:38Z</time>
      </trkpt>
      <trkpt lat="45.07124" lon="5.54458">
        <ele>1010</ele>
        <time>2019-07-11T18:07:40Z</time>
      </trkpt>
      <trkpt lat="45.07134" lon="5.54443">
        <ele>1013</ele>
        <time>2019-07-11T18:07:42Z</time>
      </trkpt>
      <trkpt lat="45.07163" lon="5.54391">
        <ele>1014</ele>
        <time>2019-07-11T18:07:45Z</time>
      </trkpt>
      <trkpt lat="45.07178" lon="5.54362">
        <ele>1013</ele>
        <time>2019-07-11T18:07:49Z</time>
      </trkpt>
      <trkpt lat="45.07184" lon="5.54346">
        <ele>1012</ele>
        <time>2019-07-11T18:08:04Z</time>
      </trkpt>
      <trkpt lat="45.07186" lon="5.54327">
        <ele>1012</ele>
        <time>2019-07-11T18:08:08Z</time>
      </trkpt>
      <trkpt lat="45.07187" lon="5.54313">
        <ele>1011</ele>
        <time>2019-07-11T18:08:14Z</time>
      </trkpt>
      <trkpt lat="45.07183" lon="5.54295">
        <ele>1012</ele>
        <time>2019-07-11T18:08:18Z</time>
      </trkpt>
      <trkpt lat="45.07173" lon="5.54263">
        <ele>1014</ele>
        <time>2019-07-11T18:08:31Z</time>
      </trkpt>
      <trkpt lat="45.07128" lon="5.54158">
        <ele>1018</ele>
        <time>2019-07-11T18:08:33Z</time>
      </trkpt>
      <trkpt lat="45.0712" lon="5.54136">
        <ele>1020</ele>
        <time>2019-07-11T18:08:35Z</time>
      </trkpt>
      <trkpt lat="45.0711" lon="5.5409">
        <ele>1022</ele>
        <time>2019-07-11T18:08:38Z</time>
      </trkpt>
      <trkpt lat="45.07097" lon="5.54061">
        <ele>1023</ele>
        <time>2019-07-11T18:08:48Z</time>
      </trkpt>
      <trkpt lat="45.07051" lon="5.53983">
        <ele>1028</ele>
        <time>2019-07-11T18:08:54Z</time>
      </trkpt>
      <trkpt lat="45.07042" lon="5.53971">
        <ele>1028</ele>
        <time>2019-07-11T18:09:12Z</time>
      </trkpt>
      <trkpt lat="45.07032" lon="5.5396">
        <ele>1029</ele>
        <time>2019-07-11T18:09:21Z</time>
      </trkpt>
      <trkpt lat="45.07016" lon="5.53949">
        <ele>1031</ele>
        <time>2019-07-11T18:09:39Z</time>
      </trkpt>
      <trkpt lat="45.06966" lon="5.53928">
        <ele>1043</ele>
        <time>2019-07-11T18:09:58Z</time>
      </trkpt>
      <trkpt lat="45.06933" lon="5.53911">
        <ele>1051</ele>
        <time>2019-07-11T18:10:03Z</time>
      </trkpt>
      <trkpt lat="45.06846" lon="5.53841">
        <ele>1058</ele>
        <time>2019-07-11T18:10:05Z</time>
      </trkpt>
      <trkpt lat="45.06798" lon="5.53805">
        <ele>1063</ele>
        <time>2019-07-11T18:10:07Z</time>
      </trkpt>
      <trkpt lat="45.06708" lon="5.53753">
        <ele>1078</ele>
        <time>2019-07-11T18:10:09Z</time>
      </trkpt>
      <trkpt lat="45.06616" lon="5.53667">
        <ele>1093</ele>
        <time>2019-07-11T18:10:11Z</time>
      </trkpt>
      <trkpt lat="45.06594" lon="5.53645">
        <ele>1102</ele>
        <time>2019-07-11T18:10:15Z</time>
      </trkpt>
      <trkpt lat="45.06585" lon="5.53631">
        <ele>1106</ele>
        <time>2019-07-11T18:10:17Z</time>
      </trkpt>
      <trkpt lat="45.06583" lon="5.53617">
        <ele>1107</ele>
        <time>2019-07-11T18:10:26Z</time>
      </trkpt>
      <trkpt lat="45.06584" lon="5.53605">
        <ele>1108</ele>
        <time>2019-07-11T18:10:47Z</time>
      </trkpt>
      <trkpt lat="45.0659" lon="5.53591">
        <ele>1109</ele>
        <time>2019-07-11T18:10:50Z</time>
      </trkpt>
      <trkpt lat="45.06608" lon="5.53575">
        <ele>1109</ele>
        <time>2019-07-11T18:10:57Z</time>
      </trkpt>
      <trkpt lat="45.06623" lon="5.53567">
        <ele>1109</ele>
        <time>2019-07-11T18:10:59Z</time>
      </trkpt>
      <trkpt lat="45.06673" lon="5.53552">
        <ele>1109</ele>
        <time>2019-07-11T18:11:11Z</time>
      </trkpt>
      <trkpt lat="45.06785" lon="5.53531">
        <ele>1110</ele>
        <time>2019-07-11T18:11:15Z</time>
      </trkpt>
      <trkpt lat="45.06803" lon="5.53523">
        <ele>1110</ele>
        <time>2019-07-11T18:11:19Z</time>
      </trkpt>
      <trkpt lat="45.06841" lon="5.53502">
        <ele>1111</ele>
        <time>2019-07-11T18:11:23Z</time>
      </trkpt>
      <trkpt lat="45.06848" lon="5.53491">
        <ele>1111</ele>
        <time>2019-07-11T18:11:28Z</time>
      </trkpt>
      <trkpt lat="45.06861" lon="5.53399">
        <ele>1118</ele>
        <time>2019-07-11T18:11:39Z</time>
      </trkpt>
      <trkpt lat="45.0686" lon="5.53365">
        <ele>1121</ele>
        <time>2019-07-11T18:11:44Z</time>
      </trkpt>
      <trkpt lat="45.06856" lon="5.53334">
        <ele>1124</ele>
        <time>2019-07-11T18:11:50Z</time>
      </trkpt>
      <trkpt lat="45.06842" lon="5.53313">
        <ele>1125</ele>
        <time>2019-07-11T18:12:04Z</time>
      </trkpt>
      <trkpt lat="45.06816" lon="5.53293">
        <ele>1126</ele>
        <time>2019-07-11T18:12:11Z</time>
      </trkpt>
      <trkpt lat="45.06757" lon="5.53263">
        <ele>1124</ele>
        <time>2019-07-11T18:12:14Z</time>
      </trkpt>
      <trkpt lat="45.06731" lon="5.53256">
        <ele>1125</ele>
        <time>2019-07-11T18:12:15Z</time>
      </trkpt>
      <trkpt lat="45.06699" lon="5.53252">
        <ele>1128</ele>
        <time>2019-07-11T18:12:16Z</time>
      </trkpt>
      <trkpt lat="45.06619" lon="5.53251">
        <ele>1133</ele>
        <time>2019-07-11T18:12:18Z</time>
      </trkpt>
      <trkpt lat="45.06579" lon="5.5324">
        <ele>1134</ele>
        <time>2019-07-11T18:12:20Z</time>
      </trkpt>
      <trkpt lat="45.06564" lon="5.53232">
        <ele>1134</ele>
        <time>2019-07-11T18:12:25Z</time>
      </trkpt>
      <trkpt lat="45.06559" lon="5.53226">
        <ele>1134</ele>
        <time>2019-07-11T18:12:30Z</time>
      </trkpt>
      <trkpt lat="45.06554" lon="5.53218">
        <ele>1134</ele>
        <time>2019-07-11T18:12:32Z</time>
      </trkpt>
      <trkpt lat="45.06553" lon="5.53208">
        <ele>1134</ele>
        <time>2019-07-11T18:12:44Z</time>
      </trkpt>
      <trkpt lat="45.06555" lon="5.53192">
        <ele>1133</ele>
        <time>2019-07-11T18:13:07Z</time>
      </trkpt>
      <trkpt lat="45.06571" lon="5.53152">
        <ele>1130</ele>
        <time>2019-07-11T18:13:11Z</time>
      </trkpt>
      <trkpt lat="45.06581" lon="5.5312">
        <ele>1131</ele>
        <time>2019-07-11T18:13:14Z</time>
      </trkpt>
      <trkpt lat="45.06584" lon="5.53104">
        <ele>1131</ele>
        <time>2019-07-11T18:13:16Z</time>
      </trkpt>
      <trkpt lat="45.06594" lon="5.53008">
        <ele>1130</ele>
        <time>2019-07-11T18:13:17Z</time>
      </trkpt>
      <trkpt lat="45.06609" lon="5.52827">
        <ele>1135</ele>
        <time>2019-07-11T18:13:17Z</time>
      </trkpt>
      <trkpt lat="45.0661" lon="5.52797">
        <ele>1135</ele>
        <time>2019-07-11T18:13:18Z</time>
      </trkpt>
      <trkpt lat="45.06609" lon="5.52775">
        <ele>1136</ele>
        <time>2019-07-11T18:13:27Z</time>
      </trkpt>
      <trkpt lat="45.06606" lon="5.52756">
        <ele>1136</ele>
        <time>2019-07-11T18:13:43Z</time>
      </trkpt>
      <trkpt lat="45.06604" lon="5.52752">
        <ele>1136</ele>
        <time>2019-07-11T18:13:48Z</time>
      </trkpt>
      <trkpt lat="45.06606" lon="5.52756">
        <ele>1136</ele>
        <time>2019-07-11T18:13:54Z</time>
      </trkpt>
      <trkpt lat="45.06605" lon="5.52749">
        <ele>1136</ele>
        <time>2019-07-11T18:13:58Z</time>
      </trkpt>
      <trkpt lat="45.0658" lon="5.5269">
        <ele>1136</ele>
        <time>2019-07-11T18:14:02Z</time>
      </trkpt>
      <trkpt lat="45.06528" lon="5.52589">
        <ele>1139</ele>
        <time>2019-07-11T18:14:06Z</time>
      </trkpt>
      <trkpt lat="45.06514" lon="5.52554">
        <ele>1140</ele>
        <time>2019-07-11T18:14:09Z</time>
      </trkpt>
      <trkpt lat="45.06502" lon="5.52505">
        <ele>1143</ele>
        <time>2019-07-11T18:14:12Z</time>
      </trkpt>
      <trkpt lat="45.06491" lon="5.52475">
        <ele>1143</ele>
        <time>2019-07-11T18:14:15Z</time>
      </trkpt>
      <trkpt lat="45.06477" lon="5.52453">
        <ele>1142</ele>
        <time>2019-07-11T18:14:33Z</time>
      </trkpt>
      <trkpt lat="45.06458" lon="5.5244">
        <ele>1142</ele>
        <time>2019-07-11T18:14:38Z</time>
      </trkpt>
      <trkpt lat="45.06438" lon="5.52437">
        <ele>1141</ele>
        <time>2019-07-11T18:14:44Z</time>
      </trkpt>
      <trkpt lat="45.06422" lon="5.52438">
        <ele>1141</ele>
        <time>2019-07-11T18:14:48Z</time>
      </trkpt>
      <trkpt lat="45.06406" lon="5.52443">
        <ele>1140</ele>
        <time>2019-07-11T18:14:58Z</time>
      </trkpt>
      <trkpt lat="45.06311" lon="5.5248">
        <ele>1139</ele>
        <time>2019-07-11T18:15:00Z</time>
      </trkpt>
      <trkpt lat="45.06281" lon="5.52485">
        <ele>1138</ele>
        <time>2019-07-11T18:15:12Z</time>
      </trkpt>
      <trkpt lat="45.0625" lon="5.52477">
        <ele>1137</ele>
        <time>2019-07-11T18:15:16Z</time>
      </trkpt>
      <trkpt lat="45.06228" lon="5.52464">
        <ele>1137</ele>
        <time>2019-07-11T18:15:17Z</time>
      </trkpt>
      <trkpt lat="45.06178" lon="5.52427">
        <ele>1137</ele>
        <time>2019-07-11T18:15:19Z</time>
      </trkpt>
      <trkpt lat="45.06168" lon="5.52424">
        <ele>1137</ele>
        <time>2019-07-11T18:15:21Z</time>
      </trkpt>
      <trkpt lat="45.06097" lon="5.52412">
        <ele>1141</ele>
        <time>2019-07-11T18:15:25Z</time>
      </trkpt>
      <trkpt lat="45.06081" lon="5.52402">
        <ele>1141</ele>
        <time>2019-07-11T18:15:28Z</time>
      </trkpt>
      <trkpt lat="45.06075" lon="5.52396">
        <ele>1141</ele>
        <time>2019-07-11T18:15:29Z</time>
      </trkpt>
      <trkpt lat="45.0607" lon="5.52385">
        <ele>1141</ele>
        <time>2019-07-11T18:15:33Z</time>
      </trkpt>
      <trkpt lat="45.06064" lon="5.52366">
        <ele>1140</ele>
        <time>2019-07-11T18:15:36Z</time>
      </trkpt>
      <trkpt lat="45.06058" lon="5.52336">
        <ele>1139</ele>
        <time>2019-07-11T18:15:38Z</time>
      </trkpt>
      <trkpt lat="45.06052" lon="5.52316">
        <ele>1138</ele>
        <time>2019-07-11T18:15:39Z</time>
      </trkpt>
      <trkpt lat="45.06047" lon="5.52307">
        <ele>1138</ele>
        <time>2019-07-11T18:15:41Z</time>
      </trkpt>
      <trkpt lat="45.06034" lon="5.52288">
        <ele>1137</ele>
        <time>2019-07-11T18:15:42Z</time>
      </trkpt>
      <trkpt lat="45.06018" lon="5.52269">
        <ele>1137</ele>
        <time>2019-07-11T18:15:43Z</time>
      </trkpt>
      <trkpt lat="45.06011" lon="5.52266">
        <ele>1137</ele>
        <time>2019-07-11T18:15:52Z</time>
      </trkpt>
      <trkpt lat="45.06004" lon="5.52268">
        <ele>1137</ele>
        <time>2019-07-11T18:15:56Z</time>
      </trkpt>
      <trkpt lat="45.05998" lon="5.52279">
        <ele>1138</ele>
        <time>2019-07-11T18:16:00Z</time>
      </trkpt>
      <trkpt lat="45.05997" lon="5.52287">
        <ele>1139</ele>
        <time>2019-07-11T18:16:18Z</time>
      </trkpt>
      <trkpt lat="45.06" lon="5.52298">
        <ele>1139</ele>
        <time>2019-07-11T18:16:29Z</time>
      </trkpt>
      <trkpt lat="45.05951" lon="5.52295">
        <ele>1139</ele>
        <time>2019-07-11T18:16:46Z</time>
      </trkpt>
      <trkpt lat="45.05928" lon="5.52288">
        <ele>1138</ele>
        <time>2019-07-11T18:16:50Z</time>
      </trkpt>
      <trkpt lat="45.05907" lon="5.52278">
        <ele>1139</ele>
        <time>2019-07-11T18:16:53Z</time>
      </trkpt>
      <trkpt lat="45.05814" lon="5.52224">
        <ele>1141</ele>
        <time>2019-07-11T18:17:09Z</time>
      </trkpt>
      <trkpt lat="45.05752" lon="5.52212">
        <ele>1147</ele>
        <time>2019-07-11T18:17:12Z</time>
      </trkpt>
      <trkpt lat="45.05662" lon="5.52163">
        <ele>1146</ele>
        <time>2019-07-11T18:17:15Z</time>
      </trkpt>
      <trkpt lat="45.05645" lon="5.52147">
        <ele>1148</ele>
        <time>2019-07-11T18:17:17Z</time>
      </trkpt>
      <trkpt lat="45.05634" lon="5.52124">
        <ele>1148</ele>
        <time>2019-07-11T18:17:31Z</time>
      </trkpt>
      <trkpt lat="45.0559" lon="5.52016">
        <ele>1157</ele>
        <time>2019-07-11T18:17:32Z</time>
      </trkpt>
      <trkpt lat="45.05588" lon="5.51991">
        <ele>1158</ele>
        <time>2019-07-11T18:17:41Z</time>
      </trkpt>
      <trkpt lat="45.05589" lon="5.51965">
        <ele>1156</ele>
        <time>2019-07-11T18:17:42Z</time>
      </trkpt>
      <trkpt lat="45.05587" lon="5.51951">
        <ele>1156</ele>
        <time>2019-07-11T18:17:43Z</time>
      </trkpt>
      <trkpt lat="45.05557" lon="5.51848">
        <ele>1162</ele>
        <time>2019-07-11T18:17:47Z</time>
      </trkpt>
      <trkpt lat="45.0556" lon="5.51839">
        <ele>1161</ele>
        <time>2019-07-11T18:17:48Z</time>
      </trkpt>
      <trkpt lat="45.05583" lon="5.51782">
        <ele>1154</ele>
        <time>2019-07-11T18:17:52Z</time>
      </trkpt>
      <trkpt lat="45.05584" lon="5.51769">
        <ele>1154</ele>
        <time>2019-07-11T18:17:53Z</time>
      </trkpt>
      <trkpt lat="45.05582" lon="5.51762">
        <ele>1154</ele>
        <time>2019-07-11T18:17:55Z</time>
      </trkpt>
      <trkpt lat="45.05569" lon="5.51741">
        <ele>1157</ele>
        <time>2019-07-11T18:18:00Z</time>
      </trkpt>
      <trkpt lat="45.05568" lon="5.51734">
        <ele>1156</ele>
        <time>2019-07-11T18:18:02Z</time>
      </trkpt>
      <trkpt lat="45.05571" lon="5.51703">
        <ele>1153</ele>
        <time>2019-07-11T18:18:09Z</time>
      </trkpt>
      <trkpt lat="45.0557" lon="5.51691">
        <ele>1152</ele>
        <time>2019-07-11T18:18:10Z</time>
      </trkpt>
      <trkpt lat="45.05568" lon="5.51679">
        <ele>1152</ele>
        <time>2019-07-11T18:18:13Z</time>
      </trkpt>
      <trkpt lat="45.05549" lon="5.51649">
        <ele>1155</ele>
        <time>2019-07-11T18:18:15Z</time>
      </trkpt>
      <trkpt lat="45.05543" lon="5.51636">
        <ele>1155</ele>
        <time>2019-07-11T18:18:16Z</time>
      </trkpt>
      <trkpt lat="45.05534" lon="5.51583">
        <ele>1153</ele>
        <time>2019-07-11T18:18:18Z</time>
      </trkpt>
      <trkpt lat="45.05533" lon="5.51572">
        <ele>1154</ele>
        <time>2019-07-11T18:18:21Z</time>
      </trkpt>
      <trkpt lat="45.05534" lon="5.51548">
        <ele>1157</ele>
        <time>2019-07-11T18:18:25Z</time>
      </trkpt>
      <trkpt lat="45.05539" lon="5.51536">
        <ele>1158</ele>
        <time>2019-07-11T18:18:27Z</time>
      </trkpt>
      <trkpt lat="45.05545" lon="5.51528">
        <ele>1158</ele>
        <time>2019-07-11T18:18:29Z</time>
      </trkpt>
      <trkpt lat="45.05556" lon="5.51523">
        <ele>1158</ele>
        <time>2019-07-11T18:18:31Z</time>
      </trkpt>
      <trkpt lat="45.05573" lon="5.51519">
        <ele>1156</ele>
        <time>2019-07-11T18:18:33Z</time>
      </trkpt>
      <trkpt lat="45.05593" lon="5.5151">
        <ele>1155</ele>
        <time>2019-07-11T18:18:38Z</time>
      </trkpt>
      <trkpt lat="45.05602" lon="5.51501">
        <ele>1154</ele>
        <time>2019-07-11T18:18:41Z</time>
      </trkpt>
      <trkpt lat="45.05609" lon="5.51489">
        <ele>1153</ele>
        <time>2019-07-11T18:18:42Z</time>
      </trkpt>
      <trkpt lat="45.05613" lon="5.51472">
        <ele>1154</ele>
        <time>2019-07-11T18:18:44Z</time>
      </trkpt>
      <trkpt lat="45.05612" lon="5.51454">
        <ele>1156</ele>
        <time>2019-07-11T18:18:48Z</time>
      </trkpt>
      <trkpt lat="45.05601" lon="5.51423">
        <ele>1161</ele>
        <time>2019-07-11T18:18:50Z</time>
      </trkpt>
      <trkpt lat="45.05601" lon="5.51398">
        <ele>1164</ele>
        <time>2019-07-11T18:18:52Z</time>
      </trkpt>
      <trkpt lat="45.05604" lon="5.51389">
        <ele>1164</ele>
        <time>2019-07-11T18:18:53Z</time>
      </trkpt>
      <trkpt lat="45.05612" lon="5.5138">
        <ele>1164</ele>
        <time>2019-07-11T18:18:56Z</time>
      </trkpt>
      <trkpt lat="45.05633" lon="5.51361">
        <ele>1161</ele>
        <time>2019-07-11T18:18:59Z</time>
      </trkpt>
      <trkpt lat="45.05639" lon="5.51351">
        <ele>1161</ele>
        <time>2019-07-11T18:19:02Z</time>
      </trkpt>
      <trkpt lat="45.05643" lon="5.51341">
        <ele>1162</ele>
        <time>2019-07-11T18:19:06Z</time>
      </trkpt>
      <trkpt lat="45.05645" lon="5.51331">
        <ele>1163</ele>
        <time>2019-07-11T18:19:14Z</time>
      </trkpt>
      <trkpt lat="45.05643" lon="5.51306">
        <ele>1166</ele>
        <time>2019-07-11T18:19:16Z</time>
      </trkpt>
      <trkpt lat="45.05637" lon="5.5128">
        <ele>1169</ele>
        <time>2019-07-11T18:19:18Z</time>
      </trkpt>
      <trkpt lat="45.05631" lon="5.51264">
        <ele>1172</ele>
        <time>2019-07-11T18:19:19Z</time>
      </trkpt>
      <trkpt lat="45.05616" lon="5.51235">
        <ele>1176</ele>
        <time>2019-07-11T18:19:21Z</time>
      </trkpt>
      <trkpt lat="45.05585" lon="5.51196">
        <ele>1181</ele>
        <time>2019-07-11T18:19:22Z</time>
      </trkpt>
      <trkpt lat="45.0558" lon="5.51182">
        <ele>1183</ele>
        <time>2019-07-11T18:19:26Z</time>
      </trkpt>
      <trkpt lat="45.05576" lon="5.51167">
        <ele>1184</ele>
        <time>2019-07-11T18:19:38Z</time>
      </trkpt>
      <trkpt lat="45.05576" lon="5.51157">
        <ele>1184</ele>
        <time>2019-07-11T18:19:42Z</time>
      </trkpt>
      <trkpt lat="45.05582" lon="5.51141">
        <ele>1184</ele>
        <time>2019-07-11T18:19:44Z</time>
      </trkpt>
      <trkpt lat="45.05587" lon="5.51135">
        <ele>1184</ele>
        <time>2019-07-11T18:19:46Z</time>
      </trkpt>
      <trkpt lat="45.05607" lon="5.5113">
        <ele>1184</ele>
        <time>2019-07-11T18:19:47Z</time>
      </trkpt>
      <trkpt lat="45.05676" lon="5.51136">
        <ele>1181</ele>
        <time>2019-07-11T18:19:51Z</time>
      </trkpt>
      <trkpt lat="45.05696" lon="5.51133">
        <ele>1179</ele>
        <time>2019-07-11T18:19:53Z</time>
      </trkpt>
      <trkpt lat="45.05709" lon="5.51126">
        <ele>1178</ele>
        <time>2019-07-11T18:19:54Z</time>
      </trkpt>
      <trkpt lat="45.05714" lon="5.51119">
        <ele>1179</ele>
        <time>2019-07-11T18:20:09Z</time>
      </trkpt>
      <trkpt lat="45.05719" lon="5.5111">
        <ele>1179</ele>
        <time>2019-07-11T18:20:14Z</time>
      </trkpt>
      <trkpt lat="45.05726" lon="5.51078">
        <ele>1184</ele>
        <time>2019-07-11T18:20:15Z</time>
      </trkpt>
      <trkpt lat="45.05731" lon="5.5107">
        <ele>1185</ele>
        <time>2019-07-11T18:20:22Z</time>
      </trkpt>
      <trkpt lat="45.05738" lon="5.51062">
        <ele>1185</ele>
        <time>2019-07-11T18:20:29Z</time>
      </trkpt>
      <trkpt lat="45.05818" lon="5.51025">
        <ele>1180</ele>
        <time>2019-07-11T18:20:39Z</time>
      </trkpt>
      <trkpt lat="45.0584" lon="5.51004">
        <ele>1180</ele>
        <time>2019-07-11T18:20:52Z</time>
      </trkpt>
      <trkpt lat="45.05847" lon="5.50996">
        <ele>1180</ele>
        <time>2019-07-11T18:21:00Z</time>
      </trkpt>
      <trkpt lat="45.05871" lon="5.50954">
        <ele>1181</ele>
        <time>2019-07-11T18:21:09Z</time>
      </trkpt>
      <trkpt lat="45.05894" lon="5.50911">
        <ele>1184</ele>
        <time>2019-07-11T18:21:26Z</time>
      </trkpt>
      <trkpt lat="45.05941" lon="5.50861">
        <ele>1186</ele>
        <time>2019-07-11T18:21:39Z</time>
      </trkpt>
      <trkpt lat="45.05987" lon="5.50787">
        <ele>1197</ele>
        <time>2019-07-11T18:21:47Z</time>
      </trkpt>
      <trkpt lat="45.06028" lon="5.50751">
        <ele>1198</ele>
        <time>2019-07-11T18:21:53Z</time>
      </trkpt>
      <trkpt lat="45.06069" lon="5.5072">
        <ele>1194</ele>
        <time>2019-07-11T18:21:57Z</time>
      </trkpt>
      <trkpt lat="45.06154" lon="5.5065">
        <ele>1191</ele>
        <time>2019-07-11T18:22:01Z</time>
      </trkpt>
      <trkpt lat="45.06186" lon="5.50556">
        <ele>1199</ele>
        <time>2019-07-11T18:22:05Z</time>
      </trkpt>
      <trkpt lat="45.06221" lon="5.50519">
        <ele>1200</ele>
        <time>2019-07-11T18:22:09Z</time>
      </trkpt>
      <trkpt lat="45.06251" lon="5.50492">
        <ele>1198</ele>
        <time>2019-07-11T18:22:12Z</time>
      </trkpt>
      <trkpt lat="45.06263" lon="5.50469">
        <ele>1200</ele>
        <time>2019-07-11T18:22:24Z</time>
      </trkpt>
      <trkpt lat="45.06276" lon="5.50447">
        <ele>1201</ele>
        <time>2019-07-11T18:22:45Z</time>
      </trkpt>
      <trkpt lat="45.06294" lon="5.50426">
        <ele>1199</ele>
        <time>2019-07-11T18:22:50Z</time>
      </trkpt>
      <trkpt lat="45.06308" lon="5.50401">
        <ele>1198</ele>
        <time>2019-07-11T18:22:54Z</time>
      </trkpt>
      <trkpt lat="45.06314" lon="5.50374">
        <ele>1199</ele>
        <time>2019-07-11T18:23:20Z</time>
      </trkpt>
      <trkpt lat="45.06344" lon="5.50296">
        <ele>1200</ele>
        <time>2019-07-11T18:23:28Z</time>
      </trkpt>
      <trkpt lat="45.06411" lon="5.5015">
        <ele>1202</ele>
        <time>2019-07-11T18:23:29Z</time>
      </trkpt>
      <trkpt lat="45.06428" lon="5.50125">
        <ele>1204</ele>
        <time>2019-07-11T18:23:31Z</time>
      </trkpt>
      <trkpt lat="45.06447" lon="5.50103">
        <ele>1204</ele>
        <time>2019-07-11T18:23:32Z</time>
      </trkpt>
      <trkpt lat="45.06584" lon="5.50033">
        <ele>1193</ele>
        <time>2019-07-11T18:23:39Z</time>
      </trkpt>
      <trkpt lat="45.06622" lon="5.49997">
        <ele>1190</ele>
        <time>2019-07-11T18:23:41Z</time>
      </trkpt>
      <trkpt lat="45.06626" lon="5.49991">
        <ele>1190</ele>
        <time>2019-07-11T18:23:43Z</time>
      </trkpt>
      <trkpt lat="45.0663" lon="5.49977">
        <ele>1190</ele>
        <time>2019-07-11T18:23:44Z</time>
      </trkpt>
      <trkpt lat="45.06629" lon="5.49971">
        <ele>1191</ele>
        <time>2019-07-11T18:23:50Z</time>
      </trkpt>
      <trkpt lat="45.06605" lon="5.4993">
        <ele>1202</ele>
        <time>2019-07-11T18:23:52Z</time>
      </trkpt>
      <trkpt lat="45.06599" lon="5.49909">
        <ele>1205</ele>
        <time>2019-07-11T18:23:54Z</time>
      </trkpt>
      <trkpt lat="45.06598" lon="5.49898">
        <ele>1205</ele>
        <time>2019-07-11T18:24:00Z</time>
      </trkpt>
      <trkpt lat="45.06601" lon="5.49887">
        <ele>1204</ele>
        <time>2019-07-11T18:24:17Z</time>
      </trkpt>
      <trkpt lat="45.06624" lon="5.4985">
        <ele>1197</ele>
        <time>2019-07-11T18:24:23Z</time>
      </trkpt>
      <trkpt lat="45.06627" lon="5.49836">
        <ele>1196</ele>
        <time>2019-07-11T18:24:30Z</time>
      </trkpt>
      <trkpt lat="45.06625" lon="5.49824">
        <ele>1196</ele>
        <time>2019-07-11T18:24:36Z</time>
      </trkpt>
      <trkpt lat="45.06612" lon="5.4978">
        <ele>1199</ele>
        <time>2019-07-11T18:24:44Z</time>
      </trkpt>
      <trkpt lat="45.06567" lon="5.49663">
        <ele>1194</ele>
        <time>2019-07-11T18:24:47Z</time>
      </trkpt>
      <trkpt lat="45.06535" lon="5.49647">
        <ele>1199</ele>
        <time>2019-07-11T18:24:50Z</time>
      </trkpt>
      <trkpt lat="45.06501" lon="5.49617">
        <ele>1198</ele>
        <time>2019-07-11T18:24:53Z</time>
      </trkpt>
      <trkpt lat="45.06475" lon="5.49579">
        <ele>1197</ele>
        <time>2019-07-11T18:24:58Z</time>
      </trkpt>
      <trkpt lat="45.06452" lon="5.49528">
        <ele>1184</ele>
        <time>2019-07-11T18:25:06Z</time>
      </trkpt>
      <trkpt lat="45.06444" lon="5.49508">
        <ele>1178</ele>
        <time>2019-07-11T18:25:14Z</time>
      </trkpt>
      <trkpt lat="45.06429" lon="5.49499">
        <ele>1181</ele>
        <time>2019-07-11T18:25:27Z</time>
      </trkpt>
      <trkpt lat="45.06409" lon="5.49494">
        <ele>1190</ele>
        <time>2019-07-11T18:25:29Z</time>
      </trkpt>
      <trkpt lat="45.06384" lon="5.49481">
        <ele>1196</ele>
        <time>2019-07-11T18:25:33Z</time>
      </trkpt>
      <trkpt lat="45.06349" lon="5.49445">
        <ele>1199</ele>
        <time>2019-07-11T18:25:34Z</time>
      </trkpt>
      <trkpt lat="45.06317" lon="5.49394">
        <ele>1198</ele>
        <time>2019-07-11T18:25:36Z</time>
      </trkpt>
      <trkpt lat="45.06273" lon="5.49317">
        <ele>1206</ele>
        <time>2019-07-11T18:25:38Z</time>
      </trkpt>
      <trkpt lat="45.06264" lon="5.49309">
        <ele>1211</ele>
        <time>2019-07-11T18:25:39Z</time>
      </trkpt>
      <trkpt lat="45.06242" lon="5.49295">
        <ele>1223</ele>
        <time>2019-07-11T18:25:46Z</time>
      </trkpt>
      <trkpt lat="45.06236" lon="5.49288">
        <ele>1227</ele>
        <time>2019-07-11T18:25:49Z</time>
      </trkpt>
      <trkpt lat="45.06234" lon="5.49279">
        <ele>1229</ele>
        <time>2019-07-11T18:25:51Z</time>
      </trkpt>
      <trkpt lat="45.06234" lon="5.49261">
        <ele>1229</ele>
        <time>2019-07-11T18:25:55Z</time>
      </trkpt>
      <trkpt lat="45.06237" lon="5.4925">
        <ele>1228</ele>
        <time>2019-07-11T18:25:58Z</time>
      </trkpt>
      <trkpt lat="45.06264" lon="5.49209">
        <ele>1220</ele>
        <time>2019-07-11T18:26:04Z</time>
      </trkpt>
      <trkpt lat="45.06271" lon="5.49193">
        <ele>1218</ele>
        <time>2019-07-11T18:26:06Z</time>
      </trkpt>
      <trkpt lat="45.06276" lon="5.49175">
        <ele>1218</ele>
        <time>2019-07-11T18:26:11Z</time>
      </trkpt>
      <trkpt lat="45.06279" lon="5.49147">
        <ele>1223</ele>
        <time>2019-07-11T18:26:15Z</time>
      </trkpt>
      <trkpt lat="45.06287" lon="5.4912">
        <ele>1224</ele>
        <time>2019-07-11T18:26:23Z</time>
      </trkpt>
      <trkpt lat="45.063" lon="5.49081">
        <ele>1222</ele>
        <time>2019-07-11T18:26:41Z</time>
      </trkpt>
      <trkpt lat="45.06303" lon="5.49064">
        <ele>1221</ele>
        <time>2019-07-11T18:26:51Z</time>
      </trkpt>
      <trkpt lat="45.06309" lon="5.49022">
        <ele>1221</ele>
        <time>2019-07-11T18:27:01Z</time>
      </trkpt>
      <trkpt lat="45.0631" lon="5.48997">
        <ele>1223</ele>
        <time>2019-07-11T18:27:09Z</time>
      </trkpt>
      <trkpt lat="45.06299" lon="5.4893">
        <ele>1226</ele>
        <time>2019-07-11T18:27:17Z</time>
      </trkpt>
      <trkpt lat="45.06243" lon="5.48816">
        <ele>1224</ele>
        <time>2019-07-11T18:27:33Z</time>
      </trkpt>
      <trkpt lat="45.06202" lon="5.48762">
        <ele>1226</ele>
        <time>2019-07-11T18:28:07Z</time>
      </trkpt>
      <trkpt lat="45.06152" lon="5.48724">
        <ele>1234</ele>
        <time>2019-07-11T18:28:12Z</time>
      </trkpt>
      <trkpt lat="45.0611" lon="5.48689">
        <ele>1235</ele>
        <time>2019-07-11T18:28:19Z</time>
      </trkpt>
      <trkpt lat="45.06082" lon="5.48639">
        <ele>1228</ele>
        <time>2019-07-11T18:28:29Z</time>
      </trkpt>
      <trkpt lat="45.06031" lon="5.48539">
        <ele>1230</ele>
        <time>2019-07-11T18:28:37Z</time>
      </trkpt>
      <trkpt lat="45.05907" lon="5.48337">
        <ele>1244</ele>
        <time>2019-07-11T18:28:49Z</time>
      </trkpt>
      <trkpt lat="45.05888" lon="5.48301">
        <ele>1245</ele>
        <time>2019-07-11T18:28:56Z</time>
      </trkpt>
      <trkpt lat="45.05862" lon="5.48261">
        <ele>1247</ele>
        <time>2019-07-11T18:29:00Z</time>
      </trkpt>
      <trkpt lat="45.05828" lon="5.48199">
        <ele>1248</ele>
        <time>2019-07-11T18:29:05Z</time>
      </trkpt>
      <trkpt lat="45.05805" lon="5.48144">
        <ele>1250</ele>
        <time>2019-07-11T18:29:12Z</time>
      </trkpt>
      <trkpt lat="45.05774" lon="5.48063">
        <ele>1254</ele>
        <time>2019-07-11T18:29:14Z</time>
      </trkpt>
      <trkpt lat="45.0576" lon="5.48008">
        <ele>1255</ele>
        <time>2019-07-11T18:29:19Z</time>
      </trkpt>
      <trkpt lat="45.05756" lon="5.47975">
        <ele>1257</ele>
        <time>2019-07-11T18:29:21Z</time>
      </trkpt>
      <trkpt lat="45.05743" lon="5.47939">
        <ele>1259</ele>
        <time>2019-07-11T18:29:22Z</time>
      </trkpt>
      <trkpt lat="45.0572" lon="5.47893">
        <ele>1262</ele>
        <time>2019-07-11T18:29:25Z</time>
      </trkpt>
      <trkpt lat="45.05717" lon="5.47876">
        <ele>1262</ele>
        <time>2019-07-11T18:29:29Z</time>
      </trkpt>
      <trkpt lat="45.05701" lon="5.47844">
        <ele>1263</ele>
        <time>2019-07-11T18:29:39Z</time>
      </trkpt>
      <trkpt lat="45.05696" lon="5.47838">
        <ele>1262</ele>
        <time>2019-07-11T18:29:51Z</time>
      </trkpt>
      <trkpt lat="45.05689" lon="5.47834">
        <ele>1262</ele>
        <time>2019-07-11T18:29:55Z</time>
      </trkpt>
      <trkpt lat="45.05678" lon="5.47813">
        <ele>1262</ele>
        <time>2019-07-11T18:29:57Z</time>
      </trkpt>
      <trkpt lat="45.05665" lon="5.47793">
        <ele>1262</ele>
        <time>2019-07-11T18:30:29Z</time>
      </trkpt>
      <trkpt lat="45.05619" lon="5.47737">
        <ele>1267</ele>
        <time>2019-07-11T18:30:34Z</time>
      </trkpt>
      <trkpt lat="45.05564" lon="5.47681">
        <ele>1271</ele>
        <time>2019-07-11T18:30:37Z</time>
      </trkpt>
      <trkpt lat="45.05551" lon="5.47659">
        <ele>1272</ele>
        <time>2019-07-11T18:30:43Z</time>
      </trkpt>
      <trkpt lat="45.05542" lon="5.47651">
        <ele>1274</ele>
        <time>2019-07-11T18:30:54Z</time>
      </trkpt>
      <trkpt lat="45.05366" lon="5.47588">
        <ele>1293</ele>
        <time>2019-07-11T18:31:08Z</time>
      </trkpt>
      <trkpt lat="45.0534" lon="5.47569">
        <ele>1297</ele>
        <time>2019-07-11T18:31:11Z</time>
      </trkpt>
      <trkpt lat="45.05327" lon="5.47557">
        <ele>1300</ele>
        <time>2019-07-11T18:31:16Z</time>
      </trkpt>
      <trkpt lat="45.053" lon="5.47539">
        <ele>1304</ele>
        <time>2019-07-11T18:31:19Z</time>
      </trkpt>
      <trkpt lat="45.05241" lon="5.47509">
        <ele>1307</ele>
        <time>2019-07-11T18:31:21Z</time>
      </trkpt>
      <trkpt lat="45.05168" lon="5.47468">
        <ele>1316</ele>
        <time>2019-07-11T18:31:24Z</time>
      </trkpt>
      <trkpt lat="45.05152" lon="5.47458">
        <ele>1318</ele>
        <time>2019-07-11T18:31:30Z</time>
      </trkpt>
      <trkpt lat="45.05128" lon="5.47435">
        <ele>1320</ele>
        <time>2019-07-11T18:31:35Z</time>
      </trkpt>
      <trkpt lat="45.0511" lon="5.47427">
        <ele>1322</ele>
        <time>2019-07-11T18:31:38Z</time>
      </trkpt>
      <trkpt lat="45.05098" lon="5.47424">
        <ele>1322</ele>
        <time>2019-07-11T18:31:53Z</time>
      </trkpt>
      <trkpt lat="45.05086" lon="5.47423">
        <ele>1323</ele>
        <time>2019-07-11T18:31:56Z</time>
      </trkpt>
      <trkpt lat="45.05051" lon="5.47431">
        <ele>1326</ele>
        <time>2019-07-11T18:32:08Z</time>
      </trkpt>
      <trkpt lat="45.05025" lon="5.47433">
        <ele>1329</ele>
        <time>2019-07-11T18:32:11Z</time>
      </trkpt>
      <trkpt lat="45.05004" lon="5.47428">
        <ele>1331</ele>
        <time>2019-07-11T18:32:25Z</time>
      </trkpt>
      <trkpt lat="45.04926" lon="5.47402">
        <ele>1342</ele>
        <time>2019-07-11T18:32:45Z</time>
      </trkpt>
      <trkpt lat="45.04909" lon="5.47402">
        <ele>1344</ele>
        <time>2019-07-11T18:33:01Z</time>
      </trkpt>
      <trkpt lat="45.04839" lon="5.47419">
        <ele>1350</ele>
        <time>2019-07-11T18:33:06Z</time>
      </trkpt>
      <trkpt lat="45.04823" lon="5.47427">
        <ele>1353</ele>
        <time>2019-07-11T18:33:12Z</time>
      </trkpt>
      <trkpt lat="45.04752" lon="5.47472">
        <ele>1363</ele>
        <time>2019-07-11T18:33:16Z</time>
      </trkpt>
      <trkpt lat="45.04644" lon="5.47524">
        <ele>1371</ele>
        <time>2019-07-11T18:33:25Z</time>
      </trkpt>
      <trkpt lat="45.0456" lon="5.4754">
        <ele>1377</ele>
        <time>2019-07-11T18:33:34Z</time>
      </trkpt>
      <trkpt lat="45.04532" lon="5.47555">
        <ele>1377</ele>
        <time>2019-07-11T18:33:36Z</time>
      </trkpt>
      <trkpt lat="45.04499" lon="5.47568">
        <ele>1377</ele>
        <time>2019-07-11T18:33:41Z</time>
      </trkpt>
      <trkpt lat="45.04475" lon="5.47573">
        <ele>1378</ele>
        <time>2019-07-11T18:33:54Z</time>
      </trkpt>
      <trkpt lat="45.04423" lon="5.47574">
        <ele>1382</ele>
        <time>2019-07-11T18:34:00Z</time>
      </trkpt>
      <trkpt lat="45.04378" lon="5.4759">
        <ele>1380</ele>
        <time>2019-07-11T18:34:04Z</time>
      </trkpt>
      <trkpt lat="45.04363" lon="5.4759">
        <ele>1380</ele>
        <time>2019-07-11T18:34:11Z</time>
      </trkpt>
      <trkpt lat="45.04338" lon="5.47583">
        <ele>1381</ele>
        <time>2019-07-11T18:34:19Z</time>
      </trkpt>
      <trkpt lat="45.04267" lon="5.47573">
        <ele>1384</ele>
        <time>2019-07-11T18:34:23Z</time>
      </trkpt>
      <trkpt lat="45.04231" lon="5.47563">
        <ele>1386</ele>
        <time>2019-07-11T18:34:27Z</time>
      </trkpt>
      <trkpt lat="45.04209" lon="5.47574">
        <ele>1384</ele>
        <time>2019-07-11T18:34:35Z</time>
      </trkpt>
      <trkpt lat="45.04174" lon="5.47598">
        <ele>1380</ele>
        <time>2019-07-11T18:35:14Z</time>
      </trkpt>
      <trkpt lat="45.04136" lon="5.47628">
        <ele>1377</ele>
        <time>2019-07-11T18:35:32Z</time>
      </trkpt>
      <trkpt lat="45.04113" lon="5.47636">
        <ele>1376</ele>
        <time>2019-07-11T18:35:38Z</time>
      </trkpt>
      <trkpt lat="45.0409" lon="5.47639">
        <ele>1375</ele>
        <time>2019-07-11T18:35:43Z</time>
      </trkpt>
      <trkpt lat="45.04047" lon="5.47639">
        <ele>1376</ele>
        <time>2019-07-11T18:35:49Z</time>
      </trkpt>
      <trkpt lat="45.03831" lon="5.47613">
        <ele>1380</ele>
        <time>2019-07-11T18:36:00Z</time>
      </trkpt>
      <trkpt lat="45.03732" lon="5.47648">
        <ele>1374</ele>
        <time>2019-07-11T18:36:15Z</time>
      </trkpt>
      <trkpt lat="45.03697" lon="5.47653">
        <ele>1373</ele>
        <time>2019-07-11T18:36:20Z</time>
      </trkpt>
      <trkpt lat="45.03668" lon="5.47653">
        <ele>1373</ele>
        <time>2019-07-11T18:36:22Z</time>
      </trkpt>
      <trkpt lat="45.03636" lon="5.47665">
        <ele>1371</ele>
        <time>2019-07-11T18:36:24Z</time>
      </trkpt>
      <trkpt lat="45.03574" lon="5.47678">
        <ele>1371</ele>
        <time>2019-07-11T18:36:25Z</time>
      </trkpt>
      <trkpt lat="45.0349" lon="5.47704">
        <ele>1360</ele>
        <time>2019-07-11T18:36:28Z</time>
      </trkpt>
      <trkpt lat="45.03464" lon="5.47711">
        <ele>1350</ele>
        <time>2019-07-11T18:36:31Z</time>
      </trkpt>
      <trkpt lat="45.03451" lon="5.4771">
        <ele>1346</ele>
        <time>2019-07-11T18:36:39Z</time>
      </trkpt>
      <trkpt lat="45.03445" lon="5.47706">
        <ele>1345</ele>
        <time>2019-07-11T18:36:42Z</time>
      </trkpt>
      <trkpt lat="45.0344" lon="5.477">
        <ele>1345</ele>
        <time>2019-07-11T18:36:43Z</time>
      </trkpt>
      <trkpt lat="45.03431" lon="5.47678">
        <ele>1346</ele>
        <time>2019-07-11T18:36:44Z</time>
      </trkpt>
      <trkpt lat="45.03427" lon="5.47653">
        <ele>1350</ele>
        <time>2019-07-11T18:36:49Z</time>
      </trkpt>
      <trkpt lat="45.03422" lon="5.47589">
        <ele>1360</ele>
        <time>2019-07-11T18:36:50Z</time>
      </trkpt>
      <trkpt lat="45.03416" lon="5.47572">
        <ele>1361</ele>
        <time>2019-07-11T18:36:51Z</time>
      </trkpt>
      <trkpt lat="45.03413" lon="5.47566">
        <ele>1361</ele>
        <time>2019-07-11T18:36:54Z</time>
      </trkpt>
      <trkpt lat="45.03408" lon="5.47562">
        <ele>1361</ele>
        <time>2019-07-11T18:36:57Z</time>
      </trkpt>
      <trkpt lat="45.03381" lon="5.47558">
        <ele>1353</ele>
        <time>2019-07-11T18:37:06Z</time>
      </trkpt>
      <trkpt lat="45.03374" lon="5.47552">
        <ele>1352</ele>
        <time>2019-07-11T18:37:09Z</time>
      </trkpt>
      <trkpt lat="45.03368" lon="5.47544">
        <ele>1352</ele>
        <time>2019-07-11T18:37:14Z</time>
      </trkpt>
      <trkpt lat="45.03358" lon="5.47528">
        <ele>1351</ele>
        <time>2019-07-11T18:37:16Z</time>
      </trkpt>
      <trkpt lat="45.03349" lon="5.47509">
        <ele>1351</ele>
        <time>2019-07-11T18:37:29Z</time>
      </trkpt>
      <trkpt lat="45.03329" lon="5.47443">
        <ele>1353</ele>
        <time>2019-07-11T18:37:41Z</time>
      </trkpt>
      <trkpt lat="45.03319" lon="5.47422">
        <ele>1354</ele>
        <time>2019-07-11T18:37:47Z</time>
      </trkpt>
      <trkpt lat="45.033" lon="5.47393">
        <ele>1353</ele>
        <time>2019-07-11T18:37:54Z</time>
      </trkpt>
      <trkpt lat="45.03292" lon="5.47385">
        <ele>1352</ele>
        <time>2019-07-11T18:37:57Z</time>
      </trkpt>
      <trkpt lat="45.03226" lon="5.47346">
        <ele>1344</ele>
        <time>2019-07-11T18:38:06Z</time>
      </trkpt>
      <trkpt lat="45.03161" lon="5.47319">
        <ele>1337</ele>
        <time>2019-07-11T18:38:13Z</time>
      </trkpt>
      <trkpt lat="45.03131" lon="5.47298">
        <ele>1337</ele>
        <time>2019-07-11T18:38:18Z</time>
      </trkpt>
      <trkpt lat="45.03094" lon="5.47278">
        <ele>1336</ele>
        <time>2019-07-11T18:38:20Z</time>
      </trkpt>
      <trkpt lat="45.03078" lon="5.47276">
        <ele>1335</ele>
        <time>2019-07-11T18:38:23Z</time>
      </trkpt>
      <trkpt lat="45.03026" lon="5.47278">
        <ele>1331</ele>
        <time>2019-07-11T18:38:24Z</time>
      </trkpt>
      <trkpt lat="45.02985" lon="5.47265">
        <ele>1331</ele>
        <time>2019-07-11T18:38:29Z</time>
      </trkpt>
      <trkpt lat="45.02959" lon="5.47254">
        <ele>1330</ele>
        <time>2019-07-11T18:38:37Z</time>
      </trkpt>
      <trkpt lat="45.02949" lon="5.47255">
        <ele>1329</ele>
        <time>2019-07-11T18:38:43Z</time>
      </trkpt>
      <trkpt lat="45.02932" lon="5.47264">
        <ele>1326</ele>
        <time>2019-07-11T18:38:45Z</time>
      </trkpt>
      <trkpt lat="45.02926" lon="5.47266">
        <ele>1325</ele>
        <time>2019-07-11T18:38:51Z</time>
      </trkpt>
      <trkpt lat="45.02899" lon="5.47261">
        <ele>1323</ele>
        <time>2019-07-11T18:38:55Z</time>
      </trkpt>
      <trkpt lat="45.02856" lon="5.47243">
        <ele>1322</ele>
        <time>2019-07-11T18:39:08Z</time>
      </trkpt>
      <trkpt lat="45.02823" lon="5.47234">
        <ele>1322</ele>
        <time>2019-07-11T18:39:12Z</time>
      </trkpt>
      <trkpt lat="45.02814" lon="5.47235">
        <ele>1321</ele>
        <time>2019-07-11T18:39:26Z</time>
      </trkpt>
      <trkpt lat="45.02779" lon="5.47248">
        <ele>1318</ele>
        <time>2019-07-11T18:39:34Z</time>
      </trkpt>
      <trkpt lat="45.02759" lon="5.47252">
        <ele>1317</ele>
        <time>2019-07-11T18:39:44Z</time>
      </trkpt>
      <trkpt lat="45.02683" lon="5.47251">
        <ele>1310</ele>
        <time>2019-07-11T18:39:58Z</time>
      </trkpt>
      <trkpt lat="45.02662" lon="5.47248">
        <ele>1308</ele>
        <time>2019-07-11T18:40:05Z</time>
      </trkpt>
      <trkpt lat="45.02587" lon="5.4721">
        <ele>1312</ele>
        <time>2019-07-11T18:40:15Z</time>
      </trkpt>
      <trkpt lat="45.02545" lon="5.47199">
        <ele>1312</ele>
        <time>2019-07-11T18:40:24Z</time>
      </trkpt>
      <trkpt lat="45.02489" lon="5.47192">
        <ele>1310</ele>
        <time>2019-07-11T18:40:25Z</time>
      </trkpt>
      <trkpt lat="45.02409" lon="5.47196">
        <ele>1307</ele>
        <time>2019-07-11T18:40:27Z</time>
      </trkpt>
      <trkpt lat="45.02368" lon="5.47187">
        <ele>1307</ele>
        <time>2019-07-11T18:40:36Z</time>
      </trkpt>
      <trkpt lat="45.02314" lon="5.47184">
        <ele>1305</ele>
        <time>2019-07-11T18:40:45Z</time>
      </trkpt>
      <trkpt lat="45.02266" lon="5.4717">
        <ele>1306</ele>
        <time>2019-07-11T18:40:51Z</time>
      </trkpt>
      <trkpt lat="45.02259" lon="5.47169">
        <ele>1306</ele>
        <time>2019-07-11T18:40:57Z</time>
      </trkpt>
      <trkpt lat="45.02247" lon="5.47171">
        <ele>1306</ele>
        <time>2019-07-11T18:41:01Z</time>
      </trkpt>
      <trkpt lat="45.02198" lon="5.47198">
        <ele>1308</ele>
        <time>2019-07-11T18:41:03Z</time>
      </trkpt>
      <trkpt lat="45.02151" lon="5.47214">
        <ele>1311</ele>
        <time>2019-07-11T18:41:08Z</time>
      </trkpt>
      <trkpt lat="45.02119" lon="5.47219">
        <ele>1313</ele>
        <time>2019-07-11T18:41:14Z</time>
      </trkpt>
      <trkpt lat="45.02086" lon="5.47234">
        <ele>1314</ele>
        <time>2019-07-11T18:41:16Z</time>
      </trkpt>
      <trkpt lat="45.02065" lon="5.47249">
        <ele>1313</ele>
        <time>2019-07-11T18:41:18Z</time>
      </trkpt>
      <trkpt lat="45.02058" lon="5.47257">
        <ele>1313</ele>
        <time>2019-07-11T18:41:20Z</time>
      </trkpt>
      <trkpt lat="45.0204" lon="5.47288">
        <ele>1311</ele>
        <time>2019-07-11T18:41:34Z</time>
      </trkpt>
      <trkpt lat="45.02013" lon="5.47317">
        <ele>1313</ele>
        <time>2019-07-11T18:41:38Z</time>
      </trkpt>
      <trkpt lat="45.02004" lon="5.47323">
        <ele>1314</ele>
        <time>2019-07-11T18:41:48Z</time>
      </trkpt>
      <trkpt lat="45.01989" lon="5.47329">
        <ele>1315</ele>
        <time>2019-07-11T18:41:52Z</time>
      </trkpt>
      <trkpt lat="45.01979" lon="5.47329">
        <ele>1315</ele>
        <time>2019-07-11T18:42:09Z</time>
      </trkpt>
      <trkpt lat="45.01903" lon="5.473">
        <ele>1318</ele>
        <time>2019-07-11T18:42:12Z</time>
      </trkpt>
      <trkpt lat="45.01884" lon="5.47289">
        <ele>1319</ele>
        <time>2019-07-11T18:42:13Z</time>
      </trkpt>
      <trkpt lat="45.01835" lon="5.47253">
        <ele>1322</ele>
        <time>2019-07-11T18:42:18Z</time>
      </trkpt>
      <trkpt lat="45.01812" lon="5.47241">
        <ele>1323</ele>
        <time>2019-07-11T18:42:20Z</time>
      </trkpt>
      <trkpt lat="45.01716" lon="5.47228">
        <ele>1324</ele>
        <time>2019-07-11T18:42:24Z</time>
      </trkpt>
      <trkpt lat="45.017" lon="5.47234">
        <ele>1323</ele>
        <time>2019-07-11T18:42:25Z</time>
      </trkpt>
      <trkpt lat="45.01696" lon="5.47238">
        <ele>1323</ele>
        <time>2019-07-11T18:42:31Z</time>
      </trkpt>
      <trkpt lat="45.01679" lon="5.47272">
        <ele>1321</ele>
        <time>2019-07-11T18:42:32Z</time>
      </trkpt>
      <trkpt lat="45.01672" lon="5.47279">
        <ele>1321</ele>
        <time>2019-07-11T18:42:34Z</time>
      </trkpt>
      <trkpt lat="45.01652" lon="5.4729">
        <ele>1320</ele>
        <time>2019-07-11T18:42:38Z</time>
      </trkpt>
      <trkpt lat="45.01645" lon="5.47296">
        <ele>1319</ele>
        <time>2019-07-11T18:42:41Z</time>
      </trkpt>
      <trkpt lat="45.01622" lon="5.47326">
        <ele>1318</ele>
        <time>2019-07-11T18:42:48Z</time>
      </trkpt>
      <trkpt lat="45.01617" lon="5.4733">
        <ele>1318</ele>
        <time>2019-07-11T18:42:50Z</time>
      </trkpt>
      <trkpt lat="45.01604" lon="5.47335">
        <ele>1317</ele>
        <time>2019-07-11T18:42:52Z</time>
      </trkpt>
      <trkpt lat="45.0158" lon="5.47338">
        <ele>1317</ele>
        <time>2019-07-11T18:42:56Z</time>
      </trkpt>
      <trkpt lat="45.01564" lon="5.47336">
        <ele>1316</ele>
        <time>2019-07-11T18:42:59Z</time>
      </trkpt>
      <trkpt lat="45.01528" lon="5.47317">
        <ele>1316</ele>
        <time>2019-07-11T18:43:01Z</time>
      </trkpt>
      <trkpt lat="45.01518" lon="5.47317">
        <ele>1315</ele>
        <time>2019-07-11T18:43:03Z</time>
      </trkpt>
      <trkpt lat="45.01507" lon="5.47325">
        <ele>1315</ele>
        <time>2019-07-11T18:43:04Z</time>
      </trkpt>
      <trkpt lat="45.01489" lon="5.47342">
        <ele>1314</ele>
        <time>2019-07-11T18:43:05Z</time>
      </trkpt>
      <trkpt lat="45.01475" lon="5.47351">
        <ele>1314</ele>
        <time>2019-07-11T18:43:10Z</time>
      </trkpt>
      <trkpt lat="45.01461" lon="5.47356">
        <ele>1314</ele>
        <time>2019-07-11T18:43:12Z</time>
      </trkpt>
      <trkpt lat="45.0145" lon="5.47354">
        <ele>1314</ele>
        <time>2019-07-11T18:43:30Z</time>
      </trkpt>
      <trkpt lat="45.01447" lon="5.4735">
        <ele>1314</ele>
        <time>2019-07-11T18:43:36Z</time>
      </trkpt>
      <trkpt lat="45.01445" lon="5.47343">
        <ele>1314</ele>
        <time>2019-07-11T18:43:39Z</time>
      </trkpt>
      <trkpt lat="45.01445" lon="5.47305">
        <ele>1313</ele>
        <time>2019-07-11T18:43:45Z</time>
      </trkpt>
      <trkpt lat="45.0144" lon="5.47289">
        <ele>1312</ele>
        <time>2019-07-11T18:43:47Z</time>
      </trkpt>
      <trkpt lat="45.01368" lon="5.47182">
        <ele>1304</ele>
        <time>2019-07-11T18:43:48Z</time>
      </trkpt>
      <trkpt lat="45.01351" lon="5.47142">
        <ele>1302</ele>
        <time>2019-07-11T18:43:50Z</time>
      </trkpt>
      <trkpt lat="45.01347" lon="5.47124">
        <ele>1301</ele>
        <time>2019-07-11T18:43:58Z</time>
      </trkpt>
      <trkpt lat="45.01341" lon="5.47076">
        <ele>1300</ele>
        <time>2019-07-11T18:44:00Z</time>
      </trkpt>
      <trkpt lat="45.01338" lon="5.47062">
        <ele>1298</ele>
        <time>2019-07-11T18:44:10Z</time>
      </trkpt>
      <trkpt lat="45.01334" lon="5.47049">
        <ele>1296</ele>
        <time>2019-07-11T18:44:17Z</time>
      </trkpt>
      <trkpt lat="45.01326" lon="5.4704">
        <ele>1295</ele>
        <time>2019-07-11T18:44:24Z</time>
      </trkpt>
      <trkpt lat="45.01288" lon="5.47006">
        <ele>1290</ele>
        <time>2019-07-11T18:44:26Z</time>
      </trkpt>
      <trkpt lat="45.01277" lon="5.46999">
        <ele>1289</ele>
        <time>2019-07-11T18:44:40Z</time>
      </trkpt>
      <trkpt lat="45.0122" lon="5.46997">
        <ele>1286</ele>
        <time>2019-07-11T18:44:43Z</time>
      </trkpt>
      <trkpt lat="45.01184" lon="5.4699">
        <ele>1282</ele>
        <time>2019-07-11T18:44:46Z</time>
      </trkpt>
      <trkpt lat="45.01146" lon="5.4698">
        <ele>1276</ele>
        <time>2019-07-11T18:45:02Z</time>
      </trkpt>
      <trkpt lat="45.01136" lon="5.46979">
        <ele>1274</ele>
        <time>2019-07-11T18:45:05Z</time>
      </trkpt>
      <trkpt lat="45.01057" lon="5.46989">
        <ele>1268</ele>
        <time>2019-07-11T18:45:13Z</time>
      </trkpt>
      <trkpt lat="45.01041" lon="5.46993">
        <ele>1266</ele>
        <time>2019-07-11T18:45:15Z</time>
      </trkpt>
      <trkpt lat="45.01024" lon="5.47002">
        <ele>1265</ele>
        <time>2019-07-11T18:45:18Z</time>
      </trkpt>
      <trkpt lat="45.00941" lon="5.47062">
        <ele>1260</ele>
        <time>2019-07-11T18:45:20Z</time>
      </trkpt>
      <trkpt lat="45.0093" lon="5.47074">
        <ele>1259</ele>
        <time>2019-07-11T18:45:24Z</time>
      </trkpt>
      <trkpt lat="45.00898" lon="5.47121">
        <ele>1262</ele>
        <time>2019-07-11T18:45:26Z</time>
      </trkpt>
      <trkpt lat="45.00886" lon="5.4713">
        <ele>1263</ele>
        <time>2019-07-11T18:45:27Z</time>
      </trkpt>
      <trkpt lat="45.00874" lon="5.47131">
        <ele>1261</ele>
        <time>2019-07-11T18:45:32Z</time>
      </trkpt>
      <trkpt lat="45.00863" lon="5.47124">
        <ele>1258</ele>
        <time>2019-07-11T18:45:37Z</time>
      </trkpt>
      <trkpt lat="45.00842" lon="5.47102">
        <ele>1250</ele>
        <time>2019-07-11T18:45:38Z</time>
      </trkpt>
      <trkpt lat="45.00835" lon="5.47099">
        <ele>1248</ele>
        <time>2019-07-11T18:45:39Z</time>
      </trkpt>
      <trkpt lat="45.00827" lon="5.47099">
        <ele>1247</ele>
        <time>2019-07-11T18:45:40Z</time>
      </trkpt>
      <trkpt lat="45.008" lon="5.47107">
        <ele>1246</ele>
        <time>2019-07-11T18:45:40Z</time>
      </trkpt>
      <trkpt lat="45.00774" lon="5.47118">
        <ele>1246</ele>
        <time>2019-07-11T18:45:45Z</time>
      </trkpt>
      <trkpt lat="45.00768" lon="5.47117">
        <ele>1245</ele>
        <time>2019-07-11T18:45:48Z</time>
      </trkpt>
      <trkpt lat="45.00765" lon="5.47112">
        <ele>1243</ele>
        <time>2019-07-11T18:45:51Z</time>
      </trkpt>
      <trkpt lat="45.00764" lon="5.47104">
        <ele>1241</ele>
        <time>2019-07-11T18:45:54Z</time>
      </trkpt>
      <trkpt lat="45.00766" lon="5.471">
        <ele>1240</ele>
        <time>2019-07-11T18:45:57Z</time>
      </trkpt>
      <trkpt lat="45.00789" lon="5.47084">
        <ele>1238</ele>
        <time>2019-07-11T18:45:59Z</time>
      </trkpt>
      <trkpt lat="45.00804" lon="5.47069">
        <ele>1238</ele>
        <time>2019-07-11T18:46:03Z</time>
      </trkpt>
      <trkpt lat="45.00816" lon="5.4705">
        <ele>1238</ele>
        <time>2019-07-11T18:46:05Z</time>
      </trkpt>
      <trkpt lat="45.00824" lon="5.47031">
        <ele>1236</ele>
        <time>2019-07-11T18:46:07Z</time>
      </trkpt>
      <trkpt lat="45.00826" lon="5.47008">
        <ele>1234</ele>
        <time>2019-07-11T18:46:13Z</time>
      </trkpt>
      <trkpt lat="45.00824" lon="5.46996">
        <ele>1232</ele>
        <time>2019-07-11T18:46:15Z</time>
      </trkpt>
      <trkpt lat="45.00811" lon="5.46963">
        <ele>1227</ele>
        <time>2019-07-11T18:46:19Z</time>
      </trkpt>
      <trkpt lat="45.00802" lon="5.46955">
        <ele>1225</ele>
        <time>2019-07-11T18:46:22Z</time>
      </trkpt>
      <trkpt lat="45.00793" lon="5.46955">
        <ele>1224</ele>
        <time>2019-07-11T18:46:26Z</time>
      </trkpt>
      <trkpt lat="45.00764" lon="5.46973">
        <ele>1221</ele>
        <time>2019-07-11T18:46:27Z</time>
      </trkpt>
      <trkpt lat="45.0075" lon="5.46972">
        <ele>1219</ele>
        <time>2019-07-11T18:46:29Z</time>
      </trkpt>
      <trkpt lat="45.0073" lon="5.46969">
        <ele>1217</ele>
        <time>2019-07-11T18:46:31Z</time>
      </trkpt>
      <trkpt lat="45.00714" lon="5.4696">
        <ele>1215</ele>
        <time>2019-07-11T18:46:33Z</time>
      </trkpt>
      <trkpt lat="45.00698" lon="5.46939">
        <ele>1212</ele>
        <time>2019-07-11T18:46:35Z</time>
      </trkpt>
      <trkpt lat="45.0069" lon="5.46933">
        <ele>1210</ele>
        <time>2019-07-11T18:46:39Z</time>
      </trkpt>
      <trkpt lat="45.0068" lon="5.46928">
        <ele>1209</ele>
        <time>2019-07-11T18:46:43Z</time>
      </trkpt>
      <trkpt lat="45.0067" lon="5.46927">
        <ele>1207</ele>
        <time>2019-07-11T18:46:45Z</time>
      </trkpt>
      <trkpt lat="45.00658" lon="5.46929">
        <ele>1207</ele>
        <time>2019-07-11T18:46:47Z</time>
      </trkpt>
      <trkpt lat="45.00646" lon="5.46935">
        <ele>1206</ele>
        <time>2019-07-11T18:46:49Z</time>
      </trkpt>
      <trkpt lat="45.00628" lon="5.46951">
        <ele>1207</ele>
        <time>2019-07-11T18:46:51Z</time>
      </trkpt>
      <trkpt lat="45.00609" lon="5.46973">
        <ele>1208</ele>
        <time>2019-07-11T18:46:56Z</time>
      </trkpt>
      <trkpt lat="45.00601" lon="5.46979">
        <ele>1209</ele>
        <time>2019-07-11T18:47:03Z</time>
      </trkpt>
      <trkpt lat="45.00593" lon="5.46982">
        <ele>1209</ele>
        <time>2019-07-11T18:47:08Z</time>
      </trkpt>
      <trkpt lat="45.00579" lon="5.4698">
        <ele>1208</ele>
        <time>2019-07-11T18:47:12Z</time>
      </trkpt>
      <trkpt lat="45.00568" lon="5.46971">
        <ele>1208</ele>
        <time>2019-07-11T18:47:17Z</time>
      </trkpt>
      <trkpt lat="45.00547" lon="5.46942">
        <ele>1204</ele>
        <time>2019-07-11T18:47:22Z</time>
      </trkpt>
      <trkpt lat="45.00511" lon="5.46922">
        <ele>1203</ele>
        <time>2019-07-11T18:47:24Z</time>
      </trkpt>
      <trkpt lat="45.00488" lon="5.46905">
        <ele>1202</ele>
        <time>2019-07-11T18:47:33Z</time>
      </trkpt>
      <trkpt lat="45.0047" lon="5.46882">
        <ele>1200</ele>
        <time>2019-07-11T18:47:39Z</time>
      </trkpt>
      <trkpt lat="45.00455" lon="5.46855">
        <ele>1197</ele>
        <time>2019-07-11T18:47:40Z</time>
      </trkpt>
      <trkpt lat="45.00433" lon="5.46828">
        <ele>1194</ele>
        <time>2019-07-11T18:47:41Z</time>
      </trkpt>
      <trkpt lat="45.00421" lon="5.46817">
        <ele>1192</ele>
        <time>2019-07-11T18:47:42Z</time>
      </trkpt>
      <trkpt lat="45.00377" lon="5.46784">
        <ele>1187</ele>
        <time>2019-07-11T18:47:43Z</time>
      </trkpt>
      <trkpt lat="45.00349" lon="5.46758">
        <ele>1184</ele>
        <time>2019-07-11T18:47:49Z</time>
      </trkpt>
      <trkpt lat="45.00347" lon="5.46754">
        <ele>1183</ele>
        <time>2019-07-11T18:47:56Z</time>
      </trkpt>
      <trkpt lat="45.00348" lon="5.46748">
        <ele>1181</ele>
        <time>2019-07-11T18:48:05Z</time>
      </trkpt>
      <trkpt lat="45.00353" lon="5.46743">
        <ele>1178</ele>
        <time>2019-07-11T18:48:13Z</time>
      </trkpt>
      <trkpt lat="45.00359" lon="5.46743">
        <ele>1177</ele>
        <time>2019-07-11T18:48:17Z</time>
      </trkpt>
      <trkpt lat="45.00393" lon="5.46767">
        <ele>1179</ele>
        <time>2019-07-11T18:48:21Z</time>
      </trkpt>
      <trkpt lat="45.00427" lon="5.4677">
        <ele>1174</ele>
        <time>2019-07-11T18:48:24Z</time>
      </trkpt>
      <trkpt lat="45.00477" lon="5.46789">
        <ele>1171</ele>
        <time>2019-07-11T18:48:30Z</time>
      </trkpt>
      <trkpt lat="45.00524" lon="5.46781">
        <ele>1161</ele>
        <time>2019-07-11T18:48:35Z</time>
      </trkpt>
      <trkpt lat="45.00543" lon="5.46781">
        <ele>1159</ele>
        <time>2019-07-11T18:48:36Z</time>
      </trkpt>
      <trkpt lat="45.00565" lon="5.46788">
        <ele>1160</ele>
        <time>2019-07-11T18:48:55Z</time>
      </trkpt>
      <trkpt lat="45.00584" lon="5.46797">
        <ele>1163</ele>
        <time>2019-07-11T18:48:58Z</time>
      </trkpt>
      <trkpt lat="45.00619" lon="5.46793">
        <ele>1159</ele>
        <time>2019-07-11T18:49:02Z</time>
      </trkpt>
      <trkpt lat="45.00644" lon="5.46781">
        <ele>1151</ele>
        <time>2019-07-11T18:49:11Z</time>
      </trkpt>
      <trkpt lat="45.00651" lon="5.46781">
        <ele>1151</ele>
        <time>2019-07-11T18:49:21Z</time>
      </trkpt>
      <trkpt lat="45.00757" lon="5.4679">
        <ele>1154</ele>
        <time>2019-07-11T18:49:36Z</time>
      </trkpt>
      <trkpt lat="45.0077" lon="5.46789">
        <ele>1152</ele>
        <time>2019-07-11T18:49:41Z</time>
      </trkpt>
      <trkpt lat="45.00795" lon="5.46782">
        <ele>1146</ele>
        <time>2019-07-11T18:49:46Z</time>
      </trkpt>
      <trkpt lat="45.00843" lon="5.46774">
        <ele>1137</ele>
        <time>2019-07-11T18:49:56Z</time>
      </trkpt>
      <trkpt lat="45.009" lon="5.46773">
        <ele>1138</ele>
        <time>2019-07-11T18:50:05Z</time>
      </trkpt>
      <trkpt lat="45.00987" lon="5.46765">
        <ele>1135</ele>
        <time>2019-07-11T18:50:21Z</time>
      </trkpt>
      <trkpt lat="45.01014" lon="5.46759">
        <ele>1132</ele>
        <time>2019-07-11T18:50:26Z</time>
      </trkpt>
      <trkpt lat="45.01039" lon="5.46745">
        <ele>1124</ele>
        <time>2019-07-11T18:50:31Z</time>
      </trkpt>
      <trkpt lat="45.01093" lon="5.46723">
        <ele>1116</ele>
        <time>2019-07-11T18:50:41Z</time>
      </trkpt>
      <trkpt lat="45.01141" lon="5.46712">
        <ele>1116</ele>
        <time>2019-07-11T18:50:47Z</time>
      </trkpt>
      <trkpt lat="45.01231" lon="5.46685">
        <ele>1112</ele>
        <time>2019-07-11T18:50:52Z</time>
      </trkpt>
      <trkpt lat="45.01261" lon="5.46675">
        <ele>1111</ele>
        <time>2019-07-11T18:50:55Z</time>
      </trkpt>
      <trkpt lat="45.01286" lon="5.46659">
        <ele>1108</ele>
        <time>2019-07-11T18:50:57Z</time>
      </trkpt>
      <trkpt lat="45.01332" lon="5.46619">
        <ele>1102</ele>
        <time>2019-07-11T18:51:00Z</time>
      </trkpt>
      <trkpt lat="45.01361" lon="5.46589">
        <ele>1099</ele>
        <time>2019-07-11T18:51:01Z</time>
      </trkpt>
      <trkpt lat="45.0138" lon="5.46565">
        <ele>1098</ele>
        <time>2019-07-11T18:51:02Z</time>
      </trkpt>
      <trkpt lat="45.01392" lon="5.46544">
        <ele>1099</ele>
        <time>2019-07-11T18:51:05Z</time>
      </trkpt>
      <trkpt lat="45.01397" lon="5.46531">
        <ele>1100</ele>
        <time>2019-07-11T18:51:19Z</time>
      </trkpt>
      <trkpt lat="45.014" lon="5.46512">
        <ele>1099</ele>
        <time>2019-07-11T18:51:33Z</time>
      </trkpt>
      <trkpt lat="45.01399" lon="5.46503">
        <ele>1098</ele>
        <time>2019-07-11T18:51:35Z</time>
      </trkpt>
      <trkpt lat="45.01394" lon="5.46492">
        <ele>1097</ele>
        <time>2019-07-11T18:51:35Z</time>
      </trkpt>
      <trkpt lat="45.01385" lon="5.46479">
        <ele>1096</ele>
        <time>2019-07-11T18:51:36Z</time>
      </trkpt>
      <trkpt lat="45.01318" lon="5.46423">
        <ele>1080</ele>
        <time>2019-07-11T18:51:37Z</time>
      </trkpt>
      <trkpt lat="45.01243" lon="5.46372">
        <ele>1059</ele>
        <time>2019-07-11T18:51:41Z</time>
      </trkpt>
      <trkpt lat="45.0124" lon="5.46363">
        <ele>1059</ele>
        <time>2019-07-11T18:51:44Z</time>
      </trkpt>
      <trkpt lat="45.01241" lon="5.46357">
        <ele>1059</ele>
        <time>2019-07-11T18:51:48Z</time>
      </trkpt>
      <trkpt lat="45.01244" lon="5.46354">
        <ele>1060</ele>
        <time>2019-07-11T18:51:57Z</time>
      </trkpt>
      <trkpt lat="45.0125" lon="5.46353">
        <ele>1061</ele>
        <time>2019-07-11T18:52:08Z</time>
      </trkpt>
      <trkpt lat="45.01271" lon="5.46355">
        <ele>1064</ele>
        <time>2019-07-11T18:52:14Z</time>
      </trkpt>
      <trkpt lat="45.01288" lon="5.46353">
        <ele>1066</ele>
        <time>2019-07-11T18:52:24Z</time>
      </trkpt>
      <trkpt lat="45.01308" lon="5.46344">
        <ele>1068</ele>
        <time>2019-07-11T18:52:28Z</time>
      </trkpt>
      <trkpt lat="45.01355" lon="5.46313">
        <ele>1067</ele>
        <time>2019-07-11T18:52:33Z</time>
      </trkpt>
      <trkpt lat="45.01416" lon="5.46283">
        <ele>1067</ele>
        <time>2019-07-11T18:52:41Z</time>
      </trkpt>
      <trkpt lat="45.01441" lon="5.46262">
        <ele>1065</ele>
        <time>2019-07-11T18:52:49Z</time>
      </trkpt>
      <trkpt lat="45.01486" lon="5.46205">
        <ele>1053</ele>
        <time>2019-07-11T18:53:00Z</time>
      </trkpt>
      <trkpt lat="45.01507" lon="5.46192">
        <ele>1052</ele>
        <time>2019-07-11T18:53:14Z</time>
      </trkpt>
      <trkpt lat="45.01531" lon="5.46182">
        <ele>1051</ele>
        <time>2019-07-11T18:53:24Z</time>
      </trkpt>
      <trkpt lat="45.01579" lon="5.46176">
        <ele>1056</ele>
        <time>2019-07-11T18:53:44Z</time>
      </trkpt>
      <trkpt lat="45.01619" lon="5.46167">
        <ele>1053</ele>
        <time>2019-07-11T18:53:48Z</time>
      </trkpt>
      <trkpt lat="45.01679" lon="5.46147">
        <ele>1045</ele>
        <time>2019-07-11T18:53:51Z</time>
      </trkpt>
      <trkpt lat="45.01759" lon="5.46131">
        <ele>1038</ele>
        <time>2019-07-11T18:53:55Z</time>
      </trkpt>
      <trkpt lat="45.01816" lon="5.46129">
        <ele>1035</ele>
        <time>2019-07-11T18:54:00Z</time>
      </trkpt>
      <trkpt lat="45.0193" lon="5.46111">
        <ele>1021</ele>
        <time>2019-07-11T18:54:04Z</time>
      </trkpt>
      <trkpt lat="45.01952" lon="5.46112">
        <ele>1022</ele>
        <time>2019-07-11T18:54:08Z</time>
      </trkpt>
      <trkpt lat="45.01969" lon="5.46118">
        <ele>1026</ele>
        <time>2019-07-11T18:54:13Z</time>
      </trkpt>
      <trkpt lat="45.01989" lon="5.46118">
        <ele>1027</ele>
        <time>2019-07-11T18:54:26Z</time>
      </trkpt>
      <trkpt lat="45.02015" lon="5.46112">
        <ele>1022</ele>
        <time>2019-07-11T18:54:34Z</time>
      </trkpt>
      <trkpt lat="45.02039" lon="5.46111">
        <ele>1020</ele>
        <time>2019-07-11T18:54:40Z</time>
      </trkpt>
      <trkpt lat="45.02064" lon="5.4611">
        <ele>1017</ele>
        <time>2019-07-11T18:54:42Z</time>
      </trkpt>
      <trkpt lat="45.02092" lon="5.46113">
        <ele>1017</ele>
        <time>2019-07-11T18:54:48Z</time>
      </trkpt>
      <trkpt lat="45.02163" lon="5.46099">
        <ele>1005</ele>
        <time>2019-07-11T18:54:53Z</time>
      </trkpt>
      <trkpt lat="45.02207" lon="5.46095">
        <ele>1009</ele>
        <time>2019-07-11T18:54:56Z</time>
      </trkpt>
      <trkpt lat="45.02237" lon="5.46085">
        <ele>1008</ele>
        <time>2019-07-11T18:54:58Z</time>
      </trkpt>
      <trkpt lat="45.02251" lon="5.46078">
        <ele>1007</ele>
        <time>2019-07-11T18:55:07Z</time>
      </trkpt>
      <trkpt lat="45.02279" lon="5.46054">
        <ele>1003</ele>
        <time>2019-07-11T18:55:11Z</time>
      </trkpt>
      <trkpt lat="45.02301" lon="5.46026">
        <ele>996</ele>
        <time>2019-07-11T18:55:15Z</time>
      </trkpt>
      <trkpt lat="45.02312" lon="5.46016">
        <ele>993</ele>
        <time>2019-07-11T18:55:16Z</time>
      </trkpt>
      <trkpt lat="45.02324" lon="5.4601">
        <ele>992</ele>
        <time>2019-07-11T18:55:22Z</time>
      </trkpt>
      <trkpt lat="45.02371" lon="5.45993">
        <ele>990</ele>
        <time>2019-07-11T18:55:24Z</time>
      </trkpt>
      <trkpt lat="45.02396" lon="5.4598">
        <ele>989</ele>
        <time>2019-07-11T18:55:25Z</time>
      </trkpt>
      <trkpt lat="45.02406" lon="5.45957">
        <ele>983</ele>
        <time>2019-07-11T18:55:34Z</time>
      </trkpt>
      <trkpt lat="45.02413" lon="5.45946">
        <ele>980</ele>
        <time>2019-07-11T18:55:41Z</time>
      </trkpt>
      <trkpt lat="45.02439" lon="5.45922">
        <ele>979</ele>
        <time>2019-07-11T18:55:46Z</time>
      </trkpt>
      <trkpt lat="45.02444" lon="5.45912">
        <ele>979</ele>
        <time>2019-07-11T18:55:51Z</time>
      </trkpt>
      <trkpt lat="45.02448" lon="5.45901">
        <ele>978</ele>
        <time>2019-07-11T18:55:54Z</time>
      </trkpt>
      <trkpt lat="45.0246" lon="5.45834">
        <ele>971</ele>
        <time>2019-07-11T18:55:57Z</time>
      </trkpt>
      <trkpt lat="45.02474" lon="5.45784">
        <ele>966</ele>
        <time>2019-07-11T18:56:02Z</time>
      </trkpt>
      <trkpt lat="45.02492" lon="5.45746">
        <ele>965</ele>
        <time>2019-07-11T18:56:07Z</time>
      </trkpt>
      <trkpt lat="45.02501" lon="5.45712">
        <ele>960</ele>
        <time>2019-07-11T18:56:10Z</time>
      </trkpt>
      <trkpt lat="45.02504" lon="5.45689">
        <ele>957</ele>
        <time>2019-07-11T18:56:12Z</time>
      </trkpt>
      <trkpt lat="45.02512" lon="5.45667">
        <ele>955</ele>
        <time>2019-07-11T18:56:21Z</time>
      </trkpt>
      <trkpt lat="45.02531" lon="5.45635">
        <ele>952</ele>
        <time>2019-07-11T18:56:31Z</time>
      </trkpt>
      <trkpt lat="45.02546" lon="5.45603">
        <ele>948</ele>
        <time>2019-07-11T18:56:37Z</time>
      </trkpt>
      <trkpt lat="45.02552" lon="5.45585">
        <ele>945</ele>
        <time>2019-07-11T18:56:38Z</time>
      </trkpt>
      <trkpt lat="45.02562" lon="5.45568">
        <ele>944</ele>
        <time>2019-07-11T18:56:56Z</time>
      </trkpt>
      <trkpt lat="45.02601" lon="5.45524">
        <ele>943</ele>
        <time>2019-07-11T18:57:02Z</time>
      </trkpt>
      <trkpt lat="45.02637" lon="5.45462">
        <ele>937</ele>
        <time>2019-07-11T18:57:10Z</time>
      </trkpt>
      <trkpt lat="45.02667" lon="5.45451">
        <ele>938</ele>
        <time>2019-07-11T18:57:16Z</time>
      </trkpt>
      <trkpt lat="45.02673" lon="5.45445">
        <ele>938</ele>
        <time>2019-07-11T18:57:18Z</time>
      </trkpt>
      <trkpt lat="45.02742" lon="5.45338">
        <ele>926</ele>
        <time>2019-07-11T18:57:20Z</time>
      </trkpt>
      <trkpt lat="45.02767" lon="5.45306">
        <ele>922</ele>
        <time>2019-07-11T18:57:22Z</time>
      </trkpt>
      <trkpt lat="45.02801" lon="5.45272">
        <ele>921</ele>
        <time>2019-07-11T18:57:24Z</time>
      </trkpt>
      <trkpt lat="45.02827" lon="5.45239">
        <ele>920</ele>
        <time>2019-07-11T18:57:27Z</time>
      </trkpt>
      <trkpt lat="45.02834" lon="5.45224">
        <ele>917</ele>
        <time>2019-07-11T18:57:34Z</time>
      </trkpt>
      <trkpt lat="45.0284" lon="5.45209">
        <ele>915</ele>
        <time>2019-07-11T18:57:37Z</time>
      </trkpt>
      <trkpt lat="45.02843" lon="5.45196">
        <ele>912</ele>
        <time>2019-07-11T18:57:48Z</time>
      </trkpt>
      <trkpt lat="45.02848" lon="5.45185">
        <ele>910</ele>
        <time>2019-07-11T18:57:59Z</time>
      </trkpt>
      <trkpt lat="45.02866" lon="5.45174">
        <ele>910</ele>
        <time>2019-07-11T18:58:07Z</time>
      </trkpt>
      <trkpt lat="45.02904" lon="5.45159">
        <ele>912</ele>
        <time>2019-07-11T18:58:20Z</time>
      </trkpt>
      <trkpt lat="45.02919" lon="5.45148">
        <ele>910</ele>
        <time>2019-07-11T18:58:29Z</time>
      </trkpt>
      <trkpt lat="45.0297" lon="5.45105">
        <ele>901</ele>
        <time>2019-07-11T18:58:36Z</time>
      </trkpt>
      <trkpt lat="45.0303" lon="5.45075">
        <ele>899</ele>
        <time>2019-07-11T18:58:43Z</time>
      </trkpt>
      <trkpt lat="45.03068" lon="5.4505">
        <ele>895</ele>
        <time>2019-07-11T18:58:47Z</time>
      </trkpt>
      <trkpt lat="45.03134" lon="5.44992">
        <ele>886</ele>
        <time>2019-07-11T18:58:51Z</time>
      </trkpt>
      <trkpt lat="45.03168" lon="5.44949">
        <ele>878</ele>
        <time>2019-07-11T18:58:55Z</time>
      </trkpt>
      <trkpt lat="45.03197" lon="5.44907">
        <ele>867</ele>
        <time>2019-07-11T18:59:01Z</time>
      </trkpt>
      <trkpt lat="45.03228" lon="5.44876">
        <ele>864</ele>
        <time>2019-07-11T18:59:03Z</time>
      </trkpt>
      <trkpt lat="45.03247" lon="5.44861">
        <ele>863</ele>
        <time>2019-07-11T18:59:05Z</time>
      </trkpt>
      <trkpt lat="45.0327" lon="5.44848">
        <ele>862</ele>
        <time>2019-07-11T18:59:06Z</time>
      </trkpt>
      <trkpt lat="45.03293" lon="5.44841">
        <ele>862</ele>
        <time>2019-07-11T18:59:14Z</time>
      </trkpt>
      <trkpt lat="45.03328" lon="5.44842">
        <ele>863</ele>
        <time>2019-07-11T18:59:16Z</time>
      </trkpt>
      <trkpt lat="45.03338" lon="5.4484">
        <ele>863</ele>
        <time>2019-07-11T18:59:30Z</time>
      </trkpt>
      <trkpt lat="45.03345" lon="5.44833">
        <ele>863</ele>
        <time>2019-07-11T18:59:52Z</time>
      </trkpt>
      <trkpt lat="45.03351" lon="5.44826">
        <ele>862</ele>
        <time>2019-07-11T18:59:56Z</time>
      </trkpt>
      <trkpt lat="45.03375" lon="5.44774">
        <ele>855</ele>
        <time>2019-07-11T18:59:58Z</time>
      </trkpt>
      <trkpt lat="45.03383" lon="5.4476">
        <ele>854</ele>
        <time>2019-07-11T19:00:00Z</time>
      </trkpt>
      <trkpt lat="45.03423" lon="5.44664">
        <ele>846</ele>
        <time>2019-07-11T19:00:05Z</time>
      </trkpt>
      <trkpt lat="45.03496" lon="5.44522">
        <ele>832</ele>
        <time>2019-07-11T19:00:07Z</time>
      </trkpt>
      <trkpt lat="45.03513" lon="5.44498">
        <ele>830</ele>
        <time>2019-07-11T19:00:09Z</time>
      </trkpt>
      <trkpt lat="45.03522" lon="5.44491">
        <ele>830</ele>
        <time>2019-07-11T19:00:11Z</time>
      </trkpt>
      <trkpt lat="45.03532" lon="5.44486">
        <ele>831</ele>
        <time>2019-07-11T19:00:39Z</time>
      </trkpt>
      <trkpt lat="45.03558" lon="5.44481">
        <ele>833</ele>
        <time>2019-07-11T19:01:02Z</time>
      </trkpt>
      <trkpt lat="45.03567" lon="5.4447">
        <ele>834</ele>
        <time>2019-07-11T19:01:04Z</time>
      </trkpt>
      <trkpt lat="45.03571" lon="5.44455">
        <ele>835</ele>
        <time>2019-07-11T19:01:15Z</time>
      </trkpt>
      <trkpt lat="45.03572" lon="5.44436">
        <ele>835</ele>
        <time>2019-07-11T19:01:21Z</time>
      </trkpt>
      <trkpt lat="45.03418" lon="5.44395">
        <ele>825</ele>
        <time>2019-07-11T19:01:34Z</time>
      </trkpt>
      <trkpt lat="45.03291" lon="5.44387">
        <ele>819</ele>
        <time>2019-07-11T19:01:38Z</time>
      </trkpt>
      <trkpt lat="45.03278" lon="5.44388">
        <ele>819</ele>
        <time>2019-07-11T19:01:43Z</time>
      </trkpt>
      <trkpt lat="45.0322" lon="5.44399">
        <ele>813</ele>
        <time>2019-07-11T19:01:46Z</time>
      </trkpt>
      <trkpt lat="45.03182" lon="5.44399">
        <ele>810</ele>
        <time>2019-07-11T19:02:03Z</time>
      </trkpt>
      <trkpt lat="45.03113" lon="5.44394">
        <ele>807</ele>
        <time>2019-07-11T19:02:08Z</time>
      </trkpt>
      <trkpt lat="45.0309" lon="5.44396">
        <ele>805</ele>
        <time>2019-07-11T19:02:15Z</time>
      </trkpt>
      <trkpt lat="45.0306" lon="5.44408">
        <ele>799</ele>
        <time>2019-07-11T19:02:22Z</time>
      </trkpt>
      <trkpt lat="45.03047" lon="5.44411">
        <ele>797</ele>
        <time>2019-07-11T19:02:25Z</time>
      </trkpt>
      <trkpt lat="45.02947" lon="5.44405">
        <ele>789</ele>
        <time>2019-07-11T19:02:27Z</time>
      </trkpt>
      <trkpt lat="45.02922" lon="5.44398">
        <ele>789</ele>
        <time>2019-07-11T19:02:30Z</time>
      </trkpt>
      <trkpt lat="45.02883" lon="5.44379">
        <ele>791</ele>
        <time>2019-07-11T19:02:38Z</time>
      </trkpt>
      <trkpt lat="45.02849" lon="5.44359">
        <ele>793</ele>
        <time>2019-07-11T19:02:42Z</time>
      </trkpt>
      <trkpt lat="45.02832" lon="5.44355">
        <ele>793</ele>
        <time>2019-07-11T19:02:46Z</time>
      </trkpt>
      <trkpt lat="45.0282" lon="5.44356">
        <ele>791</ele>
        <time>2019-07-11T19:02:49Z</time>
      </trkpt>
      <trkpt lat="45.02803" lon="5.44363">
        <ele>787</ele>
        <time>2019-07-11T19:03:05Z</time>
      </trkpt>
      <trkpt lat="45.02762" lon="5.44371">
        <ele>780</ele>
        <time>2019-07-11T19:03:17Z</time>
      </trkpt>
      <trkpt lat="45.02742" lon="5.44387">
        <ele>774</ele>
        <time>2019-07-11T19:03:23Z</time>
      </trkpt>
      <trkpt lat="45.02722" lon="5.44398">
        <ele>769</ele>
        <time>2019-07-11T19:03:36Z</time>
      </trkpt>
      <trkpt lat="45.02703" lon="5.444">
        <ele>768</ele>
        <time>2019-07-11T19:03:55Z</time>
      </trkpt>
      <trkpt lat="45.02614" lon="5.44394">
        <ele>762</ele>
        <time>2019-07-11T19:04:25Z</time>
      </trkpt>
      <trkpt lat="45.02544" lon="5.44395">
        <ele>759</ele>
        <time>2019-07-11T19:04:36Z</time>
      </trkpt>
      <trkpt lat="45.0251" lon="5.44391">
        <ele>759</ele>
        <time>2019-07-11T19:04:36Z</time>
      </trkpt>
      <trkpt lat="45.0244" lon="5.44372">
        <ele>758</ele>
        <time>2019-07-11T19:04:40Z</time>
      </trkpt>
      <trkpt lat="45.02336" lon="5.44338">
        <ele>755</ele>
        <time>2019-07-11T19:04:44Z</time>
      </trkpt>
      <trkpt lat="45.0217" lon="5.44286">
        <ele>758</ele>
        <time>2019-07-11T19:04:50Z</time>
      </trkpt>
      <trkpt lat="45.0217" lon="5.44286">
        <ele>758</ele>
        <time>2019-07-11T19:04:54Z</time>
      </trkpt>
      <trkpt lat="45.02115" lon="5.44254">
        <ele>758</ele>
        <time>2019-07-11T19:05:05Z</time>
      </trkpt>
      <trkpt lat="45.02093" lon="5.44243">
        <ele>757</ele>
        <time>2019-07-11T19:05:07Z</time>
      </trkpt>
      <trkpt lat="45.02072" lon="5.44238">
        <ele>756</ele>
        <time>2019-07-11T19:05:48Z</time>
      </trkpt>
      <trkpt lat="45.02037" lon="5.4424">
        <ele>754</ele>
        <time>2019-07-11T19:05:52Z</time>
      </trkpt>
      <trkpt lat="45.02015" lon="5.44247">
        <ele>751</ele>
        <time>2019-07-11T19:06:09Z</time>
      </trkpt>
      <trkpt lat="45.01958" lon="5.44279">
        <ele>747</ele>
        <time>2019-07-11T19:06:15Z</time>
      </trkpt>
      <trkpt lat="45.01944" lon="5.44283">
        <ele>746</ele>
        <time>2019-07-11T19:06:20Z</time>
      </trkpt>
      <trkpt lat="45.01715" lon="5.44276">
        <ele>737</ele>
        <time>2019-07-11T19:06:48Z</time>
      </trkpt>
      <trkpt lat="45.01692" lon="5.44271">
        <ele>736</ele>
        <time>2019-07-11T19:06:54Z</time>
      </trkpt>
      <trkpt lat="45.01601" lon="5.4424">
        <ele>734</ele>
        <time>2019-07-11T19:07:06Z</time>
      </trkpt>
      <trkpt lat="45.01569" lon="5.44234">
        <ele>734</ele>
        <time>2019-07-11T19:07:11Z</time>
      </trkpt>
      <trkpt lat="45.01537" lon="5.44234">
        <ele>733</ele>
        <time>2019-07-11T19:07:15Z</time>
      </trkpt>
      <trkpt lat="45.0138" lon="5.44252">
        <ele>726</ele>
        <time>2019-07-11T19:07:29Z</time>
      </trkpt>
      <trkpt lat="45.01351" lon="5.44257">
        <ele>727</ele>
        <time>2019-07-11T19:07:57Z</time>
      </trkpt>
      <trkpt lat="45.01281" lon="5.44279">
        <ele>724</ele>
        <time>2019-07-11T19:08:03Z</time>
      </trkpt>
      <trkpt lat="45.01257" lon="5.44282">
        <ele>723</ele>
        <time>2019-07-11T19:08:07Z</time>
      </trkpt>
      <trkpt lat="45.01232" lon="5.44283">
        <ele>723</ele>
        <time>2019-07-11T19:08:15Z</time>
      </trkpt>
      <trkpt lat="45.01156" lon="5.44271">
        <ele>726</ele>
        <time>2019-07-11T19:08:18Z</time>
      </trkpt>
      <trkpt lat="45.00997" lon="5.44275">
        <ele>719</ele>
        <time>2019-07-11T19:08:20Z</time>
      </trkpt>
      <trkpt lat="45.00966" lon="5.4427">
        <ele>719</ele>
        <time>2019-07-11T19:08:23Z</time>
      </trkpt>
      <trkpt lat="45.00944" lon="5.44256">
        <ele>718</ele>
        <time>2019-07-11T19:08:34Z</time>
      </trkpt>
      <trkpt lat="45.00907" lon="5.44222">
        <ele>722</ele>
        <time>2019-07-11T19:08:37Z</time>
      </trkpt>
      <trkpt lat="45.00892" lon="5.44212">
        <ele>723</ele>
        <time>2019-07-11T19:08:39Z</time>
      </trkpt>
      <trkpt lat="45.00877" lon="5.4421">
        <ele>723</ele>
        <time>2019-07-11T19:08:42Z</time>
      </trkpt>
      <trkpt lat="45.00861" lon="5.44214">
        <ele>723</ele>
        <time>2019-07-11T19:08:44Z</time>
      </trkpt>
      <trkpt lat="45.00809" lon="5.44254">
        <ele>716</ele>
        <time>2019-07-11T19:08:46Z</time>
      </trkpt>
      <trkpt lat="45.00792" lon="5.44262">
        <ele>715</ele>
        <time>2019-07-11T19:08:50Z</time>
      </trkpt>
      <trkpt lat="45.00779" lon="5.44261">
        <ele>715</ele>
        <time>2019-07-11T19:08:56Z</time>
      </trkpt>
      <trkpt lat="45.00767" lon="5.44254">
        <ele>715</ele>
        <time>2019-07-11T19:09:01Z</time>
      </trkpt>
      <trkpt lat="45.00758" lon="5.44246">
        <ele>715</ele>
        <time>2019-07-11T19:09:03Z</time>
      </trkpt>
      <trkpt lat="45.00749" lon="5.44227">
        <ele>716</ele>
        <time>2019-07-11T19:09:05Z</time>
      </trkpt>
      <trkpt lat="45.00743" lon="5.44202">
        <ele>718</ele>
        <time>2019-07-11T19:09:07Z</time>
      </trkpt>
      <trkpt lat="45.0074" lon="5.44155">
        <ele>720</ele>
        <time>2019-07-11T19:09:10Z</time>
      </trkpt>
      <trkpt lat="45.00735" lon="5.44117">
        <ele>723</ele>
        <time>2019-07-11T19:09:35Z</time>
      </trkpt>
      <trkpt lat="45.00729" lon="5.44099">
        <ele>724</ele>
        <time>2019-07-11T19:09:38Z</time>
      </trkpt>
      <trkpt lat="45.0072" lon="5.44088">
        <ele>724</ele>
        <time>2019-07-11T19:09:44Z</time>
      </trkpt>
      <trkpt lat="45.00711" lon="5.44083">
        <ele>724</ele>
        <time>2019-07-11T19:09:46Z</time>
      </trkpt>
      <trkpt lat="45.00693" lon="5.44084">
        <ele>723</ele>
        <time>2019-07-11T19:09:47Z</time>
      </trkpt>
      <trkpt lat="45.00554" lon="5.44117">
        <ele>722</ele>
        <time>2019-07-11T19:09:53Z</time>
      </trkpt>
      <trkpt lat="45.00537" lon="5.44113">
        <ele>721</ele>
        <time>2019-07-11T19:09:56Z</time>
      </trkpt>
      <trkpt lat="45.00506" lon="5.44111">
        <ele>719</ele>
        <time>2019-07-11T19:09:58Z</time>
      </trkpt>
      <trkpt lat="45.00496" lon="5.44112">
        <ele>719</ele>
        <time>2019-07-11T19:10:07Z</time>
      </trkpt>
      <trkpt lat="45.00488" lon="5.44116">
        <ele>717</ele>
        <time>2019-07-11T19:10:10Z</time>
      </trkpt>
      <trkpt lat="45.00459" lon="5.44137">
        <ele>713</ele>
        <time>2019-07-11T19:10:11Z</time>
      </trkpt>
      <trkpt lat="45.0044" lon="5.44143">
        <ele>710</ele>
        <time>2019-07-11T19:10:24Z</time>
      </trkpt>
      <trkpt lat="45.00428" lon="5.44144">
        <ele>708</ele>
        <time>2019-07-11T19:10:26Z</time>
      </trkpt>
      <trkpt lat="45.00383" lon="5.44133">
        <ele>707</ele>
        <time>2019-07-11T19:10:28Z</time>
      </trkpt>
      <trkpt lat="45.00367" lon="5.44125">
        <ele>707</ele>
        <time>2019-07-11T19:10:56Z</time>
      </trkpt>
      <trkpt lat="45.00359" lon="5.44118">
        <ele>707</ele>
        <time>2019-07-11T19:11:02Z</time>
      </trkpt>
      <trkpt lat="45.0031" lon="5.44049">
        <ele>712</ele>
        <time>2019-07-11T19:11:05Z</time>
      </trkpt>
      <trkpt lat="45.00304" lon="5.44034">
        <ele>714</ele>
        <time>2019-07-11T19:11:10Z</time>
      </trkpt>
      <trkpt lat="45.00302" lon="5.44018">
        <ele>715</ele>
        <time>2019-07-11T19:11:12Z</time>
      </trkpt>
      <trkpt lat="45.00325" lon="5.43795">
        <ele>693</ele>
        <time>2019-07-11T19:11:16Z</time>
      </trkpt>
      <trkpt lat="45.00329" lon="5.43746">
        <ele>692</ele>
        <time>2019-07-11T19:11:24Z</time>
      </trkpt>
      <trkpt lat="45.00327" lon="5.43725">
        <ele>695</ele>
        <time>2019-07-11T19:11:36Z</time>
      </trkpt>
      <trkpt lat="45.00313" lon="5.43693">
        <ele>698</ele>
        <time>2019-07-11T19:11:39Z</time>
      </trkpt>
      <trkpt lat="45.00304" lon="5.43683">
        <ele>699</ele>
        <time>2019-07-11T19:11:44Z</time>
      </trkpt>
      <trkpt lat="45.00282" lon="5.43671">
        <ele>698</ele>
        <time>2019-07-11T19:11:51Z</time>
      </trkpt>
      <trkpt lat="45.00237" lon="5.43652">
        <ele>698</ele>
        <time>2019-07-11T19:11:58Z</time>
      </trkpt>
      <trkpt lat="45.00174" lon="5.43618">
        <ele>696</ele>
        <time>2019-07-11T19:12:00Z</time>
      </trkpt>
      <trkpt lat="45.00162" lon="5.43631">
        <ele>694</ele>
        <time>2019-07-11T19:12:02Z</time>
      </trkpt>
      <trkpt lat="45.00145" lon="5.43661">
        <ele>693</ele>
        <time>2019-07-11T19:12:10Z</time>
      </trkpt>
      <trkpt lat="45.00117" lon="5.43701">
        <ele>698</ele>
        <time>2019-07-11T19:12:15Z</time>
      </trkpt>
      <trkpt lat="45.00081" lon="5.43733">
        <ele>700</ele>
        <time>2019-07-11T19:12:19Z</time>
      </trkpt>
      <trkpt lat="45.00075" lon="5.43744">
        <ele>701</ele>
        <time>2019-07-11T19:12:38Z</time>
      </trkpt>
      <trkpt lat="45.00071" lon="5.43756">
        <ele>703</ele>
        <time>2019-07-11T19:12:43Z</time>
      </trkpt>
      <trkpt lat="45.00059" lon="5.4382">
        <ele>711</ele>
        <time>2019-07-11T19:12:47Z</time>
      </trkpt>
      <trkpt lat="45.00044" lon="5.43849">
        <ele>712</ele>
        <time>2019-07-11T19:12:50Z</time>
      </trkpt>
      <trkpt lat="45.00027" lon="5.43874">
        <ele>712</ele>
        <time>2019-07-11T19:12:58Z</time>
      </trkpt>
      <trkpt lat="44.99959" lon="5.43987">
        <ele>716</ele>
        <time>2019-07-11T19:13:12Z</time>
      </trkpt>
      <trkpt lat="44.99939" lon="5.44018">
        <ele>713</ele>
        <time>2019-07-11T19:13:17Z</time>
      </trkpt>
      <trkpt lat="44.9992" lon="5.44034">
        <ele>708</ele>
        <time>2019-07-11T19:13:24Z</time>
      </trkpt>
      <trkpt lat="44.99904" lon="5.4404">
        <ele>708</ele>
        <time>2019-07-11T19:14:00Z</time>
      </trkpt>
      <trkpt lat="44.99862" lon="5.44053">
        <ele>710</ele>
        <time>2019-07-11T19:14:07Z</time>
      </trkpt>
      <trkpt lat="44.99783" lon="5.44058">
        <ele>713</ele>
        <time>2019-07-11T19:14:11Z</time>
      </trkpt>
      <trkpt lat="44.99754" lon="5.44063">
        <ele>711</ele>
        <time>2019-07-11T19:14:24Z</time>
      </trkpt>
      <trkpt lat="44.99716" lon="5.44065">
        <ele>710</ele>
        <time>2019-07-11T19:14:29Z</time>
      </trkpt>
      <trkpt lat="44.99514" lon="5.44051">
        <ele>712</ele>
        <time>2019-07-11T19:14:39Z</time>
      </trkpt>
      <trkpt lat="44.99474" lon="5.4405">
        <ele>711</ele>
        <time>2019-07-11T19:15:17Z</time>
      </trkpt>
      <trkpt lat="44.99451" lon="5.44044">
        <ele>713</ele>
        <time>2019-07-11T19:15:24Z</time>
      </trkpt>
      <trkpt lat="44.99379" lon="5.44019">
        <ele>720</ele>
        <time>2019-07-11T19:15:46Z</time>
      </trkpt>
      <trkpt lat="44.99352" lon="5.44013">
        <ele>720</ele>
        <time>2019-07-11T19:15:50Z</time>
      </trkpt>
      <trkpt lat="44.99297" lon="5.44008">
        <ele>719</ele>
        <time>2019-07-11T19:15:54Z</time>
      </trkpt>
      <trkpt lat="44.99082" lon="5.4398">
        <ele>716</ele>
        <time>2019-07-11T19:16:02Z</time>
      </trkpt>
      <trkpt lat="44.99045" lon="5.43978">
        <ele>718</ele>
        <time>2019-07-11T19:16:10Z</time>
      </trkpt>
      <trkpt lat="44.98918" lon="5.4398">
        <ele>723</ele>
        <time>2019-07-11T19:16:18Z</time>
      </trkpt>
      <trkpt lat="44.98897" lon="5.43978">
        <ele>723</ele>
        <time>2019-07-11T19:16:56Z</time>
      </trkpt>
      <trkpt lat="44.98876" lon="5.43974">
        <ele>724</ele>
        <time>2019-07-11T19:16:59Z</time>
      </trkpt>
      <trkpt lat="44.98833" lon="5.4396">
        <ele>729</ele>
        <time>2019-07-11T19:17:18Z</time>
      </trkpt>
      <trkpt lat="44.98787" lon="5.43954">
        <ele>728</ele>
        <time>2019-07-11T19:17:23Z</time>
      </trkpt>
      <trkpt lat="44.98743" lon="5.43944">
        <ele>729</ele>
        <time>2019-07-11T19:17:28Z</time>
      </trkpt>
      <trkpt lat="44.98528" lon="5.43921">
        <ele>724</ele>
        <time>2019-07-11T19:17:35Z</time>
      </trkpt>
      <trkpt lat="44.98513" lon="5.43916">
        <ele>724</ele>
        <time>2019-07-11T19:17:40Z</time>
      </trkpt>
      <trkpt lat="44.98412" lon="5.43871">
        <ele>728</ele>
        <time>2019-07-11T19:17:44Z</time>
      </trkpt>
      <trkpt lat="44.98385" lon="5.43861">
        <ele>729</ele>
        <time>2019-07-11T19:17:56Z</time>
      </trkpt>
      <trkpt lat="44.98357" lon="5.43859">
        <ele>726</ele>
        <time>2019-07-11T19:18:04Z</time>
      </trkpt>
      <trkpt lat="44.98314" lon="5.43858">
        <ele>722</ele>
        <time>2019-07-11T19:18:14Z</time>
      </trkpt>
      <trkpt lat="44.98291" lon="5.43854">
        <ele>721</ele>
        <time>2019-07-11T19:18:25Z</time>
      </trkpt>
      <trkpt lat="44.98269" lon="5.43845">
        <ele>720</ele>
        <time>2019-07-11T19:18:31Z</time>
      </trkpt>
      <trkpt lat="44.98206" lon="5.43811">
        <ele>731</ele>
        <time>2019-07-11T19:18:36Z</time>
      </trkpt>
      <trkpt lat="44.98159" lon="5.43797">
        <ele>739</ele>
        <time>2019-07-11T19:18:42Z</time>
      </trkpt>
      <trkpt lat="44.98104" lon="5.43785">
        <ele>738</ele>
        <time>2019-07-11T19:18:44Z</time>
      </trkpt>
      <trkpt lat="44.98044" lon="5.43767">
        <ele>738</ele>
        <time>2019-07-11T19:18:58Z</time>
      </trkpt>
      <trkpt lat="44.98011" lon="5.43754">
        <ele>736</ele>
        <time>2019-07-11T19:19:11Z</time>
      </trkpt>
      <trkpt lat="44.97988" lon="5.4374">
        <ele>740</ele>
        <time>2019-07-11T19:19:27Z</time>
      </trkpt>
      <trkpt lat="44.97956" lon="5.43716">
        <ele>751</ele>
        <time>2019-07-11T19:19:35Z</time>
      </trkpt>
      <trkpt lat="44.97944" lon="5.43711">
        <ele>752</ele>
        <time>2019-07-11T19:19:41Z</time>
      </trkpt>
      <trkpt lat="44.97867" lon="5.43695">
        <ele>751</ele>
        <time>2019-07-11T19:19:44Z</time>
      </trkpt>
      <trkpt lat="44.97792" lon="5.43683">
        <ele>750</ele>
        <time>2019-07-11T19:19:47Z</time>
      </trkpt>
      <trkpt lat="44.97704" lon="5.43665">
        <ele>750</ele>
        <time>2019-07-11T19:19:49Z</time>
      </trkpt>
      <trkpt lat="44.97659" lon="5.43658">
        <ele>748</ele>
        <time>2019-07-11T19:19:51Z</time>
      </trkpt>
      <trkpt lat="44.97629" lon="5.4365">
        <ele>747</ele>
        <time>2019-07-11T19:19:54Z</time>
      </trkpt>
      <trkpt lat="44.97614" lon="5.43637">
        <ele>748</ele>
        <time>2019-07-11T19:19:58Z</time>
      </trkpt>
      <trkpt lat="44.97597" lon="5.4363">
        <ele>748</ele>
        <time>2019-07-11T19:20:02Z</time>
      </trkpt>
      <trkpt lat="44.97585" lon="5.43629">
        <ele>747</ele>
        <time>2019-07-11T19:20:11Z</time>
      </trkpt>
      <trkpt lat="44.97574" lon="5.43631">
        <ele>746</ele>
        <time>2019-07-11T19:20:20Z</time>
      </trkpt>
      <trkpt lat="44.97557" lon="5.43641">
        <ele>744</ele>
        <time>2019-07-11T19:20:22Z</time>
      </trkpt>
      <trkpt lat="44.97537" lon="5.43648">
        <ele>743</ele>
        <time>2019-07-11T19:20:24Z</time>
      </trkpt>
      <trkpt lat="44.97514" lon="5.43649">
        <ele>744</ele>
        <time>2019-07-11T19:20:28Z</time>
      </trkpt>
      <trkpt lat="44.97466" lon="5.43643">
        <ele>747</ele>
        <time>2019-07-11T19:20:37Z</time>
      </trkpt>
      <trkpt lat="44.97416" lon="5.43624">
        <ele>756</ele>
        <time>2019-07-11T19:20:47Z</time>
      </trkpt>
      <trkpt lat="44.97404" lon="5.43617">
        <ele>759</ele>
        <time>2019-07-11T19:20:58Z</time>
      </trkpt>
      <trkpt lat="44.97392" lon="5.43617">
        <ele>759</ele>
        <time>2019-07-11T19:21:08Z</time>
      </trkpt>
      <trkpt lat="44.97374" lon="5.43611">
        <ele>761</ele>
        <time>2019-07-11T19:21:20Z</time>
      </trkpt>
      <trkpt lat="44.97324" lon="5.43607">
        <ele>762</ele>
        <time>2019-07-11T19:21:28Z</time>
      </trkpt>
      <trkpt lat="44.97266" lon="5.43594">
        <ele>766</ele>
        <time>2019-07-11T19:21:40Z</time>
      </trkpt>
      <trkpt lat="44.97205" lon="5.43593">
        <ele>768</ele>
        <time>2019-07-11T19:21:46Z</time>
      </trkpt>
      <trkpt lat="44.97149" lon="5.436">
        <ele>767</ele>
        <time>2019-07-11T19:21:59Z</time>
      </trkpt>
      <trkpt lat="44.97081" lon="5.43602">
        <ele>768</ele>
        <time>2019-07-11T19:22:07Z</time>
      </trkpt>
      <trkpt lat="44.97039" lon="5.43609">
        <ele>769</ele>
        <time>2019-07-11T19:22:20Z</time>
      </trkpt>
      <trkpt lat="44.96972" lon="5.43634">
        <ele>765</ele>
        <time>2019-07-11T19:22:51Z</time>
      </trkpt>
      <trkpt lat="44.9694" lon="5.43643">
        <ele>763</ele>
        <time>2019-07-11T19:22:56Z</time>
      </trkpt>
      <trkpt lat="44.96866" lon="5.43634">
        <ele>767</ele>
        <time>2019-07-11T19:23:03Z</time>
      </trkpt>
      <trkpt lat="44.96819" lon="5.43625">
        <ele>771</ele>
        <time>2019-07-11T19:23:09Z</time>
      </trkpt>
      <trkpt lat="44.96749" lon="5.4362">
        <ele>771</ele>
        <time>2019-07-11T19:23:16Z</time>
      </trkpt>
      <trkpt lat="44.96575" lon="5.43591">
        <ele>771</ele>
        <time>2019-07-11T19:23:40Z</time>
      </trkpt>
      <trkpt lat="44.96549" lon="5.43593">
        <ele>770</ele>
        <time>2019-07-11T19:23:43Z</time>
      </trkpt>
      <trkpt lat="44.96508" lon="5.43605">
        <ele>767</ele>
        <time>2019-07-11T19:23:54Z</time>
      </trkpt>
      <trkpt lat="44.96479" lon="5.4362">
        <ele>764</ele>
        <time>2019-07-11T19:23:58Z</time>
      </trkpt>
      <trkpt lat="44.96444" lon="5.43658">
        <ele>756</ele>
        <time>2019-07-11T19:24:01Z</time>
      </trkpt>
      <trkpt lat="44.96338" lon="5.43766">
        <ele>754</ele>
        <time>2019-07-11T19:24:09Z</time>
      </trkpt>
      <trkpt lat="44.96319" lon="5.43773">
        <ele>755</ele>
        <time>2019-07-11T19:24:10Z</time>
      </trkpt>
      <trkpt lat="44.96258" lon="5.43771">
        <ele>757</ele>
        <time>2019-07-11T19:24:15Z</time>
      </trkpt>
      <trkpt lat="44.96235" lon="5.43764">
        <ele>757</ele>
        <time>2019-07-11T19:24:19Z</time>
      </trkpt>
      <trkpt lat="44.9622" lon="5.43749">
        <ele>756</ele>
        <time>2019-07-11T19:24:35Z</time>
      </trkpt>
      <trkpt lat="44.96194" lon="5.43707">
        <ele>758</ele>
        <time>2019-07-11T19:24:41Z</time>
      </trkpt>
      <trkpt lat="44.96185" lon="5.43698">
        <ele>758</ele>
        <time>2019-07-11T19:24:47Z</time>
      </trkpt>
      <trkpt lat="44.96162" lon="5.43694">
        <ele>755</ele>
        <time>2019-07-11T19:25:24Z</time>
      </trkpt>
      <trkpt lat="44.9614" lon="5.43697">
        <ele>754</ele>
        <time>2019-07-11T19:25:40Z</time>
      </trkpt>
      <trkpt lat="44.96051" lon="5.43717">
        <ele>751</ele>
        <time>2019-07-11T19:25:49Z</time>
      </trkpt>
      <trkpt lat="44.96015" lon="5.43722">
        <ele>749</ele>
        <time>2019-07-11T19:25:57Z</time>
      </trkpt>
      <trkpt lat="44.9598" lon="5.43719">
        <ele>749</ele>
        <time>2019-07-11T19:26:43Z</time>
      </trkpt>
      <trkpt lat="44.95778" lon="5.43672">
        <ele>754</ele>
        <time>2019-07-11T19:26:51Z</time>
      </trkpt>
      <trkpt lat="44.95688" lon="5.43644">
        <ele>756</ele>
        <time>2019-07-11T19:26:59Z</time>
      </trkpt>
      <trkpt lat="44.95643" lon="5.43618">
        <ele>761</ele>
        <time>2019-07-11T19:27:17Z</time>
      </trkpt>
      <trkpt lat="44.95598" lon="5.43602">
        <ele>765</ele>
        <time>2019-07-11T19:27:21Z</time>
      </trkpt>
      <trkpt lat="44.95338" lon="5.43575">
        <ele>769</ele>
        <time>2019-07-11T19:27:45Z</time>
      </trkpt>
      <trkpt lat="44.95295" lon="5.43569">
        <ele>770</ele>
        <time>2019-07-11T19:28:00Z</time>
      </trkpt>
      <trkpt lat="44.95249" lon="5.43556">
        <ele>773</ele>
        <time>2019-07-11T19:28:06Z</time>
      </trkpt>
      <trkpt lat="44.95164" lon="5.4349">
        <ele>784</ele>
        <time>2019-07-11T19:29:49Z</time>
      </trkpt>
      <trkpt lat="44.95143" lon="5.4348">
        <ele>784</ele>
        <time>2019-07-11T19:30:13Z</time>
      </trkpt>
      <trkpt lat="44.95007" lon="5.43457">
        <ele>772</ele>
        <time>2019-07-11T19:30:23Z</time>
      </trkpt>
      <trkpt lat="44.94925" lon="5.43433">
        <ele>773</ele>
        <time>2019-07-11T19:30:34Z</time>
      </trkpt>
      <trkpt lat="44.94888" lon="5.4343">
        <ele>771</ele>
        <time>2019-07-11T19:31:00Z</time>
      </trkpt>
      <trkpt lat="44.94314" lon="5.43403">
        <ele>771</ele>
        <time>2019-07-11T19:31:34Z</time>
      </trkpt>
      <trkpt lat="44.94179" lon="5.43409">
        <ele>776</ele>
        <time>2019-07-11T19:31:41Z</time>
      </trkpt>
      <trkpt lat="44.94119" lon="5.43408">
        <ele>781</ele>
        <time>2019-07-11T19:31:45Z</time>
      </trkpt>
      <trkpt lat="44.9406" lon="5.43404">
        <ele>786</ele>
        <time>2019-07-11T19:31:48Z</time>
      </trkpt>
      <trkpt lat="44.93913" lon="5.43382">
        <ele>793</ele>
        <time>2019-07-11T19:31:51Z</time>
      </trkpt>
      <trkpt lat="44.93729" lon="5.4333">
        <ele>793</ele>
        <time>2019-07-11T19:31:54Z</time>
      </trkpt>
      <trkpt lat="44.93691" lon="5.43311">
        <ele>794</ele>
        <time>2019-07-11T19:31:57Z</time>
      </trkpt>
      <trkpt lat="44.93668" lon="5.43295">
        <ele>795</ele>
        <time>2019-07-11T19:32:02Z</time>
      </trkpt>
      <trkpt lat="44.93658" lon="5.43284">
        <ele>796</ele>
        <time>2019-07-11T19:32:05Z</time>
      </trkpt>
      <trkpt lat="44.93648" lon="5.43258">
        <ele>801</ele>
        <time>2019-07-11T19:32:08Z</time>
      </trkpt>
      <trkpt lat="44.93645" lon="5.4324">
        <ele>803</ele>
      </trkpt>
      <trkpt lat="44.93646" lon="5.43211">
        <ele>803</ele>
      </trkpt>
      <trkpt lat="44.93651" lon="5.43178">
        <ele>803</ele>
      </trkpt>
      <trkpt lat="44.9365" lon="5.43154">
        <ele>803</ele>
      </trkpt>
    </trkseg>
  </trk>
  <trk>
    <name><![CDATA[Tour du Vercors en vélo_2]]></name>
    <trkseg>
      <trkpt lat="45.01454" lon="5.29118">
        <ele>259</ele>
        <time>2019-07-11T15:08:12Z</time>
      </trkpt>
      <trkpt lat="45.01454" lon="5.29118">
        <ele>259</ele>
        <time>2019-07-11T15:08:12Z</time>
      </trkpt>
      <trkpt lat="45.01454" lon="5.29118">
        <ele>259</ele>
        <time>2019-07-11T15:08:12Z</time>
      </trkpt>
      <trkpt lat="45.01454" lon="5.29118">
        <ele>259</ele>
        <time>2019-07-11T15:08:12Z</time>
      </trkpt>
      <trkpt lat="45.01475" lon="5.29125">
        <ele>258</ele>
        <time>2019-07-11T15:08:23Z</time>
      </trkpt>
      <trkpt lat="45.01537" lon="5.2915">
        <ele>258</ele>
        <time>2019-07-11T15:08:37Z</time>
      </trkpt>
      <trkpt lat="45.01514" lon="5.29252">
        <ele>265</ele>
        <time>2019-07-11T15:08:38Z</time>
      </trkpt>
      <trkpt lat="45.0152" lon="5.29258">
        <ele>265</ele>
        <time>2019-07-11T15:08:43Z</time>
      </trkpt>
      <trkpt lat="45.0155" lon="5.29269">
        <ele>265</ele>
        <time>2019-07-11T15:09:22Z</time>
      </trkpt>
      <trkpt lat="45.01765" lon="5.29326">
        <ele>262</ele>
        <time>2019-07-11T15:09:24Z</time>
      </trkpt>
      <trkpt lat="45.0177" lon="5.2932">
        <ele>262</ele>
        <time>2019-07-11T15:09:28Z</time>
      </trkpt>
      <trkpt lat="45.01783" lon="5.29291">
        <ele>259</ele>
        <time>2019-07-11T15:09:29Z</time>
      </trkpt>
      <trkpt lat="45.01784" lon="5.29285">
        <ele>259</ele>
        <time>2019-07-11T15:09:34Z</time>
      </trkpt>
      <trkpt lat="45.01814" lon="5.29283">
        <ele>258</ele>
        <time>2019-07-11T15:09:39Z</time>
      </trkpt>
      <trkpt lat="45.01842" lon="5.29277">
        <ele>257</ele>
        <time>2019-07-11T15:09:43Z</time>
      </trkpt>
      <trkpt lat="45.01865" lon="5.29276">
        <ele>256</ele>
        <time>2019-07-11T15:09:47Z</time>
      </trkpt>
      <trkpt lat="45.01888" lon="5.29279">
        <ele>255</ele>
        <time>2019-07-11T15:09:53Z</time>
      </trkpt>
      <trkpt lat="45.01921" lon="5.29291">
        <ele>255</ele>
        <time>2019-07-11T15:10:15Z</time>
      </trkpt>
      <trkpt lat="45.02031" lon="5.29367">
        <ele>255</ele>
        <time>2019-07-11T15:10:50Z</time>
      </trkpt>
      <trkpt lat="45.02203" lon="5.29494">
        <ele>254</ele>
        <time>2019-07-11T15:11:30Z</time>
      </trkpt>
      <trkpt lat="45.02405" lon="5.29633">
        <ele>251</ele>
        <time>2019-07-11T15:11:58Z</time>
      </trkpt>
      <trkpt lat="45.02548" lon="5.29737">
        <ele>245</ele>
        <time>2019-07-11T15:12:02Z</time>
      </trkpt>
      <trkpt lat="45.02566" lon="5.29753">
        <ele>245</ele>
        <time>2019-07-11T15:13:07Z</time>
      </trkpt>
      <trkpt lat="45.02893" lon="5.29987">
        <ele>246</ele>
        <time>2019-07-11T15:13:37Z</time>
      </trkpt>
      <trkpt lat="45.03039" lon="5.30111">
        <ele>249</ele>
        <time>2019-07-11T15:13:45Z</time>
      </trkpt>
      <trkpt lat="45.03073" lon="5.30151">
        <ele>249</ele>
        <time>2019-07-11T15:13:47Z</time>
      </trkpt>
      <trkpt lat="45.03078" lon="5.30159">
        <ele>249</ele>
        <time>2019-07-11T15:13:49Z</time>
      </trkpt>
      <trkpt lat="45.03081" lon="5.30175">
        <ele>249</ele>
        <time>2019-07-11T15:13:54Z</time>
      </trkpt>
      <trkpt lat="45.0308" lon="5.30214">
        <ele>249</ele>
        <time>2019-07-11T15:14:32Z</time>
      </trkpt>
      <trkpt lat="45.03047" lon="5.30516">
        <ele>249</ele>
        <time>2019-07-11T15:14:41Z</time>
      </trkpt>
      <trkpt lat="45.03041" lon="5.30588">
        <ele>249</ele>
        <time>2019-07-11T15:14:45Z</time>
      </trkpt>
      <trkpt lat="45.03033" lon="5.30618">
        <ele>247</ele>
        <time>2019-07-11T15:14:50Z</time>
      </trkpt>
      <trkpt lat="45.03017" lon="5.30644">
        <ele>247</ele>
        <time>2019-07-11T15:15:08Z</time>
      </trkpt>
      <trkpt lat="45.02942" lon="5.30743">
        <ele>244</ele>
        <time>2019-07-11T15:15:14Z</time>
      </trkpt>
      <trkpt lat="45.02921" lon="5.30779">
        <ele>243</ele>
        <time>2019-07-11T15:15:29Z</time>
      </trkpt>
      <trkpt lat="45.02873" lon="5.30884">
        <ele>241</ele>
        <time>2019-07-11T15:15:35Z</time>
      </trkpt>
      <trkpt lat="45.0286" lon="5.30923">
        <ele>240</ele>
        <time>2019-07-11T15:15:38Z</time>
      </trkpt>
      <trkpt lat="45.02861" lon="5.30949">
        <ele>237</ele>
        <time>2019-07-11T15:15:41Z</time>
      </trkpt>
      <trkpt lat="45.02865" lon="5.30975">
        <ele>234</ele>
        <time>2019-07-11T15:15:55Z</time>
      </trkpt>
      <trkpt lat="45.02905" lon="5.31064">
        <ele>227</ele>
        <time>2019-07-11T15:15:57Z</time>
      </trkpt>
      <trkpt lat="45.02914" lon="5.31074">
        <ele>227</ele>
        <time>2019-07-11T15:15:59Z</time>
      </trkpt>
      <trkpt lat="45.02927" lon="5.31071">
        <ele>228</ele>
        <time>2019-07-11T15:16:08Z</time>
      </trkpt>
      <trkpt lat="45.0297" lon="5.31032">
        <ele>228</ele>
        <time>2019-07-11T15:16:13Z</time>
      </trkpt>
      <trkpt lat="45.02996" lon="5.31018">
        <ele>228</ele>
        <time>2019-07-11T15:16:37Z</time>
      </trkpt>
      <trkpt lat="45.03125" lon="5.30976">
        <ele>235</ele>
        <time>2019-07-11T15:16:40Z</time>
      </trkpt>
      <trkpt lat="45.03144" lon="5.30978">
        <ele>236</ele>
        <time>2019-07-11T15:16:54Z</time>
      </trkpt>
      <trkpt lat="45.0322" lon="5.31007">
        <ele>241</ele>
        <time>2019-07-11T15:16:59Z</time>
      </trkpt>
      <trkpt lat="45.03241" lon="5.31026">
        <ele>243</ele>
        <time>2019-07-11T15:17:01Z</time>
      </trkpt>
      <trkpt lat="45.03244" lon="5.31045">
        <ele>244</ele>
        <time>2019-07-11T15:17:03Z</time>
      </trkpt>
      <trkpt lat="45.03254" lon="5.31054">
        <ele>246</ele>
        <time>2019-07-11T15:17:07Z</time>
      </trkpt>
      <trkpt lat="45.03266" lon="5.31076">
        <ele>248</ele>
        <time>2019-07-11T15:17:10Z</time>
      </trkpt>
      <trkpt lat="45.03274" lon="5.31101">
        <ele>251</ele>
        <time>2019-07-11T15:17:12Z</time>
      </trkpt>
      <trkpt lat="45.03276" lon="5.31117">
        <ele>252</ele>
        <time>2019-07-11T15:17:19Z</time>
      </trkpt>
      <trkpt lat="45.03269" lon="5.31169">
        <ele>255</ele>
        <time>2019-07-11T15:17:54Z</time>
      </trkpt>
      <trkpt lat="45.03213" lon="5.31434">
        <ele>268</ele>
        <time>2019-07-11T15:18:04Z</time>
      </trkpt>
      <trkpt lat="45.0319" lon="5.31514">
        <ele>272</ele>
        <time>2019-07-11T15:18:12Z</time>
      </trkpt>
      <trkpt lat="45.03172" lon="5.31569">
        <ele>273</ele>
        <time>2019-07-11T15:18:16Z</time>
      </trkpt>
      <trkpt lat="45.0318" lon="5.31602">
        <ele>277</ele>
        <time>2019-07-11T15:18:22Z</time>
      </trkpt>
      <trkpt lat="45.03205" lon="5.31627">
        <ele>281</ele>
        <time>2019-07-11T15:18:26Z</time>
      </trkpt>
      <trkpt lat="45.03222" lon="5.31652">
        <ele>282</ele>
        <time>2019-07-11T15:18:30Z</time>
      </trkpt>
      <trkpt lat="45.03221" lon="5.31681">
        <ele>283</ele>
        <time>2019-07-11T15:18:36Z</time>
      </trkpt>
      <trkpt lat="45.03194" lon="5.31708">
        <ele>286</ele>
        <time>2019-07-11T15:18:42Z</time>
      </trkpt>
      <trkpt lat="45.03158" lon="5.31714">
        <ele>285</ele>
        <time>2019-07-11T15:18:51Z</time>
      </trkpt>
      <trkpt lat="45.03111" lon="5.31729">
        <ele>284</ele>
        <time>2019-07-11T15:19:07Z</time>
      </trkpt>
      <trkpt lat="45.03048" lon="5.31827">
        <ele>290</ele>
        <time>2019-07-11T15:19:17Z</time>
      </trkpt>
      <trkpt lat="45.0301" lon="5.31876">
        <ele>290</ele>
        <time>2019-07-11T15:19:53Z</time>
      </trkpt>
      <trkpt lat="45.02854" lon="5.32065">
        <ele>301</ele>
        <time>2019-07-11T15:19:58Z</time>
      </trkpt>
      <trkpt lat="45.02832" lon="5.32087">
        <ele>303</ele>
        <time>2019-07-11T15:20:03Z</time>
      </trkpt>
      <trkpt lat="45.02817" lon="5.32117">
        <ele>304</ele>
        <time>2019-07-11T15:20:11Z</time>
      </trkpt>
      <trkpt lat="45.02799" lon="5.32183">
        <ele>308</ele>
        <time>2019-07-11T15:20:13Z</time>
      </trkpt>
      <trkpt lat="45.02791" lon="5.32185">
        <ele>309</ele>
        <time>2019-07-11T15:20:14Z</time>
      </trkpt>
      <trkpt lat="45.02785" lon="5.32194">
        <ele>309</ele>
        <time>2019-07-11T15:20:16Z</time>
      </trkpt>
      <trkpt lat="45.02784" lon="5.32203">
        <ele>309</ele>
        <time>2019-07-11T15:20:17Z</time>
      </trkpt>
      <trkpt lat="45.02786" lon="5.32211">
        <ele>309</ele>
        <time>2019-07-11T15:20:18Z</time>
      </trkpt>
      <trkpt lat="45.0279" lon="5.32217">
        <ele>310</ele>
        <time>2019-07-11T15:20:19Z</time>
      </trkpt>
      <trkpt lat="45.02796" lon="5.3222">
        <ele>310</ele>
        <time>2019-07-11T15:20:45Z</time>
      </trkpt>
      <trkpt lat="45.02772" lon="5.32429">
        <ele>313</ele>
        <time>2019-07-11T15:20:50Z</time>
      </trkpt>
      <trkpt lat="45.02776" lon="5.32469">
        <ele>313</ele>
        <time>2019-07-11T15:20:56Z</time>
      </trkpt>
      <trkpt lat="45.02786" lon="5.32513">
        <ele>313</ele>
        <time>2019-07-11T15:21:05Z</time>
      </trkpt>
      <trkpt lat="45.02806" lon="5.32579">
        <ele>313</ele>
        <time>2019-07-11T15:21:06Z</time>
      </trkpt>
      <trkpt lat="45.02805" lon="5.32588">
        <ele>313</ele>
        <time>2019-07-11T15:21:11Z</time>
      </trkpt>
      <trkpt lat="45.02798" lon="5.32619">
        <ele>314</ele>
        <time>2019-07-11T15:21:14Z</time>
      </trkpt>
      <trkpt lat="45.02808" lon="5.32641">
        <ele>314</ele>
        <time>2019-07-11T15:21:18Z</time>
      </trkpt>
      <trkpt lat="45.02823" lon="5.32662">
        <ele>313</ele>
        <time>2019-07-11T15:21:24Z</time>
      </trkpt>
      <trkpt lat="45.02849" lon="5.32695">
        <ele>313</ele>
        <time>2019-07-11T15:21:33Z</time>
      </trkpt>
      <trkpt lat="45.02892" lon="5.32742">
        <ele>312</ele>
        <time>2019-07-11T15:21:39Z</time>
      </trkpt>
      <trkpt lat="45.02914" lon="5.32778">
        <ele>311</ele>
        <time>2019-07-11T15:21:56Z</time>
      </trkpt>
      <trkpt lat="45.0297" lon="5.32885">
        <ele>310</ele>
        <time>2019-07-11T15:22:12Z</time>
      </trkpt>
      <trkpt lat="45.03019" lon="5.32992">
        <ele>308</ele>
        <time>2019-07-11T15:22:23Z</time>
      </trkpt>
      <trkpt lat="45.03048" lon="5.33065">
        <ele>308</ele>
        <time>2019-07-11T15:22:30Z</time>
      </trkpt>
      <trkpt lat="45.0307" lon="5.33113">
        <ele>308</ele>
        <time>2019-07-11T15:22:38Z</time>
      </trkpt>
      <trkpt lat="45.03103" lon="5.33156">
        <ele>307</ele>
        <time>2019-07-11T15:22:49Z</time>
      </trkpt>
      <trkpt lat="45.03163" lon="5.33189">
        <ele>304</ele>
        <time>2019-07-11T15:22:59Z</time>
      </trkpt>
      <trkpt lat="45.03216" lon="5.33209">
        <ele>303</ele>
        <time>2019-07-11T15:23:15Z</time>
      </trkpt>
      <trkpt lat="45.03302" lon="5.33216">
        <ele>300</ele>
        <time>2019-07-11T15:23:25Z</time>
      </trkpt>
      <trkpt lat="45.03361" lon="5.33214">
        <ele>299</ele>
        <time>2019-07-11T15:23:39Z</time>
      </trkpt>
      <trkpt lat="45.03439" lon="5.33206">
        <ele>297</ele>
        <time>2019-07-11T15:23:50Z</time>
      </trkpt>
      <trkpt lat="45.03499" lon="5.3321">
        <ele>295</ele>
        <time>2019-07-11T15:23:57Z</time>
      </trkpt>
      <trkpt lat="45.03541" lon="5.33216">
        <ele>295</ele>
        <time>2019-07-11T15:24:07Z</time>
      </trkpt>
      <trkpt lat="45.03596" lon="5.33233">
        <ele>294</ele>
        <time>2019-07-11T15:24:15Z</time>
      </trkpt>
      <trkpt lat="45.03638" lon="5.33261">
        <ele>294</ele>
        <time>2019-07-11T15:24:38Z</time>
      </trkpt>
      <trkpt lat="45.03739" lon="5.33366">
        <ele>291</ele>
        <time>2019-07-11T15:24:51Z</time>
      </trkpt>
      <trkpt lat="45.03795" lon="5.3343">
        <ele>290</ele>
        <time>2019-07-11T15:25:00Z</time>
      </trkpt>
      <trkpt lat="45.03831" lon="5.33485">
        <ele>291</ele>
        <time>2019-07-11T15:25:09Z</time>
      </trkpt>
      <trkpt lat="45.03853" lon="5.33552">
        <ele>290</ele>
        <time>2019-07-11T15:25:15Z</time>
      </trkpt>
      <trkpt lat="45.03867" lon="5.3359">
        <ele>289</ele>
        <time>2019-07-11T15:25:22Z</time>
      </trkpt>
      <trkpt lat="45.03897" lon="5.33631">
        <ele>289</ele>
        <time>2019-07-11T15:25:29Z</time>
      </trkpt>
      <trkpt lat="45.03927" lon="5.33669">
        <ele>289</ele>
        <time>2019-07-11T15:25:36Z</time>
      </trkpt>
      <trkpt lat="45.03963" lon="5.33688">
        <ele>288</ele>
        <time>2019-07-11T15:25:56Z</time>
      </trkpt>
      <trkpt lat="45.0407" lon="5.33724">
        <ele>289</ele>
        <time>2019-07-11T15:26:06Z</time>
      </trkpt>
      <trkpt lat="45.04129" lon="5.33739">
        <ele>290</ele>
        <time>2019-07-11T15:26:13Z</time>
      </trkpt>
      <trkpt lat="45.04166" lon="5.33753">
        <ele>290</ele>
        <time>2019-07-11T15:26:38Z</time>
      </trkpt>
      <trkpt lat="45.04295" lon="5.33833">
        <ele>291</ele>
        <time>2019-07-11T15:27:13Z</time>
      </trkpt>
      <trkpt lat="45.04483" lon="5.33905">
        <ele>294</ele>
        <time>2019-07-11T15:27:56Z</time>
      </trkpt>
      <trkpt lat="45.04707" lon="5.34043">
        <ele>298</ele>
        <time>2019-07-11T15:28:04Z</time>
      </trkpt>
      <trkpt lat="45.04745" lon="5.34076">
        <ele>297</ele>
        <time>2019-07-11T15:28:07Z</time>
      </trkpt>
      <trkpt lat="45.04756" lon="5.34088">
        <ele>297</ele>
        <time>2019-07-11T15:28:12Z</time>
      </trkpt>
      <trkpt lat="45.04784" lon="5.34105">
        <ele>294</ele>
        <time>2019-07-11T15:28:15Z</time>
      </trkpt>
      <trkpt lat="45.04801" lon="5.34104">
        <ele>292</ele>
        <time>2019-07-11T15:28:17Z</time>
      </trkpt>
      <trkpt lat="45.04811" lon="5.34098">
        <ele>291</ele>
        <time>2019-07-11T15:28:36Z</time>
      </trkpt>
      <trkpt lat="45.04894" lon="5.34004">
        <ele>288</ele>
        <time>2019-07-11T15:28:39Z</time>
      </trkpt>
      <trkpt lat="45.04907" lon="5.33994">
        <ele>287</ele>
        <time>2019-07-11T15:28:41Z</time>
      </trkpt>
      <trkpt lat="45.04919" lon="5.33989">
        <ele>286</ele>
        <time>2019-07-11T15:28:47Z</time>
      </trkpt>
      <trkpt lat="45.04952" lon="5.33992">
        <ele>282</ele>
        <time>2019-07-11T15:28:50Z</time>
      </trkpt>
      <trkpt lat="45.04969" lon="5.33999">
        <ele>280</ele>
        <time>2019-07-11T15:28:54Z</time>
      </trkpt>
      <trkpt lat="45.04988" lon="5.34017">
        <ele>278</ele>
        <time>2019-07-11T15:29:23Z</time>
      </trkpt>
      <trkpt lat="45.05104" lon="5.34175">
        <ele>272</ele>
        <time>2019-07-11T15:29:41Z</time>
      </trkpt>
      <trkpt lat="45.05179" lon="5.34273">
        <ele>261</ele>
        <time>2019-07-11T15:29:44Z</time>
      </trkpt>
      <trkpt lat="45.05192" lon="5.34286">
        <ele>258</ele>
        <time>2019-07-11T15:29:48Z</time>
      </trkpt>
      <trkpt lat="45.05214" lon="5.34299">
        <ele>256</ele>
        <time>2019-07-11T15:29:53Z</time>
      </trkpt>
      <trkpt lat="45.05241" lon="5.34302">
        <ele>256</ele>
        <time>2019-07-11T15:29:56Z</time>
      </trkpt>
      <trkpt lat="45.05261" lon="5.34299">
        <ele>256</ele>
        <time>2019-07-11T15:30:01Z</time>
      </trkpt>
      <trkpt lat="45.05285" lon="5.34287">
        <ele>255</ele>
        <time>2019-07-11T15:30:15Z</time>
      </trkpt>
      <trkpt lat="45.05356" lon="5.34242">
        <ele>252</ele>
        <time>2019-07-11T15:30:19Z</time>
      </trkpt>
      <trkpt lat="45.05381" lon="5.34231">
        <ele>253</ele>
        <time>2019-07-11T15:30:24Z</time>
      </trkpt>
      <trkpt lat="45.05405" lon="5.34226">
        <ele>252</ele>
        <time>2019-07-11T15:30:43Z</time>
      </trkpt>
      <trkpt lat="45.05515" lon="5.34233">
        <ele>242</ele>
        <time>2019-07-11T15:30:48Z</time>
      </trkpt>
      <trkpt lat="45.05543" lon="5.34232">
        <ele>238</ele>
        <time>2019-07-11T15:30:52Z</time>
      </trkpt>
      <trkpt lat="45.05563" lon="5.34228">
        <ele>236</ele>
        <time>2019-07-11T15:30:59Z</time>
      </trkpt>
      <trkpt lat="45.05599" lon="5.34207">
        <ele>234</ele>
        <time>2019-07-11T15:31:02Z</time>
      </trkpt>
      <trkpt lat="45.05615" lon="5.34189">
        <ele>234</ele>
        <time>2019-07-11T15:31:08Z</time>
      </trkpt>
      <trkpt lat="45.05638" lon="5.34157">
        <ele>234</ele>
        <time>2019-07-11T15:31:17Z</time>
      </trkpt>
      <trkpt lat="45.05671" lon="5.34102">
        <ele>240</ele>
        <time>2019-07-11T15:31:27Z</time>
      </trkpt>
      <trkpt lat="45.05712" lon="5.34048">
        <ele>245</ele>
        <time>2019-07-11T15:31:29Z</time>
      </trkpt>
      <trkpt lat="45.05723" lon="5.34039">
        <ele>246</ele>
        <time>2019-07-11T15:31:31Z</time>
      </trkpt>
      <trkpt lat="45.0573" lon="5.3404">
        <ele>245</ele>
        <time>2019-07-11T15:31:32Z</time>
      </trkpt>
      <trkpt lat="45.05734" lon="5.34049">
        <ele>241</ele>
        <time>2019-07-11T15:31:34Z</time>
      </trkpt>
      <trkpt lat="45.0573" lon="5.34061">
        <ele>238</ele>
        <time>2019-07-11T15:31:40Z</time>
      </trkpt>
      <trkpt lat="45.057" lon="5.34092">
        <ele>236</ele>
        <time>2019-07-11T15:31:44Z</time>
      </trkpt>
      <trkpt lat="45.05683" lon="5.34112">
        <ele>235</ele>
        <time>2019-07-11T15:31:49Z</time>
      </trkpt>
      <trkpt lat="45.05667" lon="5.34143">
        <ele>231</ele>
        <time>2019-07-11T15:31:57Z</time>
      </trkpt>
      <trkpt lat="45.05651" lon="5.34202">
        <ele>223</ele>
        <time>2019-07-11T15:32:01Z</time>
      </trkpt>
      <trkpt lat="45.05638" lon="5.34229">
        <ele>222</ele>
        <time>2019-07-11T15:32:04Z</time>
      </trkpt>
      <trkpt lat="45.05625" lon="5.34245">
        <ele>222</ele>
        <time>2019-07-11T15:32:08Z</time>
      </trkpt>
      <trkpt lat="45.05604" lon="5.34259">
        <ele>225</ele>
        <time>2019-07-11T15:32:13Z</time>
      </trkpt>
      <trkpt lat="45.05577" lon="5.3427">
        <ele>228</ele>
        <time>2019-07-11T15:32:16Z</time>
      </trkpt>
      <trkpt lat="45.05563" lon="5.34279">
        <ele>229</ele>
        <time>2019-07-11T15:32:18Z</time>
      </trkpt>
      <trkpt lat="45.05555" lon="5.34293">
        <ele>228</ele>
        <time>2019-07-11T15:32:21Z</time>
      </trkpt>
      <trkpt lat="45.05552" lon="5.34313">
        <ele>225</ele>
        <time>2019-07-11T15:32:23Z</time>
      </trkpt>
      <trkpt lat="45.05559" lon="5.34329">
        <ele>222</ele>
        <time>2019-07-11T15:32:25Z</time>
      </trkpt>
      <trkpt lat="45.05566" lon="5.34336">
        <ele>221</ele>
        <time>2019-07-11T15:32:39Z</time>
      </trkpt>
      <trkpt lat="45.05639" lon="5.34391">
        <ele>230</ele>
        <time>2019-07-11T15:32:42Z</time>
      </trkpt>
      <trkpt lat="45.05655" lon="5.34398">
        <ele>231</ele>
        <time>2019-07-11T15:32:45Z</time>
      </trkpt>
      <trkpt lat="45.05671" lon="5.34395">
        <ele>230</ele>
        <time>2019-07-11T15:32:50Z</time>
      </trkpt>
      <trkpt lat="45.05695" lon="5.3438">
        <ele>227</ele>
        <time>2019-07-11T15:32:55Z</time>
      </trkpt>
      <trkpt lat="45.05725" lon="5.34371">
        <ele>225</ele>
        <time>2019-07-11T15:33:01Z</time>
      </trkpt>
      <trkpt lat="45.05755" lon="5.34356">
        <ele>219</ele>
        <time>2019-07-11T15:33:03Z</time>
      </trkpt>
      <trkpt lat="45.05765" lon="5.34355">
        <ele>218</ele>
        <time>2019-07-11T15:33:05Z</time>
      </trkpt>
      <trkpt lat="45.05775" lon="5.34357">
        <ele>217</ele>
        <time>2019-07-11T15:33:07Z</time>
      </trkpt>
      <trkpt lat="45.05789" lon="5.34366">
        <ele>218</ele>
        <time>2019-07-11T15:33:10Z</time>
      </trkpt>
      <trkpt lat="45.05801" lon="5.34377">
        <ele>220</ele>
        <time>2019-07-11T15:33:13Z</time>
      </trkpt>
      <trkpt lat="45.05817" lon="5.34389">
        <ele>221</ele>
        <time>2019-07-11T15:33:21Z</time>
      </trkpt>
      <trkpt lat="45.05859" lon="5.34404">
        <ele>220</ele>
        <time>2019-07-11T15:33:27Z</time>
      </trkpt>
      <trkpt lat="45.05892" lon="5.3442">
        <ele>221</ele>
        <time>2019-07-11T15:33:36Z</time>
      </trkpt>
      <trkpt lat="45.05944" lon="5.34418">
        <ele>213</ele>
        <time>2019-07-11T15:33:43Z</time>
      </trkpt>
      <trkpt lat="45.0598" lon="5.3444">
        <ele>213</ele>
        <time>2019-07-11T15:33:44Z</time>
      </trkpt>
      <trkpt lat="45.05982" lon="5.34444">
        <ele>214</ele>
        <time>2019-07-11T15:33:50Z</time>
      </trkpt>
      <trkpt lat="45.05994" lon="5.34489">
        <ele>219</ele>
        <time>2019-07-11T15:33:57Z</time>
      </trkpt>
      <trkpt lat="45.05995" lon="5.34545">
        <ele>229</ele>
        <time>2019-07-11T15:34:00Z</time>
      </trkpt>
      <trkpt lat="45.05997" lon="5.34568">
        <ele>231</ele>
        <time>2019-07-11T15:34:01Z</time>
      </trkpt>
      <trkpt lat="45.05999" lon="5.34581">
        <ele>232</ele>
        <time>2019-07-11T15:34:06Z</time>
      </trkpt>
      <trkpt lat="45.06009" lon="5.34617">
        <ele>237</ele>
        <time>2019-07-11T15:34:13Z</time>
      </trkpt>
      <trkpt lat="45.06028" lon="5.34658">
        <ele>243</ele>
        <time>2019-07-11T15:34:15Z</time>
      </trkpt>
      <trkpt lat="45.06089" lon="5.34807">
        <ele>290.4</ele>
        <time>2019-07-11T15:32:18Z</time>
      </trkpt>
      <trkpt lat="45.06213" lon="5.34907">
        <ele>317.9</ele>
        <time>2019-07-11T15:32:21Z</time>
      </trkpt>
      <trkpt lat="45.06383" lon="5.35007">
        <ele>445.6</ele>
        <time>2019-07-11T15:32:23Z</time>
      </trkpt>
      <trkpt lat="45.06425" lon="5.35119">
        <ele>362.9</ele>
        <time>2019-07-11T15:32:29Z</time>
      </trkpt>
      <trkpt lat="45.0649" lon="5.35355">
        <ele>250.3</ele>
        <time>2019-07-11T15:32:31Z</time>
      </trkpt>
      <trkpt lat="45.06542" lon="5.35443">
        <ele>243.6</ele>
        <time>2019-07-11T15:32:34Z</time>
      </trkpt>
      <trkpt lat="45.06505" lon="5.35683">
        <ele>246.6</ele>
        <time>2019-07-11T15:32:43Z</time>
      </trkpt>
      <trkpt lat="45.06526" lon="5.35756">
        <ele>242.7</ele>
        <time>2019-07-11T15:32:47Z</time>
      </trkpt>
      <trkpt lat="45.06615" lon="5.35789">
        <ele>254.2</ele>
        <time>2019-07-11T15:32:56Z</time>
      </trkpt>
      <trkpt lat="45.06631" lon="5.3584">
        <ele>246.1</ele>
        <time>2019-07-11T15:32:59Z</time>
      </trkpt>
      <trkpt lat="45.0666" lon="5.35968">
        <ele>242.9</ele>
        <time>2019-07-11T15:33:11Z</time>
      </trkpt>
      <trkpt lat="45.06655" lon="5.36055">
        <ele>242.7</ele>
        <time>2019-07-11T15:33:14Z</time>
      </trkpt>
      <trkpt lat="45.06608" lon="5.36341">
        <ele>249.4</ele>
        <time>2019-07-11T15:33:17Z</time>
      </trkpt>
      <trkpt lat="45.06605" lon="5.36383">
        <ele>249.9</ele>
        <time>2019-07-11T15:33:28Z</time>
      </trkpt>
      <trkpt lat="45.06636" lon="5.36543">
        <ele>242.2</ele>
        <time>2019-07-11T15:33:30Z</time>
      </trkpt>
      <trkpt lat="45.06686" lon="5.3657">
        <ele>253.1</ele>
        <time>2019-07-11T15:33:34Z</time>
      </trkpt>
      <trkpt lat="45.06718" lon="5.36649">
        <ele>255.7</ele>
        <time>2019-07-11T15:33:36Z</time>
      </trkpt>
      <trkpt lat="45.06721" lon="5.3673">
        <ele>253.6</ele>
        <time>2019-07-11T15:33:42Z</time>
      </trkpt>
      <trkpt lat="45.067" lon="5.36819">
        <ele>250.8</ele>
        <time>2019-07-11T15:33:44Z</time>
      </trkpt>
      <trkpt lat="45.06659" lon="5.36875">
        <ele>242.4</ele>
        <time>2019-07-11T15:33:46Z</time>
      </trkpt>
      <trkpt lat="45.06547" lon="5.37075">
        <ele>244</ele>
        <time>2019-07-11T15:33:49Z</time>
      </trkpt>
      <trkpt lat="45.06472" lon="5.37161">
        <ele>242.2</ele>
        <time>2019-07-11T15:33:51Z</time>
      </trkpt>
      <trkpt lat="45.06486" lon="5.37238">
        <ele>242.9</ele>
        <time>2019-07-11T15:33:53Z</time>
      </trkpt>
      <trkpt lat="45.06525" lon="5.37277">
        <ele>245.9</ele>
        <time>2019-07-11T15:33:58Z</time>
      </trkpt>
      <trkpt lat="45.06678" lon="5.37329">
        <ele>273.8</ele>
        <time>2019-07-11T15:34:15Z</time>
      </trkpt>
      <trkpt lat="45.06695" lon="5.37366">
        <ele>266.5</ele>
        <time>2019-07-11T15:34:19Z</time>
      </trkpt>
      <trkpt lat="45.06713" lon="5.3746">
        <ele>259.9</ele>
        <time>2019-07-11T15:34:21Z</time>
      </trkpt>
      <trkpt lat="45.06707" lon="5.37595">
        <ele>261.8</ele>
        <time>2019-07-11T15:34:27Z</time>
      </trkpt>
      <trkpt lat="45.06725" lon="5.37726">
        <ele>266.1</ele>
        <time>2019-07-11T15:34:30Z</time>
      </trkpt>
      <trkpt lat="45.06716" lon="5.37827">
        <ele>266.4</ele>
        <time>2019-07-11T15:34:33Z</time>
      </trkpt>
      <trkpt lat="45.0674" lon="5.38049">
        <ele>271.7</ele>
        <time>2019-07-11T15:34:37Z</time>
      </trkpt>
      <trkpt lat="45.06777" lon="5.38177">
        <ele>277.3</ele>
        <time>2019-07-11T15:34:42Z</time>
      </trkpt>
      <trkpt lat="45.0678" lon="5.3831">
        <ele>279</ele>
        <time>2019-07-11T15:34:52Z</time>
      </trkpt>
      <trkpt lat="45.06812" lon="5.38468">
        <ele>283.1</ele>
        <time>2019-07-11T15:34:59Z</time>
      </trkpt>
      <trkpt lat="45.06745" lon="5.38739">
        <ele>272.3</ele>
        <time>2019-07-11T15:35:02Z</time>
      </trkpt>
      <trkpt lat="45.06742" lon="5.38851">
        <ele>281.8</ele>
        <time>2019-07-11T15:35:09Z</time>
      </trkpt>
      <trkpt lat="45.06649" lon="5.38899">
        <ele>275.1</ele>
        <time>2019-07-11T15:35:15Z</time>
      </trkpt>
      <trkpt lat="45.0664" lon="5.38995">
        <ele>275.7</ele>
        <time>2019-07-11T15:35:20Z</time>
      </trkpt>
      <trkpt lat="45.06688" lon="5.39167">
        <ele>283.4</ele>
        <time>2019-07-11T15:35:42Z</time>
      </trkpt>
      <trkpt lat="45.06637" lon="5.39271">
        <ele>281.1</ele>
        <time>2019-07-11T15:35:48Z</time>
      </trkpt>
      <trkpt lat="45.06536" lon="5.39467">
        <ele>288.2</ele>
        <time>2019-07-11T15:36:01Z</time>
      </trkpt>
      <trkpt lat="45.06544" lon="5.39643">
        <ele>305</ele>
        <time>2019-07-11T15:36:05Z</time>
      </trkpt>
      <trkpt lat="45.06417" lon="5.39892">
        <ele>318.7</ele>
        <time>2019-07-11T15:36:12Z</time>
      </trkpt>
      <trkpt lat="45.06264" lon="5.40036">
        <ele>321.4</ele>
        <time>2019-07-11T15:36:16Z</time>
      </trkpt>
      <trkpt lat="45.06227" lon="5.402">
        <ele>324.6</ele>
        <time>2019-07-11T15:36:38Z</time>
      </trkpt>
      <trkpt lat="45.0623" lon="5.4026">
        <ele>337</ele>
        <time>2019-07-11T15:36:41Z</time>
      </trkpt>
      <trkpt lat="45.06154" lon="5.4046">
        <ele>329.7</ele>
        <time>2019-07-11T15:36:47Z</time>
      </trkpt>
      <trkpt lat="45.06171" lon="5.40556">
        <ele>364.4</ele>
        <time>2019-07-11T15:36:57Z</time>
      </trkpt>
      <trkpt lat="45.06128" lon="5.40653">
        <ele>361.5</ele>
        <time>2019-07-11T15:37:02Z</time>
      </trkpt>
      <trkpt lat="45.06075" lon="5.40653">
        <ele>342.1</ele>
        <time>2019-07-11T15:37:11Z</time>
      </trkpt>
      <trkpt lat="45.06015" lon="5.40733">
        <ele>353.9</ele>
        <time>2019-07-11T15:37:14Z</time>
      </trkpt>
      <trkpt lat="45.05899" lon="5.40853">
        <ele>340.2</ele>
        <time>2019-07-11T15:37:24Z</time>
      </trkpt>
      <trkpt lat="45.05899" lon="5.40925">
        <ele>365.2</ele>
        <time>2019-07-11T15:37:27Z</time>
      </trkpt>
      <trkpt lat="45.05851" lon="5.40993">
        <ele>358.2</ele>
        <time>2019-07-11T15:37:29Z</time>
      </trkpt>
      <trkpt lat="45.05916" lon="5.41117">
        <ele>363.7</ele>
        <time>2019-07-11T15:37:30Z</time>
      </trkpt>
      <trkpt lat="45.05967" lon="5.41129">
        <ele>385.5</ele>
        <time>2019-07-11T15:37:37Z</time>
      </trkpt>
      <trkpt lat="45.0599" lon="5.41277">
        <ele>377.5</ele>
        <time>2019-07-11T15:37:38Z</time>
      </trkpt>
      <trkpt lat="45.06027" lon="5.41389">
        <ele>396.5</ele>
        <time>2019-07-11T15:37:40Z</time>
      </trkpt>
      <trkpt lat="45.06027" lon="5.41477">
        <ele>383.2</ele>
        <time>2019-07-11T15:37:44Z</time>
      </trkpt>
      <trkpt lat="45.06072" lon="5.41507">
        <ele>394.7</ele>
        <time>2019-07-11T15:37:50Z</time>
      </trkpt>
      <trkpt lat="45.06081" lon="5.41532">
        <ele>390.5</ele>
        <time>2019-07-11T15:37:55Z</time>
      </trkpt>
      <trkpt lat="45.06074" lon="5.41623">
        <ele>389.6</ele>
        <time>2019-07-11T15:38:03Z</time>
      </trkpt>
      <trkpt lat="45.06107" lon="5.41746">
        <ele>414.3</ele>
        <time>2019-07-11T15:38:12Z</time>
      </trkpt>
      <trkpt lat="45.06117" lon="5.41835">
        <ele>410.2</ele>
        <time>2019-07-11T15:38:16Z</time>
      </trkpt>
      <trkpt lat="45.06149" lon="5.41909">
        <ele>418</ele>
        <time>2019-07-11T15:38:22Z</time>
      </trkpt>
      <trkpt lat="45.06298" lon="5.42094">
        <ele>432.2</ele>
        <time>2019-07-11T15:38:26Z</time>
      </trkpt>
      <trkpt lat="45.06309" lon="5.4215">
        <ele>433.3</ele>
        <time>2019-07-11T15:38:30Z</time>
      </trkpt>
      <trkpt lat="45.06373" lon="5.4267">
        <ele>444.7</ele>
        <time>2019-07-11T15:38:38Z</time>
      </trkpt>
      <trkpt lat="45.06429" lon="5.42722">
        <ele>524.7</ele>
        <time>2019-07-11T15:38:42Z</time>
      </trkpt>
      <trkpt lat="45.06486" lon="5.42742">
        <ele>542.5</ele>
        <time>2019-07-11T15:38:49Z</time>
      </trkpt>
      <trkpt lat="45.06519" lon="5.42803">
        <ele>571.7</ele>
        <time>2019-07-11T15:38:53Z</time>
      </trkpt>
      <trkpt lat="45.06537" lon="5.42865">
        <ele>573.8</ele>
        <time>2019-07-11T15:39:01Z</time>
      </trkpt>
      <trkpt lat="45.06579" lon="5.42922">
        <ele>580.1</ele>
        <time>2019-07-11T15:39:07Z</time>
      </trkpt>
      <trkpt lat="45.06678" lon="5.43013">
        <ele>578.8</ele>
        <time>2019-07-11T15:39:16Z</time>
      </trkpt>
      <trkpt lat="45.06692" lon="5.43077">
        <ele>578.3</ele>
        <time>2019-07-11T15:39:27Z</time>
      </trkpt>
      <trkpt lat="45.0674" lon="5.43121">
        <ele>577.7</ele>
        <time>2019-07-11T15:39:38Z</time>
      </trkpt>
      <trkpt lat="45.06826" lon="5.43336">
        <ele>583.9</ele>
        <time>2019-07-11T15:39:43Z</time>
      </trkpt>
      <trkpt lat="45.06826" lon="5.43466">
        <ele>641.6</ele>
        <time>2019-07-11T15:39:47Z</time>
      </trkpt>
      <trkpt lat="45.06847" lon="5.43577">
        <ele>897.4</ele>
        <time>2019-07-11T15:39:49Z</time>
      </trkpt>
      <trkpt lat="45.06883" lon="5.43669">
        <ele>1001.1</ele>
        <time>2019-07-11T15:40:03Z</time>
      </trkpt>
      <trkpt lat="45.06951" lon="5.43834">
        <ele>937.4</ele>
        <time>2019-07-11T15:40:07Z</time>
      </trkpt>
      <trkpt lat="45.06979" lon="5.43932">
        <ele>906.6</ele>
        <time>2019-07-11T15:40:13Z</time>
      </trkpt>
      <trkpt lat="45.07075" lon="5.44063">
        <ele>871.8</ele>
        <time>2019-07-11T15:40:18Z</time>
      </trkpt>
      <trkpt lat="45.07104" lon="5.44157">
        <ele>848.3</ele>
        <time>2019-07-11T15:40:20Z</time>
      </trkpt>
      <trkpt lat="45.0713" lon="5.44282">
        <ele>820</ele>
        <time>2019-07-11T15:40:22Z</time>
      </trkpt>
      <trkpt lat="45.07162" lon="5.44344">
        <ele>821.5</ele>
        <time>2019-07-11T15:40:24Z</time>
      </trkpt>
      <trkpt lat="45.07158" lon="5.4441">
        <ele>822</ele>
        <time>2019-07-11T15:40:26Z</time>
      </trkpt>
      <trkpt lat="45.07237" lon="5.44492">
        <ele>820</ele>
        <time>2019-07-11T15:40:33Z</time>
      </trkpt>
      <trkpt lat="45.07245" lon="5.44553">
        <ele>802.2</ele>
        <time>2019-07-11T15:40:40Z</time>
      </trkpt>
      <trkpt lat="45.07273" lon="5.44637">
        <ele>740</ele>
        <time>2019-07-11T15:40:51Z</time>
      </trkpt>
      <trkpt lat="45.0728" lon="5.44691">
        <ele>695.8</ele>
        <time>2019-07-11T15:40:54Z</time>
      </trkpt>
      <trkpt lat="45.07331" lon="5.44733">
        <ele>673.7</ele>
        <time>2019-07-11T15:40:58Z</time>
      </trkpt>
      <trkpt lat="45.07397" lon="5.44758">
        <ele>638</ele>
        <time>2019-07-11T15:41:01Z</time>
      </trkpt>
      <trkpt lat="45.07423" lon="5.44785">
        <ele>638.7</ele>
        <time>2019-07-11T15:41:05Z</time>
      </trkpt>
      <trkpt lat="45.0744" lon="5.44852">
        <ele>581.8</ele>
        <time>2019-07-11T15:41:10Z</time>
      </trkpt>
      <trkpt lat="45.07574" lon="5.44948">
        <ele>598.2</ele>
        <time>2019-07-11T15:41:13Z</time>
      </trkpt>
      <trkpt lat="45.07726" lon="5.45078">
        <ele>662.9</ele>
        <time>2019-07-11T15:41:16Z</time>
      </trkpt>
      <trkpt lat="45.07773" lon="5.45142">
        <ele>708.2</ele>
        <time>2019-07-11T15:41:21Z</time>
      </trkpt>
      <trkpt lat="45.07774" lon="5.45226">
        <ele>708</ele>
        <time>2019-07-11T15:41:29Z</time>
      </trkpt>
      <trkpt lat="45.07776" lon="5.45303">
        <ele>685.7</ele>
        <time>2019-07-11T15:41:35Z</time>
      </trkpt>
      <trkpt lat="45.07788" lon="5.45352">
        <ele>659.5</ele>
        <time>2019-07-11T15:41:43Z</time>
      </trkpt>
      <trkpt lat="45.07872" lon="5.45431">
        <ele>643.7</ele>
        <time>2019-07-11T15:41:49Z</time>
      </trkpt>
      <trkpt lat="45.07971" lon="5.45512">
        <ele>659.1</ele>
        <time>2019-07-11T15:41:57Z</time>
      </trkpt>
      <trkpt lat="45.08035" lon="5.45552">
        <ele>668.8</ele>
        <time>2019-07-11T15:42:08Z</time>
      </trkpt>
      <trkpt lat="45.08053" lon="5.45608">
        <ele>671.6</ele>
        <time>2019-07-11T15:42:12Z</time>
      </trkpt>
      <trkpt lat="45.08187" lon="5.4569">
        <ele>675.7</ele>
        <time>2019-07-11T15:42:19Z</time>
      </trkpt>
      <trkpt lat="45.08197" lon="5.45741">
        <ele>665.1</ele>
        <time>2019-07-11T15:42:25Z</time>
      </trkpt>
      <trkpt lat="45.0823" lon="5.45769">
        <ele>680.7</ele>
        <time>2019-07-11T15:42:35Z</time>
      </trkpt>
      <trkpt lat="45.08265" lon="5.45771">
        <ele>671.9</ele>
        <time>2019-07-11T15:42:45Z</time>
      </trkpt>
      <trkpt lat="45.08316" lon="5.45744">
        <ele>692.1</ele>
        <time>2019-07-11T15:42:49Z</time>
      </trkpt>
      <trkpt lat="45.08337" lon="5.45788">
        <ele>676.8</ele>
        <time>2019-07-11T15:42:55Z</time>
      </trkpt>
      <trkpt lat="45.08406" lon="5.45845">
        <ele>675.1</ele>
        <time>2019-07-11T15:43:00Z</time>
      </trkpt>
      <trkpt lat="45.08504" lon="5.45958">
        <ele>691.3</ele>
        <time>2019-07-11T15:43:02Z</time>
      </trkpt>
      <trkpt lat="45.08624" lon="5.4605">
        <ele>672.1</ele>
        <time>2019-07-11T15:43:06Z</time>
      </trkpt>
      <trkpt lat="45.08653" lon="5.46099">
        <ele>670.5</ele>
        <time>2019-07-11T15:43:11Z</time>
      </trkpt>
      <trkpt lat="45.08683" lon="5.46165">
        <ele>681</ele>
        <time>2019-07-11T15:43:15Z</time>
      </trkpt>
      <trkpt lat="45.08676" lon="5.46244">
        <ele>675.2</ele>
        <time>2019-07-11T15:43:26Z</time>
      </trkpt>
      <trkpt lat="45.08709" lon="5.46348">
        <ele>689.3</ele>
        <time>2019-07-11T15:43:30Z</time>
      </trkpt>
      <trkpt lat="45.08735" lon="5.46439">
        <ele>685.1</ele>
        <time>2019-07-11T15:43:33Z</time>
      </trkpt>
      <trkpt lat="45.08723" lon="5.46552">
        <ele>677.2</ele>
        <time>2019-07-11T15:43:42Z</time>
      </trkpt>
      <trkpt lat="45.08761" lon="5.46653">
        <ele>667.9</ele>
        <time>2019-07-11T15:43:49Z</time>
      </trkpt>
      <trkpt lat="45.08803" lon="5.4674">
        <ele>662.9</ele>
        <time>2019-07-11T15:43:52Z</time>
      </trkpt>
      <trkpt lat="45.08836" lon="5.46836">
        <ele>662.5</ele>
        <time>2019-07-11T15:44:04Z</time>
      </trkpt>
      <trkpt lat="45.08867" lon="5.46853">
        <ele>665.8</ele>
        <time>2019-07-11T15:44:14Z</time>
      </trkpt>
      <trkpt lat="45.08944" lon="5.4691">
        <ele>673.8</ele>
        <time>2019-07-11T15:44:22Z</time>
      </trkpt>
      <trkpt lat="45.08975" lon="5.46966">
        <ele>663.6</ele>
        <time>2019-07-11T15:44:29Z</time>
      </trkpt>
      <trkpt lat="45.08968" lon="5.47048">
        <ele>659.5</ele>
        <time>2019-07-11T15:44:32Z</time>
      </trkpt>
      <trkpt lat="45.08958" lon="5.47077">
        <ele>659.5</ele>
        <time>2019-07-11T15:44:36Z</time>
      </trkpt>
      <trkpt lat="45.08947" lon="5.47104">
        <ele>664.7</ele>
        <time>2019-07-11T15:44:40Z</time>
      </trkpt>
      <trkpt lat="45.08856" lon="5.47246">
        <ele>665</ele>
        <time>2019-07-11T15:44:45Z</time>
      </trkpt>
      <trkpt lat="45.08777" lon="5.47373">
        <ele>667.4</ele>
        <time>2019-07-11T15:44:48Z</time>
      </trkpt>
      <trkpt lat="45.08755" lon="5.47446">
        <ele>675.9</ele>
        <time>2019-07-11T15:44:52Z</time>
      </trkpt>
      <trkpt lat="45.08728" lon="5.47507">
        <ele>674</ele>
        <time>2019-07-11T15:44:57Z</time>
      </trkpt>
      <trkpt lat="45.08624" lon="5.4772">
        <ele>674.5</ele>
        <time>2019-07-11T15:45:04Z</time>
      </trkpt>
      <trkpt lat="45.08622" lon="5.47727">
        <ele>675</ele>
        <time>2019-07-11T15:45:13Z</time>
      </trkpt>
      <trkpt lat="45.08588" lon="5.47788">
        <ele>671</ele>
        <time>2019-07-11T15:45:21Z</time>
      </trkpt>
      <trkpt lat="45.08581" lon="5.47804">
        <ele>671</ele>
        <time>2019-07-11T15:45:25Z</time>
      </trkpt>
      <trkpt lat="45.08576" lon="5.47823">
        <ele>673</ele>
        <time>2019-07-11T15:45:31Z</time>
      </trkpt>
      <trkpt lat="45.08574" lon="5.47866">
        <ele>680</ele>
        <time>2019-07-11T15:45:50Z</time>
      </trkpt>
      <trkpt lat="45.0857" lon="5.47887">
        <ele>683</ele>
        <time>2019-07-11T15:45:52Z</time>
      </trkpt>
      <trkpt lat="45.08562" lon="5.47909">
        <ele>685</ele>
        <time>2019-07-11T15:45:55Z</time>
      </trkpt>
      <trkpt lat="45.08532" lon="5.47964">
        <ele>687</ele>
        <time>2019-07-11T15:46:02Z</time>
      </trkpt>
      <trkpt lat="45.08524" lon="5.47988">
        <ele>687</ele>
        <time>2019-07-11T15:46:06Z</time>
      </trkpt>
      <trkpt lat="45.08508" lon="5.48058">
        <ele>691</ele>
        <time>2019-07-11T15:46:12Z</time>
      </trkpt>
      <trkpt lat="45.08498" lon="5.48079">
        <ele>686</ele>
        <time>2019-07-11T15:46:21Z</time>
      </trkpt>
      <trkpt lat="45.08451" lon="5.4815">
        <ele>690</ele>
        <time>2019-07-11T15:46:26Z</time>
      </trkpt>
      <trkpt lat="45.0844" lon="5.48169">
        <ele>685</ele>
        <time>2019-07-11T15:46:34Z</time>
      </trkpt>
      <trkpt lat="45.0843" lon="5.48189">
        <ele>684</ele>
        <time>2019-07-11T15:46:39Z</time>
      </trkpt>
      <trkpt lat="45.08413" lon="5.48267">
        <ele>689</ele>
        <time>2019-07-11T15:46:42Z</time>
      </trkpt>
      <trkpt lat="45.08413" lon="5.48283">
        <ele>690</ele>
        <time>2019-07-11T15:46:44Z</time>
      </trkpt>
      <trkpt lat="45.08418" lon="5.48318">
        <ele>693</ele>
        <time>2019-07-11T15:46:46Z</time>
      </trkpt>
      <trkpt lat="45.08417" lon="5.48333">
        <ele>693</ele>
        <time>2019-07-11T15:46:50Z</time>
      </trkpt>
      <trkpt lat="45.08403" lon="5.48377">
        <ele>685</ele>
        <time>2019-07-11T15:46:54Z</time>
      </trkpt>
      <trkpt lat="45.08401" lon="5.48392">
        <ele>683</ele>
        <time>2019-07-11T15:46:57Z</time>
      </trkpt>
      <trkpt lat="45.08402" lon="5.48407">
        <ele>681</ele>
        <time>2019-07-11T15:47:05Z</time>
      </trkpt>
      <trkpt lat="45.08399" lon="5.48433">
        <ele>681</ele>
        <time>2019-07-11T15:47:16Z</time>
      </trkpt>
      <trkpt lat="45.08393" lon="5.48447">
        <ele>682</ele>
        <time>2019-07-11T15:47:19Z</time>
      </trkpt>
      <trkpt lat="45.08385" lon="5.48457">
        <ele>683</ele>
        <time>2019-07-11T15:47:28Z</time>
      </trkpt>
      <trkpt lat="45.08357" lon="5.48471">
        <ele>682</ele>
        <time>2019-07-11T15:47:29Z</time>
      </trkpt>
      <trkpt lat="45.08266" lon="5.48492">
        <ele>678</ele>
        <time>2019-07-11T15:47:40Z</time>
      </trkpt>
      <trkpt lat="45.08245" lon="5.48503">
        <ele>677</ele>
        <time>2019-07-11T15:47:51Z</time>
      </trkpt>
      <trkpt lat="45.08235" lon="5.48511">
        <ele>678</ele>
        <time>2019-07-11T15:47:53Z</time>
      </trkpt>
      <trkpt lat="45.08211" lon="5.48542">
        <ele>679</ele>
        <time>2019-07-11T15:47:55Z</time>
      </trkpt>
      <trkpt lat="45.08198" lon="5.48563">
        <ele>679</ele>
        <time>2019-07-11T15:48:00Z</time>
      </trkpt>
      <trkpt lat="45.08192" lon="5.48581">
        <ele>680</ele>
        <time>2019-07-11T15:48:03Z</time>
      </trkpt>
      <trkpt lat="45.08189" lon="5.48617">
        <ele>681</ele>
        <time>2019-07-11T15:48:06Z</time>
      </trkpt>
      <trkpt lat="45.0819" lon="5.48656">
        <ele>683</ele>
        <time>2019-07-11T15:48:08Z</time>
      </trkpt>
      <trkpt lat="45.08183" lon="5.48732">
        <ele>688</ele>
        <time>2019-07-11T15:48:10Z</time>
      </trkpt>
      <trkpt lat="45.08176" lon="5.4879">
        <ele>693</ele>
        <time>2019-07-11T15:48:13Z</time>
      </trkpt>
      <trkpt lat="45.08167" lon="5.48813">
        <ele>694</ele>
        <time>2019-07-11T15:48:17Z</time>
      </trkpt>
      <trkpt lat="45.08135" lon="5.48842">
        <ele>695</ele>
        <time>2019-07-11T15:48:18Z</time>
      </trkpt>
      <trkpt lat="45.08108" lon="5.48864">
        <ele>698</ele>
        <time>2019-07-11T15:48:20Z</time>
      </trkpt>
      <trkpt lat="45.08082" lon="5.4888">
        <ele>699</ele>
        <time>2019-07-11T15:48:23Z</time>
      </trkpt>
      <trkpt lat="45.07962" lon="5.48935">
        <ele>702</ele>
        <time>2019-07-11T15:48:32Z</time>
      </trkpt>
      <trkpt lat="45.07934" lon="5.48951">
        <ele>704</ele>
        <time>2019-07-11T15:48:34Z</time>
      </trkpt>
      <trkpt lat="45.07867" lon="5.49">
        <ele>713</ele>
        <time>2019-07-11T15:48:37Z</time>
      </trkpt>
      <trkpt lat="45.07847" lon="5.49004">
        <ele>713</ele>
        <time>2019-07-11T15:48:49Z</time>
      </trkpt>
      <trkpt lat="45.07807" lon="5.48994">
        <ele>705</ele>
        <time>2019-07-11T15:48:54Z</time>
      </trkpt>
      <trkpt lat="45.07782" lon="5.48999">
        <ele>704</ele>
        <time>2019-07-11T15:48:57Z</time>
      </trkpt>
      <trkpt lat="45.07666" lon="5.49039">
        <ele>715</ele>
        <time>2019-07-11T15:48:58Z</time>
      </trkpt>
      <trkpt lat="45.07651" lon="5.49049">
        <ele>717</ele>
        <time>2019-07-11T15:49:00Z</time>
      </trkpt>
      <trkpt lat="45.07622" lon="5.49079">
        <ele>720</ele>
        <time>2019-07-11T15:49:12Z</time>
      </trkpt>
      <trkpt lat="45.07573" lon="5.49118">
        <ele>729</ele>
        <time>2019-07-11T15:49:17Z</time>
      </trkpt>
      <trkpt lat="45.07547" lon="5.49135">
        <ele>732</ele>
        <time>2019-07-11T15:49:23Z</time>
      </trkpt>
      <trkpt lat="45.07499" lon="5.49153">
        <ele>725</ele>
        <time>2019-07-11T15:49:26Z</time>
      </trkpt>
      <trkpt lat="45.07483" lon="5.49167">
        <ele>727</ele>
        <time>2019-07-11T15:49:33Z</time>
      </trkpt>
      <trkpt lat="45.07446" lon="5.49221">
        <ele>749</ele>
        <time>2019-07-11T15:49:35Z</time>
      </trkpt>
      <trkpt lat="45.0743" lon="5.49236">
        <ele>754</ele>
        <time>2019-07-11T15:49:38Z</time>
      </trkpt>
      <trkpt lat="45.07421" lon="5.49239">
        <ele>754</ele>
        <time>2019-07-11T15:49:40Z</time>
      </trkpt>
      <trkpt lat="45.07414" lon="5.49234">
        <ele>751</ele>
        <time>2019-07-11T15:49:43Z</time>
      </trkpt>
      <trkpt lat="45.07382" lon="5.4921">
        <ele>756</ele>
        <time>2019-07-11T15:49:51Z</time>
      </trkpt>
      <trkpt lat="45.07376" lon="5.49204">
        <ele>757</ele>
        <time>2019-07-11T15:49:55Z</time>
      </trkpt>
      <trkpt lat="45.07364" lon="5.49211">
        <ele>766</ele>
        <time>2019-07-11T15:49:58Z</time>
      </trkpt>
      <trkpt lat="45.07344" lon="5.49215">
        <ele>777</ele>
        <time>2019-07-11T15:50:01Z</time>
      </trkpt>
      <trkpt lat="45.07309" lon="5.49228">
        <ele>793</ele>
        <time>2019-07-11T15:50:09Z</time>
      </trkpt>
      <trkpt lat="45.07288" lon="5.49247">
        <ele>793</ele>
        <time>2019-07-11T15:50:23Z</time>
      </trkpt>
      <trkpt lat="45.07245" lon="5.49273">
        <ele>803</ele>
        <time>2019-07-11T15:50:30Z</time>
      </trkpt>
      <trkpt lat="45.07197" lon="5.49291">
        <ele>837</ele>
        <time>2019-07-11T15:50:34Z</time>
      </trkpt>
      <trkpt lat="45.07185" lon="5.49316">
        <ele>842</ele>
        <time>2019-07-11T15:50:39Z</time>
      </trkpt>
      <trkpt lat="45.07159" lon="5.49352">
        <ele>856</ele>
        <time>2019-07-11T15:50:42Z</time>
      </trkpt>
      <trkpt lat="45.0715" lon="5.49382">
        <ele>862</ele>
        <time>2019-07-11T15:50:44Z</time>
      </trkpt>
      <trkpt lat="45.07144" lon="5.49415">
        <ele>864</ele>
        <time>2019-07-11T15:50:55Z</time>
      </trkpt>
      <trkpt lat="45.07139" lon="5.49477">
        <ele>876</ele>
        <time>2019-07-11T15:51:03Z</time>
      </trkpt>
      <trkpt lat="45.07139" lon="5.49507">
        <ele>878</ele>
        <time>2019-07-11T15:51:06Z</time>
      </trkpt>
      <trkpt lat="45.07153" lon="5.49557">
        <ele>865</ele>
        <time>2019-07-11T15:51:09Z</time>
      </trkpt>
      <trkpt lat="45.07155" lon="5.49591">
        <ele>864</ele>
        <time>2019-07-11T15:51:12Z</time>
      </trkpt>
      <trkpt lat="45.0715" lon="5.49653">
        <ele>865</ele>
        <time>2019-07-11T15:51:15Z</time>
      </trkpt>
      <trkpt lat="45.07154" lon="5.49703">
        <ele>857</ele>
        <time>2019-07-11T15:51:19Z</time>
      </trkpt>
      <trkpt lat="45.0714" lon="5.49773">
        <ele>852</ele>
        <time>2019-07-11T15:51:27Z</time>
      </trkpt>
      <trkpt lat="45.07107" lon="5.49842">
        <ele>849</ele>
        <time>2019-07-11T15:51:37Z</time>
      </trkpt>
      <trkpt lat="45.07076" lon="5.49918">
        <ele>848</ele>
        <time>2019-07-11T15:51:40Z</time>
      </trkpt>
      <trkpt lat="45.07068" lon="5.49957">
        <ele>844</ele>
        <time>2019-07-11T15:51:42Z</time>
      </trkpt>
      <trkpt lat="45.07067" lon="5.49986">
        <ele>837</ele>
        <time>2019-07-11T15:51:44Z</time>
      </trkpt>
      <trkpt lat="45.0707" lon="5.50007">
        <ele>831</ele>
        <time>2019-07-11T15:51:45Z</time>
      </trkpt>
      <trkpt lat="45.07054" lon="5.5011">
        <ele>832</ele>
        <time>2019-07-11T15:51:49Z</time>
      </trkpt>
      <trkpt lat="45.07042" lon="5.50144">
        <ele>842</ele>
        <time>2019-07-11T15:51:51Z</time>
      </trkpt>
      <trkpt lat="45.07039" lon="5.50186">
        <ele>849</ele>
        <time>2019-07-11T15:51:56Z</time>
      </trkpt>
      <trkpt lat="45.07021" lon="5.50222">
        <ele>866</ele>
        <time>2019-07-11T15:52:10Z</time>
      </trkpt>
      <trkpt lat="45.0702" lon="5.50235">
        <ele>868</ele>
        <time>2019-07-11T15:52:19Z</time>
      </trkpt>
      <trkpt lat="45.07023" lon="5.50249">
        <ele>868</ele>
        <time>2019-07-11T15:52:21Z</time>
      </trkpt>
      <trkpt lat="45.07029" lon="5.50264">
        <ele>863</ele>
        <time>2019-07-11T15:52:24Z</time>
      </trkpt>
      <trkpt lat="45.07032" lon="5.50281">
        <ele>860</ele>
        <time>2019-07-11T15:52:27Z</time>
      </trkpt>
      <trkpt lat="45.07031" lon="5.5034">
        <ele>858</ele>
        <time>2019-07-11T15:52:31Z</time>
      </trkpt>
      <trkpt lat="45.07027" lon="5.50395">
        <ele>849</ele>
        <time>2019-07-11T15:52:34Z</time>
      </trkpt>
      <trkpt lat="45.0705" lon="5.50474">
        <ele>835</ele>
        <time>2019-07-11T15:52:37Z</time>
      </trkpt>
      <trkpt lat="45.07056" lon="5.50498">
        <ele>834</ele>
        <time>2019-07-11T15:52:40Z</time>
      </trkpt>
      <trkpt lat="45.07057" lon="5.50524">
        <ele>831</ele>
        <time>2019-07-11T15:52:46Z</time>
      </trkpt>
      <trkpt lat="45.07053" lon="5.50552">
        <ele>825</ele>
        <time>2019-07-11T15:52:49Z</time>
      </trkpt>
      <trkpt lat="45.07046" lon="5.50578">
        <ele>819</ele>
        <time>2019-07-11T15:53:03Z</time>
      </trkpt>
      <trkpt lat="45.07029" lon="5.50612">
        <ele>815</ele>
        <time>2019-07-11T15:53:07Z</time>
      </trkpt>
      <trkpt lat="45.07017" lon="5.50626">
        <ele>811</ele>
        <time>2019-07-11T15:53:10Z</time>
      </trkpt>
      <trkpt lat="45.07007" lon="5.50646">
        <ele>808</ele>
        <time>2019-07-11T15:53:12Z</time>
      </trkpt>
      <trkpt lat="45.06994" lon="5.50683">
        <ele>810</ele>
        <time>2019-07-11T15:53:13Z</time>
      </trkpt>
      <trkpt lat="45.06965" lon="5.50736">
        <ele>818</ele>
        <time>2019-07-11T15:53:14Z</time>
      </trkpt>
      <trkpt lat="45.06957" lon="5.5078">
        <ele>822</ele>
        <time>2019-07-11T15:53:22Z</time>
      </trkpt>
      <trkpt lat="45.06948" lon="5.50839">
        <ele>825</ele>
        <time>2019-07-11T15:53:24Z</time>
      </trkpt>
      <trkpt lat="45.06938" lon="5.50888">
        <ele>824</ele>
        <time>2019-07-11T15:53:34Z</time>
      </trkpt>
      <trkpt lat="45.06934" lon="5.50949">
        <ele>828</ele>
        <time>2019-07-11T15:53:36Z</time>
      </trkpt>
      <trkpt lat="45.06934" lon="5.51037">
        <ele>840</ele>
        <time>2019-07-11T15:53:38Z</time>
      </trkpt>
      <trkpt lat="45.06928" lon="5.51067">
        <ele>842</ele>
        <time>2019-07-11T15:53:46Z</time>
      </trkpt>
      <trkpt lat="45.06912" lon="5.51122">
        <ele>842</ele>
        <time>2019-07-11T15:53:48Z</time>
      </trkpt>
      <trkpt lat="45.06896" lon="5.51166">
        <ele>848</ele>
        <time>2019-07-11T15:53:51Z</time>
      </trkpt>
      <trkpt lat="45.06882" lon="5.51236">
        <ele>867</ele>
        <time>2019-07-11T15:53:54Z</time>
      </trkpt>
      <trkpt lat="45.06854" lon="5.51309">
        <ele>891</ele>
        <time>2019-07-11T15:53:57Z</time>
      </trkpt>
      <trkpt lat="45.06845" lon="5.51338">
        <ele>902</ele>
        <time>2019-07-11T15:53:59Z</time>
      </trkpt>
      <trkpt lat="45.06838" lon="5.51382">
        <ele>901</ele>
        <time>2019-07-11T15:54:02Z</time>
      </trkpt>
      <trkpt lat="45.06826" lon="5.5142">
        <ele>904</ele>
        <time>2019-07-11T15:54:12Z</time>
      </trkpt>
      <trkpt lat="45.06823" lon="5.51435">
        <ele>905</ele>
        <time>2019-07-11T15:54:15Z</time>
      </trkpt>
      <trkpt lat="45.06823" lon="5.51469">
        <ele>900</ele>
        <time>2019-07-11T15:54:17Z</time>
      </trkpt>
      <trkpt lat="45.0683" lon="5.51509">
        <ele>894</ele>
        <time>2019-07-11T15:54:20Z</time>
      </trkpt>
      <trkpt lat="45.06826" lon="5.5154">
        <ele>903</ele>
        <time>2019-07-11T15:54:22Z</time>
      </trkpt>
      <trkpt lat="45.06805" lon="5.5162">
        <ele>926</ele>
        <time>2019-07-11T15:54:23Z</time>
      </trkpt>
      <trkpt lat="45.06801" lon="5.51648">
        <ele>934</ele>
        <time>2019-07-11T15:54:26Z</time>
      </trkpt>
      <trkpt lat="45.06807" lon="5.51673">
        <ele>937</ele>
        <time>2019-07-11T15:54:31Z</time>
      </trkpt>
      <trkpt lat="45.06853" lon="5.51709">
        <ele>938</ele>
        <time>2019-07-11T15:54:34Z</time>
      </trkpt>
      <trkpt lat="45.06883" lon="5.51746">
        <ele>948</ele>
        <time>2019-07-11T15:54:36Z</time>
      </trkpt>
      <trkpt lat="45.06894" lon="5.51757">
        <ele>947</ele>
        <time>2019-07-11T15:54:39Z</time>
      </trkpt>
      <trkpt lat="45.06947" lon="5.5182">
        <ele>920</ele>
        <time>2019-07-11T15:54:52Z</time>
      </trkpt>
      <trkpt lat="45.06986" lon="5.51881">
        <ele>913</ele>
        <time>2019-07-11T15:54:55Z</time>
      </trkpt>
      <trkpt lat="45.07021" lon="5.51922">
        <ele>903</ele>
        <time>2019-07-11T15:54:57Z</time>
      </trkpt>
      <trkpt lat="45.07049" lon="5.51951">
        <ele>926</ele>
        <time>2019-07-11T15:54:59Z</time>
      </trkpt>
      <trkpt lat="45.07068" lon="5.51961">
        <ele>937</ele>
        <time>2019-07-11T15:55:00Z</time>
      </trkpt>
      <trkpt lat="45.0709" lon="5.51963">
        <ele>948</ele>
        <time>2019-07-11T15:55:03Z</time>
      </trkpt>
      <trkpt lat="45.07113" lon="5.51959">
        <ele>956</ele>
        <time>2019-07-11T15:55:13Z</time>
      </trkpt>
      <trkpt lat="45.07138" lon="5.51959">
        <ele>962</ele>
        <time>2019-07-11T15:55:16Z</time>
      </trkpt>
      <trkpt lat="45.07155" lon="5.51976">
        <ele>959</ele>
        <time>2019-07-11T15:55:19Z</time>
      </trkpt>
      <trkpt lat="45.07176" lon="5.51988">
        <ele>956</ele>
        <time>2019-07-11T15:55:28Z</time>
      </trkpt>
      <trkpt lat="45.07199" lon="5.51993">
        <ele>952</ele>
        <time>2019-07-11T15:55:37Z</time>
      </trkpt>
      <trkpt lat="45.07237" lon="5.52014">
        <ele>946</ele>
        <time>2019-07-11T15:55:42Z</time>
      </trkpt>
      <trkpt lat="45.0729" lon="5.5202">
        <ele>947</ele>
        <time>2019-07-11T15:55:46Z</time>
      </trkpt>
      <trkpt lat="45.0733" lon="5.5203">
        <ele>949</ele>
        <time>2019-07-11T15:55:52Z</time>
      </trkpt>
      <trkpt lat="45.07353" lon="5.52037">
        <ele>952</ele>
        <time>2019-07-11T15:55:55Z</time>
      </trkpt>
      <trkpt lat="45.0739" lon="5.52041">
        <ele>960</ele>
        <time>2019-07-11T15:55:58Z</time>
      </trkpt>
      <trkpt lat="45.07494" lon="5.52039">
        <ele>963</ele>
        <time>2019-07-11T15:56:00Z</time>
      </trkpt>
      <trkpt lat="45.07507" lon="5.52044">
        <ele>962</ele>
        <time>2019-07-11T15:56:02Z</time>
      </trkpt>
      <trkpt lat="45.07518" lon="5.52059">
        <ele>958</ele>
        <time>2019-07-11T15:56:05Z</time>
      </trkpt>
      <trkpt lat="45.07543" lon="5.52106">
        <ele>958</ele>
        <time>2019-07-11T15:56:07Z</time>
      </trkpt>
      <trkpt lat="45.07559" lon="5.5212">
        <ele>960</ele>
        <time>2019-07-11T15:56:10Z</time>
      </trkpt>
      <trkpt lat="45.07591" lon="5.52131">
        <ele>960</ele>
        <time>2019-07-11T15:56:19Z</time>
      </trkpt>
      <trkpt lat="45.07645" lon="5.52134">
        <ele>972</ele>
        <time>2019-07-11T15:56:21Z</time>
      </trkpt>
      <trkpt lat="45.07669" lon="5.52125">
        <ele>979</ele>
        <time>2019-07-11T15:56:23Z</time>
      </trkpt>
      <trkpt lat="45.07715" lon="5.52114">
        <ele>978</ele>
        <time>2019-07-11T15:56:35Z</time>
      </trkpt>
      <trkpt lat="45.07744" lon="5.52099">
        <ele>978</ele>
        <time>2019-07-11T15:56:45Z</time>
      </trkpt>
      <trkpt lat="45.07757" lon="5.52096">
        <ele>978</ele>
        <time>2019-07-11T15:56:57Z</time>
      </trkpt>
      <trkpt lat="45.07768" lon="5.52096">
        <ele>978</ele>
        <time>2019-07-11T15:57:09Z</time>
      </trkpt>
      <trkpt lat="45.07779" lon="5.52099">
        <ele>977</ele>
        <time>2019-07-11T15:57:12Z</time>
      </trkpt>
      <trkpt lat="45.07799" lon="5.5211">
        <ele>976</ele>
        <time>2019-07-11T15:57:14Z</time>
      </trkpt>
      <trkpt lat="45.07826" lon="5.52117">
        <ele>974</ele>
        <time>2019-07-11T15:57:16Z</time>
      </trkpt>
      <trkpt lat="45.07843" lon="5.5212">
        <ele>973</ele>
        <time>2019-07-11T15:57:28Z</time>
      </trkpt>
      <trkpt lat="45.07885" lon="5.52115">
        <ele>973</ele>
        <time>2019-07-11T15:57:41Z</time>
      </trkpt>
      <trkpt lat="45.07947" lon="5.52124">
        <ele>973</ele>
        <time>2019-07-11T15:57:49Z</time>
      </trkpt>
      <trkpt lat="45.07962" lon="5.52134">
        <ele>971</ele>
        <time>2019-07-11T15:57:55Z</time>
      </trkpt>
      <trkpt lat="45.08005" lon="5.52171">
        <ele>965</ele>
        <time>2019-07-11T15:57:58Z</time>
      </trkpt>
      <trkpt lat="45.08013" lon="5.52174">
        <ele>965</ele>
        <time>2019-07-11T15:58:02Z</time>
      </trkpt>
      <trkpt lat="45.08069" lon="5.5214">
        <ele>968</ele>
        <time>2019-07-11T15:58:07Z</time>
      </trkpt>
      <trkpt lat="45.08128" lon="5.52114">
        <ele>970</ele>
        <time>2019-07-11T15:58:15Z</time>
      </trkpt>
      <trkpt lat="45.08139" lon="5.52111">
        <ele>970</ele>
        <time>2019-07-11T15:58:19Z</time>
      </trkpt>
      <trkpt lat="45.0815" lon="5.52112">
        <ele>970</ele>
        <time>2019-07-11T15:58:23Z</time>
      </trkpt>
      <trkpt lat="45.08177" lon="5.52125">
        <ele>967</ele>
        <time>2019-07-11T15:58:31Z</time>
      </trkpt>
      <trkpt lat="45.08193" lon="5.52125">
        <ele>966</ele>
        <time>2019-07-11T15:58:46Z</time>
      </trkpt>
      <trkpt lat="45.08208" lon="5.52118">
        <ele>965</ele>
        <time>2019-07-11T15:58:51Z</time>
      </trkpt>
      <trkpt lat="45.08217" lon="5.52108">
        <ele>965</ele>
        <time>2019-07-11T15:58:55Z</time>
      </trkpt>
      <trkpt lat="45.08225" lon="5.52095">
        <ele>964</ele>
        <time>2019-07-11T15:59:01Z</time>
      </trkpt>
      <trkpt lat="45.08231" lon="5.52075">
        <ele>965</ele>
        <time>2019-07-11T15:59:04Z</time>
      </trkpt>
      <trkpt lat="45.08238" lon="5.52046">
        <ele>969</ele>
        <time>2019-07-11T15:59:07Z</time>
      </trkpt>
      <trkpt lat="45.08243" lon="5.52036">
        <ele>971</ele>
        <time>2019-07-11T15:59:12Z</time>
      </trkpt>
      <trkpt lat="45.0825" lon="5.52027">
        <ele>971</ele>
        <time>2019-07-11T15:59:17Z</time>
      </trkpt>
      <trkpt lat="45.08266" lon="5.52018">
        <ele>971</ele>
        <time>2019-07-11T15:59:50Z</time>
      </trkpt>
      <trkpt lat="45.08314" lon="5.52001">
        <ele>965</ele>
        <time>2019-07-11T16:00:13Z</time>
      </trkpt>
      <trkpt lat="45.08329" lon="5.52">
        <ele>962</ele>
        <time>2019-07-11T16:00:21Z</time>
      </trkpt>
      <trkpt lat="45.08342" lon="5.52001">
        <ele>961</ele>
        <time>2019-07-11T16:00:25Z</time>
      </trkpt>
      <trkpt lat="45.08407" lon="5.52026">
        <ele>956</ele>
        <time>2019-07-11T16:00:47Z</time>
      </trkpt>
      <trkpt lat="45.08439" lon="5.52024">
        <ele>957</ele>
        <time>2019-07-11T16:00:53Z</time>
      </trkpt>
      <trkpt lat="45.08451" lon="5.52026">
        <ele>956</ele>
        <time>2019-07-11T16:00:58Z</time>
      </trkpt>
      <trkpt lat="45.08459" lon="5.52032">
        <ele>955</ele>
        <time>2019-07-11T16:01:10Z</time>
      </trkpt>
      <trkpt lat="45.08467" lon="5.52043">
        <ele>953</ele>
        <time>2019-07-11T16:01:13Z</time>
      </trkpt>
      <trkpt lat="45.08512" lon="5.52116">
        <ele>941</ele>
        <time>2019-07-11T16:01:17Z</time>
      </trkpt>
      <trkpt lat="45.08529" lon="5.52147">
        <ele>939</ele>
        <time>2019-07-11T16:01:19Z</time>
      </trkpt>
      <trkpt lat="45.08544" lon="5.52183">
        <ele>937</ele>
        <time>2019-07-11T16:01:21Z</time>
      </trkpt>
      <trkpt lat="45.08556" lon="5.52199">
        <ele>937</ele>
        <time>2019-07-11T16:01:25Z</time>
      </trkpt>
      <trkpt lat="45.08588" lon="5.52236">
        <ele>934</ele>
        <time>2019-07-11T16:01:32Z</time>
      </trkpt>
      <trkpt lat="45.08594" lon="5.52248">
        <ele>934</ele>
        <time>2019-07-11T16:01:42Z</time>
      </trkpt>
      <trkpt lat="45.08602" lon="5.52272">
        <ele>934</ele>
        <time>2019-07-11T16:03:19Z</time>
      </trkpt>
      <trkpt lat="45.08603" lon="5.52284">
        <ele>934</ele>
        <time>2019-07-11T16:04:00Z</time>
      </trkpt>
      <trkpt lat="45.08599" lon="5.5231">
        <ele>934</ele>
        <time>2019-07-11T16:04:05Z</time>
      </trkpt>
      <trkpt lat="45.08584" lon="5.52372">
        <ele>934</ele>
        <time>2019-07-11T16:04:12Z</time>
      </trkpt>
      <trkpt lat="45.08579" lon="5.52398">
        <ele>933</ele>
        <time>2019-07-11T16:04:22Z</time>
      </trkpt>
      <trkpt lat="45.08576" lon="5.52422">
        <ele>933</ele>
        <time>2019-07-11T16:04:28Z</time>
      </trkpt>
      <trkpt lat="45.08594" lon="5.52425">
        <ele>934</ele>
        <time>2019-07-11T16:04:31Z</time>
      </trkpt>
      <trkpt lat="45.08642" lon="5.52418">
        <ele>937</ele>
        <time>2019-07-11T16:04:33Z</time>
      </trkpt>
      <trkpt lat="45.0872" lon="5.52404">
        <ele>943</ele>
        <time>2019-07-11T16:04:38Z</time>
      </trkpt>
      <trkpt lat="45.08755" lon="5.52399">
        <ele>944</ele>
        <time>2019-07-11T16:04:41Z</time>
      </trkpt>
      <trkpt lat="45.0878" lon="5.524">
        <ele>943</ele>
        <time>2019-07-11T16:04:49Z</time>
      </trkpt>
      <trkpt lat="45.08805" lon="5.52409">
        <ele>943</ele>
        <time>2019-07-11T16:04:53Z</time>
      </trkpt>
      <trkpt lat="45.08821" lon="5.5242">
        <ele>944</ele>
        <time>2019-07-11T16:04:55Z</time>
      </trkpt>
      <trkpt lat="45.08833" lon="5.52432">
        <ele>949</ele>
        <time>2019-07-11T16:04:58Z</time>
      </trkpt>
      <trkpt lat="45.08877" lon="5.52492">
        <ele>959</ele>
        <time>2019-07-11T16:05:05Z</time>
      </trkpt>
      <trkpt lat="45.08914" lon="5.52524">
        <ele>957</ele>
        <time>2019-07-11T16:05:09Z</time>
      </trkpt>
      <trkpt lat="45.0893" lon="5.52533">
        <ele>956</ele>
        <time>2019-07-11T16:05:13Z</time>
      </trkpt>
      <trkpt lat="45.08946" lon="5.5254">
        <ele>955</ele>
        <time>2019-07-11T16:05:26Z</time>
      </trkpt>
      <trkpt lat="45.08961" lon="5.5254">
        <ele>952</ele>
        <time>2019-07-11T16:05:39Z</time>
      </trkpt>
      <trkpt lat="45.08978" lon="5.52536">
        <ele>947</ele>
        <time>2019-07-11T16:05:45Z</time>
      </trkpt>
      <trkpt lat="45.08998" lon="5.52523">
        <ele>940</ele>
        <time>2019-07-11T16:05:57Z</time>
      </trkpt>
      <trkpt lat="45.09038" lon="5.52487">
        <ele>941</ele>
        <time>2019-07-11T16:06:02Z</time>
      </trkpt>
      <trkpt lat="45.09083" lon="5.52436">
        <ele>945</ele>
        <time>2019-07-11T16:06:03Z</time>
      </trkpt>
      <trkpt lat="45.09094" lon="5.52429">
        <ele>946</ele>
        <time>2019-07-11T16:06:04Z</time>
      </trkpt>
      <trkpt lat="45.09105" lon="5.52425">
        <ele>946</ele>
        <time>2019-07-11T16:06:05Z</time>
      </trkpt>
      <trkpt lat="45.09118" lon="5.52424">
        <ele>948</ele>
        <time>2019-07-11T16:06:06Z</time>
      </trkpt>
      <trkpt lat="45.09125" lon="5.52426">
        <ele>948</ele>
        <time>2019-07-11T16:06:08Z</time>
      </trkpt>
      <trkpt lat="45.09143" lon="5.52435">
        <ele>950</ele>
        <time>2019-07-11T16:06:13Z</time>
      </trkpt>
      <trkpt lat="45.09153" lon="5.52446">
        <ele>950</ele>
        <time>2019-07-11T16:06:16Z</time>
      </trkpt>
      <trkpt lat="45.09168" lon="5.52478">
        <ele>948</ele>
        <time>2019-07-11T16:07:47Z</time>
      </trkpt>
      <trkpt lat="45.092" lon="5.52579">
        <ele>951</ele>
        <time>2019-07-11T16:07:58Z</time>
      </trkpt>
      <trkpt lat="45.0921" lon="5.52653">
        <ele>960</ele>
        <time>2019-07-11T16:08:04Z</time>
      </trkpt>
      <trkpt lat="45.09215" lon="5.5267">
        <ele>961</ele>
        <time>2019-07-11T16:08:11Z</time>
      </trkpt>
      <trkpt lat="45.09223" lon="5.5269">
        <ele>964</ele>
        <time>2019-07-11T16:08:36Z</time>
      </trkpt>
      <trkpt lat="45.09232" lon="5.52704">
        <ele>964</ele>
        <time>2019-07-11T16:08:41Z</time>
      </trkpt>
      <trkpt lat="45.09254" lon="5.52727">
        <ele>963</ele>
        <time>2019-07-11T16:08:53Z</time>
      </trkpt>
      <trkpt lat="45.09268" lon="5.52733">
        <ele>963</ele>
        <time>2019-07-11T16:09:10Z</time>
      </trkpt>
      <trkpt lat="45.09283" lon="5.52736">
        <ele>962</ele>
        <time>2019-07-11T16:09:41Z</time>
      </trkpt>
      <trkpt lat="45.09302" lon="5.52736">
        <ele>960</ele>
        <time>2019-07-11T16:10:00Z</time>
      </trkpt>
      <trkpt lat="45.09332" lon="5.52726">
        <ele>954</ele>
        <time>2019-07-11T16:10:37Z</time>
      </trkpt>
      <trkpt lat="45.09348" lon="5.52714">
        <ele>953</ele>
        <time>2019-07-11T16:10:58Z</time>
      </trkpt>
      <trkpt lat="45.09412" lon="5.52651">
        <ele>949</ele>
        <time>2019-07-11T16:11:51Z</time>
      </trkpt>
      <trkpt lat="45.0943" lon="5.52628">
        <ele>948</ele>
        <time>2019-07-11T16:11:54Z</time>
      </trkpt>
      <trkpt lat="45.09442" lon="5.52616">
        <ele>947</ele>
        <time>2019-07-11T16:12:00Z</time>
      </trkpt>
      <trkpt lat="45.09452" lon="5.52611">
        <ele>947</ele>
        <time>2019-07-11T16:12:06Z</time>
      </trkpt>
      <trkpt lat="45.09459" lon="5.52611">
        <ele>947</ele>
        <time>2019-07-11T16:14:23Z</time>
      </trkpt>
      <trkpt lat="45.09468" lon="5.52614">
        <ele>947</ele>
        <time>2019-07-11T16:15:35Z</time>
      </trkpt>
      <trkpt lat="45.09505" lon="5.5264">
        <ele>951</ele>
        <time>2019-07-11T16:16:42Z</time>
      </trkpt>
      <trkpt lat="45.09519" lon="5.52646">
        <ele>952</ele>
        <time>2019-07-11T16:16:47Z</time>
      </trkpt>
      <trkpt lat="45.09573" lon="5.5266">
        <ele>955</ele>
        <time>2019-07-11T16:16:50Z</time>
      </trkpt>
      <trkpt lat="45.09584" lon="5.52659">
        <ele>955</ele>
        <time>2019-07-11T16:16:56Z</time>
      </trkpt>
      <trkpt lat="45.09593" lon="5.52656">
        <ele>955</ele>
        <time>2019-07-11T16:17:29Z</time>
      </trkpt>
      <trkpt lat="45.09631" lon="5.52622">
        <ele>953</ele>
        <time>2019-07-11T16:17:30Z</time>
      </trkpt>
      <trkpt lat="45.09642" lon="5.52616">
        <ele>953</ele>
        <time>2019-07-11T16:17:30Z</time>
      </trkpt>
      <trkpt lat="45.09658" lon="5.52611">
        <ele>953</ele>
        <time>2019-07-11T16:17:32Z</time>
      </trkpt>
      <trkpt lat="45.09674" lon="5.52612">
        <ele>954</ele>
        <time>2019-07-11T16:17:32Z</time>
      </trkpt>
      <trkpt lat="45.0969" lon="5.52618">
        <ele>955</ele>
        <time>2019-07-11T16:17:34Z</time>
      </trkpt>
      <trkpt lat="45.09702" lon="5.52628">
        <ele>956</ele>
        <time>2019-07-11T16:17:35Z</time>
      </trkpt>
      <trkpt lat="45.09713" lon="5.5264">
        <ele>956</ele>
        <time>2019-07-11T16:17:36Z</time>
      </trkpt>
      <trkpt lat="45.09745" lon="5.52712">
        <ele>973</ele>
        <time>2019-07-11T16:18:37Z</time>
      </trkpt>
      <trkpt lat="45.09755" lon="5.52728">
        <ele>978</ele>
        <time>2019-07-11T16:18:43Z</time>
      </trkpt>
      <trkpt lat="45.09766" lon="5.5274">
        <ele>983</ele>
        <time>2019-07-11T16:18:47Z</time>
      </trkpt>
      <trkpt lat="45.09778" lon="5.52745">
        <ele>985</ele>
        <time>2019-07-11T16:18:57Z</time>
      </trkpt>
      <trkpt lat="45.0979" lon="5.52746">
        <ele>986</ele>
        <time>2019-07-11T16:19:13Z</time>
      </trkpt>
      <trkpt lat="45.09799" lon="5.52741">
        <ele>984</ele>
        <time>2019-07-11T16:19:18Z</time>
      </trkpt>
      <trkpt lat="45.09812" lon="5.5273">
        <ele>980</ele>
        <time>2019-07-11T16:19:19Z</time>
      </trkpt>
      <trkpt lat="45.09832" lon="5.52709">
        <ele>972</ele>
        <time>2019-07-11T16:19:20Z</time>
      </trkpt>
      <trkpt lat="45.09845" lon="5.5269">
        <ele>969</ele>
        <time>2019-07-11T16:19:21Z</time>
      </trkpt>
      <trkpt lat="45.09852" lon="5.52675">
        <ele>966</ele>
        <time>2019-07-11T16:19:22Z</time>
      </trkpt>
      <trkpt lat="45.09858" lon="5.52655">
        <ele>964</ele>
        <time>2019-07-11T16:19:23Z</time>
      </trkpt>
      <trkpt lat="45.09882" lon="5.5256">
        <ele>962</ele>
        <time>2019-07-11T16:19:24Z</time>
      </trkpt>
      <trkpt lat="45.0989" lon="5.52538">
        <ele>962</ele>
        <time>2019-07-11T16:19:32Z</time>
      </trkpt>
      <trkpt lat="45.09898" lon="5.52527">
        <ele>962</ele>
        <time>2019-07-11T16:19:51Z</time>
      </trkpt>
      <trkpt lat="45.09908" lon="5.52521">
        <ele>961</ele>
        <time>2019-07-11T16:20:00Z</time>
      </trkpt>
      <trkpt lat="45.09917" lon="5.52518">
        <ele>960</ele>
        <time>2019-07-11T16:20:08Z</time>
      </trkpt>
      <trkpt lat="45.09931" lon="5.5252">
        <ele>961</ele>
        <time>2019-07-11T16:20:17Z</time>
      </trkpt>
      <trkpt lat="45.09984" lon="5.52553">
        <ele>964</ele>
        <time>2019-07-11T16:20:20Z</time>
      </trkpt>
      <trkpt lat="45.09997" lon="5.52563">
        <ele>964</ele>
        <time>2019-07-11T16:20:24Z</time>
      </trkpt>
      <trkpt lat="45.10011" lon="5.52583">
        <ele>965</ele>
        <time>2019-07-11T16:20:28Z</time>
      </trkpt>
      <trkpt lat="45.10036" lon="5.52647">
        <ele>980</ele>
        <time>2019-07-11T16:20:43Z</time>
      </trkpt>
      <trkpt lat="45.10061" lon="5.52705">
        <ele>986</ele>
        <time>2019-07-11T16:20:44Z</time>
      </trkpt>
      <trkpt lat="45.10078" lon="5.52734">
        <ele>984</ele>
        <time>2019-07-11T16:20:45Z</time>
      </trkpt>
      <trkpt lat="45.10096" lon="5.52755">
        <ele>985</ele>
        <time>2019-07-11T16:20:46Z</time>
      </trkpt>
      <trkpt lat="45.10125" lon="5.52783">
        <ele>990</ele>
        <time>2019-07-11T16:20:53Z</time>
      </trkpt>
      <trkpt lat="45.10138" lon="5.52791">
        <ele>992</ele>
        <time>2019-07-11T16:20:56Z</time>
      </trkpt>
      <trkpt lat="45.10155" lon="5.52798">
        <ele>992</ele>
        <time>2019-07-11T16:20:58Z</time>
      </trkpt>
      <trkpt lat="45.10169" lon="5.52799">
        <ele>992</ele>
        <time>2019-07-11T16:21:05Z</time>
      </trkpt>
      <trkpt lat="45.1018" lon="5.52795">
        <ele>993</ele>
        <time>2019-07-11T16:21:07Z</time>
      </trkpt>
      <trkpt lat="45.10195" lon="5.52787">
        <ele>993</ele>
        <time>2019-07-11T16:21:16Z</time>
      </trkpt>
      <trkpt lat="45.10206" lon="5.52777">
        <ele>991</ele>
        <time>2019-07-11T16:21:21Z</time>
      </trkpt>
      <trkpt lat="45.10217" lon="5.52764">
        <ele>988</ele>
        <time>2019-07-11T16:21:23Z</time>
      </trkpt>
      <trkpt lat="45.10243" lon="5.52705">
        <ele>984</ele>
        <time>2019-07-11T16:21:47Z</time>
      </trkpt>
      <trkpt lat="45.10252" lon="5.52694">
        <ele>984</ele>
        <time>2019-07-11T16:21:49Z</time>
      </trkpt>
      <trkpt lat="45.10266" lon="5.5269">
        <ele>983</ele>
        <time>2019-07-11T16:21:52Z</time>
      </trkpt>
      <trkpt lat="45.10333" lon="5.52701">
        <ele>984</ele>
        <time>2019-07-11T16:22:00Z</time>
      </trkpt>
      <trkpt lat="45.10388" lon="5.52683">
        <ele>982</ele>
        <time>2019-07-11T16:22:02Z</time>
      </trkpt>
      <trkpt lat="45.10453" lon="5.52678">
        <ele>979</ele>
        <time>2019-07-11T16:22:06Z</time>
      </trkpt>
      <trkpt lat="45.10518" lon="5.52694">
        <ele>978</ele>
        <time>2019-07-11T16:22:40Z</time>
      </trkpt>
      <trkpt lat="45.10531" lon="5.52707">
        <ele>979</ele>
        <time>2019-07-11T16:22:47Z</time>
      </trkpt>
      <trkpt lat="45.10536" lon="5.52723">
        <ele>979</ele>
        <time>2019-07-11T16:22:57Z</time>
      </trkpt>
      <trkpt lat="45.10534" lon="5.52739">
        <ele>978</ele>
        <time>2019-07-11T16:22:59Z</time>
      </trkpt>
      <trkpt lat="45.10492" lon="5.52812">
        <ele>982</ele>
        <time>2019-07-11T16:23:09Z</time>
      </trkpt>
      <trkpt lat="45.10471" lon="5.52916">
        <ele>996</ele>
        <time>2019-07-11T16:23:18Z</time>
      </trkpt>
      <trkpt lat="45.10484" lon="5.52977">
        <ele>998</ele>
        <time>2019-07-11T16:23:26Z</time>
      </trkpt>
      <trkpt lat="45.10508" lon="5.53003">
        <ele>994</ele>
        <time>2019-07-11T16:23:31Z</time>
      </trkpt>
      <trkpt lat="45.10529" lon="5.53008">
        <ele>992</ele>
        <time>2019-07-11T16:23:42Z</time>
      </trkpt>
      <trkpt lat="45.1055" lon="5.53006">
        <ele>988</ele>
        <time>2019-07-11T16:23:46Z</time>
      </trkpt>
      <trkpt lat="45.10572" lon="5.52982">
        <ele>981</ele>
        <time>2019-07-11T16:24:08Z</time>
      </trkpt>
      <trkpt lat="45.10605" lon="5.52938">
        <ele>978</ele>
        <time>2019-07-11T16:24:22Z</time>
      </trkpt>
      <trkpt lat="45.10627" lon="5.52928">
        <ele>978</ele>
        <time>2019-07-11T16:24:31Z</time>
      </trkpt>
      <trkpt lat="45.10648" lon="5.52932">
        <ele>980</ele>
        <time>2019-07-11T16:24:37Z</time>
      </trkpt>
      <trkpt lat="45.10689" lon="5.52955">
        <ele>986</ele>
        <time>2019-07-11T16:24:51Z</time>
      </trkpt>
      <trkpt lat="45.10772" lon="5.52995">
        <ele>991</ele>
        <time>2019-07-11T16:25:09Z</time>
      </trkpt>
      <trkpt lat="45.10798" lon="5.52992">
        <ele>990</ele>
        <time>2019-07-11T16:25:14Z</time>
      </trkpt>
      <trkpt lat="45.10818" lon="5.52978">
        <ele>988</ele>
        <time>2019-07-11T16:25:25Z</time>
      </trkpt>
      <trkpt lat="45.10844" lon="5.52947">
        <ele>982</ele>
        <time>2019-07-11T16:25:35Z</time>
      </trkpt>
      <trkpt lat="45.10858" lon="5.52936">
        <ele>979</ele>
        <time>2019-07-11T16:25:46Z</time>
      </trkpt>
      <trkpt lat="45.10874" lon="5.52931">
        <ele>977</ele>
        <time>2019-07-11T16:25:53Z</time>
      </trkpt>
      <trkpt lat="45.109" lon="5.52937">
        <ele>974</ele>
        <time>2019-07-11T16:25:57Z</time>
      </trkpt>
      <trkpt lat="45.10927" lon="5.52948">
        <ele>974</ele>
        <time>2019-07-11T16:26:12Z</time>
      </trkpt>
      <trkpt lat="45.11106" lon="5.53042">
        <ele>967</ele>
        <time>2019-07-11T16:26:18Z</time>
      </trkpt>
      <trkpt lat="45.11222" lon="5.53109">
        <ele>962</ele>
        <time>2019-07-11T16:26:34Z</time>
      </trkpt>
      <trkpt lat="45.11266" lon="5.53127">
        <ele>959</ele>
        <time>2019-07-11T16:26:39Z</time>
      </trkpt>
      <trkpt lat="45.1129" lon="5.53129">
        <ele>961</ele>
        <time>2019-07-11T16:26:43Z</time>
      </trkpt>
      <trkpt lat="45.11415" lon="5.53125">
        <ele>962</ele>
        <time>2019-07-11T16:26:48Z</time>
      </trkpt>
      <trkpt lat="45.11448" lon="5.5313">
        <ele>963</ele>
        <time>2019-07-11T16:27:02Z</time>
      </trkpt>
      <trkpt lat="45.11474" lon="5.53139">
        <ele>964</ele>
        <time>2019-07-11T16:27:07Z</time>
      </trkpt>
      <trkpt lat="45.1154" lon="5.53168">
        <ele>963</ele>
        <time>2019-07-11T16:27:10Z</time>
      </trkpt>
      <trkpt lat="45.11555" lon="5.53176">
        <ele>964</ele>
        <time>2019-07-11T16:27:23Z</time>
      </trkpt>
      <trkpt lat="45.11575" lon="5.53184">
        <ele>965</ele>
        <time>2019-07-11T16:27:28Z</time>
      </trkpt>
      <trkpt lat="45.11588" lon="5.53187">
        <ele>965</ele>
        <time>2019-07-11T16:27:42Z</time>
      </trkpt>
      <trkpt lat="45.116" lon="5.53186">
        <ele>965</ele>
        <time>2019-07-11T16:27:47Z</time>
      </trkpt>
      <trkpt lat="45.11617" lon="5.53182">
        <ele>964</ele>
        <time>2019-07-11T16:28:10Z</time>
      </trkpt>
      <trkpt lat="45.11656" lon="5.5317">
        <ele>963</ele>
        <time>2019-07-11T16:28:28Z</time>
      </trkpt>
      <trkpt lat="45.11712" lon="5.53155">
        <ele>964</ele>
        <time>2019-07-11T16:28:49Z</time>
      </trkpt>
      <trkpt lat="45.12255" lon="5.53056">
        <ele>974</ele>
        <time>2019-07-11T16:29:06Z</time>
      </trkpt>
      <trkpt lat="45.12476" lon="5.52978">
        <ele>980</ele>
        <time>2019-07-11T16:29:12Z</time>
      </trkpt>
      <trkpt lat="45.12502" lon="5.52958">
        <ele>980</ele>
        <time>2019-07-11T16:29:24Z</time>
      </trkpt>
      <trkpt lat="45.12533" lon="5.52921">
        <ele>983</ele>
        <time>2019-07-11T16:29:32Z</time>
      </trkpt>
      <trkpt lat="45.12573" lon="5.52865">
        <ele>987</ele>
        <time>2019-07-11T16:29:36Z</time>
      </trkpt>
      <trkpt lat="45.12592" lon="5.5283">
        <ele>989</ele>
        <time>2019-07-11T16:29:43Z</time>
      </trkpt>
      <trkpt lat="45.12604" lon="5.52812">
        <ele>991</ele>
        <time>2019-07-11T16:29:46Z</time>
      </trkpt>
      <trkpt lat="45.12612" lon="5.52803">
        <ele>991</ele>
        <time>2019-07-11T16:29:58Z</time>
      </trkpt>
      <trkpt lat="45.12638" lon="5.52788">
        <ele>992</ele>
        <time>2019-07-11T16:30:03Z</time>
      </trkpt>
      <trkpt lat="45.12657" lon="5.52774">
        <ele>992</ele>
        <time>2019-07-11T16:30:37Z</time>
      </trkpt>
      <trkpt lat="45.12687" lon="5.52737">
        <ele>993</ele>
        <time>2019-07-11T16:30:51Z</time>
      </trkpt>
      <trkpt lat="45.12705" lon="5.52717">
        <ele>993</ele>
        <time>2019-07-11T16:30:55Z</time>
      </trkpt>
      <trkpt lat="45.1272" lon="5.52711">
        <ele>992</ele>
        <time>2019-07-11T16:31:05Z</time>
      </trkpt>
      <trkpt lat="45.12732" lon="5.52712">
        <ele>992</ele>
        <time>2019-07-11T16:31:05Z</time>
      </trkpt>
      <trkpt lat="45.12766" lon="5.52747">
        <ele>990</ele>
      </trkpt>
      <trkpt lat="45.12789" lon="5.52762">
        <ele>990</ele>
      </trkpt>
      <trkpt lat="45.1281" lon="5.52771">
        <ele>990</ele>
      </trkpt>
      <trkpt lat="45.12879" lon="5.52785">
        <ele>989</ele>
      </trkpt>
      <trkpt lat="45.12952" lon="5.52792">
        <ele>985</ele>
      </trkpt>
      <trkpt lat="45.12986" lon="5.52799">
        <ele>982</ele>
      </trkpt>
      <trkpt lat="45.13055" lon="5.52806">
        <ele>978</ele>
      </trkpt>
      <trkpt lat="45.13084" lon="5.52804">
        <ele>977</ele>
      </trkpt>
      <trkpt lat="45.13085" lon="5.5281">
        <ele>977</ele>
      </trkpt>
      <trkpt lat="45.13088" lon="5.52815">
        <ele>977</ele>
      </trkpt>
      <trkpt lat="45.13095" lon="5.52818">
        <ele>977</ele>
      </trkpt>
      <trkpt lat="45.13097" lon="5.52817">
        <ele>977</ele>
      </trkpt>
      <trkpt lat="45.13102" lon="5.5283">
        <ele>976</ele>
      </trkpt>
      <trkpt lat="45.13124" lon="5.52865">
        <ele>976</ele>
      </trkpt>
      <trkpt lat="45.1314" lon="5.52857">
        <ele>975</ele>
      </trkpt>
      <trkpt lat="45.13631" lon="5.52662">
        <ele>982</ele>
      </trkpt>
      <trkpt lat="45.13689" lon="5.52641">
        <ele>982</ele>
      </trkpt>
      <trkpt lat="45.13726" lon="5.52634">
        <ele>982</ele>
      </trkpt>
      <trkpt lat="45.13761" lon="5.5263">
        <ele>983</ele>
      </trkpt>
      <trkpt lat="45.13904" lon="5.52628">
        <ele>991</ele>
      </trkpt>
      <trkpt lat="45.13933" lon="5.52629">
        <ele>992</ele>
      </trkpt>
      <trkpt lat="45.13999" lon="5.52639">
        <ele>996</ele>
      </trkpt>
      <trkpt lat="45.14095" lon="5.52641">
        <ele>994</ele>
      </trkpt>
      <trkpt lat="45.14267" lon="5.52635">
        <ele>994</ele>
      </trkpt>
      <trkpt lat="45.14373" lon="5.5263">
        <ele>997</ele>
      </trkpt>
      <trkpt lat="45.14583" lon="5.52625">
        <ele>1000</ele>
      </trkpt>
      <trkpt lat="45.14701" lon="5.5261">
        <ele>1002</ele>
      </trkpt>
      <trkpt lat="45.14998" lon="5.52566">
        <ele>997</ele>
      </trkpt>
      <trkpt lat="45.15014" lon="5.52567">
        <ele>996</ele>
      </trkpt>
      <trkpt lat="45.15048" lon="5.52575">
        <ele>996</ele>
      </trkpt>
      <trkpt lat="45.15077" lon="5.52586">
        <ele>996</ele>
      </trkpt>
      <trkpt lat="45.15818" lon="5.52881">
        <ele>1009</ele>
      </trkpt>
      <trkpt lat="45.16186" lon="5.53134">
        <ele>1015</ele>
      </trkpt>
      <trkpt lat="45.16526" lon="5.53364">
        <ele>1022</ele>
      </trkpt>
      <trkpt lat="45.16546" lon="5.53386">
        <ele>1022</ele>
      </trkpt>
      <trkpt lat="45.16559" lon="5.53397">
        <ele>1021</ele>
      </trkpt>
      <trkpt lat="45.16595" lon="5.53412">
        <ele>1021</ele>
      </trkpt>
      <trkpt lat="45.1676" lon="5.5352">
        <ele>1026</ele>
      </trkpt>
      <trkpt lat="45.16766" lon="5.53525">
        <ele>1026</ele>
      </trkpt>
      <trkpt lat="45.16765" lon="5.5353">
        <ele>1026</ele>
      </trkpt>
      <trkpt lat="45.16766" lon="5.5354">
        <ele>1026</ele>
      </trkpt>
      <trkpt lat="45.16769" lon="5.53544">
        <ele>1026</ele>
      </trkpt>
      <trkpt lat="45.16776" lon="5.53547">
        <ele>1026</ele>
      </trkpt>
      <trkpt lat="45.16783" lon="5.53542">
        <ele>1026</ele>
      </trkpt>
      <trkpt lat="45.16785" lon="5.53538">
        <ele>1026</ele>
      </trkpt>
      <trkpt lat="45.17095" lon="5.53752">
        <ele>1033</ele>
      </trkpt>
      <trkpt lat="45.17123" lon="5.53772">
        <ele>1032</ele>
      </trkpt>
      <trkpt lat="45.17142" lon="5.53791">
        <ele>1032</ele>
      </trkpt>
      <trkpt lat="45.17188" lon="5.5384">
        <ele>1031</ele>
      </trkpt>
      <trkpt lat="45.17257" lon="5.53919">
        <ele>1033</ele>
      </trkpt>
      <trkpt lat="45.17273" lon="5.53951">
        <ele>1034</ele>
      </trkpt>
      <trkpt lat="45.17269" lon="5.53956">
        <ele>1034</ele>
      </trkpt>
      <trkpt lat="45.17268" lon="5.53967">
        <ele>1035</ele>
      </trkpt>
      <trkpt lat="45.1727" lon="5.53973">
        <ele>1035</ele>
      </trkpt>
      <trkpt lat="45.17274" lon="5.53978">
        <ele>1035</ele>
      </trkpt>
      <trkpt lat="45.17278" lon="5.5398">
        <ele>1035</ele>
      </trkpt>
      <trkpt lat="45.17277" lon="5.5399">
        <ele>1035</ele>
      </trkpt>
      <trkpt lat="45.17282" lon="5.54052">
        <ele>1035</ele>
      </trkpt>
      <trkpt lat="45.17299" lon="5.54204">
        <ele>1038</ele>
      </trkpt>
      <trkpt lat="45.17352" lon="5.54207">
        <ele>1038</ele>
      </trkpt>
      <trkpt lat="45.17394" lon="5.54212">
        <ele>1041</ele>
      </trkpt>
      <trkpt lat="45.17395" lon="5.54284">
        <ele>1041</ele>
      </trkpt>
      <trkpt lat="45.17398" lon="5.54307">
        <ele>1041</ele>
      </trkpt>
      <trkpt lat="45.17411" lon="5.54332">
        <ele>1040</ele>
      </trkpt>
      <trkpt lat="45.17428" lon="5.54352">
        <ele>1041</ele>
      </trkpt>
      <trkpt lat="45.17474" lon="5.54252">
        <ele>1043</ele>
      </trkpt>
      <trkpt lat="45.17479" lon="5.54245">
        <ele>1044</ele>
      </trkpt>
      <trkpt lat="45.17484" lon="5.54244">
        <ele>1044</ele>
      </trkpt>
      <trkpt lat="45.17491" lon="5.54246">
        <ele>1044</ele>
      </trkpt>
      <trkpt lat="45.17525" lon="5.54271">
        <ele>1044</ele>
      </trkpt>
      <trkpt lat="45.17539" lon="5.54286">
        <ele>1045</ele>
      </trkpt>
      <trkpt lat="45.17545" lon="5.54295">
        <ele>1045</ele>
      </trkpt>
      <trkpt lat="45.1756" lon="5.54346">
        <ele>1045</ele>
      </trkpt>
      <trkpt lat="45.17565" lon="5.5436">
        <ele>1045</ele>
      </trkpt>
      <trkpt lat="45.17597" lon="5.54424">
        <ele>1044</ele>
      </trkpt>
      <trkpt lat="45.17613" lon="5.54449">
        <ele>1044</ele>
      </trkpt>
      <trkpt lat="45.17619" lon="5.54464">
        <ele>1044</ele>
      </trkpt>
      <trkpt lat="45.17681" lon="5.54634">
        <ele>1046</ele>
      </trkpt>
      <trkpt lat="45.17686" lon="5.54652">
        <ele>1047</ele>
      </trkpt>
      <trkpt lat="45.17689" lon="5.54671">
        <ele>1047</ele>
      </trkpt>
      <trkpt lat="45.17693" lon="5.54734">
        <ele>1046</ele>
      </trkpt>
      <trkpt lat="45.17696" lon="5.54754">
        <ele>1046</ele>
      </trkpt>
      <trkpt lat="45.17705" lon="5.54781">
        <ele>1047</ele>
      </trkpt>
      <trkpt lat="45.1781" lon="5.55011">
        <ele>1054</ele>
      </trkpt>
      <trkpt lat="45.17834" lon="5.55052">
        <ele>1056</ele>
      </trkpt>
      <trkpt lat="45.17867" lon="5.55114">
        <ele>1056</ele>
      </trkpt>
      <trkpt lat="45.17871" lon="5.55131">
        <ele>1056</ele>
      </trkpt>
      <trkpt lat="45.17893" lon="5.55203">
        <ele>1058</ele>
      </trkpt>
      <trkpt lat="45.17915" lon="5.55268">
        <ele>1060</ele>
      </trkpt>
      <trkpt lat="45.17939" lon="5.55327">
        <ele>1059</ele>
      </trkpt>
      <trkpt lat="45.17954" lon="5.55358">
        <ele>1059</ele>
      </trkpt>
      <trkpt lat="45.17997" lon="5.55421">
        <ele>1063</ele>
      </trkpt>
      <trkpt lat="45.18013" lon="5.55448">
        <ele>1063</ele>
      </trkpt>
      <trkpt lat="45.18085" lon="5.55587">
        <ele>1062</ele>
      </trkpt>
      <trkpt lat="45.18125" lon="5.55681">
        <ele>1066</ele>
      </trkpt>
      <trkpt lat="45.18159" lon="5.55734">
        <ele>1067</ele>
      </trkpt>
      <trkpt lat="45.18187" lon="5.55762">
        <ele>1069</ele>
      </trkpt>
      <trkpt lat="45.18257" lon="5.55816">
        <ele>1072</ele>
      </trkpt>
      <trkpt lat="45.18349" lon="5.5587">
        <ele>1072</ele>
      </trkpt>
      <trkpt lat="45.18375" lon="5.5589">
        <ele>1073</ele>
      </trkpt>
      <trkpt lat="45.18417" lon="5.55952">
        <ele>1075</ele>
      </trkpt>
      <trkpt lat="45.18459" lon="5.56003">
        <ele>1077</ele>
      </trkpt>
      <trkpt lat="45.18504" lon="5.56064">
        <ele>1078</ele>
      </trkpt>
      <trkpt lat="45.18528" lon="5.56112">
        <ele>1080</ele>
      </trkpt>
      <trkpt lat="45.18543" lon="5.56131">
        <ele>1081</ele>
      </trkpt>
      <trkpt lat="45.18618" lon="5.56193">
        <ele>1083</ele>
      </trkpt>
      <trkpt lat="45.18648" lon="5.562">
        <ele>1082</ele>
      </trkpt>
      <trkpt lat="45.18739" lon="5.56207">
        <ele>1083</ele>
      </trkpt>
      <trkpt lat="45.18768" lon="5.56215">
        <ele>1084</ele>
      </trkpt>
      <trkpt lat="45.18788" lon="5.56228">
        <ele>1083</ele>
      </trkpt>
      <trkpt lat="45.18811" lon="5.56247">
        <ele>1081</ele>
      </trkpt>
      <trkpt lat="45.18876" lon="5.56314">
        <ele>1080</ele>
      </trkpt>
      <trkpt lat="45.189" lon="5.5633">
        <ele>1078</ele>
      </trkpt>
      <trkpt lat="45.18917" lon="5.56334">
        <ele>1077</ele>
      </trkpt>
      <trkpt lat="45.1899" lon="5.5634">
        <ele>1088</ele>
      </trkpt>
      <trkpt lat="45.19019" lon="5.56356">
        <ele>1091</ele>
      </trkpt>
      <trkpt lat="45.19083" lon="5.56412">
        <ele>1091</ele>
      </trkpt>
      <trkpt lat="45.19109" lon="5.56432">
        <ele>1093</ele>
      </trkpt>
      <trkpt lat="45.19226" lon="5.56502">
        <ele>1094</ele>
      </trkpt>
      <trkpt lat="45.19318" lon="5.56567">
        <ele>1095</ele>
      </trkpt>
      <trkpt lat="45.19421" lon="5.56648">
        <ele>1097</ele>
      </trkpt>
      <trkpt lat="45.19504" lon="5.56718">
        <ele>1098</ele>
      </trkpt>
      <trkpt lat="45.1953" lon="5.56743">
        <ele>1095</ele>
      </trkpt>
      <trkpt lat="45.19585" lon="5.56809">
        <ele>1100</ele>
      </trkpt>
      <trkpt lat="45.19623" lon="5.56841">
        <ele>1102</ele>
      </trkpt>
      <trkpt lat="45.19643" lon="5.56852">
        <ele>1103</ele>
      </trkpt>
      <trkpt lat="45.19681" lon="5.56866">
        <ele>1103</ele>
      </trkpt>
      <trkpt lat="45.19698" lon="5.56871">
        <ele>1102</ele>
      </trkpt>
      <trkpt lat="45.19764" lon="5.56881">
        <ele>1102</ele>
      </trkpt>
      <trkpt lat="45.19794" lon="5.5689">
        <ele>1103</ele>
      </trkpt>
      <trkpt lat="45.19974" lon="5.56979">
        <ele>1110</ele>
      </trkpt>
      <trkpt lat="45.20045" lon="5.57008">
        <ele>1112</ele>
      </trkpt>
      <trkpt lat="45.20066" lon="5.5702">
        <ele>1112</ele>
      </trkpt>
      <trkpt lat="45.20118" lon="5.5706">
        <ele>1116</ele>
      </trkpt>
    </trkseg>
  </trk>
  <trk>
    <name><![CDATA[Tour du Vercors en vélo_3]]></name>
    <trkseg>
      <trkpt lat="44.9365" lon="5.43154">
        <ele>803</ele>
        <time>2019-07-11T19:32:08Z</time>
      </trkpt>
      <trkpt lat="44.9365" lon="5.43154">
        <ele>803</ele>
        <time>2019-07-11T19:32:08Z</time>
      </trkpt>
      <trkpt lat="44.9365" lon="5.43154">
        <ele>803</ele>
        <time>2019-07-11T19:32:08Z</time>
      </trkpt>
      <trkpt lat="44.93645" lon="5.4313">
        <ele>803</ele>
        <time>2019-07-11T19:32:11Z</time>
      </trkpt>
      <trkpt lat="44.93634" lon="5.43105">
        <ele>802</ele>
        <time>2019-07-11T19:32:15Z</time>
      </trkpt>
      <trkpt lat="44.93628" lon="5.43077">
        <ele>802</ele>
        <time>2019-07-11T19:32:20Z</time>
      </trkpt>
      <trkpt lat="44.93637" lon="5.43037">
        <ele>803.4</ele>
        <time>2019-07-11T15:17:24Z</time>
      </trkpt>
      <trkpt lat="44.93882" lon="5.43061">
        <ele>812.6</ele>
        <time>2019-07-11T15:17:33Z</time>
      </trkpt>
      <trkpt lat="44.94082" lon="5.43042">
        <ele>817.3</ele>
        <time>2019-07-11T15:18:36Z</time>
      </trkpt>
      <trkpt lat="44.94292" lon="5.42966">
        <ele>820.7</ele>
        <time>2019-07-11T15:18:45Z</time>
      </trkpt>
      <trkpt lat="44.94403" lon="5.42908">
        <ele>827.7</ele>
        <time>2019-07-11T15:18:50Z</time>
      </trkpt>
      <trkpt lat="44.94625" lon="5.4292">
        <ele>830.3</ele>
        <time>2019-07-11T15:18:53Z</time>
      </trkpt>
      <trkpt lat="44.94901" lon="5.42941">
        <ele>846.3</ele>
        <time>2019-07-11T15:19:12Z</time>
      </trkpt>
      <trkpt lat="44.94952" lon="5.42948">
        <ele>848.9</ele>
        <time>2019-07-11T15:19:18Z</time>
      </trkpt>
      <trkpt lat="44.95027" lon="5.42973">
        <ele>851.2</ele>
        <time>2019-07-11T15:19:21Z</time>
      </trkpt>
      <trkpt lat="44.95084" lon="5.42964">
        <ele>853.9</ele>
        <time>2019-07-11T15:19:25Z</time>
      </trkpt>
      <trkpt lat="44.95148" lon="5.4291">
        <ele>860.3</ele>
        <time>2019-07-11T15:19:31Z</time>
      </trkpt>
      <trkpt lat="44.95195" lon="5.42875">
        <ele>863.1</ele>
        <time>2019-07-11T15:19:43Z</time>
      </trkpt>
      <trkpt lat="44.95272" lon="5.42851">
        <ele>865.7</ele>
        <time>2019-07-11T15:20:00Z</time>
      </trkpt>
      <trkpt lat="44.95392" lon="5.42648">
        <ele>876.9</ele>
        <time>2019-07-11T15:20:12Z</time>
      </trkpt>
      <trkpt lat="44.955" lon="5.42565">
        <ele>881.6</ele>
        <time>2019-07-11T15:20:18Z</time>
      </trkpt>
      <trkpt lat="44.95613" lon="5.42507">
        <ele>877.4</ele>
        <time>2019-07-11T15:20:23Z</time>
      </trkpt>
      <trkpt lat="44.95662" lon="5.42458">
        <ele>875.7</ele>
        <time>2019-07-11T15:20:33Z</time>
      </trkpt>
      <trkpt lat="44.95706" lon="5.42385">
        <ele>870.8</ele>
        <time>2019-07-11T15:20:38Z</time>
      </trkpt>
      <trkpt lat="44.9602" lon="5.42207">
        <ele>869.6</ele>
        <time>2019-07-11T15:20:43Z</time>
      </trkpt>
      <trkpt lat="44.96042" lon="5.42169">
        <ele>870</ele>
        <time>2019-07-11T15:20:48Z</time>
      </trkpt>
      <trkpt lat="44.96052" lon="5.42091">
        <ele>870.4</ele>
        <time>2019-07-11T15:20:54Z</time>
      </trkpt>
      <trkpt lat="44.9609" lon="5.42054">
        <ele>875.2</ele>
        <time>2019-07-11T15:20:59Z</time>
      </trkpt>
      <trkpt lat="44.96226" lon="5.41996">
        <ele>878.4</ele>
        <time>2019-07-11T15:21:04Z</time>
      </trkpt>
      <trkpt lat="44.96288" lon="5.4199">
        <ele>885.7</ele>
        <time>2019-07-11T15:21:09Z</time>
      </trkpt>
      <trkpt lat="44.9637" lon="5.4193">
        <ele>893.5</ele>
        <time>2019-07-11T15:21:18Z</time>
      </trkpt>
      <trkpt lat="44.96453" lon="5.41908">
        <ele>892</ele>
        <time>2019-07-11T15:21:27Z</time>
      </trkpt>
      <trkpt lat="44.96617" lon="5.41895">
        <ele>892.5</ele>
        <time>2019-07-11T15:21:37Z</time>
      </trkpt>
      <trkpt lat="44.96649" lon="5.41874">
        <ele>892.4</ele>
        <time>2019-07-11T15:21:43Z</time>
      </trkpt>
      <trkpt lat="44.96683" lon="5.418">
        <ele>894.5</ele>
        <time>2019-07-11T15:22:00Z</time>
      </trkpt>
      <trkpt lat="44.96739" lon="5.41559">
        <ele>885.2</ele>
        <time>2019-07-11T15:22:05Z</time>
      </trkpt>
      <trkpt lat="44.96568" lon="5.41458">
        <ele>880.7</ele>
        <time>2019-07-11T15:22:20Z</time>
      </trkpt>
      <trkpt lat="44.96513" lon="5.41388">
        <ele>878.9</ele>
        <time>2019-07-11T15:22:23Z</time>
      </trkpt>
      <trkpt lat="44.96498" lon="5.41249">
        <ele>875.2</ele>
        <time>2019-07-11T15:22:25Z</time>
      </trkpt>
      <trkpt lat="44.96392" lon="5.41158">
        <ele>875</ele>
        <time>2019-07-11T15:22:27Z</time>
      </trkpt>
      <trkpt lat="44.96302" lon="5.41057">
        <ele>870</ele>
        <time>2019-07-11T15:22:34Z</time>
      </trkpt>
      <trkpt lat="44.96218" lon="5.40998">
        <ele>864.5</ele>
        <time>2019-07-11T15:22:38Z</time>
      </trkpt>
      <trkpt lat="44.9611" lon="5.40932">
        <ele>861.1</ele>
        <time>2019-07-11T15:22:46Z</time>
      </trkpt>
      <trkpt lat="44.95965" lon="5.40891">
        <ele>858.2</ele>
        <time>2019-07-11T15:23:01Z</time>
      </trkpt>
      <trkpt lat="44.95798" lon="5.40681">
        <ele>867</ele>
        <time>2019-07-11T15:23:07Z</time>
      </trkpt>
      <trkpt lat="44.95753" lon="5.40637">
        <ele>864.9</ele>
        <time>2019-07-11T15:23:16Z</time>
      </trkpt>
      <trkpt lat="44.95622" lon="5.40588">
        <ele>874.4</ele>
        <time>2019-07-11T15:23:26Z</time>
      </trkpt>
      <trkpt lat="44.95556" lon="5.40514">
        <ele>871.2</ele>
        <time>2019-07-11T15:23:36Z</time>
      </trkpt>
      <trkpt lat="44.95507" lon="5.40457">
        <ele>867.2</ele>
        <time>2019-07-11T15:23:47Z</time>
      </trkpt>
      <trkpt lat="44.95416" lon="5.4039">
        <ele>881.7</ele>
        <time>2019-07-11T15:23:52Z</time>
      </trkpt>
      <trkpt lat="44.95353" lon="5.40284">
        <ele>878.8</ele>
        <time>2019-07-11T15:24:03Z</time>
      </trkpt>
      <trkpt lat="44.9525" lon="5.40166">
        <ele>882.7</ele>
        <time>2019-07-11T15:24:08Z</time>
      </trkpt>
      <trkpt lat="44.95196" lon="5.40139">
        <ele>884.7</ele>
        <time>2019-07-11T15:24:21Z</time>
      </trkpt>
      <trkpt lat="44.95151" lon="5.40087">
        <ele>890.1</ele>
        <time>2019-07-11T15:24:30Z</time>
      </trkpt>
      <trkpt lat="44.95116" lon="5.40028">
        <ele>886.7</ele>
        <time>2019-07-11T15:24:36Z</time>
      </trkpt>
      <trkpt lat="44.95036" lon="5.40008">
        <ele>899.7</ele>
        <time>2019-07-11T15:24:48Z</time>
      </trkpt>
      <trkpt lat="44.95003" lon="5.39947">
        <ele>898.2</ele>
        <time>2019-07-11T15:24:57Z</time>
      </trkpt>
      <trkpt lat="44.95001" lon="5.39892">
        <ele>901.6</ele>
        <time>2019-07-11T15:25:16Z</time>
      </trkpt>
      <trkpt lat="44.95064" lon="5.39831">
        <ele>903.3</ele>
        <time>2019-07-11T15:25:45Z</time>
      </trkpt>
      <trkpt lat="44.95051" lon="5.39796">
        <ele>906.1</ele>
        <time>2019-07-11T15:26:03Z</time>
      </trkpt>
      <trkpt lat="44.95006" lon="5.39806">
        <ele>907.3</ele>
        <time>2019-07-11T15:26:17Z</time>
      </trkpt>
      <trkpt lat="44.94959" lon="5.39809">
        <ele>914.5</ele>
        <time>2019-07-11T15:26:24Z</time>
      </trkpt>
      <trkpt lat="44.94901" lon="5.39747">
        <ele>921.6</ele>
        <time>2019-07-11T15:26:28Z</time>
      </trkpt>
      <trkpt lat="44.94896" lon="5.39713">
        <ele>924.6</ele>
        <time>2019-07-11T15:26:32Z</time>
      </trkpt>
      <trkpt lat="44.94929" lon="5.39631">
        <ele>921.9</ele>
        <time>2019-07-11T15:26:36Z</time>
      </trkpt>
      <trkpt lat="44.94919" lon="5.39604">
        <ele>924.4</ele>
        <time>2019-07-11T15:26:41Z</time>
      </trkpt>
      <trkpt lat="44.94901" lon="5.39621">
        <ele>928.1</ele>
        <time>2019-07-11T15:26:46Z</time>
      </trkpt>
      <trkpt lat="44.94729" lon="5.39547">
        <ele>941.4</ele>
        <time>2019-07-11T15:26:51Z</time>
      </trkpt>
      <trkpt lat="44.94682" lon="5.39335">
        <ele>945.9</ele>
        <time>2019-07-11T15:26:58Z</time>
      </trkpt>
      <trkpt lat="44.94625" lon="5.39241">
        <ele>953.3</ele>
        <time>2019-07-11T15:27:02Z</time>
      </trkpt>
      <trkpt lat="44.94551" lon="5.39206">
        <ele>952.3</ele>
        <time>2019-07-11T15:27:09Z</time>
      </trkpt>
      <trkpt lat="44.94534" lon="5.39129">
        <ele>960.2</ele>
        <time>2019-07-11T15:27:15Z</time>
      </trkpt>
      <trkpt lat="44.94576" lon="5.39032">
        <ele>971.4</ele>
        <time>2019-07-11T15:27:19Z</time>
      </trkpt>
      <trkpt lat="44.94497" lon="5.39">
        <ele>976.2</ele>
        <time>2019-07-11T15:27:23Z</time>
      </trkpt>
      <trkpt lat="44.94413" lon="5.38973">
        <ele>991.2</ele>
        <time>2019-07-11T15:27:37Z</time>
      </trkpt>
      <trkpt lat="44.94317" lon="5.38987">
        <ele>998.4</ele>
        <time>2019-07-11T15:27:40Z</time>
      </trkpt>
      <trkpt lat="44.94216" lon="5.38955">
        <ele>1008.5</ele>
        <time>2019-07-11T15:27:46Z</time>
      </trkpt>
      <trkpt lat="44.94186" lon="5.39119">
        <ele>998.1</ele>
        <time>2019-07-11T15:27:50Z</time>
      </trkpt>
      <trkpt lat="44.94144" lon="5.39126">
        <ele>1005.4</ele>
        <time>2019-07-11T15:27:57Z</time>
      </trkpt>
      <trkpt lat="44.9407" lon="5.3906">
        <ele>1015.4</ele>
        <time>2019-07-11T15:28:11Z</time>
      </trkpt>
      <trkpt lat="44.94004" lon="5.39">
        <ele>1018.8</ele>
        <time>2019-07-11T15:28:15Z</time>
      </trkpt>
      <trkpt lat="44.94026" lon="5.38812">
        <ele>1026.8</ele>
        <time>2019-07-11T15:28:21Z</time>
      </trkpt>
      <trkpt lat="44.93999" lon="5.38624">
        <ele>1033.8</ele>
        <time>2019-07-11T15:28:26Z</time>
      </trkpt>
      <trkpt lat="44.9386" lon="5.38471">
        <ele>1048</ele>
        <time>2019-07-11T15:28:38Z</time>
      </trkpt>
      <trkpt lat="44.93823" lon="5.38422">
        <ele>1049.3</ele>
        <time>2019-07-11T15:28:43Z</time>
      </trkpt>
      <trkpt lat="44.93688" lon="5.38394">
        <ele>1052.2</ele>
        <time>2019-07-11T15:29:00Z</time>
      </trkpt>
      <trkpt lat="44.93643" lon="5.38307">
        <ele>1062.7</ele>
        <time>2019-07-11T15:29:18Z</time>
      </trkpt>
      <trkpt lat="44.93582" lon="5.38352">
        <ele>1065.1</ele>
        <time>2019-07-11T15:29:24Z</time>
      </trkpt>
      <trkpt lat="44.9353" lon="5.38429">
        <ele>1060.9</ele>
        <time>2019-07-11T15:29:35Z</time>
      </trkpt>
      <trkpt lat="44.93384" lon="5.38418">
        <ele>1067.9</ele>
        <time>2019-07-11T15:29:51Z</time>
      </trkpt>
      <trkpt lat="44.93231" lon="5.38397">
        <ele>1079.5</ele>
        <time>2019-07-11T15:29:59Z</time>
      </trkpt>
      <trkpt lat="44.93179" lon="5.38404">
        <ele>1082.1</ele>
        <time>2019-07-11T15:30:07Z</time>
      </trkpt>
      <trkpt lat="44.93073" lon="5.38446">
        <ele>1091.6</ele>
        <time>2019-07-11T15:30:11Z</time>
      </trkpt>
      <trkpt lat="44.92888" lon="5.38366">
        <ele>1099.4</ele>
        <time>2019-07-11T15:30:14Z</time>
      </trkpt>
      <trkpt lat="44.92784" lon="5.38241">
        <ele>1098.2</ele>
        <time>2019-07-11T15:30:19Z</time>
      </trkpt>
      <trkpt lat="44.92787" lon="5.38024">
        <ele>1101.8</ele>
        <time>2019-07-11T15:30:22Z</time>
      </trkpt>
      <trkpt lat="44.92666" lon="5.37948">
        <ele>1093.5</ele>
        <time>2019-07-11T15:30:24Z</time>
      </trkpt>
      <trkpt lat="44.92599" lon="5.37875">
        <ele>1104.6</ele>
        <time>2019-07-11T15:30:28Z</time>
      </trkpt>
      <trkpt lat="44.9255" lon="5.3784">
        <ele>1098.2</ele>
        <time>2019-07-11T15:30:37Z</time>
      </trkpt>
      <trkpt lat="44.92348" lon="5.37993">
        <ele>1092.7</ele>
        <time>2019-07-11T15:30:46Z</time>
      </trkpt>
      <trkpt lat="44.92274" lon="5.37979">
        <ele>1088.4</ele>
        <time>2019-07-11T15:30:50Z</time>
      </trkpt>
      <trkpt lat="44.92138" lon="5.37808">
        <ele>1083.8</ele>
        <time>2019-07-11T15:30:59Z</time>
      </trkpt>
      <trkpt lat="44.92081" lon="5.37721">
        <ele>1085.8</ele>
        <time>2019-07-11T15:31:04Z</time>
      </trkpt>
      <trkpt lat="44.91906" lon="5.37746">
        <ele>1081.9</ele>
        <time>2019-07-11T15:31:15Z</time>
      </trkpt>
      <trkpt lat="44.91768" lon="5.3776">
        <ele>1076</ele>
        <time>2019-07-11T15:31:41Z</time>
      </trkpt>
      <trkpt lat="44.91459" lon="5.37658">
        <ele>1064</ele>
        <time>2019-07-11T15:31:46Z</time>
      </trkpt>
      <trkpt lat="44.91234" lon="5.37585">
        <ele>1052.1</ele>
        <time>2019-07-11T15:31:51Z</time>
      </trkpt>
      <trkpt lat="44.91166" lon="5.37556">
        <ele>1051.4</ele>
        <time>2019-07-11T15:31:55Z</time>
      </trkpt>
      <trkpt lat="44.91097" lon="5.37511">
        <ele>1051.9</ele>
        <time>2019-07-11T15:32:00Z</time>
      </trkpt>
      <trkpt lat="44.90964" lon="5.37409">
        <ele>1048.3</ele>
        <time>2019-07-11T15:32:05Z</time>
      </trkpt>
      <trkpt lat="44.9093" lon="5.37372">
        <ele>1048.7</ele>
        <time>2019-07-11T15:32:08Z</time>
      </trkpt>
      <trkpt lat="44.90895" lon="5.3734">
        <ele>1048.3</ele>
        <time>2019-07-11T15:32:18Z</time>
      </trkpt>
      <trkpt lat="44.9083" lon="5.37341">
        <ele>1048.5</ele>
        <time>2019-07-11T15:32:22Z</time>
      </trkpt>
      <trkpt lat="44.90789" lon="5.37379">
        <ele>1047.5</ele>
        <time>2019-07-11T15:32:25Z</time>
      </trkpt>
      <trkpt lat="44.90751" lon="5.37397">
        <ele>1047.8</ele>
        <time>2019-07-11T15:32:28Z</time>
      </trkpt>
      <trkpt lat="44.90565" lon="5.37279">
        <ele>1055.7</ele>
        <time>2019-07-11T15:32:35Z</time>
      </trkpt>
      <trkpt lat="44.90471" lon="5.37222">
        <ele>1060.1</ele>
        <time>2019-07-11T15:32:40Z</time>
      </trkpt>
      <trkpt lat="44.90427" lon="5.37192">
        <ele>1061</ele>
        <time>2019-07-11T15:32:44Z</time>
      </trkpt>
      <trkpt lat="44.90381" lon="5.37177">
        <ele>1061.3</ele>
        <time>2019-07-11T15:32:56Z</time>
      </trkpt>
      <trkpt lat="44.90365" lon="5.37174">
        <ele>1061.5</ele>
        <time>2019-07-11T15:33:05Z</time>
      </trkpt>
      <trkpt lat="44.9036" lon="5.37169">
        <ele>1063</ele>
        <time>2019-07-11T15:33:28Z</time>
      </trkpt>
      <trkpt lat="44.90366" lon="5.37147">
        <ele>1064</ele>
        <time>2019-07-11T15:33:36Z</time>
      </trkpt>
      <trkpt lat="44.90398" lon="5.371">
        <ele>1067</ele>
        <time>2019-07-11T15:42:57Z</time>
      </trkpt>
      <trkpt lat="44.9065" lon="5.36749">
        <ele>1100</ele>
        <time>2019-07-11T15:42:57Z</time>
      </trkpt>
      <trkpt lat="44.9069" lon="5.36701">
        <ele>1108</ele>
        <time>2019-07-11T15:43:02Z</time>
      </trkpt>
      <trkpt lat="44.90714" lon="5.36685">
        <ele>1112</ele>
        <time>2019-07-11T15:43:04Z</time>
      </trkpt>
      <trkpt lat="44.90733" lon="5.36685">
        <ele>1113</ele>
        <time>2019-07-11T15:43:06Z</time>
      </trkpt>
      <trkpt lat="44.9082" lon="5.36774">
        <ele>1114</ele>
        <time>2019-07-11T15:43:11Z</time>
      </trkpt>
      <trkpt lat="44.90843" lon="5.36801">
        <ele>1114</ele>
        <time>2019-07-11T15:43:21Z</time>
      </trkpt>
      <trkpt lat="44.90861" lon="5.36818">
        <ele>1115</ele>
        <time>2019-07-11T15:43:26Z</time>
      </trkpt>
      <trkpt lat="44.90882" lon="5.36826">
        <ele>1117</ele>
        <time>2019-07-11T15:43:52Z</time>
      </trkpt>
      <trkpt lat="44.90914" lon="5.36824">
        <ele>1124</ele>
        <time>2019-07-11T15:43:59Z</time>
      </trkpt>
      <trkpt lat="44.90982" lon="5.36835">
        <ele>1129</ele>
        <time>2019-07-11T15:44:06Z</time>
      </trkpt>
      <trkpt lat="44.91073" lon="5.36879">
        <ele>1136</ele>
        <time>2019-07-11T15:44:10Z</time>
      </trkpt>
      <trkpt lat="44.91138" lon="5.36888">
        <ele>1146</ele>
        <time>2019-07-11T15:44:13Z</time>
      </trkpt>
      <trkpt lat="44.91169" lon="5.36901">
        <ele>1149</ele>
        <time>2019-07-11T15:44:18Z</time>
      </trkpt>
      <trkpt lat="44.91196" lon="5.36921">
        <ele>1153</ele>
        <time>2019-07-11T15:44:23Z</time>
      </trkpt>
      <trkpt lat="44.9123" lon="5.36981">
        <ele>1152</ele>
        <time>2019-07-11T15:44:31Z</time>
      </trkpt>
      <trkpt lat="44.91257" lon="5.37002">
        <ele>1155</ele>
        <time>2019-07-11T15:44:34Z</time>
      </trkpt>
      <trkpt lat="44.91284" lon="5.37011">
        <ele>1157</ele>
        <time>2019-07-11T15:44:40Z</time>
      </trkpt>
      <trkpt lat="44.91312" lon="5.37002">
        <ele>1162</ele>
        <time>2019-07-11T15:44:42Z</time>
      </trkpt>
      <trkpt lat="44.91344" lon="5.36985">
        <ele>1172</ele>
        <time>2019-07-11T15:44:45Z</time>
      </trkpt>
      <trkpt lat="44.91372" lon="5.36978">
        <ele>1179</ele>
        <time>2019-07-11T15:44:54Z</time>
      </trkpt>
      <trkpt lat="44.91397" lon="5.36977">
        <ele>1184</ele>
        <time>2019-07-11T15:44:56Z</time>
      </trkpt>
      <trkpt lat="44.91426" lon="5.36992">
        <ele>1185</ele>
        <time>2019-07-11T15:44:59Z</time>
      </trkpt>
      <trkpt lat="44.91467" lon="5.37027">
        <ele>1187</ele>
        <time>2019-07-11T15:45:03Z</time>
      </trkpt>
      <trkpt lat="44.9151" lon="5.37068">
        <ele>1186</ele>
        <time>2019-07-11T15:45:18Z</time>
      </trkpt>
      <trkpt lat="44.91562" lon="5.37102">
        <ele>1188</ele>
        <time>2019-07-11T15:45:27Z</time>
      </trkpt>
      <trkpt lat="44.91595" lon="5.37112">
        <ele>1192</ele>
        <time>2019-07-11T15:45:29Z</time>
      </trkpt>
      <trkpt lat="44.91686" lon="5.37131">
        <ele>1202</ele>
        <time>2019-07-11T15:45:32Z</time>
      </trkpt>
      <trkpt lat="44.91716" lon="5.37143">
        <ele>1201</ele>
        <time>2019-07-11T15:45:39Z</time>
      </trkpt>
      <trkpt lat="44.91798" lon="5.37163">
        <ele>1201</ele>
        <time>2019-07-11T15:45:42Z</time>
      </trkpt>
      <trkpt lat="44.91813" lon="5.37161">
        <ele>1204</ele>
        <time>2019-07-11T15:45:47Z</time>
      </trkpt>
      <trkpt lat="44.91817" lon="5.37148">
        <ele>1210</ele>
        <time>2019-07-11T15:45:49Z</time>
      </trkpt>
      <trkpt lat="44.91807" lon="5.37138">
        <ele>1214</ele>
        <time>2019-07-11T15:45:52Z</time>
      </trkpt>
      <trkpt lat="44.91768" lon="5.37137">
        <ele>1211</ele>
        <time>2019-07-11T15:45:54Z</time>
      </trkpt>
      <trkpt lat="44.91745" lon="5.3713">
        <ele>1212</ele>
        <time>2019-07-11T15:45:56Z</time>
      </trkpt>
      <trkpt lat="44.91702" lon="5.37099">
        <ele>1218</ele>
        <time>2019-07-11T15:45:59Z</time>
      </trkpt>
      <trkpt lat="44.91626" lon="5.37049">
        <ele>1224</ele>
        <time>2019-07-11T15:46:02Z</time>
      </trkpt>
      <trkpt lat="44.91601" lon="5.37027">
        <ele>1227</ele>
        <time>2019-07-11T15:46:06Z</time>
      </trkpt>
      <trkpt lat="44.91557" lon="5.3698">
        <ele>1232</ele>
        <time>2019-07-11T15:46:09Z</time>
      </trkpt>
      <trkpt lat="44.91519" lon="5.36924">
        <ele>1241</ele>
        <time>2019-07-11T15:46:11Z</time>
      </trkpt>
      <trkpt lat="44.91474" lon="5.36877">
        <ele>1244</ele>
        <time>2019-07-11T15:46:14Z</time>
      </trkpt>
      <trkpt lat="44.91428" lon="5.36826">
        <ele>1245</ele>
        <time>2019-07-11T15:46:16Z</time>
      </trkpt>
      <trkpt lat="44.91406" lon="5.36797">
        <ele>1249</ele>
        <time>2019-07-11T15:46:34Z</time>
      </trkpt>
      <trkpt lat="44.91363" lon="5.36735">
        <ele>1259</ele>
        <time>2019-07-11T15:46:52Z</time>
      </trkpt>
      <trkpt lat="44.91338" lon="5.36709">
        <ele>1260</ele>
        <time>2019-07-11T15:46:58Z</time>
      </trkpt>
      <trkpt lat="44.91281" lon="5.36653">
        <ele>1264</ele>
        <time>2019-07-11T15:47:01Z</time>
      </trkpt>
      <trkpt lat="44.91233" lon="5.36617">
        <ele>1266</ele>
        <time>2019-07-11T15:47:04Z</time>
      </trkpt>
      <trkpt lat="44.91208" lon="5.36585">
        <ele>1272</ele>
        <time>2019-07-11T15:47:10Z</time>
      </trkpt>
      <trkpt lat="44.91152" lon="5.36543">
        <ele>1271</ele>
        <time>2019-07-11T15:47:18Z</time>
      </trkpt>
      <trkpt lat="44.91116" lon="5.36493">
        <ele>1283</ele>
        <time>2019-07-11T15:47:21Z</time>
      </trkpt>
      <trkpt lat="44.91023" lon="5.36413">
        <ele>1290</ele>
        <time>2019-07-11T15:47:24Z</time>
      </trkpt>
      <trkpt lat="44.9088" lon="5.36307">
        <ele>1296</ele>
        <time>2019-07-11T15:47:27Z</time>
      </trkpt>
      <trkpt lat="44.90799" lon="5.36216">
        <ele>1302</ele>
        <time>2019-07-11T15:47:44Z</time>
      </trkpt>
      <trkpt lat="44.90761" lon="5.36117">
        <ele>1317</ele>
        <time>2019-07-11T15:48:00Z</time>
      </trkpt>
      <trkpt lat="44.90735" lon="5.36078">
        <ele>1316</ele>
        <time>2019-07-11T15:48:03Z</time>
      </trkpt>
      <trkpt lat="44.90724" lon="5.36051">
        <ele>1316</ele>
        <time>2019-07-11T15:48:08Z</time>
      </trkpt>
      <trkpt lat="44.90721" lon="5.3602">
        <ele>1320</ele>
        <time>2019-07-11T15:48:17Z</time>
      </trkpt>
      <trkpt lat="44.90726" lon="5.35985">
        <ele>1327</ele>
        <time>2019-07-11T15:48:18Z</time>
      </trkpt>
      <trkpt lat="44.90735" lon="5.35948">
        <ele>1331</ele>
        <time>2019-07-11T15:48:21Z</time>
      </trkpt>
      <trkpt lat="44.90732" lon="5.35912">
        <ele>1333</ele>
        <time>2019-07-11T15:48:38Z</time>
      </trkpt>
      <trkpt lat="44.90733" lon="5.35874">
        <ele>1336</ele>
        <time>2019-07-11T15:48:44Z</time>
      </trkpt>
      <trkpt lat="44.90746" lon="5.35823">
        <ele>1340</ele>
        <time>2019-07-11T15:48:50Z</time>
      </trkpt>
      <trkpt lat="44.90743" lon="5.35792">
        <ele>1342</ele>
        <time>2019-07-11T15:48:55Z</time>
      </trkpt>
      <trkpt lat="44.90724" lon="5.35737">
        <ele>1344</ele>
        <time>2019-07-11T15:48:58Z</time>
      </trkpt>
      <trkpt lat="44.90724" lon="5.3569">
        <ele>1346</ele>
        <time>2019-07-11T15:49:01Z</time>
      </trkpt>
      <trkpt lat="44.90731" lon="5.35661">
        <ele>1347</ele>
        <time>2019-07-11T15:49:11Z</time>
      </trkpt>
      <trkpt lat="44.90744" lon="5.35632">
        <ele>1347</ele>
        <time>2019-07-11T15:49:14Z</time>
      </trkpt>
      <trkpt lat="44.90811" lon="5.35575">
        <ele>1357</ele>
        <time>2019-07-11T15:49:16Z</time>
      </trkpt>
      <trkpt lat="44.90828" lon="5.35574">
        <ele>1360</ele>
        <time>2019-07-11T15:49:23Z</time>
      </trkpt>
      <trkpt lat="44.90859" lon="5.35579">
        <ele>1365</ele>
        <time>2019-07-11T15:49:27Z</time>
      </trkpt>
      <trkpt lat="44.90884" lon="5.35571">
        <ele>1368</ele>
        <time>2019-07-11T15:49:30Z</time>
      </trkpt>
      <trkpt lat="44.9092" lon="5.35555">
        <ele>1371</ele>
        <time>2019-07-11T15:49:37Z</time>
      </trkpt>
      <trkpt lat="44.90995" lon="5.35532">
        <ele>1375</ele>
        <time>2019-07-11T15:49:46Z</time>
      </trkpt>
      <trkpt lat="44.91013" lon="5.35505">
        <ele>1373</ele>
        <time>2019-07-11T15:49:59Z</time>
      </trkpt>
      <trkpt lat="44.91024" lon="5.35463">
        <ele>1372</ele>
        <time>2019-07-11T15:50:01Z</time>
      </trkpt>
      <trkpt lat="44.91023" lon="5.35422">
        <ele>1370</ele>
        <time>2019-07-11T15:50:03Z</time>
      </trkpt>
      <trkpt lat="44.91004" lon="5.35337">
        <ele>1370</ele>
        <time>2019-07-11T15:50:29Z</time>
      </trkpt>
      <trkpt lat="44.91" lon="5.35294">
        <ele>1370</ele>
        <time>2019-07-11T15:50:33Z</time>
      </trkpt>
      <trkpt lat="44.91009" lon="5.3516">
        <ele>1374</ele>
        <time>2019-07-11T15:50:37Z</time>
      </trkpt>
      <trkpt lat="44.9099" lon="5.35019">
        <ele>1374</ele>
        <time>2019-07-11T15:50:46Z</time>
      </trkpt>
      <trkpt lat="44.9099" lon="5.34975">
        <ele>1377</ele>
        <time>2019-07-11T15:50:49Z</time>
      </trkpt>
      <trkpt lat="44.90998" lon="5.34885">
        <ele>1384</ele>
        <time>2019-07-11T15:50:52Z</time>
      </trkpt>
      <trkpt lat="44.90977" lon="5.34764">
        <ele>1389</ele>
        <time>2019-07-11T15:50:57Z</time>
      </trkpt>
      <trkpt lat="44.90972" lon="5.34695">
        <ele>1393</ele>
        <time>2019-07-11T15:51:11Z</time>
      </trkpt>
      <trkpt lat="44.9096" lon="5.34641">
        <ele>1398</ele>
        <time>2019-07-11T15:51:20Z</time>
      </trkpt>
      <trkpt lat="44.9094" lon="5.34622">
        <ele>1399</ele>
        <time>2019-07-11T15:51:23Z</time>
      </trkpt>
      <trkpt lat="44.90923" lon="5.34624">
        <ele>1398</ele>
        <time>2019-07-11T15:51:37Z</time>
      </trkpt>
      <trkpt lat="44.90897" lon="5.34635">
        <ele>1395</ele>
        <time>2019-07-11T15:51:43Z</time>
      </trkpt>
      <trkpt lat="44.90881" lon="5.34637">
        <ele>1395</ele>
        <time>2019-07-11T15:51:50Z</time>
      </trkpt>
      <trkpt lat="44.90865" lon="5.34633">
        <ele>1395</ele>
        <time>2019-07-11T15:51:58Z</time>
      </trkpt>
      <trkpt lat="44.90849" lon="5.34612">
        <ele>1397</ele>
        <time>2019-07-11T15:52:01Z</time>
      </trkpt>
      <trkpt lat="44.90823" lon="5.34557">
        <ele>1402</ele>
        <time>2019-07-11T15:52:06Z</time>
      </trkpt>
      <trkpt lat="44.90781" lon="5.3452">
        <ele>1402</ele>
        <time>2019-07-11T15:52:15Z</time>
      </trkpt>
      <trkpt lat="44.9077" lon="5.34489">
        <ele>1403</ele>
        <time>2019-07-11T15:52:26Z</time>
      </trkpt>
      <trkpt lat="44.90758" lon="5.34416">
        <ele>1407</ele>
        <time>2019-07-11T15:52:36Z</time>
      </trkpt>
      <trkpt lat="44.90741" lon="5.34384">
        <ele>1410</ele>
        <time>2019-07-11T15:52:39Z</time>
      </trkpt>
      <trkpt lat="44.90695" lon="5.34326">
        <ele>1413</ele>
        <time>2019-07-11T15:52:41Z</time>
      </trkpt>
      <trkpt lat="44.90566" lon="5.34241">
        <ele>1417</ele>
        <time>2019-07-11T15:52:44Z</time>
      </trkpt>
      <trkpt lat="44.9054" lon="5.34216">
        <ele>1417</ele>
        <time>2019-07-11T15:52:55Z</time>
      </trkpt>
      <trkpt lat="44.90528" lon="5.34184">
        <ele>1419</ele>
        <time>2019-07-11T15:52:57Z</time>
      </trkpt>
      <trkpt lat="44.9053" lon="5.3415">
        <ele>1420</ele>
        <time>2019-07-11T15:53:09Z</time>
      </trkpt>
      <trkpt lat="44.9054" lon="5.34115">
        <ele>1421</ele>
        <time>2019-07-11T15:53:11Z</time>
      </trkpt>
      <trkpt lat="44.90555" lon="5.34085">
        <ele>1422</ele>
        <time>2019-07-11T15:53:14Z</time>
      </trkpt>
      <trkpt lat="44.90573" lon="5.34078">
        <ele>1424</ele>
        <time>2019-07-11T15:53:25Z</time>
      </trkpt>
      <trkpt lat="44.90627" lon="5.34044">
        <ele>1430</ele>
        <time>2019-07-11T15:53:29Z</time>
      </trkpt>
      <trkpt lat="44.90638" lon="5.34015">
        <ele>1432</ele>
        <time>2019-07-11T15:53:30Z</time>
      </trkpt>
      <trkpt lat="44.90638" lon="5.33996">
        <ele>1433</ele>
        <time>2019-07-11T15:53:31Z</time>
      </trkpt>
      <trkpt lat="44.90629" lon="5.33979">
        <ele>1433</ele>
        <time>2019-07-11T15:53:32Z</time>
      </trkpt>
      <trkpt lat="44.90591" lon="5.33951">
        <ele>1430</ele>
        <time>2019-07-11T15:53:33Z</time>
      </trkpt>
      <trkpt lat="44.90572" lon="5.33921">
        <ele>1430</ele>
        <time>2019-07-11T15:53:34Z</time>
      </trkpt>
      <trkpt lat="44.90567" lon="5.3389">
        <ele>1432</ele>
        <time>2019-07-11T15:53:37Z</time>
      </trkpt>
      <trkpt lat="44.90565" lon="5.33796">
        <ele>1437</ele>
        <time>2019-07-11T15:53:40Z</time>
      </trkpt>
      <trkpt lat="44.90566" lon="5.33728">
        <ele>1438</ele>
        <time>2019-07-11T15:53:42Z</time>
      </trkpt>
      <trkpt lat="44.90586" lon="5.33544">
        <ele>1438</ele>
        <time>2019-07-11T15:53:49Z</time>
      </trkpt>
      <trkpt lat="44.90586" lon="5.33544">
        <ele>1438</ele>
        <time>2019-07-11T15:53:51Z</time>
      </trkpt>
      <trkpt lat="44.9059" lon="5.33531">
        <ele>1437</ele>
        <time>2019-07-11T15:53:53Z</time>
      </trkpt>
      <trkpt lat="44.9059" lon="5.33531">
        <ele>1437</ele>
        <time>2019-07-11T15:53:55Z</time>
      </trkpt>
      <trkpt lat="44.9061" lon="5.33505">
        <ele>1434</ele>
        <time>2019-07-11T15:53:58Z</time>
      </trkpt>
      <trkpt lat="44.90622" lon="5.33497">
        <ele>1433</ele>
        <time>2019-07-11T15:53:59Z</time>
      </trkpt>
      <trkpt lat="44.90633" lon="5.33492">
        <ele>1433</ele>
        <time>2019-07-11T15:54:02Z</time>
      </trkpt>
      <trkpt lat="44.90658" lon="5.33492">
        <ele>1432</ele>
        <time>2019-07-11T15:54:05Z</time>
      </trkpt>
      <trkpt lat="44.90717" lon="5.33497">
        <ele>1433</ele>
        <time>2019-07-11T15:54:15Z</time>
      </trkpt>
      <trkpt lat="44.90745" lon="5.3349">
        <ele>1432</ele>
        <time>2019-07-11T15:54:17Z</time>
      </trkpt>
      <trkpt lat="44.90862" lon="5.33366">
        <ele>1420</ele>
        <time>2019-07-11T15:54:19Z</time>
      </trkpt>
      <trkpt lat="44.90875" lon="5.33318">
        <ele>1418</ele>
        <time>2019-07-11T15:54:23Z</time>
      </trkpt>
      <trkpt lat="44.90897" lon="5.33272">
        <ele>1417</ele>
        <time>2019-07-11T15:54:26Z</time>
      </trkpt>
      <trkpt lat="44.90915" lon="5.33256">
        <ele>1416</ele>
        <time>2019-07-11T15:54:37Z</time>
      </trkpt>
      <trkpt lat="44.90932" lon="5.33261">
        <ele>1415</ele>
        <time>2019-07-11T15:54:45Z</time>
      </trkpt>
      <trkpt lat="44.90963" lon="5.33264">
        <ele>1414</ele>
        <time>2019-07-11T15:54:56Z</time>
      </trkpt>
      <trkpt lat="44.90986" lon="5.33251">
        <ele>1413</ele>
        <time>2019-07-11T15:55:01Z</time>
      </trkpt>
      <trkpt lat="44.91017" lon="5.332">
        <ele>1414</ele>
        <time>2019-07-11T15:55:10Z</time>
      </trkpt>
      <trkpt lat="44.91034" lon="5.33188">
        <ele>1413</ele>
        <time>2019-07-11T15:55:12Z</time>
      </trkpt>
      <trkpt lat="44.91063" lon="5.33172">
        <ele>1412</ele>
        <time>2019-07-11T15:55:22Z</time>
      </trkpt>
      <trkpt lat="44.91071" lon="5.33165">
        <ele>1411</ele>
        <time>2019-07-11T15:55:27Z</time>
      </trkpt>
      <trkpt lat="44.9108" lon="5.33146">
        <ele>1410</ele>
        <time>2019-07-11T15:55:28Z</time>
      </trkpt>
      <trkpt lat="44.91093" lon="5.33077">
        <ele>1409</ele>
        <time>2019-07-11T15:55:31Z</time>
      </trkpt>
      <trkpt lat="44.91094" lon="5.33056">
        <ele>1409</ele>
        <time>2019-07-11T15:55:34Z</time>
      </trkpt>
      <trkpt lat="44.91092" lon="5.33035">
        <ele>1410</ele>
        <time>2019-07-11T15:55:37Z</time>
      </trkpt>
      <trkpt lat="44.91085" lon="5.33006">
        <ele>1409</ele>
        <time>2019-07-11T15:55:43Z</time>
      </trkpt>
      <trkpt lat="44.91049" lon="5.32899">
        <ele>1407</ele>
        <time>2019-07-11T15:55:58Z</time>
      </trkpt>
      <trkpt lat="44.91031" lon="5.32831">
        <ele>1403</ele>
        <time>2019-07-11T15:56:07Z</time>
      </trkpt>
      <trkpt lat="44.91026" lon="5.32816">
        <ele>1403</ele>
        <time>2019-07-11T15:56:16Z</time>
      </trkpt>
      <trkpt lat="44.91015" lon="5.32796">
        <ele>1402</ele>
        <time>2019-07-11T15:56:41Z</time>
      </trkpt>
      <trkpt lat="44.90987" lon="5.32754">
        <ele>1399</ele>
        <time>2019-07-11T15:56:51Z</time>
      </trkpt>
      <trkpt lat="44.90978" lon="5.32737">
        <ele>1397</ele>
        <time>2019-07-11T15:56:58Z</time>
      </trkpt>
      <trkpt lat="44.90967" lon="5.32701">
        <ele>1393</ele>
        <time>2019-07-11T15:57:04Z</time>
      </trkpt>
      <trkpt lat="44.90963" lon="5.32682">
        <ele>1392</ele>
        <time>2019-07-11T15:57:21Z</time>
      </trkpt>
      <trkpt lat="44.90963" lon="5.32664">
        <ele>1391</ele>
        <time>2019-07-11T15:57:27Z</time>
      </trkpt>
      <trkpt lat="44.90966" lon="5.32645">
        <ele>1390</ele>
        <time>2019-07-11T15:57:37Z</time>
      </trkpt>
      <trkpt lat="44.90973" lon="5.3263">
        <ele>1390</ele>
        <time>2019-07-11T15:57:41Z</time>
      </trkpt>
      <trkpt lat="44.90984" lon="5.32613">
        <ele>1389</ele>
        <time>2019-07-11T15:57:43Z</time>
      </trkpt>
      <trkpt lat="44.90992" lon="5.32597">
        <ele>1388</ele>
        <time>2019-07-11T15:57:45Z</time>
      </trkpt>
      <trkpt lat="44.91004" lon="5.32564">
        <ele>1385</ele>
        <time>2019-07-11T15:57:47Z</time>
      </trkpt>
      <trkpt lat="44.91013" lon="5.32547">
        <ele>1383</ele>
        <time>2019-07-11T15:57:53Z</time>
      </trkpt>
      <trkpt lat="44.91022" lon="5.32536">
        <ele>1382</ele>
        <time>2019-07-11T15:57:58Z</time>
      </trkpt>
      <trkpt lat="44.91035" lon="5.32526">
        <ele>1381</ele>
        <time>2019-07-11T15:58:02Z</time>
      </trkpt>
      <trkpt lat="44.91047" lon="5.32522">
        <ele>1380</ele>
        <time>2019-07-11T15:58:16Z</time>
      </trkpt>
      <trkpt lat="44.91147" lon="5.32526">
        <ele>1377</ele>
        <time>2019-07-11T15:58:18Z</time>
      </trkpt>
      <trkpt lat="44.91249" lon="5.32526">
        <ele>1371</ele>
        <time>2019-07-11T15:58:21Z</time>
      </trkpt>
      <trkpt lat="44.91282" lon="5.32519">
        <ele>1368</ele>
        <time>2019-07-11T15:58:32Z</time>
      </trkpt>
      <trkpt lat="44.91299" lon="5.32514">
        <ele>1367</ele>
        <time>2019-07-11T15:58:34Z</time>
      </trkpt>
      <trkpt lat="44.91316" lon="5.32515">
        <ele>1366</ele>
        <time>2019-07-11T15:58:37Z</time>
      </trkpt>
      <trkpt lat="44.91348" lon="5.32527">
        <ele>1365</ele>
        <time>2019-07-11T15:59:02Z</time>
      </trkpt>
      <trkpt lat="44.91392" lon="5.3255">
        <ele>1362</ele>
        <time>2019-07-11T15:59:10Z</time>
      </trkpt>
      <trkpt lat="44.91409" lon="5.32555">
        <ele>1361</ele>
        <time>2019-07-11T15:59:15Z</time>
      </trkpt>
      <trkpt lat="44.91426" lon="5.32554">
        <ele>1359</ele>
        <time>2019-07-11T15:59:19Z</time>
      </trkpt>
      <trkpt lat="44.91441" lon="5.32551">
        <ele>1358</ele>
        <time>2019-07-11T15:59:28Z</time>
      </trkpt>
      <trkpt lat="44.91531" lon="5.32521">
        <ele>1351</ele>
        <time>2019-07-11T15:59:35Z</time>
      </trkpt>
      <trkpt lat="44.91618" lon="5.32484">
        <ele>1342</ele>
        <time>2019-07-11T15:59:40Z</time>
      </trkpt>
      <trkpt lat="44.91636" lon="5.32483">
        <ele>1341</ele>
        <time>2019-07-11T15:59:54Z</time>
      </trkpt>
      <trkpt lat="44.91662" lon="5.32496">
        <ele>1341</ele>
        <time>2019-07-11T15:59:59Z</time>
      </trkpt>
      <trkpt lat="44.91707" lon="5.32529">
        <ele>1342</ele>
        <time>2019-07-11T16:00:04Z</time>
      </trkpt>
      <trkpt lat="44.91715" lon="5.32533">
        <ele>1342</ele>
        <time>2019-07-11T16:00:18Z</time>
      </trkpt>
      <trkpt lat="44.91727" lon="5.32534">
        <ele>1341</ele>
        <time>2019-07-11T16:00:29Z</time>
      </trkpt>
      <trkpt lat="44.91826" lon="5.32511">
        <ele>1328</ele>
        <time>2019-07-11T16:00:33Z</time>
      </trkpt>
      <trkpt lat="44.91858" lon="5.32517">
        <ele>1326</ele>
        <time>2019-07-11T16:00:37Z</time>
      </trkpt>
      <trkpt lat="44.91892" lon="5.32527">
        <ele>1324</ele>
        <time>2019-07-11T16:00:42Z</time>
      </trkpt>
      <trkpt lat="44.91921" lon="5.32528">
        <ele>1322</ele>
        <time>2019-07-11T16:00:58Z</time>
      </trkpt>
      <trkpt lat="44.91936" lon="5.32525">
        <ele>1321</ele>
        <time>2019-07-11T16:01:05Z</time>
      </trkpt>
      <trkpt lat="44.9195" lon="5.32519">
        <ele>1320</ele>
        <time>2019-07-11T16:01:14Z</time>
      </trkpt>
      <trkpt lat="44.92" lon="5.32481">
        <ele>1313</ele>
        <time>2019-07-11T16:01:20Z</time>
      </trkpt>
      <trkpt lat="44.9201" lon="5.32465">
        <ele>1312</ele>
        <time>2019-07-11T16:01:23Z</time>
      </trkpt>
      <trkpt lat="44.92018" lon="5.32446">
        <ele>1310</ele>
        <time>2019-07-11T16:01:25Z</time>
      </trkpt>
      <trkpt lat="44.92037" lon="5.32401">
        <ele>1306</ele>
        <time>2019-07-11T16:01:30Z</time>
      </trkpt>
      <trkpt lat="44.92053" lon="5.32383">
        <ele>1304</ele>
        <time>2019-07-11T16:01:41Z</time>
      </trkpt>
      <trkpt lat="44.9207" lon="5.32377">
        <ele>1303</ele>
        <time>2019-07-11T16:01:47Z</time>
      </trkpt>
      <trkpt lat="44.92113" lon="5.32383">
        <ele>1302</ele>
        <time>2019-07-11T16:01:52Z</time>
      </trkpt>
      <trkpt lat="44.92162" lon="5.324">
        <ele>1302</ele>
        <time>2019-07-11T16:01:59Z</time>
      </trkpt>
      <trkpt lat="44.92229" lon="5.3244">
        <ele>1299</ele>
        <time>2019-07-11T16:02:05Z</time>
      </trkpt>
      <trkpt lat="44.9224" lon="5.32444">
        <ele>1298</ele>
        <time>2019-07-11T16:02:07Z</time>
      </trkpt>
      <trkpt lat="44.92252" lon="5.32445">
        <ele>1297</ele>
        <time>2019-07-11T16:02:07Z</time>
      </trkpt>
      <trkpt lat="44.92398" lon="5.32436">
        <ele>1291</ele>
        <time>2019-07-11T16:02:12Z</time>
      </trkpt>
      <trkpt lat="44.92415" lon="5.32439">
        <ele>1290</ele>
        <time>2019-07-11T16:02:24Z</time>
      </trkpt>
      <trkpt lat="44.9244" lon="5.32449">
        <ele>1289</ele>
        <time>2019-07-11T16:02:43Z</time>
      </trkpt>
      <trkpt lat="44.92483" lon="5.32476">
        <ele>1289</ele>
        <time>2019-07-11T16:02:47Z</time>
      </trkpt>
      <trkpt lat="44.925" lon="5.32485">
        <ele>1289</ele>
        <time>2019-07-11T16:02:52Z</time>
      </trkpt>
      <trkpt lat="44.9252" lon="5.32492">
        <ele>1288</ele>
        <time>2019-07-11T16:03:21Z</time>
      </trkpt>
      <trkpt lat="44.92545" lon="5.32493">
        <ele>1286</ele>
        <time>2019-07-11T16:03:25Z</time>
      </trkpt>
      <trkpt lat="44.92621" lon="5.3247">
        <ele>1275</ele>
        <time>2019-07-11T16:03:35Z</time>
      </trkpt>
      <trkpt lat="44.92673" lon="5.32485">
        <ele>1274</ele>
        <time>2019-07-11T16:03:43Z</time>
      </trkpt>
      <trkpt lat="44.9269" lon="5.32475">
        <ele>1275</ele>
        <time>2019-07-11T16:04:16Z</time>
      </trkpt>
      <trkpt lat="44.92746" lon="5.32403">
        <ele>1266</ele>
        <time>2019-07-11T16:04:28Z</time>
      </trkpt>
      <trkpt lat="44.92771" lon="5.32365">
        <ele>1262</ele>
        <time>2019-07-11T16:04:38Z</time>
      </trkpt>
      <trkpt lat="44.92798" lon="5.32334">
        <ele>1259</ele>
        <time>2019-07-11T16:04:41Z</time>
      </trkpt>
      <trkpt lat="44.92839" lon="5.32296">
        <ele>1254</ele>
        <time>2019-07-11T16:04:45Z</time>
      </trkpt>
      <trkpt lat="44.92852" lon="5.32287">
        <ele>1253</ele>
        <time>2019-07-11T16:04:50Z</time>
      </trkpt>
      <trkpt lat="44.92882" lon="5.32275">
        <ele>1253</ele>
        <time>2019-07-11T16:05:02Z</time>
      </trkpt>
      <trkpt lat="44.9293" lon="5.32262">
        <ele>1252</ele>
        <time>2019-07-11T16:05:06Z</time>
      </trkpt>
      <trkpt lat="44.92988" lon="5.32241">
        <ele>1246</ele>
        <time>2019-07-11T16:05:15Z</time>
      </trkpt>
      <trkpt lat="44.93042" lon="5.32228">
        <ele>1240</ele>
        <time>2019-07-11T16:05:26Z</time>
      </trkpt>
      <trkpt lat="44.9306" lon="5.32233">
        <ele>1239</ele>
        <time>2019-07-11T16:05:31Z</time>
      </trkpt>
      <trkpt lat="44.93073" lon="5.32242">
        <ele>1239</ele>
        <time>2019-07-11T16:05:35Z</time>
      </trkpt>
      <trkpt lat="44.93085" lon="5.32254">
        <ele>1240</ele>
        <time>2019-07-11T16:05:42Z</time>
      </trkpt>
      <trkpt lat="44.93126" lon="5.32316">
        <ele>1243</ele>
        <time>2019-07-11T16:05:45Z</time>
      </trkpt>
      <trkpt lat="44.9314" lon="5.32326">
        <ele>1243</ele>
        <time>2019-07-11T16:05:47Z</time>
      </trkpt>
      <trkpt lat="44.93202" lon="5.32343">
        <ele>1239</ele>
        <time>2019-07-11T16:05:51Z</time>
      </trkpt>
      <trkpt lat="44.93217" lon="5.32345">
        <ele>1238</ele>
        <time>2019-07-11T16:05:53Z</time>
      </trkpt>
      <trkpt lat="44.93234" lon="5.32345">
        <ele>1235</ele>
        <time>2019-07-11T16:05:56Z</time>
      </trkpt>
      <trkpt lat="44.93293" lon="5.32337">
        <ele>1225</ele>
        <time>2019-07-11T16:05:59Z</time>
      </trkpt>
      <trkpt lat="44.93315" lon="5.32345">
        <ele>1225</ele>
        <time>2019-07-11T16:06:05Z</time>
      </trkpt>
      <trkpt lat="44.93321" lon="5.32344">
        <ele>1224</ele>
        <time>2019-07-11T16:06:21Z</time>
      </trkpt>
      <trkpt lat="44.93325" lon="5.32341">
        <ele>1222</ele>
        <time>2019-07-11T16:06:27Z</time>
      </trkpt>
      <trkpt lat="44.93325" lon="5.32335">
        <ele>1220</ele>
        <time>2019-07-11T16:06:37Z</time>
      </trkpt>
      <trkpt lat="44.93322" lon="5.32328">
        <ele>1218</ele>
        <time>2019-07-11T16:06:43Z</time>
      </trkpt>
      <trkpt lat="44.93318" lon="5.32324">
        <ele>1217</ele>
        <time>2019-07-11T16:06:50Z</time>
      </trkpt>
      <trkpt lat="44.933" lon="5.32317">
        <ele>1218</ele>
        <time>2019-07-11T16:07:39Z</time>
      </trkpt>
      <trkpt lat="44.93283" lon="5.32313">
        <ele>1219</ele>
        <time>2019-07-11T16:07:55Z</time>
      </trkpt>
      <trkpt lat="44.9327" lon="5.32313">
        <ele>1221</ele>
        <time>2019-07-11T16:08:06Z</time>
      </trkpt>
      <trkpt lat="44.93232" lon="5.32318">
        <ele>1227</ele>
        <time>2019-07-11T16:08:13Z</time>
      </trkpt>
      <trkpt lat="44.93219" lon="5.32317">
        <ele>1229</ele>
        <time>2019-07-11T16:08:17Z</time>
      </trkpt>
      <trkpt lat="44.93208" lon="5.32315">
        <ele>1230</ele>
        <time>2019-07-11T16:08:22Z</time>
      </trkpt>
      <trkpt lat="44.93197" lon="5.32309">
        <ele>1230</ele>
        <time>2019-07-11T16:08:34Z</time>
      </trkpt>
      <trkpt lat="44.93187" lon="5.323">
        <ele>1229</ele>
        <time>2019-07-11T16:08:41Z</time>
      </trkpt>
      <trkpt lat="44.9318" lon="5.32289">
        <ele>1227</ele>
        <time>2019-07-11T16:08:49Z</time>
      </trkpt>
      <trkpt lat="44.93173" lon="5.32274">
        <ele>1224</ele>
        <time>2019-07-11T16:08:52Z</time>
      </trkpt>
      <trkpt lat="44.93165" lon="5.32251">
        <ele>1219</ele>
        <time>2019-07-11T16:08:54Z</time>
      </trkpt>
      <trkpt lat="44.93153" lon="5.32175">
        <ele>1209</ele>
        <time>2019-07-11T16:09:08Z</time>
      </trkpt>
      <trkpt lat="44.93148" lon="5.32159">
        <ele>1207</ele>
        <time>2019-07-11T16:09:21Z</time>
      </trkpt>
      <trkpt lat="44.9314" lon="5.32144">
        <ele>1207</ele>
        <time>2019-07-11T16:09:35Z</time>
      </trkpt>
      <trkpt lat="44.93123" lon="5.3213">
        <ele>1207</ele>
        <time>2019-07-11T16:09:47Z</time>
      </trkpt>
      <trkpt lat="44.93106" lon="5.32119">
        <ele>1208</ele>
        <time>2019-07-11T16:10:07Z</time>
      </trkpt>
      <trkpt lat="44.93049" lon="5.32089">
        <ele>1207</ele>
        <time>2019-07-11T16:10:25Z</time>
      </trkpt>
      <trkpt lat="44.93006" lon="5.32078">
        <ele>1208</ele>
        <time>2019-07-11T16:10:30Z</time>
      </trkpt>
      <trkpt lat="44.92944" lon="5.32068">
        <ele>1204</ele>
        <time>2019-07-11T16:10:35Z</time>
      </trkpt>
      <trkpt lat="44.92913" lon="5.32068">
        <ele>1203</ele>
        <time>2019-07-11T16:10:48Z</time>
      </trkpt>
      <trkpt lat="44.92868" lon="5.32082">
        <ele>1201</ele>
        <time>2019-07-11T16:10:54Z</time>
      </trkpt>
      <trkpt lat="44.92853" lon="5.32089">
        <ele>1201</ele>
        <time>2019-07-11T16:11:00Z</time>
      </trkpt>
      <trkpt lat="44.92801" lon="5.32121">
        <ele>1209</ele>
        <time>2019-07-11T16:11:07Z</time>
      </trkpt>
      <trkpt lat="44.92778" lon="5.32122">
        <ele>1211</ele>
        <time>2019-07-11T16:11:19Z</time>
      </trkpt>
      <trkpt lat="44.92773" lon="5.32115">
        <ele>1211</ele>
        <time>2019-07-11T16:11:24Z</time>
      </trkpt>
      <trkpt lat="44.92766" lon="5.32091">
        <ele>1212</ele>
        <time>2019-07-11T16:11:30Z</time>
      </trkpt>
      <trkpt lat="44.92773" lon="5.3207">
        <ele>1213</ele>
        <time>2019-07-11T16:11:32Z</time>
      </trkpt>
      <trkpt lat="44.92784" lon="5.32047">
        <ele>1213</ele>
        <time>2019-07-11T16:11:34Z</time>
      </trkpt>
      <trkpt lat="44.92803" lon="5.32017">
        <ele>1211</ele>
        <time>2019-07-11T16:11:44Z</time>
      </trkpt>
      <trkpt lat="44.92874" lon="5.31942">
        <ele>1207</ele>
        <time>2019-07-11T16:11:47Z</time>
      </trkpt>
      <trkpt lat="44.9292" lon="5.31915">
        <ele>1201</ele>
        <time>2019-07-11T16:11:52Z</time>
      </trkpt>
      <trkpt lat="44.92967" lon="5.31892">
        <ele>1203</ele>
        <time>2019-07-11T16:11:58Z</time>
      </trkpt>
      <trkpt lat="44.93108" lon="5.31884">
        <ele>1197</ele>
        <time>2019-07-11T16:12:01Z</time>
      </trkpt>
      <trkpt lat="44.93162" lon="5.31898">
        <ele>1190</ele>
        <time>2019-07-11T16:12:07Z</time>
      </trkpt>
      <trkpt lat="44.93199" lon="5.31877">
        <ele>1187</ele>
        <time>2019-07-11T16:12:13Z</time>
      </trkpt>
      <trkpt lat="44.93225" lon="5.31847">
        <ele>1186</ele>
        <time>2019-07-11T16:12:17Z</time>
      </trkpt>
      <trkpt lat="44.93276" lon="5.31737">
        <ele>1191</ele>
        <time>2019-07-11T16:12:26Z</time>
      </trkpt>
      <trkpt lat="44.93308" lon="5.31708">
        <ele>1188</ele>
        <time>2019-07-11T16:12:36Z</time>
      </trkpt>
      <trkpt lat="44.93361" lon="5.31687">
        <ele>1179</ele>
        <time>2019-07-11T16:12:43Z</time>
      </trkpt>
      <trkpt lat="44.93375" lon="5.31664">
        <ele>1178</ele>
        <time>2019-07-11T16:12:47Z</time>
      </trkpt>
      <trkpt lat="44.93379" lon="5.31652">
        <ele>1177</ele>
        <time>2019-07-11T16:12:51Z</time>
      </trkpt>
      <trkpt lat="44.93379" lon="5.31636">
        <ele>1176</ele>
        <time>2019-07-11T16:13:12Z</time>
      </trkpt>
      <trkpt lat="44.93375" lon="5.31615">
        <ele>1176</ele>
        <time>2019-07-11T16:13:15Z</time>
      </trkpt>
      <trkpt lat="44.93354" lon="5.31578">
        <ele>1182</ele>
        <time>2019-07-11T16:13:17Z</time>
      </trkpt>
      <trkpt lat="44.93346" lon="5.31546">
        <ele>1185</ele>
        <time>2019-07-11T16:13:20Z</time>
      </trkpt>
      <trkpt lat="44.93351" lon="5.31512">
        <ele>1184</ele>
        <time>2019-07-11T16:13:25Z</time>
      </trkpt>
      <trkpt lat="44.93382" lon="5.3141">
        <ele>1184</ele>
        <time>2019-07-11T16:13:28Z</time>
      </trkpt>
      <trkpt lat="44.93394" lon="5.31399">
        <ele>1183</ele>
        <time>2019-07-11T16:13:30Z</time>
      </trkpt>
      <trkpt lat="44.93407" lon="5.31391">
        <ele>1182</ele>
        <time>2019-07-11T16:13:34Z</time>
      </trkpt>
      <trkpt lat="44.93467" lon="5.31378">
        <ele>1178</ele>
        <time>2019-07-11T16:13:44Z</time>
      </trkpt>
      <trkpt lat="44.9348" lon="5.31371">
        <ele>1178</ele>
        <time>2019-07-11T16:13:55Z</time>
      </trkpt>
      <trkpt lat="44.93491" lon="5.31356">
        <ele>1178</ele>
        <time>2019-07-11T16:14:07Z</time>
      </trkpt>
      <trkpt lat="44.93511" lon="5.31159">
        <ele>1184</ele>
        <time>2019-07-11T16:14:11Z</time>
      </trkpt>
      <trkpt lat="44.93502" lon="5.31099">
        <ele>1180</ele>
        <time>2019-07-11T16:14:19Z</time>
      </trkpt>
      <trkpt lat="44.93495" lon="5.31063">
        <ele>1178</ele>
        <time>2019-07-11T16:14:27Z</time>
      </trkpt>
      <trkpt lat="44.93485" lon="5.31029">
        <ele>1177</ele>
        <time>2019-07-11T16:14:33Z</time>
      </trkpt>
      <trkpt lat="44.93455" lon="5.30973">
        <ele>1177</ele>
        <time>2019-07-11T16:14:37Z</time>
      </trkpt>
      <trkpt lat="44.93434" lon="5.30926">
        <ele>1176</ele>
        <time>2019-07-11T16:14:46Z</time>
      </trkpt>
      <trkpt lat="44.93446" lon="5.3089">
        <ele>1175</ele>
        <time>2019-07-11T16:14:57Z</time>
      </trkpt>
      <trkpt lat="44.93482" lon="5.30795">
        <ele>1174</ele>
        <time>2019-07-11T16:15:01Z</time>
      </trkpt>
      <trkpt lat="44.93504" lon="5.3077">
        <ele>1172</ele>
        <time>2019-07-11T16:15:04Z</time>
      </trkpt>
      <trkpt lat="44.93533" lon="5.30751">
        <ele>1169</ele>
        <time>2019-07-11T16:15:08Z</time>
      </trkpt>
      <trkpt lat="44.93604" lon="5.30715">
        <ele>1163</ele>
        <time>2019-07-11T16:15:10Z</time>
      </trkpt>
      <trkpt lat="44.93664" lon="5.30679">
        <ele>1162</ele>
        <time>2019-07-11T16:15:12Z</time>
      </trkpt>
      <trkpt lat="44.93685" lon="5.3068">
        <ele>1161</ele>
        <time>2019-07-11T16:15:14Z</time>
      </trkpt>
      <trkpt lat="44.93704" lon="5.30689">
        <ele>1160</ele>
        <time>2019-07-11T16:15:16Z</time>
      </trkpt>
      <trkpt lat="44.93732" lon="5.30707">
        <ele>1159</ele>
        <time>2019-07-11T16:15:23Z</time>
      </trkpt>
      <trkpt lat="44.93805" lon="5.30783">
        <ele>1155</ele>
        <time>2019-07-11T16:15:39Z</time>
      </trkpt>
      <trkpt lat="44.93833" lon="5.30819">
        <ele>1153</ele>
        <time>2019-07-11T16:15:49Z</time>
      </trkpt>
      <trkpt lat="44.93865" lon="5.30879">
        <ele>1153</ele>
        <time>2019-07-11T16:16:05Z</time>
      </trkpt>
      <trkpt lat="44.93886" lon="5.30909">
        <ele>1152</ele>
        <time>2019-07-11T16:16:17Z</time>
      </trkpt>
      <trkpt lat="44.93902" lon="5.30913">
        <ele>1151</ele>
        <time>2019-07-11T16:16:29Z</time>
      </trkpt>
      <trkpt lat="44.93918" lon="5.30911">
        <ele>1150</ele>
        <time>2019-07-11T16:16:46Z</time>
      </trkpt>
      <trkpt lat="44.93943" lon="5.30903">
        <ele>1147</ele>
        <time>2019-07-11T16:17:04Z</time>
      </trkpt>
      <trkpt lat="44.93995" lon="5.30863">
        <ele>1143</ele>
        <time>2019-07-11T16:17:09Z</time>
      </trkpt>
      <trkpt lat="44.94028" lon="5.30856">
        <ele>1141</ele>
        <time>2019-07-11T16:17:14Z</time>
      </trkpt>
      <trkpt lat="44.94058" lon="5.30865">
        <ele>1138</ele>
        <time>2019-07-11T16:17:21Z</time>
      </trkpt>
      <trkpt lat="44.94096" lon="5.30882">
        <ele>1133</ele>
        <time>2019-07-11T16:17:26Z</time>
      </trkpt>
      <trkpt lat="44.94129" lon="5.30894">
        <ele>1129</ele>
        <time>2019-07-11T16:17:47Z</time>
      </trkpt>
      <trkpt lat="44.94133" lon="5.30883">
        <ele>1131</ele>
        <time>2019-07-11T16:17:50Z</time>
      </trkpt>
      <trkpt lat="44.94136" lon="5.30881">
        <ele>1131</ele>
        <time>2019-07-11T16:17:52Z</time>
      </trkpt>
      <trkpt lat="44.94164" lon="5.30883">
        <ele>1129</ele>
        <time>2019-07-11T16:18:00Z</time>
      </trkpt>
      <trkpt lat="44.94232" lon="5.30879">
        <ele>1131</ele>
        <time>2019-07-11T16:18:05Z</time>
      </trkpt>
      <trkpt lat="44.94335" lon="5.30883">
        <ele>1136</ele>
        <time>2019-07-11T16:18:09Z</time>
      </trkpt>
      <trkpt lat="44.94357" lon="5.30887">
        <ele>1137</ele>
        <time>2019-07-11T16:18:17Z</time>
      </trkpt>
      <trkpt lat="44.94385" lon="5.30906">
        <ele>1136</ele>
        <time>2019-07-11T16:18:30Z</time>
      </trkpt>
      <trkpt lat="44.94536" lon="5.30995">
        <ele>1143</ele>
        <time>2019-07-11T16:18:55Z</time>
      </trkpt>
      <trkpt lat="44.94556" lon="5.31004">
        <ele>1143</ele>
        <time>2019-07-11T16:19:04Z</time>
      </trkpt>
      <trkpt lat="44.94613" lon="5.31022">
        <ele>1144</ele>
        <time>2019-07-11T16:19:16Z</time>
      </trkpt>
      <trkpt lat="44.94656" lon="5.3102">
        <ele>1148</ele>
        <time>2019-07-11T16:19:19Z</time>
      </trkpt>
      <trkpt lat="44.94839" lon="5.30986">
        <ele>1158</ele>
        <time>2019-07-11T16:19:22Z</time>
      </trkpt>
      <trkpt lat="44.94905" lon="5.30951">
        <ele>1165</ele>
        <time>2019-07-11T16:19:29Z</time>
      </trkpt>
      <trkpt lat="44.94951" lon="5.30912">
        <ele>1172</ele>
        <time>2019-07-11T16:19:32Z</time>
      </trkpt>
      <trkpt lat="44.94969" lon="5.30902">
        <ele>1172</ele>
        <time>2019-07-11T16:19:34Z</time>
      </trkpt>
      <trkpt lat="44.94991" lon="5.309">
        <ele>1170</ele>
        <time>2019-07-11T16:19:37Z</time>
      </trkpt>
      <trkpt lat="44.95016" lon="5.30904">
        <ele>1168</ele>
        <time>2019-07-11T16:19:50Z</time>
      </trkpt>
      <trkpt lat="44.95082" lon="5.3088">
        <ele>1167</ele>
        <time>2019-07-11T16:19:53Z</time>
      </trkpt>
      <trkpt lat="44.95102" lon="5.3087">
        <ele>1167</ele>
        <time>2019-07-11T16:20:09Z</time>
      </trkpt>
      <trkpt lat="44.95146" lon="5.30831">
        <ele>1171</ele>
        <time>2019-07-11T16:20:17Z</time>
      </trkpt>
      <trkpt lat="44.95202" lon="5.30797">
        <ele>1175</ele>
        <time>2019-07-11T16:20:30Z</time>
      </trkpt>
      <trkpt lat="44.95226" lon="5.30776">
        <ele>1177</ele>
        <time>2019-07-11T16:20:41Z</time>
      </trkpt>
      <trkpt lat="44.95243" lon="5.30756">
        <ele>1179</ele>
        <time>2019-07-11T16:20:50Z</time>
      </trkpt>
      <trkpt lat="44.9527" lon="5.30713">
        <ele>1185</ele>
        <time>2019-07-11T16:21:01Z</time>
      </trkpt>
      <trkpt lat="44.95282" lon="5.307">
        <ele>1186</ele>
        <time>2019-07-11T16:21:13Z</time>
      </trkpt>
      <trkpt lat="44.95295" lon="5.30692">
        <ele>1185</ele>
        <time>2019-07-11T16:21:30Z</time>
      </trkpt>
      <trkpt lat="44.95313" lon="5.30685">
        <ele>1184</ele>
        <time>2019-07-11T16:21:33Z</time>
      </trkpt>
      <trkpt lat="44.95327" lon="5.30678">
        <ele>1182</ele>
        <time>2019-07-11T16:21:36Z</time>
      </trkpt>
      <trkpt lat="44.9534" lon="5.30667">
        <ele>1182</ele>
        <time>2019-07-11T16:21:39Z</time>
      </trkpt>
      <trkpt lat="44.95351" lon="5.30652">
        <ele>1184</ele>
        <time>2019-07-11T16:21:47Z</time>
      </trkpt>
      <trkpt lat="44.95369" lon="5.30612">
        <ele>1187</ele>
        <time>2019-07-11T16:21:54Z</time>
      </trkpt>
      <trkpt lat="44.95428" lon="5.3051">
        <ele>1188</ele>
        <time>2019-07-11T16:21:57Z</time>
      </trkpt>
      <trkpt lat="44.95451" lon="5.30478">
        <ele>1188</ele>
        <time>2019-07-11T16:21:59Z</time>
      </trkpt>
      <trkpt lat="44.95496" lon="5.30426">
        <ele>1186</ele>
        <time>2019-07-11T16:22:01Z</time>
      </trkpt>
      <trkpt lat="44.95518" lon="5.3039">
        <ele>1186</ele>
        <time>2019-07-11T16:22:04Z</time>
      </trkpt>
      <trkpt lat="44.95538" lon="5.30343">
        <ele>1188</ele>
        <time>2019-07-11T16:22:07Z</time>
      </trkpt>
      <trkpt lat="44.95669" lon="5.3">
        <ele>1194</ele>
        <time>2019-07-11T16:22:16Z</time>
      </trkpt>
      <trkpt lat="44.95705" lon="5.29885">
        <ele>1194</ele>
        <time>2019-07-11T16:22:28Z</time>
      </trkpt>
      <trkpt lat="44.95723" lon="5.29798">
        <ele>1194</ele>
        <time>2019-07-11T16:22:38Z</time>
      </trkpt>
      <trkpt lat="44.95729" lon="5.29749">
        <ele>1192</ele>
        <time>2019-07-11T16:22:42Z</time>
      </trkpt>
      <trkpt lat="44.95727" lon="5.29716">
        <ele>1191</ele>
        <time>2019-07-11T16:22:44Z</time>
      </trkpt>
      <trkpt lat="44.95721" lon="5.29674">
        <ele>1191</ele>
        <time>2019-07-11T16:22:46Z</time>
      </trkpt>
      <trkpt lat="44.95695" lon="5.29586">
        <ele>1192</ele>
        <time>2019-07-11T16:22:49Z</time>
      </trkpt>
      <trkpt lat="44.95683" lon="5.29539">
        <ele>1191</ele>
        <time>2019-07-11T16:22:51Z</time>
      </trkpt>
      <trkpt lat="44.95672" lon="5.29471">
        <ele>1184</ele>
        <time>2019-07-11T16:22:54Z</time>
      </trkpt>
      <trkpt lat="44.95663" lon="5.29458">
        <ele>1183</ele>
        <time>2019-07-11T16:22:58Z</time>
      </trkpt>
      <trkpt lat="44.9565" lon="5.29449">
        <ele>1183</ele>
        <time>2019-07-11T16:23:03Z</time>
      </trkpt>
      <trkpt lat="44.95579" lon="5.29415">
        <ele>1179</ele>
        <time>2019-07-11T16:23:25Z</time>
      </trkpt>
      <trkpt lat="44.95511" lon="5.29379">
        <ele>1175</ele>
        <time>2019-07-11T16:23:30Z</time>
      </trkpt>
      <trkpt lat="44.95437" lon="5.29328">
        <ele>1169</ele>
        <time>2019-07-11T16:23:45Z</time>
      </trkpt>
      <trkpt lat="44.95378" lon="5.29284">
        <ele>1162</ele>
        <time>2019-07-11T16:23:49Z</time>
      </trkpt>
      <trkpt lat="44.95271" lon="5.29229">
        <ele>1152</ele>
        <time>2019-07-11T16:23:53Z</time>
      </trkpt>
      <trkpt lat="44.95174" lon="5.2919">
        <ele>1151</ele>
        <time>2019-07-11T16:23:56Z</time>
      </trkpt>
      <trkpt lat="44.9515" lon="5.29172">
        <ele>1150</ele>
        <time>2019-07-11T16:24:03Z</time>
      </trkpt>
      <trkpt lat="44.95128" lon="5.29144">
        <ele>1146</ele>
        <time>2019-07-11T16:24:05Z</time>
      </trkpt>
      <trkpt lat="44.95073" lon="5.2908">
        <ele>1135</ele>
        <time>2019-07-11T16:24:07Z</time>
      </trkpt>
      <trkpt lat="44.95044" lon="5.2905">
        <ele>1129</ele>
        <time>2019-07-11T16:24:11Z</time>
      </trkpt>
      <trkpt lat="44.95018" lon="5.29032">
        <ele>1127</ele>
        <time>2019-07-11T16:24:22Z</time>
      </trkpt>
      <trkpt lat="44.94977" lon="5.29014">
        <ele>1124</ele>
        <time>2019-07-11T16:24:28Z</time>
      </trkpt>
      <trkpt lat="44.94914" lon="5.28993">
        <ele>1120</ele>
        <time>2019-07-11T16:24:32Z</time>
      </trkpt>
      <trkpt lat="44.94884" lon="5.28978">
        <ele>1122</ele>
        <time>2019-07-11T16:24:36Z</time>
      </trkpt>
      <trkpt lat="44.94857" lon="5.2896">
        <ele>1121</ele>
        <time>2019-07-11T16:24:40Z</time>
      </trkpt>
      <trkpt lat="44.94847" lon="5.2895">
        <ele>1121</ele>
        <time>2019-07-11T16:24:43Z</time>
      </trkpt>
      <trkpt lat="44.94842" lon="5.28932">
        <ele>1117</ele>
        <time>2019-07-11T16:24:47Z</time>
      </trkpt>
      <trkpt lat="44.94833" lon="5.2886">
        <ele>1108</ele>
        <time>2019-07-11T16:24:50Z</time>
      </trkpt>
      <trkpt lat="44.94824" lon="5.28835">
        <ele>1106</ele>
        <time>2019-07-11T16:25:06Z</time>
      </trkpt>
      <trkpt lat="44.9481" lon="5.28804">
        <ele>1105</ele>
        <time>2019-07-11T16:25:29Z</time>
      </trkpt>
      <trkpt lat="44.94785" lon="5.28767">
        <ele>1101</ele>
        <time>2019-07-11T16:25:32Z</time>
      </trkpt>
      <trkpt lat="44.9477" lon="5.28752">
        <ele>1099</ele>
        <time>2019-07-11T16:25:35Z</time>
      </trkpt>
      <trkpt lat="44.9474" lon="5.28736">
        <ele>1100</ele>
        <time>2019-07-11T16:25:42Z</time>
      </trkpt>
      <trkpt lat="44.9471" lon="5.28729">
        <ele>1103</ele>
        <time>2019-07-11T16:25:45Z</time>
      </trkpt>
      <trkpt lat="44.94684" lon="5.28717">
        <ele>1104</ele>
        <time>2019-07-11T16:25:48Z</time>
      </trkpt>
      <trkpt lat="44.94643" lon="5.28685">
        <ele>1101</ele>
        <time>2019-07-11T16:25:50Z</time>
      </trkpt>
      <trkpt lat="44.94592" lon="5.28654">
        <ele>1100</ele>
        <time>2019-07-11T16:25:59Z</time>
      </trkpt>
      <trkpt lat="44.94554" lon="5.28633">
        <ele>1101</ele>
        <time>2019-07-11T16:26:16Z</time>
      </trkpt>
      <trkpt lat="44.94532" lon="5.28627">
        <ele>1101</ele>
        <time>2019-07-11T16:26:19Z</time>
      </trkpt>
      <trkpt lat="44.94508" lon="5.28625">
        <ele>1102</ele>
        <time>2019-07-11T16:26:22Z</time>
      </trkpt>
      <trkpt lat="44.94392" lon="5.28644">
        <ele>1107</ele>
        <time>2019-07-11T16:26:25Z</time>
      </trkpt>
      <trkpt lat="44.94376" lon="5.2864">
        <ele>1108</ele>
        <time>2019-07-11T16:26:28Z</time>
      </trkpt>
      <trkpt lat="44.94362" lon="5.28632">
        <ele>1109</ele>
        <time>2019-07-11T16:26:32Z</time>
      </trkpt>
      <trkpt lat="44.94352" lon="5.2862">
        <ele>1108</ele>
        <time>2019-07-11T16:26:36Z</time>
      </trkpt>
      <trkpt lat="44.94333" lon="5.28586">
        <ele>1107</ele>
        <time>2019-07-11T16:26:40Z</time>
      </trkpt>
      <trkpt lat="44.94321" lon="5.28569">
        <ele>1107</ele>
        <time>2019-07-11T16:26:46Z</time>
      </trkpt>
      <trkpt lat="44.94311" lon="5.28559">
        <ele>1106</ele>
        <time>2019-07-11T16:26:49Z</time>
      </trkpt>
      <trkpt lat="44.94295" lon="5.2855">
        <ele>1106</ele>
        <time>2019-07-11T16:26:57Z</time>
      </trkpt>
      <trkpt lat="44.9424" lon="5.28529">
        <ele>1106</ele>
        <time>2019-07-11T16:27:00Z</time>
      </trkpt>
      <trkpt lat="44.94179" lon="5.28515">
        <ele>1111</ele>
        <time>2019-07-11T16:27:05Z</time>
      </trkpt>
      <trkpt lat="44.9411" lon="5.2851">
        <ele>1113</ele>
        <time>2019-07-11T16:27:10Z</time>
      </trkpt>
      <trkpt lat="44.94086" lon="5.28511">
        <ele>1115</ele>
        <time>2019-07-11T16:27:13Z</time>
      </trkpt>
      <trkpt lat="44.94041" lon="5.28522">
        <ele>1117</ele>
        <time>2019-07-11T16:27:16Z</time>
      </trkpt>
      <trkpt lat="44.94001" lon="5.28536">
        <ele>1121</ele>
        <time>2019-07-11T16:27:19Z</time>
      </trkpt>
      <trkpt lat="44.93967" lon="5.28553">
        <ele>1123</ele>
        <time>2019-07-11T16:27:30Z</time>
      </trkpt>
      <trkpt lat="44.93946" lon="5.28571">
        <ele>1125</ele>
        <time>2019-07-11T16:27:35Z</time>
      </trkpt>
      <trkpt lat="44.93909" lon="5.28619">
        <ele>1131</ele>
        <time>2019-07-11T16:27:39Z</time>
      </trkpt>
      <trkpt lat="44.93861" lon="5.28667">
        <ele>1130</ele>
        <time>2019-07-11T16:27:42Z</time>
      </trkpt>
      <trkpt lat="44.93844" lon="5.28688">
        <ele>1130</ele>
        <time>2019-07-11T16:27:46Z</time>
      </trkpt>
      <trkpt lat="44.93832" lon="5.28709">
        <ele>1132</ele>
        <time>2019-07-11T16:27:51Z</time>
      </trkpt>
      <trkpt lat="44.93822" lon="5.28736">
        <ele>1136</ele>
        <time>2019-07-11T16:28:02Z</time>
      </trkpt>
      <trkpt lat="44.93814" lon="5.28751">
        <ele>1139</ele>
        <time>2019-07-11T16:28:07Z</time>
      </trkpt>
      <trkpt lat="44.93806" lon="5.28758">
        <ele>1141</ele>
        <time>2019-07-11T16:28:10Z</time>
      </trkpt>
      <trkpt lat="44.93797" lon="5.2876">
        <ele>1141</ele>
        <time>2019-07-11T16:28:14Z</time>
      </trkpt>
      <trkpt lat="44.93782" lon="5.28759">
        <ele>1142</ele>
        <time>2019-07-11T16:28:18Z</time>
      </trkpt>
      <trkpt lat="44.93745" lon="5.28746">
        <ele>1142</ele>
        <time>2019-07-11T16:28:22Z</time>
      </trkpt>
      <trkpt lat="44.93664" lon="5.28695">
        <ele>1149</ele>
        <time>2019-07-11T16:28:32Z</time>
      </trkpt>
      <trkpt lat="44.93611" lon="5.28676">
        <ele>1152</ele>
        <time>2019-07-11T16:28:39Z</time>
      </trkpt>
      <trkpt lat="44.9352" lon="5.28669">
        <ele>1155</ele>
        <time>2019-07-11T16:28:44Z</time>
      </trkpt>
      <trkpt lat="44.93453" lon="5.28677">
        <ele>1159</ele>
        <time>2019-07-11T16:28:48Z</time>
      </trkpt>
      <trkpt lat="44.93386" lon="5.28697">
        <ele>1163</ele>
        <time>2019-07-11T16:28:55Z</time>
      </trkpt>
      <trkpt lat="44.93298" lon="5.28741">
        <ele>1168</ele>
        <time>2019-07-11T16:29:01Z</time>
      </trkpt>
      <trkpt lat="44.93203" lon="5.288">
        <ele>1172</ele>
        <time>2019-07-11T16:29:05Z</time>
      </trkpt>
      <trkpt lat="44.93177" lon="5.28819">
        <ele>1172</ele>
        <time>2019-07-11T16:29:12Z</time>
      </trkpt>
      <trkpt lat="44.93155" lon="5.28844">
        <ele>1174</ele>
        <time>2019-07-11T16:29:19Z</time>
      </trkpt>
      <trkpt lat="44.93132" lon="5.28883">
        <ele>1177</ele>
        <time>2019-07-11T16:29:29Z</time>
      </trkpt>
      <trkpt lat="44.93108" lon="5.28912">
        <ele>1178</ele>
        <time>2019-07-11T16:29:45Z</time>
      </trkpt>
      <trkpt lat="44.93015" lon="5.29009">
        <ele>1187</ele>
        <time>2019-07-11T16:29:54Z</time>
      </trkpt>
      <trkpt lat="44.92999" lon="5.29015">
        <ele>1186</ele>
        <time>2019-07-11T16:30:00Z</time>
      </trkpt>
      <trkpt lat="44.92985" lon="5.29015">
        <ele>1187</ele>
        <time>2019-07-11T16:30:06Z</time>
      </trkpt>
      <trkpt lat="44.92945" lon="5.28994">
        <ele>1187</ele>
        <time>2019-07-11T16:30:23Z</time>
      </trkpt>
      <trkpt lat="44.92917" lon="5.28985">
        <ele>1187</ele>
        <time>2019-07-11T16:30:28Z</time>
      </trkpt>
      <trkpt lat="44.92894" lon="5.28982">
        <ele>1190</ele>
        <time>2019-07-11T16:30:32Z</time>
      </trkpt>
      <trkpt lat="44.92853" lon="5.28984">
        <ele>1194</ele>
        <time>2019-07-11T16:30:35Z</time>
      </trkpt>
      <trkpt lat="44.92776" lon="5.28996">
        <ele>1200</ele>
        <time>2019-07-11T16:30:39Z</time>
      </trkpt>
      <trkpt lat="44.92637" lon="5.29027">
        <ele>1215</ele>
        <time>2019-07-11T16:30:52Z</time>
      </trkpt>
      <trkpt lat="44.92591" lon="5.29032">
        <ele>1219</ele>
        <time>2019-07-11T16:31:16Z</time>
      </trkpt>
      <trkpt lat="44.92519" lon="5.29036">
        <ele>1219</ele>
        <time>2019-07-11T16:31:43Z</time>
      </trkpt>
      <trkpt lat="44.92503" lon="5.2904">
        <ele>1219</ele>
        <time>2019-07-11T16:31:49Z</time>
      </trkpt>
      <trkpt lat="44.92488" lon="5.29051">
        <ele>1221</ele>
        <time>2019-07-11T16:32:02Z</time>
      </trkpt>
      <trkpt lat="44.92464" lon="5.29088">
        <ele>1228</ele>
        <time>2019-07-11T16:32:07Z</time>
      </trkpt>
      <trkpt lat="44.92449" lon="5.29102">
        <ele>1232</ele>
        <time>2019-07-11T16:32:12Z</time>
      </trkpt>
      <trkpt lat="44.92436" lon="5.29108">
        <ele>1234</ele>
        <time>2019-07-11T16:32:17Z</time>
      </trkpt>
      <trkpt lat="44.92421" lon="5.29108">
        <ele>1235</ele>
        <time>2019-07-11T16:32:28Z</time>
      </trkpt>
      <trkpt lat="44.92348" lon="5.29093">
        <ele>1239</ele>
        <time>2019-07-11T16:32:34Z</time>
      </trkpt>
      <trkpt lat="44.92333" lon="5.29095">
        <ele>1241</ele>
        <time>2019-07-11T16:32:38Z</time>
      </trkpt>
      <trkpt lat="44.92244" lon="5.29117">
        <ele>1250</ele>
        <time>2019-07-11T16:32:42Z</time>
      </trkpt>
      <trkpt lat="44.92201" lon="5.29133">
        <ele>1253</ele>
        <time>2019-07-11T16:32:45Z</time>
      </trkpt>
      <trkpt lat="44.92134" lon="5.2917">
        <ele>1258</ele>
        <time>2019-07-11T16:32:49Z</time>
      </trkpt>
      <trkpt lat="44.9207" lon="5.29195">
        <ele>1263</ele>
        <time>2019-07-11T16:32:52Z</time>
      </trkpt>
      <trkpt lat="44.92025" lon="5.2922">
        <ele>1269</ele>
        <time>2019-07-11T16:32:57Z</time>
      </trkpt>
      <trkpt lat="44.91966" lon="5.29246">
        <ele>1273</ele>
        <time>2019-07-11T16:33:01Z</time>
      </trkpt>
      <trkpt lat="44.91901" lon="5.29254">
        <ele>1275</ele>
        <time>2019-07-11T16:33:06Z</time>
      </trkpt>
      <trkpt lat="44.91803" lon="5.29259">
        <ele>1283</ele>
        <time>2019-07-11T16:33:23Z</time>
      </trkpt>
      <trkpt lat="44.91785" lon="5.29258">
        <ele>1286</ele>
        <time>2019-07-11T16:33:29Z</time>
      </trkpt>
      <trkpt lat="44.9177" lon="5.29251">
        <ele>1288</ele>
        <time>2019-07-11T16:33:51Z</time>
      </trkpt>
      <trkpt lat="44.91757" lon="5.2924">
        <ele>1289</ele>
        <time>2019-07-11T16:34:11Z</time>
      </trkpt>
      <trkpt lat="44.91724" lon="5.29195">
        <ele>1291</ele>
        <time>2019-07-11T16:34:17Z</time>
      </trkpt>
      <trkpt lat="44.91694" lon="5.2916">
        <ele>1294</ele>
        <time>2019-07-11T16:34:24Z</time>
      </trkpt>
      <trkpt lat="44.9168" lon="5.29141">
        <ele>1297</ele>
        <time>2019-07-11T16:34:37Z</time>
      </trkpt>
      <trkpt lat="44.91675" lon="5.29125">
        <ele>1298</ele>
        <time>2019-07-11T16:34:54Z</time>
      </trkpt>
      <trkpt lat="44.91674" lon="5.29109">
        <ele>1299</ele>
        <time>2019-07-11T16:35:06Z</time>
      </trkpt>
      <trkpt lat="44.91677" lon="5.29091">
        <ele>1299</ele>
        <time>2019-07-11T16:35:15Z</time>
      </trkpt>
      <trkpt lat="44.91688" lon="5.29072">
        <ele>1300</ele>
        <time>2019-07-11T16:35:18Z</time>
      </trkpt>
      <trkpt lat="44.91727" lon="5.29026">
        <ele>1302</ele>
        <time>2019-07-11T16:35:20Z</time>
      </trkpt>
      <trkpt lat="44.91782" lon="5.28965">
        <ele>1304</ele>
        <time>2019-07-11T16:35:22Z</time>
      </trkpt>
      <trkpt lat="44.91832" lon="5.2893">
        <ele>1300</ele>
        <time>2019-07-11T16:35:25Z</time>
      </trkpt>
      <trkpt lat="44.91845" lon="5.2891">
        <ele>1296</ele>
        <time>2019-07-11T16:35:29Z</time>
      </trkpt>
      <trkpt lat="44.9185" lon="5.28893">
        <ele>1291</ele>
        <time>2019-07-11T16:35:42Z</time>
      </trkpt>
      <trkpt lat="44.9185" lon="5.28874">
        <ele>1287</ele>
        <time>2019-07-11T16:35:45Z</time>
      </trkpt>
      <trkpt lat="44.91847" lon="5.28854">
        <ele>1285</ele>
        <time>2019-07-11T16:35:47Z</time>
      </trkpt>
      <trkpt lat="44.91841" lon="5.2884">
        <ele>1286</ele>
        <time>2019-07-11T16:35:49Z</time>
      </trkpt>
      <trkpt lat="44.91829" lon="5.28825">
        <ele>1286</ele>
        <time>2019-07-11T16:35:52Z</time>
      </trkpt>
      <trkpt lat="44.91809" lon="5.28812">
        <ele>1286</ele>
        <time>2019-07-11T16:35:55Z</time>
      </trkpt>
      <trkpt lat="44.9178" lon="5.28799">
        <ele>1289</ele>
        <time>2019-07-11T16:36:00Z</time>
      </trkpt>
      <trkpt lat="44.91662" lon="5.28769">
        <ele>1295</ele>
        <time>2019-07-11T16:36:04Z</time>
      </trkpt>
      <trkpt lat="44.91634" lon="5.28755">
        <ele>1294</ele>
        <time>2019-07-11T16:36:06Z</time>
      </trkpt>
      <trkpt lat="44.9156" lon="5.28703">
        <ele>1286</ele>
        <time>2019-07-11T16:36:08Z</time>
      </trkpt>
      <trkpt lat="44.91537" lon="5.28693">
        <ele>1284</ele>
        <time>2019-07-11T16:36:10Z</time>
      </trkpt>
      <trkpt lat="44.91516" lon="5.28689">
        <ele>1283</ele>
        <time>2019-07-11T16:36:11Z</time>
      </trkpt>
      <trkpt lat="44.91499" lon="5.28689">
        <ele>1283</ele>
        <time>2019-07-11T16:36:22Z</time>
      </trkpt>
      <trkpt lat="44.91461" lon="5.287">
        <ele>1288</ele>
        <time>2019-07-11T16:36:55Z</time>
      </trkpt>
      <trkpt lat="44.91446" lon="5.28699">
        <ele>1288</ele>
        <time>2019-07-11T16:37:01Z</time>
      </trkpt>
      <trkpt lat="44.91435" lon="5.28693">
        <ele>1287</ele>
        <time>2019-07-11T16:37:37Z</time>
      </trkpt>
      <trkpt lat="44.91421" lon="5.28675">
        <ele>1283</ele>
        <time>2019-07-11T16:37:44Z</time>
      </trkpt>
      <trkpt lat="44.91382" lon="5.28608">
        <ele>1276</ele>
        <time>2019-07-11T16:37:57Z</time>
      </trkpt>
      <trkpt lat="44.91358" lon="5.28576">
        <ele>1274</ele>
        <time>2019-07-11T16:38:04Z</time>
      </trkpt>
      <trkpt lat="44.91337" lon="5.28552">
        <ele>1274</ele>
        <time>2019-07-11T16:38:22Z</time>
      </trkpt>
      <trkpt lat="44.91319" lon="5.28537">
        <ele>1273</ele>
        <time>2019-07-11T16:38:29Z</time>
      </trkpt>
      <trkpt lat="44.91299" lon="5.28527">
        <ele>1272</ele>
        <time>2019-07-11T16:38:49Z</time>
      </trkpt>
      <trkpt lat="44.91282" lon="5.28522">
        <ele>1272</ele>
        <time>2019-07-11T16:38:54Z</time>
      </trkpt>
      <trkpt lat="44.91261" lon="5.28521">
        <ele>1273</ele>
        <time>2019-07-11T16:38:59Z</time>
      </trkpt>
      <trkpt lat="44.91243" lon="5.28524">
        <ele>1274</ele>
        <time>2019-07-11T16:39:06Z</time>
      </trkpt>
      <trkpt lat="44.91155" lon="5.28553">
        <ele>1272</ele>
        <time>2019-07-11T16:39:17Z</time>
      </trkpt>
      <trkpt lat="44.91024" lon="5.28575">
        <ele>1271</ele>
        <time>2019-07-11T16:39:19Z</time>
      </trkpt>
      <trkpt lat="44.91008" lon="5.2858">
        <ele>1271</ele>
        <time>2019-07-11T16:39:21Z</time>
      </trkpt>
      <trkpt lat="44.90993" lon="5.2859">
        <ele>1272</ele>
        <time>2019-07-11T16:39:24Z</time>
      </trkpt>
      <trkpt lat="44.90962" lon="5.28617">
        <ele>1275</ele>
        <time>2019-07-11T16:39:26Z</time>
      </trkpt>
      <trkpt lat="44.90945" lon="5.28628">
        <ele>1276</ele>
        <time>2019-07-11T16:39:29Z</time>
      </trkpt>
      <trkpt lat="44.90931" lon="5.28631">
        <ele>1275</ele>
        <time>2019-07-11T16:39:33Z</time>
      </trkpt>
      <trkpt lat="44.90919" lon="5.28627">
        <ele>1274</ele>
        <time>2019-07-11T16:39:36Z</time>
      </trkpt>
      <trkpt lat="44.90873" lon="5.28598">
        <ele>1269</ele>
        <time>2019-07-11T16:39:39Z</time>
      </trkpt>
      <trkpt lat="44.90782" lon="5.28552">
        <ele>1270</ele>
        <time>2019-07-11T16:39:43Z</time>
      </trkpt>
      <trkpt lat="44.9077" lon="5.28539">
        <ele>1270</ele>
        <time>2019-07-11T16:39:47Z</time>
      </trkpt>
      <trkpt lat="44.90757" lon="5.2852">
        <ele>1271</ele>
        <time>2019-07-11T16:39:54Z</time>
      </trkpt>
      <trkpt lat="44.9075" lon="5.28498">
        <ele>1271</ele>
        <time>2019-07-11T16:39:59Z</time>
      </trkpt>
      <trkpt lat="44.90748" lon="5.28472">
        <ele>1272</ele>
        <time>2019-07-11T16:40:10Z</time>
      </trkpt>
      <trkpt lat="44.90749" lon="5.28443">
        <ele>1272</ele>
        <time>2019-07-11T16:40:16Z</time>
      </trkpt>
      <trkpt lat="44.90756" lon="5.28413">
        <ele>1273</ele>
        <time>2019-07-11T16:40:23Z</time>
      </trkpt>
      <trkpt lat="44.9077" lon="5.28389">
        <ele>1273</ele>
        <time>2019-07-11T16:40:28Z</time>
      </trkpt>
      <trkpt lat="44.90794" lon="5.28357">
        <ele>1273</ele>
        <time>2019-07-11T16:40:40Z</time>
      </trkpt>
      <trkpt lat="44.90806" lon="5.28333">
        <ele>1274</ele>
        <time>2019-07-11T16:41:05Z</time>
      </trkpt>
      <trkpt lat="44.90821" lon="5.2828">
        <ele>1281</ele>
        <time>2019-07-11T16:41:33Z</time>
      </trkpt>
      <trkpt lat="44.90832" lon="5.28255">
        <ele>1284</ele>
        <time>2019-07-11T16:41:38Z</time>
      </trkpt>
      <trkpt lat="44.90849" lon="5.28231">
        <ele>1287</ele>
        <time>2019-07-11T16:41:51Z</time>
      </trkpt>
      <trkpt lat="44.90876" lon="5.28206">
        <ele>1289</ele>
        <time>2019-07-11T16:41:54Z</time>
      </trkpt>
      <trkpt lat="44.90888" lon="5.28188">
        <ele>1291</ele>
        <time>2019-07-11T16:41:57Z</time>
      </trkpt>
      <trkpt lat="44.90893" lon="5.28168">
        <ele>1294</ele>
        <time>2019-07-11T16:42:07Z</time>
      </trkpt>
      <trkpt lat="44.90893" lon="5.28145">
        <ele>1296</ele>
        <time>2019-07-11T16:42:10Z</time>
      </trkpt>
      <trkpt lat="44.90883" lon="5.28063">
        <ele>1303</ele>
        <time>2019-07-11T16:42:28Z</time>
      </trkpt>
      <trkpt lat="44.90879" lon="5.28021">
        <ele>1307</ele>
        <time>2019-07-11T16:42:34Z</time>
      </trkpt>
      <trkpt lat="44.90881" lon="5.27988">
        <ele>1309</ele>
        <time>2019-07-11T16:42:38Z</time>
      </trkpt>
      <trkpt lat="44.90887" lon="5.27965">
        <ele>1310</ele>
        <time>2019-07-11T16:42:40Z</time>
      </trkpt>
      <trkpt lat="44.90898" lon="5.27942">
        <ele>1310</ele>
        <time>2019-07-11T16:42:43Z</time>
      </trkpt>
      <trkpt lat="44.90918" lon="5.27913">
        <ele>1309</ele>
        <time>2019-07-11T16:42:45Z</time>
      </trkpt>
      <trkpt lat="44.9097" lon="5.27858">
        <ele>1310</ele>
        <time>2019-07-11T16:42:47Z</time>
      </trkpt>
      <trkpt lat="44.90986" lon="5.27832">
        <ele>1310</ele>
        <time>2019-07-11T16:42:49Z</time>
      </trkpt>
      <trkpt lat="44.90994" lon="5.27805">
        <ele>1313</ele>
        <time>2019-07-11T16:42:50Z</time>
      </trkpt>
      <trkpt lat="44.90993" lon="5.27776">
        <ele>1316</ele>
        <time>2019-07-11T16:42:51Z</time>
      </trkpt>
      <trkpt lat="44.90987" lon="5.27743">
        <ele>1320</ele>
        <time>2019-07-11T16:42:53Z</time>
      </trkpt>
      <trkpt lat="44.90975" lon="5.27719">
        <ele>1320</ele>
        <time>2019-07-11T16:42:58Z</time>
      </trkpt>
      <trkpt lat="44.90929" lon="5.2767">
        <ele>1324</ele>
        <time>2019-07-11T16:43:00Z</time>
      </trkpt>
      <trkpt lat="44.90896" lon="5.27642">
        <ele>1322</ele>
        <time>2019-07-11T16:43:03Z</time>
      </trkpt>
      <trkpt lat="44.90871" lon="5.27627">
        <ele>1320</ele>
        <time>2019-07-11T16:43:06Z</time>
      </trkpt>
      <trkpt lat="44.90847" lon="5.27623">
        <ele>1319</ele>
        <time>2019-07-11T16:43:09Z</time>
      </trkpt>
      <trkpt lat="44.9081" lon="5.27622">
        <ele>1320</ele>
        <time>2019-07-11T16:43:12Z</time>
      </trkpt>
      <trkpt lat="44.90778" lon="5.27626">
        <ele>1322</ele>
        <time>2019-07-11T16:43:18Z</time>
      </trkpt>
      <trkpt lat="44.90751" lon="5.27621">
        <ele>1323</ele>
        <time>2019-07-11T16:43:25Z</time>
      </trkpt>
      <trkpt lat="44.90713" lon="5.27609">
        <ele>1321</ele>
        <time>2019-07-11T16:43:34Z</time>
      </trkpt>
      <trkpt lat="44.90679" lon="5.27589">
        <ele>1317</ele>
        <time>2019-07-11T16:43:38Z</time>
      </trkpt>
      <trkpt lat="44.90632" lon="5.27544">
        <ele>1314</ele>
        <time>2019-07-11T16:43:47Z</time>
      </trkpt>
      <trkpt lat="44.90561" lon="5.27461">
        <ele>1310</ele>
        <time>2019-07-11T16:43:51Z</time>
      </trkpt>
      <trkpt lat="44.90523" lon="5.27422">
        <ele>1309</ele>
        <time>2019-07-11T16:44:02Z</time>
      </trkpt>
      <trkpt lat="44.90492" lon="5.27396">
        <ele>1308</ele>
        <time>2019-07-11T16:44:06Z</time>
      </trkpt>
      <trkpt lat="44.90466" lon="5.27362">
        <ele>1306</ele>
        <time>2019-07-11T16:44:09Z</time>
      </trkpt>
      <trkpt lat="44.90409" lon="5.27259">
        <ele>1299</ele>
        <time>2019-07-11T16:44:12Z</time>
      </trkpt>
      <trkpt lat="44.90389" lon="5.27235">
        <ele>1296</ele>
        <time>2019-07-11T16:44:15Z</time>
      </trkpt>
      <trkpt lat="44.90369" lon="5.27218">
        <ele>1295</ele>
        <time>2019-07-11T16:44:25Z</time>
      </trkpt>
      <trkpt lat="44.90352" lon="5.2721">
        <ele>1295</ele>
        <time>2019-07-11T16:44:26Z</time>
      </trkpt>
      <trkpt lat="44.90327" lon="5.27205">
        <ele>1295</ele>
        <time>2019-07-11T16:44:27Z</time>
      </trkpt>
      <trkpt lat="44.90257" lon="5.27198">
        <ele>1291</ele>
        <time>2019-07-11T16:44:29Z</time>
      </trkpt>
      <trkpt lat="44.90121" lon="5.27202">
        <ele>1282</ele>
        <time>2019-07-11T16:44:32Z</time>
      </trkpt>
      <trkpt lat="44.89972" lon="5.27183">
        <ele>1265</ele>
        <time>2019-07-11T16:44:37Z</time>
      </trkpt>
      <trkpt lat="44.89935" lon="5.27184">
        <ele>1264</ele>
        <time>2019-07-11T16:44:40Z</time>
      </trkpt>
      <trkpt lat="44.89867" lon="5.27201">
        <ele>1263</ele>
        <time>2019-07-11T16:44:50Z</time>
      </trkpt>
      <trkpt lat="44.89837" lon="5.27196">
        <ele>1260</ele>
        <time>2019-07-11T16:44:59Z</time>
      </trkpt>
      <trkpt lat="44.8981" lon="5.27185">
        <ele>1256</ele>
        <time>2019-07-11T16:45:04Z</time>
      </trkpt>
      <trkpt lat="44.89782" lon="5.27187">
        <ele>1255</ele>
        <time>2019-07-11T16:45:08Z</time>
      </trkpt>
      <trkpt lat="44.89724" lon="5.27219">
        <ele>1259</ele>
        <time>2019-07-11T16:45:12Z</time>
      </trkpt>
      <trkpt lat="44.89693" lon="5.2722">
        <ele>1259</ele>
        <time>2019-07-11T16:45:19Z</time>
      </trkpt>
      <trkpt lat="44.89666" lon="5.27214">
        <ele>1257</ele>
        <time>2019-07-11T16:45:22Z</time>
      </trkpt>
      <trkpt lat="44.89648" lon="5.27201">
        <ele>1256</ele>
        <time>2019-07-11T16:45:27Z</time>
      </trkpt>
      <trkpt lat="44.89641" lon="5.27177">
        <ele>1253</ele>
        <time>2019-07-11T16:45:31Z</time>
      </trkpt>
      <trkpt lat="44.89651" lon="5.27155">
        <ele>1252</ele>
        <time>2019-07-11T16:45:34Z</time>
      </trkpt>
      <trkpt lat="44.89671" lon="5.27148">
        <ele>1252</ele>
        <time>2019-07-11T16:45:37Z</time>
      </trkpt>
      <trkpt lat="44.89695" lon="5.27148">
        <ele>1251</ele>
        <time>2019-07-11T16:45:39Z</time>
      </trkpt>
      <trkpt lat="44.89719" lon="5.27142">
        <ele>1251</ele>
        <time>2019-07-11T16:45:42Z</time>
      </trkpt>
      <trkpt lat="44.89744" lon="5.27123">
        <ele>1250</ele>
        <time>2019-07-11T16:45:45Z</time>
      </trkpt>
      <trkpt lat="44.89809" lon="5.27025">
        <ele>1243</ele>
        <time>2019-07-11T16:45:48Z</time>
      </trkpt>
      <trkpt lat="44.89835" lon="5.26996">
        <ele>1238</ele>
        <time>2019-07-11T16:45:50Z</time>
      </trkpt>
      <trkpt lat="44.89945" lon="5.26908">
        <ele>1230</ele>
        <time>2019-07-11T16:45:52Z</time>
      </trkpt>
      <trkpt lat="44.9003" lon="5.26808">
        <ele>1228</ele>
        <time>2019-07-11T16:45:55Z</time>
      </trkpt>
      <trkpt lat="44.90053" lon="5.26772">
        <ele>1226</ele>
        <time>2019-07-11T16:46:02Z</time>
      </trkpt>
      <trkpt lat="44.90071" lon="5.26725">
        <ele>1227</ele>
        <time>2019-07-11T16:46:05Z</time>
      </trkpt>
      <trkpt lat="44.90099" lon="5.26629">
        <ele>1227</ele>
        <time>2019-07-11T16:46:07Z</time>
      </trkpt>
      <trkpt lat="44.90144" lon="5.26513">
        <ele>1222</ele>
        <time>2019-07-11T16:46:17Z</time>
      </trkpt>
      <trkpt lat="44.90182" lon="5.26425">
        <ele>1223</ele>
        <time>2019-07-11T16:46:19Z</time>
      </trkpt>
      <trkpt lat="44.90214" lon="5.26373">
        <ele>1216</ele>
        <time>2019-07-11T16:46:26Z</time>
      </trkpt>
      <trkpt lat="44.90224" lon="5.26351">
        <ele>1218</ele>
        <time>2019-07-11T16:46:35Z</time>
      </trkpt>
      <trkpt lat="44.90225" lon="5.26339">
        <ele>1221</ele>
        <time>2019-07-11T16:46:40Z</time>
      </trkpt>
      <trkpt lat="44.90225" lon="5.26323">
        <ele>1222</ele>
        <time>2019-07-11T16:46:42Z</time>
      </trkpt>
      <trkpt lat="44.90221" lon="5.26298">
        <ele>1222</ele>
        <time>2019-07-11T16:46:48Z</time>
      </trkpt>
      <trkpt lat="44.90211" lon="5.26275">
        <ele>1223</ele>
        <time>2019-07-11T16:46:50Z</time>
      </trkpt>
      <trkpt lat="44.90165" lon="5.26193">
        <ele>1224</ele>
        <time>2019-07-11T16:46:52Z</time>
      </trkpt>
      <trkpt lat="44.90157" lon="5.26171">
        <ele>1222</ele>
        <time>2019-07-11T16:46:56Z</time>
      </trkpt>
      <trkpt lat="44.90156" lon="5.26155">
        <ele>1222</ele>
        <time>2019-07-11T16:46:58Z</time>
      </trkpt>
      <trkpt lat="44.90157" lon="5.2614">
        <ele>1223</ele>
        <time>2019-07-11T16:47:00Z</time>
      </trkpt>
      <trkpt lat="44.90166" lon="5.26118">
        <ele>1223</ele>
        <time>2019-07-11T16:47:08Z</time>
      </trkpt>
      <trkpt lat="44.90179" lon="5.26101">
        <ele>1217</ele>
        <time>2019-07-11T16:47:17Z</time>
      </trkpt>
      <trkpt lat="44.90194" lon="5.2607">
        <ele>1208</ele>
        <time>2019-07-11T16:47:35Z</time>
      </trkpt>
      <trkpt lat="44.90196" lon="5.26037">
        <ele>1206</ele>
        <time>2019-07-11T16:47:54Z</time>
      </trkpt>
      <trkpt lat="44.90193" lon="5.26024">
        <ele>1208</ele>
        <time>2019-07-11T16:47:58Z</time>
      </trkpt>
      <trkpt lat="44.90189" lon="5.26012">
        <ele>1210</ele>
        <time>2019-07-11T16:48:00Z</time>
      </trkpt>
      <trkpt lat="44.90181" lon="5.26">
        <ele>1216</ele>
        <time>2019-07-11T16:48:03Z</time>
      </trkpt>
      <trkpt lat="44.90172" lon="5.25992">
        <ele>1221</ele>
        <time>2019-07-11T16:48:05Z</time>
      </trkpt>
      <trkpt lat="44.90117" lon="5.2597">
        <ele>1221</ele>
        <time>2019-07-11T16:48:07Z</time>
      </trkpt>
      <trkpt lat="44.89935" lon="5.25925">
        <ele>1208</ele>
        <time>2019-07-11T16:48:10Z</time>
      </trkpt>
      <trkpt lat="44.89899" lon="5.25913">
        <ele>1206</ele>
        <time>2019-07-11T16:48:21Z</time>
      </trkpt>
      <trkpt lat="44.89711" lon="5.25819">
        <ele>1188</ele>
        <time>2019-07-11T16:48:24Z</time>
      </trkpt>
      <trkpt lat="44.89673" lon="5.25802">
        <ele>1185</ele>
        <time>2019-07-11T16:48:27Z</time>
      </trkpt>
      <trkpt lat="44.89597" lon="5.25785">
        <ele>1186</ele>
        <time>2019-07-11T16:48:39Z</time>
      </trkpt>
      <trkpt lat="44.89563" lon="5.2577">
        <ele>1184</ele>
        <time>2019-07-11T16:48:43Z</time>
      </trkpt>
      <trkpt lat="44.89469" lon="5.25704">
        <ele>1174</ele>
        <time>2019-07-11T16:48:46Z</time>
      </trkpt>
      <trkpt lat="44.89441" lon="5.25674">
        <ele>1170</ele>
        <time>2019-07-11T16:49:07Z</time>
      </trkpt>
      <trkpt lat="44.89365" lon="5.25552">
        <ele>1159</ele>
        <time>2019-07-11T16:49:12Z</time>
      </trkpt>
      <trkpt lat="44.89346" lon="5.25529">
        <ele>1156</ele>
        <time>2019-07-11T16:49:14Z</time>
      </trkpt>
      <trkpt lat="44.8932" lon="5.25507">
        <ele>1153</ele>
        <time>2019-07-11T16:49:17Z</time>
      </trkpt>
      <trkpt lat="44.89285" lon="5.25482">
        <ele>1150</ele>
        <time>2019-07-11T16:49:22Z</time>
      </trkpt>
      <trkpt lat="44.89226" lon="5.25457">
        <ele>1148</ele>
        <time>2019-07-11T16:49:27Z</time>
      </trkpt>
      <trkpt lat="44.89215" lon="5.25448">
        <ele>1148</ele>
        <time>2019-07-11T16:49:34Z</time>
      </trkpt>
      <trkpt lat="44.8921" lon="5.25433">
        <ele>1146</ele>
        <time>2019-07-11T16:49:43Z</time>
      </trkpt>
      <trkpt lat="44.89208" lon="5.25413">
        <ele>1143</ele>
        <time>2019-07-11T16:49:46Z</time>
      </trkpt>
      <trkpt lat="44.8921" lon="5.25393">
        <ele>1143</ele>
        <time>2019-07-11T16:49:52Z</time>
      </trkpt>
      <trkpt lat="44.89219" lon="5.25373">
        <ele>1141</ele>
        <time>2019-07-11T16:50:00Z</time>
      </trkpt>
      <trkpt lat="44.89235" lon="5.25351">
        <ele>1139</ele>
        <time>2019-07-11T16:50:02Z</time>
      </trkpt>
      <trkpt lat="44.89248" lon="5.25341">
        <ele>1138</ele>
        <time>2019-07-11T16:50:09Z</time>
      </trkpt>
      <trkpt lat="44.89266" lon="5.2533">
        <ele>1139</ele>
        <time>2019-07-11T16:50:13Z</time>
      </trkpt>
      <trkpt lat="44.89284" lon="5.25326">
        <ele>1140</ele>
        <time>2019-07-11T16:50:17Z</time>
      </trkpt>
      <trkpt lat="44.89308" lon="5.25327">
        <ele>1141</ele>
        <time>2019-07-11T16:50:21Z</time>
      </trkpt>
      <trkpt lat="44.89347" lon="5.25333">
        <ele>1141</ele>
        <time>2019-07-11T16:50:24Z</time>
      </trkpt>
      <trkpt lat="44.89377" lon="5.2533">
        <ele>1142</ele>
        <time>2019-07-11T16:50:27Z</time>
      </trkpt>
      <trkpt lat="44.89436" lon="5.25317">
        <ele>1146</ele>
        <time>2019-07-11T16:50:39Z</time>
      </trkpt>
      <trkpt lat="44.89468" lon="5.25306">
        <ele>1149</ele>
        <time>2019-07-11T16:50:42Z</time>
      </trkpt>
      <trkpt lat="44.89504" lon="5.25284">
        <ele>1155</ele>
        <time>2019-07-11T16:50:48Z</time>
      </trkpt>
      <trkpt lat="44.89531" lon="5.25272">
        <ele>1156</ele>
        <time>2019-07-11T16:50:50Z</time>
      </trkpt>
      <trkpt lat="44.896" lon="5.25254">
        <ele>1159</ele>
        <time>2019-07-11T16:50:54Z</time>
      </trkpt>
      <trkpt lat="44.89739" lon="5.25239">
        <ele>1174</ele>
        <time>2019-07-11T16:50:56Z</time>
      </trkpt>
      <trkpt lat="44.89896" lon="5.25213">
        <ele>1181</ele>
        <time>2019-07-11T16:50:58Z</time>
      </trkpt>
      <trkpt lat="44.8992" lon="5.25207">
        <ele>1182</ele>
        <time>2019-07-11T16:51:04Z</time>
      </trkpt>
      <trkpt lat="44.89992" lon="5.25167">
        <ele>1182</ele>
        <time>2019-07-11T16:51:06Z</time>
      </trkpt>
      <trkpt lat="44.90006" lon="5.25156">
        <ele>1183</ele>
        <time>2019-07-11T16:51:17Z</time>
      </trkpt>
      <trkpt lat="44.90019" lon="5.25144">
        <ele>1184</ele>
        <time>2019-07-11T16:51:21Z</time>
      </trkpt>
      <trkpt lat="44.90058" lon="5.25088">
        <ele>1200</ele>
        <time>2019-07-11T16:51:26Z</time>
      </trkpt>
      <trkpt lat="44.90073" lon="5.25072">
        <ele>1201</ele>
        <time>2019-07-11T16:51:36Z</time>
      </trkpt>
      <trkpt lat="44.9016" lon="5.2501">
        <ele>1201</ele>
        <time>2019-07-11T16:51:47Z</time>
      </trkpt>
      <trkpt lat="44.90191" lon="5.24989">
        <ele>1194</ele>
        <time>2019-07-11T16:51:56Z</time>
      </trkpt>
      <trkpt lat="44.90211" lon="5.24968">
        <ele>1183</ele>
        <time>2019-07-11T16:52:00Z</time>
      </trkpt>
      <trkpt lat="44.9022" lon="5.24954">
        <ele>1175</ele>
        <time>2019-07-11T16:52:10Z</time>
      </trkpt>
      <trkpt lat="44.90225" lon="5.24936">
        <ele>1168</ele>
        <time>2019-07-11T16:52:14Z</time>
      </trkpt>
      <trkpt lat="44.90226" lon="5.24917">
        <ele>1163</ele>
        <time>2019-07-11T16:52:17Z</time>
      </trkpt>
      <trkpt lat="44.90223" lon="5.24904">
        <ele>1157</ele>
        <time>2019-07-11T16:52:20Z</time>
      </trkpt>
      <trkpt lat="44.90216" lon="5.2489">
        <ele>1153</ele>
        <time>2019-07-11T16:52:26Z</time>
      </trkpt>
      <trkpt lat="44.9021" lon="5.24887">
        <ele>1156</ele>
        <time>2019-07-11T16:52:29Z</time>
      </trkpt>
      <trkpt lat="44.90204" lon="5.24886">
        <ele>1160</ele>
        <time>2019-07-11T16:52:31Z</time>
      </trkpt>
      <trkpt lat="44.90195" lon="5.24887">
        <ele>1167</ele>
        <time>2019-07-11T16:52:35Z</time>
      </trkpt>
      <trkpt lat="44.90173" lon="5.24909">
        <ele>1194</ele>
        <time>2019-07-11T16:52:46Z</time>
      </trkpt>
      <trkpt lat="44.9016" lon="5.24915">
        <ele>1204</ele>
        <time>2019-07-11T16:52:50Z</time>
      </trkpt>
      <trkpt lat="44.90145" lon="5.24916">
        <ele>1210</ele>
        <time>2019-07-11T16:52:53Z</time>
      </trkpt>
      <trkpt lat="44.9013" lon="5.24913">
        <ele>1215</ele>
        <time>2019-07-11T16:53:02Z</time>
      </trkpt>
      <trkpt lat="44.90112" lon="5.24904">
        <ele>1219</ele>
        <time>2019-07-11T16:53:16Z</time>
      </trkpt>
      <trkpt lat="44.90099" lon="5.24895">
        <ele>1221</ele>
        <time>2019-07-11T16:53:26Z</time>
      </trkpt>
      <trkpt lat="44.9007" lon="5.24865">
        <ele>1230</ele>
        <time>2019-07-11T16:53:28Z</time>
      </trkpt>
      <trkpt lat="44.90042" lon="5.24822">
        <ele>1242</ele>
        <time>2019-07-11T16:53:31Z</time>
      </trkpt>
      <trkpt lat="44.90004" lon="5.24779">
        <ele>1252</ele>
        <time>2019-07-11T16:53:33Z</time>
      </trkpt>
      <trkpt lat="44.89989" lon="5.24757">
        <ele>1250</ele>
        <time>2019-07-11T16:53:38Z</time>
      </trkpt>
      <trkpt lat="44.8996" lon="5.247">
        <ele>1244</ele>
        <time>2019-07-11T16:53:47Z</time>
      </trkpt>
      <trkpt lat="44.89943" lon="5.24676">
        <ele>1245</ele>
        <time>2019-07-11T16:53:50Z</time>
      </trkpt>
      <trkpt lat="44.89894" lon="5.24622">
        <ele>1263</ele>
        <time>2019-07-11T16:53:53Z</time>
      </trkpt>
      <trkpt lat="44.8988" lon="5.24601">
        <ele>1267</ele>
        <time>2019-07-11T16:53:58Z</time>
      </trkpt>
      <trkpt lat="44.89869" lon="5.2458">
        <ele>1269</ele>
        <time>2019-07-11T16:54:04Z</time>
      </trkpt>
      <trkpt lat="44.89864" lon="5.24556">
        <ele>1271</ele>
        <time>2019-07-11T16:54:29Z</time>
      </trkpt>
      <trkpt lat="44.89864" lon="5.24534">
        <ele>1268</ele>
        <time>2019-07-11T16:54:34Z</time>
      </trkpt>
      <trkpt lat="44.8987" lon="5.24455">
        <ele>1259</ele>
        <time>2019-07-11T16:54:40Z</time>
      </trkpt>
      <trkpt lat="44.89867" lon="5.24448">
        <ele>1261</ele>
        <time>2019-07-11T16:54:54Z</time>
      </trkpt>
      <trkpt lat="44.89861" lon="5.24439">
        <ele>1267</ele>
        <time>2019-07-11T16:54:57Z</time>
      </trkpt>
      <trkpt lat="44.89858" lon="5.24424">
        <ele>1269</ele>
        <time>2019-07-11T16:55:01Z</time>
      </trkpt>
      <trkpt lat="44.8986" lon="5.24403">
        <ele>1267</ele>
        <time>2019-07-11T16:55:07Z</time>
      </trkpt>
      <trkpt lat="44.89867" lon="5.24363">
        <ele>1259</ele>
        <time>2019-07-11T16:55:18Z</time>
      </trkpt>
      <trkpt lat="44.89865" lon="5.24344">
        <ele>1259</ele>
        <time>2019-07-11T16:55:22Z</time>
      </trkpt>
      <trkpt lat="44.89829" lon="5.24276">
        <ele>1276</ele>
        <time>2019-07-11T16:55:24Z</time>
      </trkpt>
      <trkpt lat="44.89806" lon="5.24214">
        <ele>1284</ele>
        <time>2019-07-11T16:55:33Z</time>
      </trkpt>
      <trkpt lat="44.89797" lon="5.24175">
        <ele>1286</ele>
        <time>2019-07-11T16:55:38Z</time>
      </trkpt>
      <trkpt lat="44.89795" lon="5.2415">
        <ele>1286</ele>
        <time>2019-07-11T16:55:43Z</time>
      </trkpt>
      <trkpt lat="44.89793" lon="5.24118">
        <ele>1287</ele>
        <time>2019-07-11T16:55:45Z</time>
      </trkpt>
      <trkpt lat="44.89795" lon="5.24061">
        <ele>1282</ele>
        <time>2019-07-11T16:55:47Z</time>
      </trkpt>
      <trkpt lat="44.89791" lon="5.24035">
        <ele>1284</ele>
        <time>2019-07-11T16:55:51Z</time>
      </trkpt>
      <trkpt lat="44.89782" lon="5.24001">
        <ele>1289</ele>
        <time>2019-07-11T16:56:03Z</time>
      </trkpt>
      <trkpt lat="44.89771" lon="5.23974">
        <ele>1299</ele>
        <time>2019-07-11T16:56:06Z</time>
      </trkpt>
      <trkpt lat="44.89758" lon="5.23954">
        <ele>1311</ele>
        <time>2019-07-11T16:56:15Z</time>
      </trkpt>
      <trkpt lat="44.8975" lon="5.23937">
        <ele>1318</ele>
        <time>2019-07-11T16:56:17Z</time>
      </trkpt>
      <trkpt lat="44.89749" lon="5.23922">
        <ele>1318</ele>
        <time>2019-07-11T16:56:19Z</time>
      </trkpt>
      <trkpt lat="44.89756" lon="5.23897">
        <ele>1313</ele>
        <time>2019-07-11T16:56:20Z</time>
      </trkpt>
      <trkpt lat="44.89765" lon="5.23875">
        <ele>1308</ele>
        <time>2019-07-11T16:56:27Z</time>
      </trkpt>
      <trkpt lat="44.89776" lon="5.23858">
        <ele>1300</ele>
        <time>2019-07-11T16:56:29Z</time>
      </trkpt>
      <trkpt lat="44.8978" lon="5.23846">
        <ele>1298</ele>
        <time>2019-07-11T16:56:31Z</time>
      </trkpt>
      <trkpt lat="44.89783" lon="5.23828">
        <ele>1297</ele>
        <time>2019-07-11T16:56:33Z</time>
      </trkpt>
      <trkpt lat="44.89781" lon="5.23803">
        <ele>1302</ele>
        <time>2019-07-11T16:56:35Z</time>
      </trkpt>
      <trkpt lat="44.89774" lon="5.23749">
        <ele>1313</ele>
        <time>2019-07-11T16:56:42Z</time>
      </trkpt>
      <trkpt lat="44.89773" lon="5.2373">
        <ele>1315</ele>
        <time>2019-07-11T16:56:46Z</time>
      </trkpt>
      <trkpt lat="44.89776" lon="5.23712">
        <ele>1315</ele>
        <time>2019-07-11T16:56:51Z</time>
      </trkpt>
      <trkpt lat="44.89801" lon="5.2364">
        <ele>1301</ele>
        <time>2019-07-11T16:56:56Z</time>
      </trkpt>
      <trkpt lat="44.898" lon="5.23627">
        <ele>1302</ele>
        <time>2019-07-11T16:57:00Z</time>
      </trkpt>
      <trkpt lat="44.89791" lon="5.23567">
        <ele>1309</ele>
        <time>2019-07-11T16:57:04Z</time>
      </trkpt>
      <trkpt lat="44.89788" lon="5.23495">
        <ele>1303</ele>
        <time>2019-07-11T16:57:08Z</time>
      </trkpt>
      <trkpt lat="44.89789" lon="5.23463">
        <ele>1302</ele>
        <time>2019-07-11T16:57:13Z</time>
      </trkpt>
      <trkpt lat="44.89788" lon="5.23441">
        <ele>1301</ele>
        <time>2019-07-11T16:57:16Z</time>
      </trkpt>
      <trkpt lat="44.89778" lon="5.23399">
        <ele>1302</ele>
        <time>2019-07-11T16:57:21Z</time>
      </trkpt>
      <trkpt lat="44.89776" lon="5.23385">
        <ele>1301</ele>
        <time>2019-07-11T16:57:24Z</time>
      </trkpt>
      <trkpt lat="44.89782" lon="5.23373">
        <ele>1299</ele>
        <time>2019-07-11T16:57:27Z</time>
      </trkpt>
      <trkpt lat="44.89802" lon="5.2335">
        <ele>1296</ele>
        <time>2019-07-11T16:57:32Z</time>
      </trkpt>
      <trkpt lat="44.8981" lon="5.23339">
        <ele>1296</ele>
        <time>2019-07-11T16:57:46Z</time>
      </trkpt>
      <trkpt lat="44.89817" lon="5.23323">
        <ele>1297</ele>
        <time>2019-07-11T16:57:50Z</time>
      </trkpt>
      <trkpt lat="44.89836" lon="5.2327">
        <ele>1303</ele>
        <time>2019-07-11T16:57:53Z</time>
      </trkpt>
      <trkpt lat="44.89857" lon="5.23204">
        <ele>1308</ele>
        <time>2019-07-11T16:57:57Z</time>
      </trkpt>
      <trkpt lat="44.89887" lon="5.23067">
        <ele>1333</ele>
        <time>2019-07-11T16:58:00Z</time>
      </trkpt>
      <trkpt lat="44.89927" lon="5.22929">
        <ele>1338</ele>
        <time>2019-07-11T16:58:06Z</time>
      </trkpt>
      <trkpt lat="44.89935" lon="5.22899">
        <ele>1336</ele>
        <time>2019-07-11T16:58:10Z</time>
      </trkpt>
      <trkpt lat="44.89937" lon="5.22882">
        <ele>1336</ele>
        <time>2019-07-11T16:58:22Z</time>
      </trkpt>
      <trkpt lat="44.89939" lon="5.22863">
        <ele>1336</ele>
        <time>2019-07-11T16:58:29Z</time>
      </trkpt>
      <trkpt lat="44.89939" lon="5.22843">
        <ele>1336</ele>
        <time>2019-07-11T16:58:34Z</time>
      </trkpt>
      <trkpt lat="44.89936" lon="5.22825">
        <ele>1337</ele>
        <time>2019-07-11T16:58:40Z</time>
      </trkpt>
      <trkpt lat="44.89931" lon="5.22803">
        <ele>1336</ele>
        <time>2019-07-11T16:58:45Z</time>
      </trkpt>
      <trkpt lat="44.89906" lon="5.22728">
        <ele>1337</ele>
        <time>2019-07-11T16:58:49Z</time>
      </trkpt>
      <trkpt lat="44.89901" lon="5.22701">
        <ele>1338</ele>
        <time>2019-07-11T16:58:54Z</time>
      </trkpt>
      <trkpt lat="44.89899" lon="5.22681">
        <ele>1339</ele>
        <time>2019-07-11T16:58:58Z</time>
      </trkpt>
      <trkpt lat="44.899" lon="5.22581">
        <ele>1337</ele>
        <time>2019-07-11T16:59:02Z</time>
      </trkpt>
      <trkpt lat="44.89903" lon="5.22555">
        <ele>1336</ele>
        <time>2019-07-11T16:59:07Z</time>
      </trkpt>
      <trkpt lat="44.89908" lon="5.22528">
        <ele>1334</ele>
        <time>2019-07-11T16:59:42Z</time>
      </trkpt>
      <trkpt lat="44.89954" lon="5.22379">
        <ele>1331</ele>
        <time>2019-07-11T16:59:46Z</time>
      </trkpt>
      <trkpt lat="44.89972" lon="5.22351">
        <ele>1331</ele>
        <time>2019-07-11T16:59:50Z</time>
      </trkpt>
      <trkpt lat="44.89985" lon="5.22341">
        <ele>1331</ele>
        <time>2019-07-11T16:59:53Z</time>
      </trkpt>
      <trkpt lat="44.89998" lon="5.22334">
        <ele>1331</ele>
        <time>2019-07-11T17:00:05Z</time>
      </trkpt>
      <trkpt lat="44.90025" lon="5.22328">
        <ele>1334</ele>
        <time>2019-07-11T17:00:14Z</time>
      </trkpt>
      <trkpt lat="44.90054" lon="5.22333">
        <ele>1337</ele>
        <time>2019-07-11T17:00:18Z</time>
      </trkpt>
      <trkpt lat="44.90095" lon="5.22352">
        <ele>1338</ele>
        <time>2019-07-11T17:00:22Z</time>
      </trkpt>
      <trkpt lat="44.9014" lon="5.22385">
        <ele>1336</ele>
        <time>2019-07-11T17:00:26Z</time>
      </trkpt>
      <trkpt lat="44.90154" lon="5.22397">
        <ele>1335</ele>
        <time>2019-07-11T17:00:43Z</time>
      </trkpt>
      <trkpt lat="44.9018" lon="5.22428">
        <ele>1332</ele>
        <time>2019-07-11T17:00:58Z</time>
      </trkpt>
      <trkpt lat="44.90215" lon="5.22457">
        <ele>1331</ele>
        <time>2019-07-11T17:01:08Z</time>
      </trkpt>
      <trkpt lat="44.90229" lon="5.22463">
        <ele>1331</ele>
        <time>2019-07-11T17:01:12Z</time>
      </trkpt>
      <trkpt lat="44.90268" lon="5.22473">
        <ele>1333</ele>
        <time>2019-07-11T17:01:14Z</time>
      </trkpt>
      <trkpt lat="44.90284" lon="5.22489">
        <ele>1332</ele>
        <time>2019-07-11T17:01:26Z</time>
      </trkpt>
      <trkpt lat="44.903" lon="5.22517">
        <ele>1327</ele>
        <time>2019-07-11T17:01:31Z</time>
      </trkpt>
      <trkpt lat="44.90314" lon="5.22536">
        <ele>1325</ele>
        <time>2019-07-11T17:01:35Z</time>
      </trkpt>
      <trkpt lat="44.90328" lon="5.2255">
        <ele>1323</ele>
        <time>2019-07-11T17:01:38Z</time>
      </trkpt>
      <trkpt lat="44.90345" lon="5.22558">
        <ele>1322</ele>
        <time>2019-07-11T17:01:40Z</time>
      </trkpt>
      <trkpt lat="44.90413" lon="5.22563">
        <ele>1322</ele>
        <time>2019-07-11T17:01:43Z</time>
      </trkpt>
      <trkpt lat="44.90426" lon="5.22569">
        <ele>1322</ele>
        <time>2019-07-11T17:01:57Z</time>
      </trkpt>
      <trkpt lat="44.90458" lon="5.22591">
        <ele>1319</ele>
        <time>2019-07-11T17:02:03Z</time>
      </trkpt>
      <trkpt lat="44.90469" lon="5.22596">
        <ele>1319</ele>
        <time>2019-07-11T17:02:12Z</time>
      </trkpt>
      <trkpt lat="44.90493" lon="5.22599">
        <ele>1321</ele>
        <time>2019-07-11T17:02:21Z</time>
      </trkpt>
      <trkpt lat="44.90503" lon="5.22605">
        <ele>1320</ele>
        <time>2019-07-11T17:02:24Z</time>
      </trkpt>
      <trkpt lat="44.90513" lon="5.22615">
        <ele>1319</ele>
        <time>2019-07-11T17:02:25Z</time>
      </trkpt>
      <trkpt lat="44.90532" lon="5.22647">
        <ele>1315</ele>
        <time>2019-07-11T17:02:31Z</time>
      </trkpt>
      <trkpt lat="44.90541" lon="5.22658">
        <ele>1314</ele>
        <time>2019-07-11T17:02:31Z</time>
      </trkpt>
      <trkpt lat="44.90598" lon="5.22694">
        <ele>1311</ele>
        <time>2019-07-11T17:02:34Z</time>
      </trkpt>
      <trkpt lat="44.90621" lon="5.227">
        <ele>1309</ele>
        <time>2019-07-11T17:02:35Z</time>
      </trkpt>
      <trkpt lat="44.90648" lon="5.22703">
        <ele>1307</ele>
        <time>2019-07-11T17:02:38Z</time>
      </trkpt>
      <trkpt lat="44.90705" lon="5.22696">
        <ele>1307</ele>
        <time>2019-07-11T17:02:40Z</time>
      </trkpt>
      <trkpt lat="44.90766" lon="5.22694">
        <ele>1306</ele>
        <time>2019-07-11T17:02:44Z</time>
      </trkpt>
      <trkpt lat="44.90819" lon="5.22687">
        <ele>1305</ele>
        <time>2019-07-11T17:03:08Z</time>
      </trkpt>
      <trkpt lat="44.90838" lon="5.22687">
        <ele>1305</ele>
        <time>2019-07-11T17:03:21Z</time>
      </trkpt>
      <trkpt lat="44.90895" lon="5.22712">
        <ele>1299</ele>
        <time>2019-07-11T17:03:31Z</time>
      </trkpt>
      <trkpt lat="44.90913" lon="5.22714">
        <ele>1298</ele>
        <time>2019-07-11T17:03:44Z</time>
      </trkpt>
      <trkpt lat="44.90933" lon="5.22709">
        <ele>1297</ele>
        <time>2019-07-11T17:03:47Z</time>
      </trkpt>
      <trkpt lat="44.9095" lon="5.22697">
        <ele>1298</ele>
        <time>2019-07-11T17:03:53Z</time>
      </trkpt>
      <trkpt lat="44.90972" lon="5.22667">
        <ele>1301</ele>
        <time>2019-07-11T17:03:57Z</time>
      </trkpt>
      <trkpt lat="44.90988" lon="5.22653">
        <ele>1302</ele>
        <time>2019-07-11T17:04:19Z</time>
      </trkpt>
      <trkpt lat="44.90999" lon="5.22648">
        <ele>1301</ele>
        <time>2019-07-11T17:04:21Z</time>
      </trkpt>
      <trkpt lat="44.91017" lon="5.22646">
        <ele>1301</ele>
        <time>2019-07-11T17:04:23Z</time>
      </trkpt>
      <trkpt lat="44.91081" lon="5.22649">
        <ele>1300</ele>
        <time>2019-07-11T17:04:39Z</time>
      </trkpt>
      <trkpt lat="44.91101" lon="5.22655">
        <ele>1300</ele>
        <time>2019-07-11T17:04:45Z</time>
      </trkpt>
      <trkpt lat="44.91119" lon="5.22663">
        <ele>1300</ele>
        <time>2019-07-11T17:04:49Z</time>
      </trkpt>
      <trkpt lat="44.91164" lon="5.22693">
        <ele>1297</ele>
        <time>2019-07-11T17:04:56Z</time>
      </trkpt>
      <trkpt lat="44.91238" lon="5.22728">
        <ele>1294</ele>
        <time>2019-07-11T17:04:59Z</time>
      </trkpt>
      <trkpt lat="44.91293" lon="5.22748">
        <ele>1292</ele>
        <time>2019-07-11T17:05:06Z</time>
      </trkpt>
      <trkpt lat="44.91307" lon="5.2275">
        <ele>1292</ele>
        <time>2019-07-11T17:05:08Z</time>
      </trkpt>
      <trkpt lat="44.9132" lon="5.22745">
        <ele>1293</ele>
        <time>2019-07-11T17:05:10Z</time>
      </trkpt>
      <trkpt lat="44.91331" lon="5.22735">
        <ele>1294</ele>
        <time>2019-07-11T17:05:12Z</time>
      </trkpt>
      <trkpt lat="44.91349" lon="5.22702">
        <ele>1296</ele>
        <time>2019-07-11T17:05:13Z</time>
      </trkpt>
      <trkpt lat="44.91382" lon="5.22656">
        <ele>1298</ele>
        <time>2019-07-11T17:05:14Z</time>
      </trkpt>
      <trkpt lat="44.91391" lon="5.22636">
        <ele>1296</ele>
        <time>2019-07-11T17:05:15Z</time>
      </trkpt>
      <trkpt lat="44.91395" lon="5.22608">
        <ele>1294</ele>
        <time>2019-07-11T17:05:16Z</time>
      </trkpt>
      <trkpt lat="44.91393" lon="5.22573">
        <ele>1291</ele>
        <time>2019-07-11T17:05:17Z</time>
      </trkpt>
      <trkpt lat="44.91384" lon="5.22523">
        <ele>1286</ele>
        <time>2019-07-11T17:05:22Z</time>
      </trkpt>
      <trkpt lat="44.91324" lon="5.2234">
        <ele>1275</ele>
        <time>2019-07-11T17:05:40Z</time>
      </trkpt>
      <trkpt lat="44.91309" lon="5.22309">
        <ele>1274</ele>
        <time>2019-07-11T17:05:44Z</time>
      </trkpt>
      <trkpt lat="44.91287" lon="5.22278">
        <ele>1274</ele>
        <time>2019-07-11T17:05:54Z</time>
      </trkpt>
      <trkpt lat="44.91229" lon="5.22204">
        <ele>1278</ele>
        <time>2019-07-11T17:06:15Z</time>
      </trkpt>
      <trkpt lat="44.9122" lon="5.22182">
        <ele>1277</ele>
        <time>2019-07-11T17:06:23Z</time>
      </trkpt>
      <trkpt lat="44.91217" lon="5.22153">
        <ele>1274</ele>
        <time>2019-07-11T17:06:42Z</time>
      </trkpt>
      <trkpt lat="44.91216" lon="5.22099">
        <ele>1268</ele>
        <time>2019-07-11T17:06:47Z</time>
      </trkpt>
      <trkpt lat="44.91218" lon="5.22013">
        <ele>1260</ele>
        <time>2019-07-11T17:06:49Z</time>
      </trkpt>
      <trkpt lat="44.91213" lon="5.21986">
        <ele>1259</ele>
        <time>2019-07-11T17:06:50Z</time>
      </trkpt>
      <trkpt lat="44.91206" lon="5.21967">
        <ele>1258</ele>
        <time>2019-07-11T17:06:51Z</time>
      </trkpt>
      <trkpt lat="44.91177" lon="5.2191">
        <ele>1253</ele>
        <time>2019-07-11T17:06:51Z</time>
      </trkpt>
      <trkpt lat="44.91161" lon="5.21875">
        <ele>1249</ele>
        <time>2019-07-11T17:06:52Z</time>
      </trkpt>
      <trkpt lat="44.91151" lon="5.21841">
        <ele>1245</ele>
        <time>2019-07-11T17:06:57Z</time>
      </trkpt>
      <trkpt lat="44.91145" lon="5.21829">
        <ele>1243</ele>
        <time>2019-07-11T17:07:07Z</time>
      </trkpt>
      <trkpt lat="44.91135" lon="5.21819">
        <ele>1241</ele>
        <time>2019-07-11T17:07:12Z</time>
      </trkpt>
      <trkpt lat="44.91116" lon="5.21807">
        <ele>1240</ele>
        <time>2019-07-11T17:07:15Z</time>
      </trkpt>
      <trkpt lat="44.91056" lon="5.21754">
        <ele>1233</ele>
        <time>2019-07-11T17:07:30Z</time>
      </trkpt>
      <trkpt lat="44.91041" lon="5.21746">
        <ele>1233</ele>
        <time>2019-07-11T17:07:42Z</time>
      </trkpt>
      <trkpt lat="44.90991" lon="5.21728">
        <ele>1237</ele>
        <time>2019-07-11T17:07:56Z</time>
      </trkpt>
      <trkpt lat="44.90983" lon="5.2172">
        <ele>1238</ele>
        <time>2019-07-11T17:08:10Z</time>
      </trkpt>
      <trkpt lat="44.90979" lon="5.2171">
        <ele>1237</ele>
        <time>2019-07-11T17:08:14Z</time>
      </trkpt>
      <trkpt lat="44.90978" lon="5.21697">
        <ele>1235</ele>
        <time>2019-07-11T17:08:21Z</time>
      </trkpt>
      <trkpt lat="44.90991" lon="5.21649">
        <ele>1224</ele>
        <time>2019-07-11T17:08:22Z</time>
      </trkpt>
      <trkpt lat="44.90992" lon="5.2163">
        <ele>1221</ele>
        <time>2019-07-11T17:08:24Z</time>
      </trkpt>
      <trkpt lat="44.90989" lon="5.21616">
        <ele>1220</ele>
        <time>2019-07-11T17:08:30Z</time>
      </trkpt>
      <trkpt lat="44.90982" lon="5.21605">
        <ele>1219</ele>
        <time>2019-07-11T17:08:33Z</time>
      </trkpt>
      <trkpt lat="44.90973" lon="5.21596">
        <ele>1218</ele>
        <time>2019-07-11T17:08:36Z</time>
      </trkpt>
      <trkpt lat="44.90932" lon="5.21578">
        <ele>1219</ele>
        <time>2019-07-11T17:08:51Z</time>
      </trkpt>
      <trkpt lat="44.90912" lon="5.21566">
        <ele>1218</ele>
        <time>2019-07-11T17:08:53Z</time>
      </trkpt>
      <trkpt lat="44.90893" lon="5.21545">
        <ele>1217</ele>
        <time>2019-07-11T17:08:55Z</time>
      </trkpt>
      <trkpt lat="44.90871" lon="5.21515">
        <ele>1214</ele>
        <time>2019-07-11T17:08:57Z</time>
      </trkpt>
      <trkpt lat="44.90862" lon="5.2149">
        <ele>1211</ele>
        <time>2019-07-11T17:08:58Z</time>
      </trkpt>
      <trkpt lat="44.90858" lon="5.21458">
        <ele>1212</ele>
        <time>2019-07-11T17:09:01Z</time>
      </trkpt>
      <trkpt lat="44.90865" lon="5.21425">
        <ele>1211</ele>
        <time>2019-07-11T17:09:08Z</time>
      </trkpt>
      <trkpt lat="44.90882" lon="5.21397">
        <ele>1209</ele>
        <time>2019-07-11T17:09:11Z</time>
      </trkpt>
      <trkpt lat="44.909" lon="5.21385">
        <ele>1206</ele>
        <time>2019-07-11T17:09:16Z</time>
      </trkpt>
      <trkpt lat="44.90925" lon="5.21376">
        <ele>1204</ele>
        <time>2019-07-11T17:09:20Z</time>
      </trkpt>
      <trkpt lat="44.90943" lon="5.21367">
        <ele>1203</ele>
        <time>2019-07-11T17:09:25Z</time>
      </trkpt>
      <trkpt lat="44.90959" lon="5.21357">
        <ele>1203</ele>
        <time>2019-07-11T17:09:32Z</time>
      </trkpt>
      <trkpt lat="44.9098" lon="5.21333">
        <ele>1204</ele>
        <time>2019-07-11T17:09:32Z</time>
      </trkpt>
      <trkpt lat="44.91034" lon="5.21256">
        <ele>1201</ele>
        <time>2019-07-11T17:09:32Z</time>
      </trkpt>
      <trkpt lat="44.91048" lon="5.2123">
        <ele>1200</ele>
        <time>2019-07-11T17:09:37Z</time>
      </trkpt>
      <trkpt lat="44.91055" lon="5.21208">
        <ele>1199</ele>
        <time>2019-07-11T17:09:38Z</time>
      </trkpt>
      <trkpt lat="44.91061" lon="5.21178">
        <ele>1199</ele>
        <time>2019-07-11T17:09:40Z</time>
      </trkpt>
      <trkpt lat="44.91062" lon="5.21154">
        <ele>1199</ele>
        <time>2019-07-11T17:09:42Z</time>
      </trkpt>
      <trkpt lat="44.9106" lon="5.21108">
        <ele>1199</ele>
        <time>2019-07-11T17:09:43Z</time>
      </trkpt>
      <trkpt lat="44.9106" lon="5.21071">
        <ele>1198</ele>
        <time>2019-07-11T17:09:57Z</time>
      </trkpt>
      <trkpt lat="44.91074" lon="5.20978">
        <ele>1195</ele>
        <time>2019-07-11T17:10:01Z</time>
      </trkpt>
      <trkpt lat="44.91085" lon="5.20925">
        <ele>1193</ele>
        <time>2019-07-11T17:10:06Z</time>
      </trkpt>
      <trkpt lat="44.911" lon="5.20891">
        <ele>1193</ele>
        <time>2019-07-11T17:10:14Z</time>
      </trkpt>
      <trkpt lat="44.9112" lon="5.20859">
        <ele>1192</ele>
        <time>2019-07-11T17:10:38Z</time>
      </trkpt>
      <trkpt lat="44.91145" lon="5.20833">
        <ele>1191</ele>
        <time>2019-07-11T17:11:01Z</time>
      </trkpt>
      <trkpt lat="44.91166" lon="5.20821">
        <ele>1190</ele>
        <time>2019-07-11T17:11:21Z</time>
      </trkpt>
      <trkpt lat="44.91194" lon="5.20815">
        <ele>1188</ele>
        <time>2019-07-11T17:11:31Z</time>
      </trkpt>
      <trkpt lat="44.91216" lon="5.20813">
        <ele>1186</ele>
        <time>2019-07-11T17:11:47Z</time>
      </trkpt>
      <trkpt lat="44.91237" lon="5.20816">
        <ele>1184</ele>
        <time>2019-07-11T17:11:54Z</time>
      </trkpt>
      <trkpt lat="44.91264" lon="5.20825">
        <ele>1181</ele>
        <time>2019-07-11T17:11:56Z</time>
      </trkpt>
      <trkpt lat="44.91444" lon="5.20941">
        <ele>1161</ele>
        <time>2019-07-11T17:12:04Z</time>
      </trkpt>
      <trkpt lat="44.91465" lon="5.20954">
        <ele>1159</ele>
        <time>2019-07-11T17:12:09Z</time>
      </trkpt>
      <trkpt lat="44.91484" lon="5.20958">
        <ele>1158</ele>
        <time>2019-07-11T17:12:19Z</time>
      </trkpt>
      <trkpt lat="44.91503" lon="5.20959">
        <ele>1156</ele>
        <time>2019-07-11T17:12:24Z</time>
      </trkpt>
      <trkpt lat="44.91571" lon="5.20955">
        <ele>1152</ele>
        <time>2019-07-11T17:12:39Z</time>
      </trkpt>
      <trkpt lat="44.91623" lon="5.2096">
        <ele>1146</ele>
        <time>2019-07-11T17:12:44Z</time>
      </trkpt>
      <trkpt lat="44.91642" lon="5.20956">
        <ele>1145</ele>
        <time>2019-07-11T17:12:46Z</time>
      </trkpt>
      <trkpt lat="44.91662" lon="5.20949">
        <ele>1143</ele>
        <time>2019-07-11T17:13:00Z</time>
      </trkpt>
      <trkpt lat="44.91685" lon="5.20935">
        <ele>1141</ele>
        <time>2019-07-11T17:13:06Z</time>
      </trkpt>
      <trkpt lat="44.91769" lon="5.20867">
        <ele>1134</ele>
        <time>2019-07-11T17:13:13Z</time>
      </trkpt>
      <trkpt lat="44.91841" lon="5.20816">
        <ele>1127</ele>
        <time>2019-07-11T17:13:19Z</time>
      </trkpt>
      <trkpt lat="44.91895" lon="5.20783">
        <ele>1121</ele>
        <time>2019-07-11T17:13:24Z</time>
      </trkpt>
      <trkpt lat="44.91911" lon="5.20765">
        <ele>1120</ele>
        <time>2019-07-11T17:13:27Z</time>
      </trkpt>
      <trkpt lat="44.91921" lon="5.2075">
        <ele>1120</ele>
        <time>2019-07-11T17:13:36Z</time>
      </trkpt>
      <trkpt lat="44.91958" lon="5.20675">
        <ele>1116</ele>
        <time>2019-07-11T17:13:47Z</time>
      </trkpt>
      <trkpt lat="44.91979" lon="5.2065">
        <ele>1113</ele>
        <time>2019-07-11T17:13:59Z</time>
      </trkpt>
      <trkpt lat="44.91998" lon="5.20631">
        <ele>1110</ele>
        <time>2019-07-11T17:14:10Z</time>
      </trkpt>
      <trkpt lat="44.92009" lon="5.20616">
        <ele>1108</ele>
        <time>2019-07-11T17:14:19Z</time>
      </trkpt>
      <trkpt lat="44.92017" lon="5.20602">
        <ele>1106</ele>
        <time>2019-07-11T17:14:23Z</time>
      </trkpt>
      <trkpt lat="44.92024" lon="5.20581">
        <ele>1105</ele>
        <time>2019-07-11T17:14:25Z</time>
      </trkpt>
      <trkpt lat="44.92046" lon="5.20473">
        <ele>1102</ele>
        <time>2019-07-11T17:14:32Z</time>
      </trkpt>
      <trkpt lat="44.92056" lon="5.20429">
        <ele>1100</ele>
        <time>2019-07-11T17:14:41Z</time>
      </trkpt>
      <trkpt lat="44.92086" lon="5.20372">
        <ele>1092</ele>
        <time>2019-07-11T17:14:48Z</time>
      </trkpt>
      <trkpt lat="44.92109" lon="5.20303">
        <ele>1090</ele>
        <time>2019-07-11T17:14:56Z</time>
      </trkpt>
      <trkpt lat="44.92119" lon="5.20288">
        <ele>1087</ele>
        <time>2019-07-11T17:15:05Z</time>
      </trkpt>
      <trkpt lat="44.92127" lon="5.20282">
        <ele>1086</ele>
        <time>2019-07-11T17:15:18Z</time>
      </trkpt>
      <trkpt lat="44.92155" lon="5.20275">
        <ele>1081</ele>
        <time>2019-07-11T17:15:23Z</time>
      </trkpt>
      <trkpt lat="44.92159" lon="5.20271">
        <ele>1080</ele>
        <time>2019-07-11T17:15:35Z</time>
      </trkpt>
      <trkpt lat="44.92165" lon="5.20254">
        <ele>1077</ele>
        <time>2019-07-11T17:15:40Z</time>
      </trkpt>
      <trkpt lat="44.92165" lon="5.20243">
        <ele>1074</ele>
        <time>2019-07-11T17:15:48Z</time>
      </trkpt>
      <trkpt lat="44.92155" lon="5.20222">
        <ele>1068</ele>
        <time>2019-07-11T17:15:56Z</time>
      </trkpt>
      <trkpt lat="44.92145" lon="5.20213">
        <ele>1066</ele>
        <time>2019-07-11T17:16:00Z</time>
      </trkpt>
      <trkpt lat="44.92128" lon="5.20204">
        <ele>1067</ele>
        <time>2019-07-11T17:16:10Z</time>
      </trkpt>
      <trkpt lat="44.92003" lon="5.20119">
        <ele>1065</ele>
        <time>2019-07-11T17:16:14Z</time>
      </trkpt>
      <trkpt lat="44.91945" lon="5.20066">
        <ele>1055</ele>
        <time>2019-07-11T17:16:24Z</time>
      </trkpt>
      <trkpt lat="44.91892" lon="5.20024">
        <ele>1049</ele>
        <time>2019-07-11T17:16:57Z</time>
      </trkpt>
      <trkpt lat="44.9183" lon="5.19985">
        <ele>1042</ele>
        <time>2019-07-11T17:17:02Z</time>
      </trkpt>
      <trkpt lat="44.91814" lon="5.19977">
        <ele>1041</ele>
        <time>2019-07-11T17:17:06Z</time>
      </trkpt>
      <trkpt lat="44.91776" lon="5.19967">
        <ele>1042</ele>
        <time>2019-07-11T17:17:26Z</time>
      </trkpt>
      <trkpt lat="44.91756" lon="5.19959">
        <ele>1041</ele>
        <time>2019-07-11T17:18:01Z</time>
      </trkpt>
      <trkpt lat="44.91641" lon="5.19902">
        <ele>1029</ele>
        <time>2019-07-11T17:18:02Z</time>
      </trkpt>
      <trkpt lat="44.91628" lon="5.19896">
        <ele>1026</ele>
        <time>2019-07-11T17:18:07Z</time>
      </trkpt>
      <trkpt lat="44.91616" lon="5.19893">
        <ele>1025</ele>
        <time>2019-07-11T17:18:27Z</time>
      </trkpt>
      <trkpt lat="44.91531" lon="5.19883">
        <ele>1021</ele>
        <time>2019-07-11T17:18:32Z</time>
      </trkpt>
      <trkpt lat="44.91495" lon="5.19883">
        <ele>1020</ele>
        <time>2019-07-11T17:18:38Z</time>
      </trkpt>
      <trkpt lat="44.91471" lon="5.1988">
        <ele>1018</ele>
        <time>2019-07-11T17:18:53Z</time>
      </trkpt>
      <trkpt lat="44.91436" lon="5.19872">
        <ele>1013</ele>
        <time>2019-07-11T17:18:58Z</time>
      </trkpt>
      <trkpt lat="44.91416" lon="5.19871">
        <ele>1011</ele>
        <time>2019-07-11T17:19:06Z</time>
      </trkpt>
      <trkpt lat="44.91376" lon="5.19871">
        <ele>1007</ele>
        <time>2019-07-11T17:19:10Z</time>
      </trkpt>
      <trkpt lat="44.91367" lon="5.19873">
        <ele>1007</ele>
        <time>2019-07-11T17:19:34Z</time>
      </trkpt>
      <trkpt lat="44.91356" lon="5.19882">
        <ele>1010</ele>
        <time>2019-07-11T17:19:41Z</time>
      </trkpt>
      <trkpt lat="44.91347" lon="5.19886">
        <ele>1011</ele>
        <time>2019-07-11T17:19:56Z</time>
      </trkpt>
      <trkpt lat="44.91341" lon="5.19885">
        <ele>1010</ele>
        <time>2019-07-11T17:20:13Z</time>
      </trkpt>
      <trkpt lat="44.91337" lon="5.19881">
        <ele>1008</ele>
        <time>2019-07-11T17:20:35Z</time>
      </trkpt>
      <trkpt lat="44.91336" lon="5.19871">
        <ele>1004</ele>
        <time>2019-07-11T17:20:48Z</time>
      </trkpt>
      <trkpt lat="44.91337" lon="5.19864">
        <ele>1001</ele>
        <time>2019-07-11T17:20:52Z</time>
      </trkpt>
      <trkpt lat="44.91341" lon="5.19858">
        <ele>998</ele>
        <time>2019-07-11T17:20:56Z</time>
      </trkpt>
      <trkpt lat="44.91367" lon="5.19852">
        <ele>998</ele>
        <time>2019-07-11T17:20:58Z</time>
      </trkpt>
      <trkpt lat="44.91469" lon="5.19819">
        <ele>993</ele>
        <time>2019-07-11T17:21:00Z</time>
      </trkpt>
      <trkpt lat="44.9149" lon="5.19815">
        <ele>993</ele>
        <time>2019-07-11T17:21:07Z</time>
      </trkpt>
      <trkpt lat="44.91547" lon="5.19817">
        <ele>993</ele>
        <time>2019-07-11T17:21:12Z</time>
      </trkpt>
      <trkpt lat="44.91665" lon="5.19793">
        <ele>984</ele>
        <time>2019-07-11T17:21:16Z</time>
      </trkpt>
      <trkpt lat="44.91709" lon="5.19793">
        <ele>980</ele>
        <time>2019-07-11T17:21:20Z</time>
      </trkpt>
      <trkpt lat="44.91814" lon="5.19801">
        <ele>972</ele>
        <time>2019-07-11T17:21:26Z</time>
      </trkpt>
      <trkpt lat="44.91844" lon="5.19812">
        <ele>971</ele>
        <time>2019-07-11T17:21:32Z</time>
      </trkpt>
      <trkpt lat="44.9185" lon="5.19811">
        <ele>969</ele>
        <time>2019-07-11T17:21:42Z</time>
      </trkpt>
      <trkpt lat="44.91854" lon="5.19806">
        <ele>967</ele>
        <time>2019-07-11T17:21:48Z</time>
      </trkpt>
      <trkpt lat="44.91854" lon="5.19798">
        <ele>965</ele>
        <time>2019-07-11T17:21:52Z</time>
      </trkpt>
      <trkpt lat="44.91853" lon="5.19791">
        <ele>963</ele>
        <time>2019-07-11T17:21:56Z</time>
      </trkpt>
      <trkpt lat="44.91849" lon="5.19786">
        <ele>962</ele>
        <time>2019-07-11T17:22:03Z</time>
      </trkpt>
      <trkpt lat="44.91826" lon="5.19777">
        <ele>963</ele>
        <time>2019-07-11T17:22:06Z</time>
      </trkpt>
      <trkpt lat="44.91772" lon="5.19751">
        <ele>960</ele>
        <time>2019-07-11T17:22:13Z</time>
      </trkpt>
      <trkpt lat="44.91743" lon="5.19741">
        <ele>960</ele>
        <time>2019-07-11T17:22:22Z</time>
      </trkpt>
      <trkpt lat="44.91726" lon="5.19731">
        <ele>959</ele>
        <time>2019-07-11T17:22:42Z</time>
      </trkpt>
      <trkpt lat="44.91655" lon="5.19677">
        <ele>948</ele>
        <time>2019-07-11T17:22:53Z</time>
      </trkpt>
      <trkpt lat="44.91589" lon="5.19641">
        <ele>938</ele>
        <time>2019-07-11T17:23:04Z</time>
      </trkpt>
      <trkpt lat="44.91511" lon="5.19623">
        <ele>931</ele>
        <time>2019-07-11T17:23:14Z</time>
      </trkpt>
      <trkpt lat="44.91437" lon="5.1961">
        <ele>925</ele>
        <time>2019-07-11T17:23:23Z</time>
      </trkpt>
      <trkpt lat="44.91414" lon="5.19612">
        <ele>925</ele>
        <time>2019-07-11T17:23:29Z</time>
      </trkpt>
      <trkpt lat="44.91377" lon="5.19625">
        <ele>927</ele>
        <time>2019-07-11T17:23:35Z</time>
      </trkpt>
      <trkpt lat="44.91367" lon="5.19624">
        <ele>926</ele>
        <time>2019-07-11T17:23:43Z</time>
      </trkpt>
      <trkpt lat="44.91358" lon="5.19619">
        <ele>925</ele>
        <time>2019-07-11T17:23:52Z</time>
      </trkpt>
      <trkpt lat="44.91327" lon="5.19594">
        <ele>920</ele>
        <time>2019-07-11T17:23:58Z</time>
      </trkpt>
      <trkpt lat="44.91314" lon="5.19585">
        <ele>918</ele>
        <time>2019-07-11T17:24:03Z</time>
      </trkpt>
      <trkpt lat="44.91299" lon="5.1958">
        <ele>916</ele>
        <time>2019-07-11T17:24:08Z</time>
      </trkpt>
      <trkpt lat="44.91211" lon="5.19565">
        <ele>914</ele>
        <time>2019-07-11T17:24:14Z</time>
      </trkpt>
      <trkpt lat="44.91203" lon="5.19559">
        <ele>914</ele>
        <time>2019-07-11T17:24:26Z</time>
      </trkpt>
      <trkpt lat="44.91195" lon="5.1955">
        <ele>913</ele>
        <time>2019-07-11T17:24:31Z</time>
      </trkpt>
      <trkpt lat="44.91189" lon="5.19538">
        <ele>912</ele>
        <time>2019-07-11T17:24:40Z</time>
      </trkpt>
      <trkpt lat="44.91187" lon="5.19526">
        <ele>911</ele>
        <time>2019-07-11T17:24:46Z</time>
      </trkpt>
      <trkpt lat="44.91185" lon="5.19503">
        <ele>908</ele>
        <time>2019-07-11T17:24:53Z</time>
      </trkpt>
      <trkpt lat="44.91189" lon="5.19451">
        <ele>909</ele>
        <time>2019-07-11T17:25:06Z</time>
      </trkpt>
      <trkpt lat="44.91192" lon="5.19423">
        <ele>910</ele>
        <time>2019-07-11T17:25:19Z</time>
      </trkpt>
      <trkpt lat="44.91201" lon="5.19385">
        <ele>912</ele>
        <time>2019-07-11T17:25:25Z</time>
      </trkpt>
      <trkpt lat="44.91204" lon="5.1936">
        <ele>913</ele>
        <time>2019-07-11T17:25:30Z</time>
      </trkpt>
      <trkpt lat="44.91205" lon="5.19317">
        <ele>915</ele>
        <time>2019-07-11T17:25:35Z</time>
      </trkpt>
      <trkpt lat="44.91202" lon="5.1926">
        <ele>917</ele>
        <time>2019-07-11T17:25:45Z</time>
      </trkpt>
      <trkpt lat="44.91202" lon="5.1926">
        <ele>917</ele>
        <time>2019-07-11T17:25:58Z</time>
      </trkpt>
      <trkpt lat="44.91202" lon="5.1926">
        <ele>917</ele>
        <time>2019-07-11T17:26:15Z</time>
      </trkpt>
      <trkpt lat="44.91227" lon="5.1926">
        <ele>918</ele>
        <time>2019-07-11T17:26:22Z</time>
      </trkpt>
      <trkpt lat="44.91225" lon="5.1925">
        <ele>918</ele>
        <time>2019-07-11T17:26:31Z</time>
      </trkpt>
      <trkpt lat="44.91219" lon="5.19238">
        <ele>920</ele>
        <time>2019-07-11T17:26:38Z</time>
      </trkpt>
      <trkpt lat="44.91225" lon="5.1925">
        <ele>918</ele>
        <time>2019-07-11T17:26:45Z</time>
      </trkpt>
      <trkpt lat="44.91227" lon="5.1926">
        <ele>918</ele>
        <time>2019-07-11T17:26:51Z</time>
      </trkpt>
      <trkpt lat="44.91303" lon="5.1926">
        <ele>919</ele>
        <time>2019-07-11T17:26:59Z</time>
      </trkpt>
      <trkpt lat="44.9133" lon="5.19265">
        <ele>918</ele>
        <time>2019-07-11T17:27:15Z</time>
      </trkpt>
      <trkpt lat="44.91355" lon="5.19278">
        <ele>918</ele>
        <time>2019-07-11T17:27:25Z</time>
      </trkpt>
      <trkpt lat="44.91397" lon="5.19306">
        <ele>915</ele>
        <time>2019-07-11T17:27:33Z</time>
      </trkpt>
      <trkpt lat="44.91519" lon="5.19374">
        <ele>916</ele>
        <time>2019-07-11T17:27:41Z</time>
      </trkpt>
      <trkpt lat="44.91647" lon="5.19415">
        <ele>914</ele>
        <time>2019-07-11T17:27:47Z</time>
      </trkpt>
      <trkpt lat="44.91755" lon="5.19458">
        <ele>917</ele>
        <time>2019-07-11T17:27:50Z</time>
      </trkpt>
      <trkpt lat="44.91808" lon="5.19485">
        <ele>917</ele>
        <time>2019-07-11T17:27:55Z</time>
      </trkpt>
      <trkpt lat="44.91891" lon="5.19539">
        <ele>917</ele>
        <time>2019-07-11T17:28:01Z</time>
      </trkpt>
      <trkpt lat="44.91924" lon="5.19567">
        <ele>913</ele>
        <time>2019-07-11T17:28:16Z</time>
      </trkpt>
      <trkpt lat="44.91935" lon="5.19571">
        <ele>913</ele>
        <time>2019-07-11T17:28:22Z</time>
      </trkpt>
      <trkpt lat="44.9198" lon="5.1958">
        <ele>914</ele>
        <time>2019-07-11T17:28:31Z</time>
      </trkpt>
      <trkpt lat="44.92005" lon="5.19592">
        <ele>914</ele>
        <time>2019-07-11T17:28:38Z</time>
      </trkpt>
      <trkpt lat="44.92052" lon="5.19631">
        <ele>914</ele>
        <time>2019-07-11T17:28:47Z</time>
      </trkpt>
      <trkpt lat="44.92083" lon="5.19642">
        <ele>913</ele>
        <time>2019-07-11T17:28:53Z</time>
      </trkpt>
      <trkpt lat="44.92154" lon="5.19699">
        <ele>911</ele>
        <time>2019-07-11T17:28:57Z</time>
      </trkpt>
      <trkpt lat="44.92176" lon="5.19726">
        <ele>906</ele>
        <time>2019-07-11T17:29:01Z</time>
      </trkpt>
      <trkpt lat="44.92185" lon="5.19733">
        <ele>905</ele>
        <time>2019-07-11T17:29:05Z</time>
      </trkpt>
      <trkpt lat="44.92261" lon="5.19771">
        <ele>906</ele>
        <time>2019-07-11T17:29:10Z</time>
      </trkpt>
      <trkpt lat="44.92291" lon="5.19794">
        <ele>905</ele>
        <time>2019-07-11T17:29:14Z</time>
      </trkpt>
      <trkpt lat="44.92326" lon="5.19808">
        <ele>904</ele>
        <time>2019-07-11T17:29:24Z</time>
      </trkpt>
      <trkpt lat="44.92361" lon="5.19806">
        <ele>905</ele>
        <time>2019-07-11T17:29:31Z</time>
      </trkpt>
      <trkpt lat="44.92387" lon="5.19801">
        <ele>907</ele>
        <time>2019-07-11T17:29:39Z</time>
      </trkpt>
      <trkpt lat="44.92407" lon="5.19802">
        <ele>907</ele>
        <time>2019-07-11T17:29:55Z</time>
      </trkpt>
      <trkpt lat="44.92453" lon="5.19814">
        <ele>905</ele>
        <time>2019-07-11T17:30:03Z</time>
      </trkpt>
      <trkpt lat="44.92518" lon="5.19828">
        <ele>901</ele>
        <time>2019-07-11T17:30:11Z</time>
      </trkpt>
      <trkpt lat="44.92582" lon="5.19837">
        <ele>900</ele>
        <time>2019-07-11T17:30:18Z</time>
      </trkpt>
      <trkpt lat="44.92645" lon="5.19828">
        <ele>901</ele>
        <time>2019-07-11T17:30:43Z</time>
      </trkpt>
      <trkpt lat="44.92695" lon="5.19846">
        <ele>899</ele>
        <time>2019-07-11T17:30:54Z</time>
      </trkpt>
      <trkpt lat="44.92714" lon="5.19848">
        <ele>899</ele>
        <time>2019-07-11T17:31:04Z</time>
      </trkpt>
      <trkpt lat="44.92726" lon="5.19833">
        <ele>899</ele>
        <time>2019-07-11T17:31:19Z</time>
      </trkpt>
      <trkpt lat="44.9276" lon="5.19822">
        <ele>903</ele>
        <time>2019-07-11T17:31:28Z</time>
      </trkpt>
      <trkpt lat="44.92813" lon="5.19831">
        <ele>905</ele>
        <time>2019-07-11T17:31:37Z</time>
      </trkpt>
      <trkpt lat="44.92851" lon="5.19852">
        <ele>904</ele>
        <time>2019-07-11T17:31:48Z</time>
      </trkpt>
      <trkpt lat="44.92894" lon="5.19862">
        <ele>905</ele>
        <time>2019-07-11T17:32:08Z</time>
      </trkpt>
      <trkpt lat="44.9294" lon="5.19881">
        <ele>901</ele>
        <time>2019-07-11T17:32:14Z</time>
      </trkpt>
      <trkpt lat="44.93017" lon="5.19893">
        <ele>901</ele>
        <time>2019-07-11T17:32:25Z</time>
      </trkpt>
      <trkpt lat="44.93042" lon="5.19905">
        <ele>896</ele>
        <time>2019-07-11T17:32:39Z</time>
      </trkpt>
      <trkpt lat="44.93102" lon="5.19953">
        <ele>888</ele>
        <time>2019-07-11T17:32:56Z</time>
      </trkpt>
      <trkpt lat="44.93126" lon="5.19967">
        <ele>887</ele>
        <time>2019-07-11T17:33:03Z</time>
      </trkpt>
      <trkpt lat="44.93172" lon="5.19981">
        <ele>884</ele>
        <time>2019-07-11T17:33:09Z</time>
      </trkpt>
      <trkpt lat="44.93211" lon="5.20004">
        <ele>878</ele>
        <time>2019-07-11T17:33:15Z</time>
      </trkpt>
      <trkpt lat="44.93231" lon="5.20011">
        <ele>878</ele>
        <time>2019-07-11T17:33:21Z</time>
      </trkpt>
      <trkpt lat="44.93289" lon="5.2001">
        <ele>877</ele>
        <time>2019-07-11T17:33:24Z</time>
      </trkpt>
      <trkpt lat="44.93313" lon="5.20015">
        <ele>877</ele>
        <time>2019-07-11T17:33:27Z</time>
      </trkpt>
      <trkpt lat="44.93364" lon="5.20046">
        <ele>876</ele>
        <time>2019-07-11T17:33:28Z</time>
      </trkpt>
      <trkpt lat="44.93538" lon="5.20131">
        <ele>873</ele>
        <time>2019-07-11T17:33:30Z</time>
      </trkpt>
      <trkpt lat="44.93564" lon="5.20147">
        <ele>868</ele>
        <time>2019-07-11T17:33:34Z</time>
      </trkpt>
      <trkpt lat="44.93586" lon="5.20163">
        <ele>861</ele>
        <time>2019-07-11T17:33:37Z</time>
      </trkpt>
      <trkpt lat="44.93686" lon="5.2022">
        <ele>863</ele>
        <time>2019-07-11T17:33:41Z</time>
      </trkpt>
      <trkpt lat="44.93866" lon="5.20334">
        <ele>856</ele>
        <time>2019-07-11T17:33:44Z</time>
      </trkpt>
      <trkpt lat="44.93874" lon="5.20342">
        <ele>857</ele>
        <time>2019-07-11T17:33:46Z</time>
      </trkpt>
      <trkpt lat="44.93888" lon="5.20376">
        <ele>850</ele>
        <time>2019-07-11T17:33:49Z</time>
      </trkpt>
      <trkpt lat="44.93986" lon="5.20441">
        <ele>849</ele>
        <time>2019-07-11T17:33:51Z</time>
      </trkpt>
      <trkpt lat="44.9401" lon="5.20461">
        <ele>845</ele>
        <time>2019-07-11T17:33:53Z</time>
      </trkpt>
      <trkpt lat="44.94038" lon="5.20496">
        <ele>838</ele>
        <time>2019-07-11T17:33:58Z</time>
      </trkpt>
      <trkpt lat="44.94116" lon="5.20527">
        <ele>843</ele>
        <time>2019-07-11T17:34:02Z</time>
      </trkpt>
      <trkpt lat="44.94136" lon="5.20556">
        <ele>836</ele>
        <time>2019-07-11T17:34:06Z</time>
      </trkpt>
      <trkpt lat="44.94181" lon="5.2057">
        <ele>836</ele>
        <time>2019-07-11T17:34:13Z</time>
      </trkpt>
      <trkpt lat="44.942" lon="5.20584">
        <ele>834</ele>
        <time>2019-07-11T17:34:18Z</time>
      </trkpt>
      <trkpt lat="44.94304" lon="5.20715">
        <ele>820</ele>
        <time>2019-07-11T17:34:23Z</time>
      </trkpt>
      <trkpt lat="44.94338" lon="5.20733">
        <ele>818</ele>
        <time>2019-07-11T17:34:28Z</time>
      </trkpt>
      <trkpt lat="44.94421" lon="5.2077">
        <ele>819</ele>
        <time>2019-07-11T17:34:37Z</time>
      </trkpt>
      <trkpt lat="44.945" lon="5.20841">
        <ele>813</ele>
        <time>2019-07-11T17:34:49Z</time>
      </trkpt>
      <trkpt lat="44.94619" lon="5.20896">
        <ele>813</ele>
        <time>2019-07-11T17:34:54Z</time>
      </trkpt>
      <trkpt lat="44.9469" lon="5.20911">
        <ele>812</ele>
        <time>2019-07-11T17:35:00Z</time>
      </trkpt>
      <trkpt lat="44.94711" lon="5.2091">
        <ele>813</ele>
        <time>2019-07-11T17:35:04Z</time>
      </trkpt>
      <trkpt lat="44.9473" lon="5.20889">
        <ele>822</ele>
        <time>2019-07-11T17:35:07Z</time>
      </trkpt>
      <trkpt lat="44.9474" lon="5.20888">
        <ele>823</ele>
        <time>2019-07-11T17:35:14Z</time>
      </trkpt>
      <trkpt lat="44.9475" lon="5.20899">
        <ele>819</ele>
        <time>2019-07-11T17:35:18Z</time>
      </trkpt>
      <trkpt lat="44.94766" lon="5.20946">
        <ele>809</ele>
        <time>2019-07-11T17:35:24Z</time>
      </trkpt>
      <trkpt lat="44.94789" lon="5.20966">
        <ele>806</ele>
        <time>2019-07-11T17:35:28Z</time>
      </trkpt>
      <trkpt lat="44.94811" lon="5.20968">
        <ele>807</ele>
        <time>2019-07-11T17:35:35Z</time>
      </trkpt>
      <trkpt lat="44.94837" lon="5.20966">
        <ele>810</ele>
        <time>2019-07-11T17:35:46Z</time>
      </trkpt>
      <trkpt lat="44.94867" lon="5.20972">
        <ele>815</ele>
        <time>2019-07-11T17:35:58Z</time>
      </trkpt>
      <trkpt lat="44.94898" lon="5.21005">
        <ele>810</ele>
        <time>2019-07-11T17:36:01Z</time>
      </trkpt>
      <trkpt lat="44.94937" lon="5.21055">
        <ele>804</ele>
        <time>2019-07-11T17:36:04Z</time>
      </trkpt>
      <trkpt lat="44.94957" lon="5.21097">
        <ele>799</ele>
        <time>2019-07-11T17:36:07Z</time>
      </trkpt>
      <trkpt lat="44.94976" lon="5.21111">
        <ele>800</ele>
        <time>2019-07-11T17:36:32Z</time>
      </trkpt>
      <trkpt lat="44.94999" lon="5.2112">
        <ele>800</ele>
        <time>2019-07-11T17:36:42Z</time>
      </trkpt>
      <trkpt lat="44.95025" lon="5.21154">
        <ele>796</ele>
        <time>2019-07-11T17:36:46Z</time>
      </trkpt>
      <trkpt lat="44.95042" lon="5.21163">
        <ele>795</ele>
        <time>2019-07-11T17:36:52Z</time>
      </trkpt>
      <trkpt lat="44.95083" lon="5.21163">
        <ele>797</ele>
        <time>2019-07-11T17:36:57Z</time>
      </trkpt>
      <trkpt lat="44.9513" lon="5.21187">
        <ele>799</ele>
        <time>2019-07-11T17:37:03Z</time>
      </trkpt>
      <trkpt lat="44.95232" lon="5.21263">
        <ele>787</ele>
        <time>2019-07-11T17:37:06Z</time>
      </trkpt>
      <trkpt lat="44.95289" lon="5.21288">
        <ele>790</ele>
        <time>2019-07-11T17:37:08Z</time>
      </trkpt>
      <trkpt lat="44.95348" lon="5.21311">
        <ele>787</ele>
        <time>2019-07-11T17:37:12Z</time>
      </trkpt>
      <trkpt lat="44.95396" lon="5.21352">
        <ele>783</ele>
        <time>2019-07-11T17:37:35Z</time>
      </trkpt>
      <trkpt lat="44.9544" lon="5.21393">
        <ele>776</ele>
        <time>2019-07-11T17:37:40Z</time>
      </trkpt>
      <trkpt lat="44.95469" lon="5.21409">
        <ele>770</ele>
        <time>2019-07-11T17:37:46Z</time>
      </trkpt>
      <trkpt lat="44.95506" lon="5.21408">
        <ele>769</ele>
        <time>2019-07-11T17:38:10Z</time>
      </trkpt>
      <trkpt lat="44.95547" lon="5.2142">
        <ele>769</ele>
        <time>2019-07-11T17:38:16Z</time>
      </trkpt>
      <trkpt lat="44.95591" lon="5.21451">
        <ele>767</ele>
        <time>2019-07-11T17:38:24Z</time>
      </trkpt>
      <trkpt lat="44.95615" lon="5.21487">
        <ele>764</ele>
        <time>2019-07-11T17:38:35Z</time>
      </trkpt>
      <trkpt lat="44.95631" lon="5.21525">
        <ele>761</ele>
        <time>2019-07-11T17:38:47Z</time>
      </trkpt>
      <trkpt lat="44.95643" lon="5.21561">
        <ele>757</ele>
        <time>2019-07-11T17:38:55Z</time>
      </trkpt>
      <trkpt lat="44.95671" lon="5.21584">
        <ele>750</ele>
        <time>2019-07-11T17:39:16Z</time>
      </trkpt>
      <trkpt lat="44.95735" lon="5.21595">
        <ele>752</ele>
        <time>2019-07-11T17:39:22Z</time>
      </trkpt>
      <trkpt lat="44.95762" lon="5.21587">
        <ele>751</ele>
        <time>2019-07-11T17:39:29Z</time>
      </trkpt>
      <trkpt lat="44.95815" lon="5.21564">
        <ele>756</ele>
        <time>2019-07-11T17:39:33Z</time>
      </trkpt>
      <trkpt lat="44.95845" lon="5.21568">
        <ele>754</ele>
        <time>2019-07-11T17:39:37Z</time>
      </trkpt>
      <trkpt lat="44.95882" lon="5.21587">
        <ele>747</ele>
        <time>2019-07-11T17:39:41Z</time>
      </trkpt>
      <trkpt lat="44.95956" lon="5.21612">
        <ele>747</ele>
        <time>2019-07-11T17:39:44Z</time>
      </trkpt>
      <trkpt lat="44.96028" lon="5.21627">
        <ele>745</ele>
        <time>2019-07-11T17:39:48Z</time>
      </trkpt>
      <trkpt lat="44.96056" lon="5.21646">
        <ele>741</ele>
        <time>2019-07-11T17:39:53Z</time>
      </trkpt>
      <trkpt lat="44.96075" lon="5.21674">
        <ele>735</ele>
        <time>2019-07-11T17:40:08Z</time>
      </trkpt>
      <trkpt lat="44.96095" lon="5.21708">
        <ele>735</ele>
        <time>2019-07-11T17:40:22Z</time>
      </trkpt>
      <trkpt lat="44.96146" lon="5.21744">
        <ele>735</ele>
        <time>2019-07-11T17:40:30Z</time>
      </trkpt>
      <trkpt lat="44.96205" lon="5.21802">
        <ele>739</ele>
        <time>2019-07-11T17:40:33Z</time>
      </trkpt>
      <trkpt lat="44.9628" lon="5.21885">
        <ele>732</ele>
        <time>2019-07-11T17:40:35Z</time>
      </trkpt>
      <trkpt lat="44.96317" lon="5.21907">
        <ele>729</ele>
        <time>2019-07-11T17:40:37Z</time>
      </trkpt>
      <trkpt lat="44.96362" lon="5.21924">
        <ele>730</ele>
        <time>2019-07-11T17:40:44Z</time>
      </trkpt>
      <trkpt lat="44.96398" lon="5.21954">
        <ele>731</ele>
        <time>2019-07-11T17:40:49Z</time>
      </trkpt>
      <trkpt lat="44.96435" lon="5.2197">
        <ele>734</ele>
        <time>2019-07-11T17:40:51Z</time>
      </trkpt>
      <trkpt lat="44.96467" lon="5.21993">
        <ele>736</ele>
        <time>2019-07-11T17:40:55Z</time>
      </trkpt>
      <trkpt lat="44.96499" lon="5.22036">
        <ele>733</ele>
        <time>2019-07-11T17:41:03Z</time>
      </trkpt>
      <trkpt lat="44.96557" lon="5.22131">
        <ele>727</ele>
        <time>2019-07-11T17:41:09Z</time>
      </trkpt>
      <trkpt lat="44.96598" lon="5.22182">
        <ele>724</ele>
        <time>2019-07-11T17:41:10Z</time>
      </trkpt>
      <trkpt lat="44.96628" lon="5.22228">
        <ele>725</ele>
        <time>2019-07-11T17:41:22Z</time>
      </trkpt>
      <trkpt lat="44.96647" lon="5.22287">
        <ele>718</ele>
        <time>2019-07-11T17:41:31Z</time>
      </trkpt>
      <trkpt lat="44.96656" lon="5.22331">
        <ele>708</ele>
        <time>2019-07-11T17:41:33Z</time>
      </trkpt>
      <trkpt lat="44.96669" lon="5.22355">
        <ele>703</ele>
        <time>2019-07-11T17:41:37Z</time>
      </trkpt>
      <trkpt lat="44.96696" lon="5.2237">
        <ele>703</ele>
        <time>2019-07-11T17:41:39Z</time>
      </trkpt>
      <trkpt lat="44.96727" lon="5.22373">
        <ele>705</ele>
        <time>2019-07-11T17:41:41Z</time>
      </trkpt>
      <trkpt lat="44.96809" lon="5.22354">
        <ele>713</ele>
        <time>2019-07-11T17:41:48Z</time>
      </trkpt>
      <trkpt lat="44.96846" lon="5.22361">
        <ele>714</ele>
        <time>2019-07-11T17:41:49Z</time>
      </trkpt>
      <trkpt lat="44.96887" lon="5.22392">
        <ele>713</ele>
        <time>2019-07-11T17:41:55Z</time>
      </trkpt>
      <trkpt lat="44.9691" lon="5.22437">
        <ele>706</ele>
        <time>2019-07-11T17:41:58Z</time>
      </trkpt>
      <trkpt lat="44.96927" lon="5.22508">
        <ele>695</ele>
        <time>2019-07-11T17:42:04Z</time>
      </trkpt>
      <trkpt lat="44.96936" lon="5.22555">
        <ele>689</ele>
        <time>2019-07-11T17:42:11Z</time>
      </trkpt>
      <trkpt lat="44.96953" lon="5.22578">
        <ele>692</ele>
        <time>2019-07-11T17:42:18Z</time>
      </trkpt>
      <trkpt lat="44.96964" lon="5.226">
        <ele>695</ele>
        <time>2019-07-11T17:42:21Z</time>
      </trkpt>
      <trkpt lat="44.96964" lon="5.22631">
        <ele>692</ele>
        <time>2019-07-11T17:42:25Z</time>
      </trkpt>
      <trkpt lat="44.96957" lon="5.22668">
        <ele>686</ele>
        <time>2019-07-11T17:42:32Z</time>
      </trkpt>
      <trkpt lat="44.96952" lon="5.22706">
        <ele>683</ele>
        <time>2019-07-11T17:42:37Z</time>
      </trkpt>
      <trkpt lat="44.9696" lon="5.22778">
        <ele>684</ele>
        <time>2019-07-11T17:42:44Z</time>
      </trkpt>
      <trkpt lat="44.96964" lon="5.22835">
        <ele>681</ele>
        <time>2019-07-11T17:42:47Z</time>
      </trkpt>
      <trkpt lat="44.96977" lon="5.22894">
        <ele>676</ele>
        <time>2019-07-11T17:42:52Z</time>
      </trkpt>
      <trkpt lat="44.97026" lon="5.23002">
        <ele>672</ele>
        <time>2019-07-11T17:42:55Z</time>
      </trkpt>
      <trkpt lat="44.97044" lon="5.23059">
        <ele>672</ele>
        <time>2019-07-11T17:43:05Z</time>
      </trkpt>
      <trkpt lat="44.97053" lon="5.23128">
        <ele>665</ele>
        <time>2019-07-11T17:43:20Z</time>
      </trkpt>
      <trkpt lat="44.97063" lon="5.23182">
        <ele>660</ele>
        <time>2019-07-11T17:43:29Z</time>
      </trkpt>
      <trkpt lat="44.97123" lon="5.23357">
        <ele>659</ele>
        <time>2019-07-11T17:43:39Z</time>
      </trkpt>
      <trkpt lat="44.97146" lon="5.23437">
        <ele>659</ele>
        <time>2019-07-11T17:43:43Z</time>
      </trkpt>
      <trkpt lat="44.97162" lon="5.23515">
        <ele>656</ele>
        <time>2019-07-11T17:43:46Z</time>
      </trkpt>
      <trkpt lat="44.97182" lon="5.23632">
        <ele>650</ele>
        <time>2019-07-11T17:43:55Z</time>
      </trkpt>
      <trkpt lat="44.97189" lon="5.23702">
        <ele>646</ele>
        <time>2019-07-11T17:44:08Z</time>
      </trkpt>
      <trkpt lat="44.97187" lon="5.23776">
        <ele>634</ele>
        <time>2019-07-11T17:44:27Z</time>
      </trkpt>
      <trkpt lat="44.97212" lon="5.23848">
        <ele>639</ele>
        <time>2019-07-11T17:44:34Z</time>
      </trkpt>
      <trkpt lat="44.97231" lon="5.24008">
        <ele>625</ele>
        <time>2019-07-11T17:44:40Z</time>
      </trkpt>
      <trkpt lat="44.97243" lon="5.24057">
        <ele>622</ele>
        <time>2019-07-11T17:44:48Z</time>
      </trkpt>
      <trkpt lat="44.97278" lon="5.2412">
        <ele>618</ele>
        <time>2019-07-11T17:44:59Z</time>
      </trkpt>
      <trkpt lat="44.97339" lon="5.24194">
        <ele>619</ele>
        <time>2019-07-11T17:45:06Z</time>
      </trkpt>
      <trkpt lat="44.97402" lon="5.24301">
        <ele>609</ele>
        <time>2019-07-11T17:45:14Z</time>
      </trkpt>
      <trkpt lat="44.97424" lon="5.24348">
        <ele>604</ele>
        <time>2019-07-11T17:45:22Z</time>
      </trkpt>
      <trkpt lat="44.97429" lon="5.24389">
        <ele>599</ele>
        <time>2019-07-11T17:46:03Z</time>
      </trkpt>
      <trkpt lat="44.9744" lon="5.24434">
        <ele>594</ele>
        <time>2019-07-11T17:46:08Z</time>
      </trkpt>
      <trkpt lat="44.97472" lon="5.24451">
        <ele>598</ele>
        <time>2019-07-11T17:46:22Z</time>
      </trkpt>
      <trkpt lat="44.97484" lon="5.24473">
        <ele>599</ele>
        <time>2019-07-11T17:46:30Z</time>
      </trkpt>
      <trkpt lat="44.97497" lon="5.2447">
        <ele>603</ele>
        <time>2019-07-11T17:46:46Z</time>
      </trkpt>
      <trkpt lat="44.97501" lon="5.24459">
        <ele>604</ele>
        <time>2019-07-11T17:46:54Z</time>
      </trkpt>
      <trkpt lat="44.97499" lon="5.24444">
        <ele>605</ele>
        <time>2019-07-11T17:47:03Z</time>
      </trkpt>
      <trkpt lat="44.97486" lon="5.24422">
        <ele>604</ele>
        <time>2019-07-11T17:47:36Z</time>
      </trkpt>
      <trkpt lat="44.97481" lon="5.244">
        <ele>605</ele>
        <time>2019-07-11T17:47:46Z</time>
      </trkpt>
      <trkpt lat="44.97488" lon="5.24365">
        <ele>608</ele>
        <time>2019-07-11T17:47:55Z</time>
      </trkpt>
      <trkpt lat="44.97499" lon="5.24351">
        <ele>610</ele>
        <time>2019-07-11T17:48:05Z</time>
      </trkpt>
      <trkpt lat="44.9751" lon="5.24342">
        <ele>610</ele>
        <time>2019-07-11T17:48:08Z</time>
      </trkpt>
      <trkpt lat="44.97524" lon="5.24337">
        <ele>611</ele>
        <time>2019-07-11T17:48:14Z</time>
      </trkpt>
      <trkpt lat="44.97536" lon="5.2434">
        <ele>610</ele>
        <time>2019-07-11T17:48:24Z</time>
      </trkpt>
      <trkpt lat="44.97548" lon="5.24347">
        <ele>610</ele>
        <time>2019-07-11T17:48:29Z</time>
      </trkpt>
      <trkpt lat="44.97562" lon="5.24377">
        <ele>607</ele>
        <time>2019-07-11T17:48:34Z</time>
      </trkpt>
      <trkpt lat="44.97583" lon="5.24401">
        <ele>604</ele>
        <time>2019-07-11T17:48:46Z</time>
      </trkpt>
      <trkpt lat="44.97602" lon="5.24417">
        <ele>602</ele>
        <time>2019-07-11T17:48:54Z</time>
      </trkpt>
      <trkpt lat="44.97636" lon="5.2443">
        <ele>601</ele>
        <time>2019-07-11T17:50:43Z</time>
      </trkpt>
      <trkpt lat="44.97667" lon="5.24434">
        <ele>600</ele>
        <time>2019-07-11T17:50:49Z</time>
      </trkpt>
      <trkpt lat="44.9769" lon="5.24445">
        <ele>599</ele>
        <time>2019-07-11T17:50:55Z</time>
      </trkpt>
      <trkpt lat="44.97714" lon="5.24468">
        <ele>597</ele>
        <time>2019-07-11T17:51:13Z</time>
      </trkpt>
      <trkpt lat="44.97749" lon="5.24528">
        <ele>588</ele>
        <time>2019-07-11T17:51:18Z</time>
      </trkpt>
      <trkpt lat="44.97794" lon="5.24595">
        <ele>579</ele>
        <time>2019-07-11T17:51:27Z</time>
      </trkpt>
      <trkpt lat="44.97817" lon="5.24611">
        <ele>580</ele>
        <time>2019-07-11T17:52:36Z</time>
      </trkpt>
      <trkpt lat="44.97854" lon="5.24613">
        <ele>581</ele>
        <time>2019-07-11T17:52:40Z</time>
      </trkpt>
      <trkpt lat="44.97875" lon="5.2461">
        <ele>581</ele>
        <time>2019-07-11T17:53:33Z</time>
      </trkpt>
      <trkpt lat="44.97889" lon="5.24629">
        <ele>579</ele>
        <time>2019-07-11T17:53:47Z</time>
      </trkpt>
      <trkpt lat="44.97889" lon="5.24678">
        <ele>574</ele>
        <time>2019-07-11T17:53:51Z</time>
      </trkpt>
      <trkpt lat="44.97897" lon="5.24709">
        <ele>570</ele>
        <time>2019-07-11T17:53:54Z</time>
      </trkpt>
      <trkpt lat="44.9792" lon="5.24741">
        <ele>567</ele>
        <time>2019-07-11T17:54:04Z</time>
      </trkpt>
      <trkpt lat="44.97945" lon="5.24751">
        <ele>564</ele>
        <time>2019-07-11T17:54:10Z</time>
      </trkpt>
      <trkpt lat="44.97985" lon="5.24747">
        <ele>563</ele>
        <time>2019-07-11T15:07:41Z</time>
      </trkpt>
      <trkpt lat="44.98044" lon="5.24726">
        <ele>563</ele>
        <time>2019-07-11T15:07:41Z</time>
      </trkpt>
      <trkpt lat="44.98102" lon="5.24676">
        <ele>566</ele>
        <time>2019-07-11T15:07:42Z</time>
      </trkpt>
      <trkpt lat="44.98117" lon="5.24691">
        <ele>562</ele>
        <time>2019-07-11T15:07:43Z</time>
      </trkpt>
      <trkpt lat="44.98117" lon="5.2471">
        <ele>559</ele>
        <time>2019-07-11T15:07:46Z</time>
      </trkpt>
      <trkpt lat="44.98103" lon="5.24724">
        <ele>558</ele>
        <time>2019-07-11T15:07:46Z</time>
      </trkpt>
      <trkpt lat="44.97995" lon="5.24848">
        <ele>549</ele>
        <time>2019-07-11T15:07:50Z</time>
      </trkpt>
      <trkpt lat="44.9795" lon="5.24906">
        <ele>541</ele>
        <time>2019-07-11T15:08:03Z</time>
      </trkpt>
      <trkpt lat="44.97929" lon="5.24915">
        <ele>540</ele>
        <time>2019-07-11T15:08:08Z</time>
      </trkpt>
      <trkpt lat="44.979" lon="5.24924">
        <ele>540</ele>
        <time>2019-07-11T15:08:12Z</time>
      </trkpt>
      <trkpt lat="44.97876" lon="5.24949">
        <ele>538</ele>
      </trkpt>
      <trkpt lat="44.97851" lon="5.24984">
        <ele>535</ele>
      </trkpt>
      <trkpt lat="44.97848" lon="5.25002">
        <ele>534</ele>
      </trkpt>
      <trkpt lat="44.97855" lon="5.25018">
        <ele>532</ele>
      </trkpt>
      <trkpt lat="44.97876" lon="5.25019">
        <ele>532</ele>
      </trkpt>
      <trkpt lat="44.98002" lon="5.24982">
        <ele>528</ele>
      </trkpt>
      <trkpt lat="44.98034" lon="5.24978">
        <ele>527</ele>
      </trkpt>
      <trkpt lat="44.98068" lon="5.24983">
        <ele>524</ele>
      </trkpt>
      <trkpt lat="44.98201" lon="5.25011">
        <ele>517</ele>
      </trkpt>
      <trkpt lat="44.98233" lon="5.25026">
        <ele>515</ele>
      </trkpt>
      <trkpt lat="44.98274" lon="5.25033">
        <ele>513</ele>
      </trkpt>
      <trkpt lat="44.98337" lon="5.25029">
        <ele>508</ele>
      </trkpt>
      <trkpt lat="44.98401" lon="5.25008">
        <ele>506</ele>
      </trkpt>
      <trkpt lat="44.98448" lon="5.25008">
        <ele>502</ele>
      </trkpt>
      <trkpt lat="44.98567" lon="5.25013">
        <ele>494</ele>
      </trkpt>
      <trkpt lat="44.986" lon="5.25005">
        <ele>494</ele>
      </trkpt>
      <trkpt lat="44.98637" lon="5.24987">
        <ele>495</ele>
      </trkpt>
      <trkpt lat="44.98659" lon="5.24986">
        <ele>494</ele>
      </trkpt>
      <trkpt lat="44.9868" lon="5.24998">
        <ele>492</ele>
      </trkpt>
      <trkpt lat="44.98693" lon="5.25028">
        <ele>490</ele>
      </trkpt>
      <trkpt lat="44.987" lon="5.25049">
        <ele>489</ele>
      </trkpt>
      <trkpt lat="44.98703" lon="5.2508">
        <ele>486</ele>
      </trkpt>
      <trkpt lat="44.98702" lon="5.2512">
        <ele>484</ele>
      </trkpt>
      <trkpt lat="44.98659" lon="5.25221">
        <ele>474</ele>
      </trkpt>
      <trkpt lat="44.98602" lon="5.25301">
        <ele>465</ele>
      </trkpt>
      <trkpt lat="44.98575" lon="5.25343">
        <ele>464</ele>
      </trkpt>
      <trkpt lat="44.98569" lon="5.25365">
        <ele>464</ele>
      </trkpt>
      <trkpt lat="44.98575" lon="5.2538">
        <ele>466</ele>
      </trkpt>
      <trkpt lat="44.98586" lon="5.25389">
        <ele>467</ele>
      </trkpt>
      <trkpt lat="44.98601" lon="5.25438">
        <ele>464</ele>
      </trkpt>
      <trkpt lat="44.98598" lon="5.25478">
        <ele>462</ele>
      </trkpt>
      <trkpt lat="44.98594" lon="5.25495">
        <ele>461</ele>
      </trkpt>
      <trkpt lat="44.98581" lon="5.25523">
        <ele>460</ele>
      </trkpt>
      <trkpt lat="44.98549" lon="5.25563">
        <ele>458</ele>
      </trkpt>
      <trkpt lat="44.98518" lon="5.25587">
        <ele>459</ele>
      </trkpt>
      <trkpt lat="44.98517" lon="5.25595">
        <ele>458</ele>
      </trkpt>
      <trkpt lat="44.98549" lon="5.25682">
        <ele>443</ele>
      </trkpt>
      <trkpt lat="44.98562" lon="5.25749">
        <ele>434</ele>
      </trkpt>
      <trkpt lat="44.98567" lon="5.25757">
        <ele>433</ele>
      </trkpt>
      <trkpt lat="44.98588" lon="5.2577">
        <ele>428</ele>
      </trkpt>
      <trkpt lat="44.98599" lon="5.25783">
        <ele>425</ele>
      </trkpt>
      <trkpt lat="44.98599" lon="5.258">
        <ele>424</ele>
      </trkpt>
      <trkpt lat="44.98586" lon="5.25849">
        <ele>423</ele>
      </trkpt>
      <trkpt lat="44.98586" lon="5.2586">
        <ele>422</ele>
      </trkpt>
      <trkpt lat="44.98617" lon="5.2588">
        <ele>415</ele>
      </trkpt>
      <trkpt lat="44.98631" lon="5.25876">
        <ele>412</ele>
      </trkpt>
      <trkpt lat="44.98658" lon="5.25844">
        <ele>409</ele>
      </trkpt>
      <trkpt lat="44.98691" lon="5.25819">
        <ele>408</ele>
      </trkpt>
      <trkpt lat="44.98725" lon="5.25795">
        <ele>408</ele>
      </trkpt>
      <trkpt lat="44.98745" lon="5.25796">
        <ele>407</ele>
      </trkpt>
      <trkpt lat="44.98762" lon="5.25818">
        <ele>403</ele>
      </trkpt>
      <trkpt lat="44.98799" lon="5.25818">
        <ele>402</ele>
      </trkpt>
      <trkpt lat="44.98824" lon="5.25799">
        <ele>404</ele>
      </trkpt>
      <trkpt lat="44.98866" lon="5.25796">
        <ele>403</ele>
      </trkpt>
      <trkpt lat="44.98878" lon="5.25807">
        <ele>401</ele>
      </trkpt>
      <trkpt lat="44.98881" lon="5.25844">
        <ele>396</ele>
      </trkpt>
      <trkpt lat="44.98892" lon="5.25869">
        <ele>393</ele>
      </trkpt>
      <trkpt lat="44.98947" lon="5.2587">
        <ele>392</ele>
      </trkpt>
      <trkpt lat="44.99024" lon="5.25907">
        <ele>389</ele>
      </trkpt>
      <trkpt lat="44.99039" lon="5.25982">
        <ele>381</ele>
      </trkpt>
      <trkpt lat="44.99064" lon="5.26051">
        <ele>374</ele>
      </trkpt>
      <trkpt lat="44.99084" lon="5.26056">
        <ele>375</ele>
      </trkpt>
      <trkpt lat="44.99095" lon="5.26077">
        <ele>371</ele>
      </trkpt>
      <trkpt lat="44.9905" lon="5.261">
        <ele>368</ele>
      </trkpt>
      <trkpt lat="44.98996" lon="5.26174">
        <ele>362</ele>
      </trkpt>
      <trkpt lat="44.98928" lon="5.26292">
        <ele>356</ele>
      </trkpt>
      <trkpt lat="44.98915" lon="5.26344">
        <ele>355</ele>
      </trkpt>
      <trkpt lat="44.98918" lon="5.26389">
        <ele>353</ele>
      </trkpt>
      <trkpt lat="44.9893" lon="5.26455">
        <ele>350</ele>
      </trkpt>
      <trkpt lat="44.98953" lon="5.26537">
        <ele>345</ele>
      </trkpt>
      <trkpt lat="44.9896" lon="5.26591">
        <ele>338</ele>
      </trkpt>
      <trkpt lat="44.98983" lon="5.26644">
        <ele>337</ele>
      </trkpt>
      <trkpt lat="44.99017" lon="5.26687">
        <ele>339</ele>
      </trkpt>
      <trkpt lat="44.99198" lon="5.26885">
        <ele>339</ele>
      </trkpt>
      <trkpt lat="44.99216" lon="5.26919">
        <ele>337</ele>
      </trkpt>
      <trkpt lat="44.99249" lon="5.27015">
        <ele>326</ele>
      </trkpt>
      <trkpt lat="44.99281" lon="5.27059">
        <ele>322</ele>
      </trkpt>
      <trkpt lat="44.99352" lon="5.27139">
        <ele>316</ele>
      </trkpt>
      <trkpt lat="44.99383" lon="5.27183">
        <ele>314</ele>
      </trkpt>
      <trkpt lat="44.99423" lon="5.27235">
        <ele>311</ele>
      </trkpt>
      <trkpt lat="44.99584" lon="5.27367">
        <ele>295</ele>
      </trkpt>
      <trkpt lat="44.99635" lon="5.27392">
        <ele>294</ele>
      </trkpt>
      <trkpt lat="44.99684" lon="5.27405">
        <ele>292</ele>
      </trkpt>
      <trkpt lat="44.99743" lon="5.27416">
        <ele>287</ele>
      </trkpt>
      <trkpt lat="44.99754" lon="5.27407">
        <ele>290</ele>
      </trkpt>
      <trkpt lat="44.99787" lon="5.27393">
        <ele>293</ele>
      </trkpt>
      <trkpt lat="44.99843" lon="5.27416">
        <ele>285</ele>
      </trkpt>
      <trkpt lat="44.99869" lon="5.27423">
        <ele>285</ele>
      </trkpt>
      <trkpt lat="44.99894" lon="5.27442">
        <ele>283</ele>
      </trkpt>
      <trkpt lat="44.99941" lon="5.27511">
        <ele>277</ele>
      </trkpt>
      <trkpt lat="44.99971" lon="5.27553">
        <ele>276</ele>
      </trkpt>
      <trkpt lat="45.0049" lon="5.28019">
        <ele>258</ele>
      </trkpt>
      <trkpt lat="45.00512" lon="5.28055">
        <ele>256</ele>
      </trkpt>
      <trkpt lat="45.00521" lon="5.28103">
        <ele>254</ele>
      </trkpt>
      <trkpt lat="45.0051" lon="5.28243">
        <ele>253</ele>
      </trkpt>
      <trkpt lat="45.00524" lon="5.2828">
        <ele>256</ele>
      </trkpt>
      <trkpt lat="45.00564" lon="5.28315">
        <ele>255</ele>
      </trkpt>
      <trkpt lat="45.00902" lon="5.28587">
        <ele>250</ele>
      </trkpt>
      <trkpt lat="45.00918" lon="5.28608">
        <ele>250</ele>
      </trkpt>
      <trkpt lat="45.01177" lon="5.28821">
        <ele>255</ele>
      </trkpt>
      <trkpt lat="45.01254" lon="5.28848">
        <ele>253</ele>
      </trkpt>
      <trkpt lat="45.01268" lon="5.28869">
        <ele>255</ele>
      </trkpt>
      <trkpt lat="45.0128" lon="5.28892">
        <ele>257</ele>
      </trkpt>
      <trkpt lat="45.01305" lon="5.28961">
        <ele>259</ele>
      </trkpt>
      <trkpt lat="45.0132" lon="5.29">
        <ele>260</ele>
      </trkpt>
      <trkpt lat="45.01341" lon="5.2905">
        <ele>258.9</ele>
      </trkpt>
      <trkpt lat="45.01342" lon="5.29056">
        <ele>260</ele>
      </trkpt>
      <trkpt lat="45.01342" lon="5.29056">
        <ele>260</ele>
      </trkpt>
      <trkpt lat="45.01344" lon="5.29059">
        <ele>260</ele>
      </trkpt>
      <trkpt lat="45.01343" lon="5.29072">
        <ele>261</ele>
      </trkpt>
      <trkpt lat="45.01335" lon="5.2909">
        <ele>263</ele>
      </trkpt>
      <trkpt lat="45.01335" lon="5.29094">
        <ele>263</ele>
      </trkpt>
      <trkpt lat="45.01355" lon="5.29099">
        <ele>263</ele>
      </trkpt>
      <trkpt lat="45.01428" lon="5.29121">
        <ele>261</ele>
      </trkpt>
      <trkpt lat="45.01454" lon="5.29118">
        <ele>259</ele>
      </trkpt>
    </trkseg>
  </trk>
</gpx>